<?xml version="1.0" encoding="UTF-8" standalone="no" ?>
<gpx xmlns="http://www.topografix.com/GPX/1/1" xmlns:xsi="http://www.w3.org/2001/XMLSchema-instance" xsi:schemaLocation="http://www.topografix.com/GPX/1/1 http://www.topografix.com/GPX/1/1/gpx.xsd" version="1.1" creator="VisuGPX - https://www.visugpx.com">
  <metadata>
    <name>VTT - Bethoncourt</name>
    <desc><![CDATA[sortie VTT - rando Bethoncourt dimanche 14 Avril - 35 Km ]]></desc>
  </metadata>
  <trk>
    <name><![CDATA[VTT - Bethoncourt_1]]></name>
    <trkseg>
      <trkpt lat="47.53092" lon="6.79334">
        <ele>318.14105224609</ele>
        <time>2019-04-14T06:43:34.000Z</time>
      </trkpt>
      <trkpt lat="47.53097" lon="6.79332">
        <ele>318.15466308594</ele>
        <time>2019-04-14T06:43:39.000Z</time>
      </trkpt>
      <trkpt lat="47.53097" lon="6.79332">
        <ele>318.15466308594</ele>
        <time>2019-04-14T06:43:59.000Z</time>
      </trkpt>
      <trkpt lat="47.53094" lon="6.79334">
        <ele>318.15380859375</ele>
        <time>2019-04-14T06:44:04.000Z</time>
      </trkpt>
      <trkpt lat="47.53097" lon="6.79333">
        <ele>318.15734863281</ele>
        <time>2019-04-14T06:44:18.000Z</time>
      </trkpt>
      <trkpt lat="47.53097" lon="6.79331">
        <ele>318.16128540039</ele>
        <time>2019-04-14T06:44:21.000Z</time>
      </trkpt>
      <trkpt lat="47.53097" lon="6.79333">
        <ele>318.16729736328</ele>
        <time>2019-04-14T06:44:32.000Z</time>
      </trkpt>
      <trkpt lat="47.53097" lon="6.79333">
        <ele>318.16729736328</ele>
        <time>2019-04-14T06:44:52.000Z</time>
      </trkpt>
      <trkpt lat="47.53096" lon="6.79335">
        <ele>318.1745300293</ele>
        <time>2019-04-14T06:45:37.000Z</time>
      </trkpt>
      <trkpt lat="47.53095" lon="6.79337">
        <ele>318.19131469727</ele>
        <time>2019-04-14T06:45:44.000Z</time>
      </trkpt>
      <trkpt lat="47.53096" lon="6.79337">
        <ele>318.21020507812</ele>
        <time>2019-04-14T06:45:53.000Z</time>
      </trkpt>
      <trkpt lat="47.53094" lon="6.7934">
        <ele>318.24188232422</ele>
        <time>2019-04-14T06:46:03.000Z</time>
      </trkpt>
      <trkpt lat="47.53096" lon="6.79336">
        <ele>318.25476074219</ele>
        <time>2019-04-14T06:46:06.000Z</time>
      </trkpt>
      <trkpt lat="47.53098" lon="6.79336">
        <ele>318.26452636719</ele>
        <time>2019-04-14T06:46:09.000Z</time>
      </trkpt>
      <trkpt lat="47.531" lon="6.79338">
        <ele>318.28399658203</ele>
        <time>2019-04-14T06:46:12.000Z</time>
      </trkpt>
      <trkpt lat="47.531" lon="6.79338">
        <ele>318.28399658203</ele>
        <time>2019-04-14T06:46:32.000Z</time>
      </trkpt>
      <trkpt lat="47.53098" lon="6.79342">
        <ele>318.31237792969</ele>
        <time>2019-04-14T06:47:14.000Z</time>
      </trkpt>
      <trkpt lat="47.53098" lon="6.79342">
        <ele>318.31237792969</ele>
        <time>2019-04-14T06:47:34.000Z</time>
      </trkpt>
      <trkpt lat="47.53099" lon="6.79343">
        <ele>318.33636474609</ele>
        <time>2019-04-14T06:48:05.000Z</time>
      </trkpt>
      <trkpt lat="47.53098" lon="6.79343">
        <ele>318.37783813477</ele>
        <time>2019-04-14T06:48:09.000Z</time>
      </trkpt>
      <trkpt lat="47.53095" lon="6.79343">
        <ele>318.41436767578</ele>
        <time>2019-04-14T06:48:12.000Z</time>
      </trkpt>
      <trkpt lat="47.53093" lon="6.79348">
        <ele>318.4621887207</ele>
        <time>2019-04-14T06:48:15.000Z</time>
      </trkpt>
      <trkpt lat="47.53093" lon="6.79353">
        <ele>318.52716064453</ele>
        <time>2019-04-14T06:48:18.000Z</time>
      </trkpt>
      <trkpt lat="47.53094" lon="6.79359">
        <ele>318.61590576172</ele>
        <time>2019-04-14T06:48:21.000Z</time>
      </trkpt>
      <trkpt lat="47.53093" lon="6.79366">
        <ele>318.74725341797</ele>
        <time>2019-04-14T06:48:24.000Z</time>
      </trkpt>
      <trkpt lat="47.53092" lon="6.79374">
        <ele>318.93188476562</ele>
        <time>2019-04-14T06:48:27.000Z</time>
      </trkpt>
      <trkpt lat="47.53091" lon="6.79381">
        <ele>319.13522338867</ele>
        <time>2019-04-14T06:48:30.000Z</time>
      </trkpt>
      <trkpt lat="47.53091" lon="6.79389">
        <ele>319.35934448242</ele>
        <time>2019-04-14T06:48:33.000Z</time>
      </trkpt>
      <trkpt lat="47.5309" lon="6.79395">
        <ele>319.59432983398</ele>
        <time>2019-04-14T06:48:36.000Z</time>
      </trkpt>
      <trkpt lat="47.53085" lon="6.79398">
        <ele>319.83163452148</ele>
        <time>2019-04-14T06:48:39.000Z</time>
      </trkpt>
      <trkpt lat="47.53081" lon="6.79397">
        <ele>320.07907104492</ele>
        <time>2019-04-14T06:48:42.000Z</time>
      </trkpt>
      <trkpt lat="47.53078" lon="6.79401">
        <ele>320.38403320312</ele>
        <time>2019-04-14T06:48:45.000Z</time>
      </trkpt>
      <trkpt lat="47.53072" lon="6.79404">
        <ele>320.82534790039</ele>
        <time>2019-04-14T06:48:48.000Z</time>
      </trkpt>
      <trkpt lat="47.53065" lon="6.79405">
        <ele>321.40863037109</ele>
        <time>2019-04-14T06:48:51.000Z</time>
      </trkpt>
      <trkpt lat="47.5306" lon="6.79405">
        <ele>322.08004760742</ele>
        <time>2019-04-14T06:48:54.000Z</time>
      </trkpt>
      <trkpt lat="47.53055" lon="6.79406">
        <ele>322.82562255859</ele>
        <time>2019-04-14T06:48:57.000Z</time>
      </trkpt>
      <trkpt lat="47.53052" lon="6.79407">
        <ele>323.54730224609</ele>
        <time>2019-04-14T06:49:00.000Z</time>
      </trkpt>
      <trkpt lat="47.53051" lon="6.79407">
        <ele>324.10382080078</ele>
        <time>2019-04-14T06:49:03.000Z</time>
      </trkpt>
      <trkpt lat="47.53051" lon="6.79405">
        <ele>324.46557617188</ele>
        <time>2019-04-14T06:49:17.000Z</time>
      </trkpt>
      <trkpt lat="47.53049" lon="6.79408">
        <ele>324.76593017578</ele>
        <time>2019-04-14T06:49:30.000Z</time>
      </trkpt>
      <trkpt lat="47.53049" lon="6.79408">
        <ele>324.76593017578</ele>
        <time>2019-04-14T06:49:50.000Z</time>
      </trkpt>
      <trkpt lat="47.53047" lon="6.79408">
        <ele>324.9905090332</ele>
        <time>2019-04-14T06:51:23.000Z</time>
      </trkpt>
      <trkpt lat="47.53046" lon="6.79409">
        <ele>325.17828369141</ele>
        <time>2019-04-14T06:51:26.000Z</time>
      </trkpt>
      <trkpt lat="47.53041" lon="6.7941">
        <ele>325.46417236328</ele>
        <time>2019-04-14T06:51:29.000Z</time>
      </trkpt>
      <trkpt lat="47.53034" lon="6.7941">
        <ele>325.94415283203</ele>
        <time>2019-04-14T06:51:32.000Z</time>
      </trkpt>
      <trkpt lat="47.53028" lon="6.79408">
        <ele>326.49310302734</ele>
        <time>2019-04-14T06:51:35.000Z</time>
      </trkpt>
      <trkpt lat="47.53029" lon="6.79397">
        <ele>326.85525512695</ele>
        <time>2019-04-14T06:51:38.000Z</time>
      </trkpt>
      <trkpt lat="47.5303" lon="6.79385">
        <ele>327.05999755859</ele>
        <time>2019-04-14T06:51:41.000Z</time>
      </trkpt>
      <trkpt lat="47.5303" lon="6.79373">
        <ele>327.03741455078</ele>
        <time>2019-04-14T06:51:44.000Z</time>
      </trkpt>
      <trkpt lat="47.53029" lon="6.79361">
        <ele>326.74493408203</ele>
        <time>2019-04-14T06:51:47.000Z</time>
      </trkpt>
      <trkpt lat="47.53029" lon="6.79349">
        <ele>326.20782470703</ele>
        <time>2019-04-14T06:51:50.000Z</time>
      </trkpt>
      <trkpt lat="47.53028" lon="6.79337">
        <ele>325.69891357422</ele>
        <time>2019-04-14T06:51:53.000Z</time>
      </trkpt>
      <trkpt lat="47.53028" lon="6.79324">
        <ele>325.31893920898</ele>
        <time>2019-04-14T06:51:56.000Z</time>
      </trkpt>
      <trkpt lat="47.53027" lon="6.7931">
        <ele>325.10827636719</ele>
        <time>2019-04-14T06:51:59.000Z</time>
      </trkpt>
      <trkpt lat="47.53026" lon="6.79295">
        <ele>325.03469848633</ele>
        <time>2019-04-14T06:52:02.000Z</time>
      </trkpt>
      <trkpt lat="47.53025" lon="6.79282">
        <ele>325.11968994141</ele>
        <time>2019-04-14T06:52:05.000Z</time>
      </trkpt>
      <trkpt lat="47.53024" lon="6.79267">
        <ele>325.35693359375</ele>
        <time>2019-04-14T06:52:08.000Z</time>
      </trkpt>
      <trkpt lat="47.53024" lon="6.79254">
        <ele>325.61315917969</ele>
        <time>2019-04-14T06:52:11.000Z</time>
      </trkpt>
      <trkpt lat="47.53024" lon="6.79239">
        <ele>325.88714599609</ele>
        <time>2019-04-14T06:52:14.000Z</time>
      </trkpt>
      <trkpt lat="47.53025" lon="6.79224">
        <ele>326.16064453125</ele>
        <time>2019-04-14T06:52:17.000Z</time>
      </trkpt>
      <trkpt lat="47.53027" lon="6.79209">
        <ele>326.40585327148</ele>
        <time>2019-04-14T06:52:20.000Z</time>
      </trkpt>
      <trkpt lat="47.5303" lon="6.79194">
        <ele>326.60778808594</ele>
        <time>2019-04-14T06:52:23.000Z</time>
      </trkpt>
      <trkpt lat="47.53032" lon="6.79179">
        <ele>326.83026123047</ele>
        <time>2019-04-14T06:52:26.000Z</time>
      </trkpt>
      <trkpt lat="47.53035" lon="6.79162">
        <ele>327.01065063477</ele>
        <time>2019-04-14T06:52:29.000Z</time>
      </trkpt>
      <trkpt lat="47.53037" lon="6.79146">
        <ele>327.16802978516</ele>
        <time>2019-04-14T06:52:32.000Z</time>
      </trkpt>
      <trkpt lat="47.5304" lon="6.7913">
        <ele>327.30856323242</ele>
        <time>2019-04-14T06:52:35.000Z</time>
      </trkpt>
      <trkpt lat="47.53043" lon="6.79116">
        <ele>327.43548583984</ele>
        <time>2019-04-14T06:52:38.000Z</time>
      </trkpt>
      <trkpt lat="47.53048" lon="6.79103">
        <ele>327.4736328125</ele>
        <time>2019-04-14T06:52:41.000Z</time>
      </trkpt>
      <trkpt lat="47.53053" lon="6.79091">
        <ele>327.416015625</ele>
        <time>2019-04-14T06:52:44.000Z</time>
      </trkpt>
      <trkpt lat="47.53059" lon="6.79082">
        <ele>327.23004150391</ele>
        <time>2019-04-14T06:52:47.000Z</time>
      </trkpt>
      <trkpt lat="47.53067" lon="6.79075">
        <ele>326.88705444336</ele>
        <time>2019-04-14T06:52:50.000Z</time>
      </trkpt>
      <trkpt lat="47.53075" lon="6.79067">
        <ele>326.39004516602</ele>
        <time>2019-04-14T06:52:53.000Z</time>
      </trkpt>
      <trkpt lat="47.53084" lon="6.79058">
        <ele>325.77325439453</ele>
        <time>2019-04-14T06:52:56.000Z</time>
      </trkpt>
      <trkpt lat="47.53093" lon="6.7905">
        <ele>325.18023681641</ele>
        <time>2019-04-14T06:52:59.000Z</time>
      </trkpt>
      <trkpt lat="47.53101" lon="6.79042">
        <ele>324.65292358398</ele>
        <time>2019-04-14T06:53:02.000Z</time>
      </trkpt>
      <trkpt lat="47.53109" lon="6.79034">
        <ele>324.24224853516</ele>
        <time>2019-04-14T06:53:05.000Z</time>
      </trkpt>
      <trkpt lat="47.53117" lon="6.79026">
        <ele>323.95132446289</ele>
        <time>2019-04-14T06:53:08.000Z</time>
      </trkpt>
      <trkpt lat="47.53125" lon="6.79018">
        <ele>323.77288818359</ele>
        <time>2019-04-14T06:53:11.000Z</time>
      </trkpt>
      <trkpt lat="47.53132" lon="6.79009">
        <ele>323.58715820312</ele>
        <time>2019-04-14T06:53:14.000Z</time>
      </trkpt>
      <trkpt lat="47.53141" lon="6.79">
        <ele>323.38656616211</ele>
        <time>2019-04-14T06:53:17.000Z</time>
      </trkpt>
      <trkpt lat="47.53149" lon="6.78991">
        <ele>323.22894287109</ele>
        <time>2019-04-14T06:53:20.000Z</time>
      </trkpt>
      <trkpt lat="47.53159" lon="6.78982">
        <ele>323.10263061523</ele>
        <time>2019-04-14T06:53:23.000Z</time>
      </trkpt>
      <trkpt lat="47.53168" lon="6.78974">
        <ele>323.01260375977</ele>
        <time>2019-04-14T06:53:26.000Z</time>
      </trkpt>
      <trkpt lat="47.53177" lon="6.78966">
        <ele>323.01776123047</ele>
        <time>2019-04-14T06:53:29.000Z</time>
      </trkpt>
      <trkpt lat="47.53186" lon="6.78959">
        <ele>323.12258911133</ele>
        <time>2019-04-14T06:53:32.000Z</time>
      </trkpt>
      <trkpt lat="47.53195" lon="6.7895">
        <ele>323.28063964844</ele>
        <time>2019-04-14T06:53:35.000Z</time>
      </trkpt>
      <trkpt lat="47.53204" lon="6.78943">
        <ele>323.49743652344</ele>
        <time>2019-04-14T06:53:38.000Z</time>
      </trkpt>
      <trkpt lat="47.53212" lon="6.78936">
        <ele>323.7724609375</ele>
        <time>2019-04-14T06:53:41.000Z</time>
      </trkpt>
      <trkpt lat="47.53222" lon="6.78929">
        <ele>324.04309082031</ele>
        <time>2019-04-14T06:53:44.000Z</time>
      </trkpt>
      <trkpt lat="47.53232" lon="6.7892">
        <ele>324.32067871094</ele>
        <time>2019-04-14T06:53:47.000Z</time>
      </trkpt>
      <trkpt lat="47.53243" lon="6.78912">
        <ele>324.59475708008</ele>
        <time>2019-04-14T06:53:50.000Z</time>
      </trkpt>
      <trkpt lat="47.53254" lon="6.78904">
        <ele>324.85717773438</ele>
        <time>2019-04-14T06:53:53.000Z</time>
      </trkpt>
      <trkpt lat="47.53265" lon="6.78896">
        <ele>325.07754516602</ele>
        <time>2019-04-14T06:53:56.000Z</time>
      </trkpt>
      <trkpt lat="47.53277" lon="6.78888">
        <ele>325.26702880859</ele>
        <time>2019-04-14T06:53:59.000Z</time>
      </trkpt>
      <trkpt lat="47.53289" lon="6.78881">
        <ele>325.40411376953</ele>
        <time>2019-04-14T06:54:02.000Z</time>
      </trkpt>
      <trkpt lat="47.53301" lon="6.78877">
        <ele>325.47467041016</ele>
        <time>2019-04-14T06:54:05.000Z</time>
      </trkpt>
      <trkpt lat="47.53312" lon="6.78873">
        <ele>325.49569702148</ele>
        <time>2019-04-14T06:54:08.000Z</time>
      </trkpt>
      <trkpt lat="47.53325" lon="6.78869">
        <ele>325.49645996094</ele>
        <time>2019-04-14T06:54:11.000Z</time>
      </trkpt>
      <trkpt lat="47.53338" lon="6.78865">
        <ele>325.48431396484</ele>
        <time>2019-04-14T06:54:14.000Z</time>
      </trkpt>
      <trkpt lat="47.53349" lon="6.7886">
        <ele>325.51794433594</ele>
        <time>2019-04-14T06:54:17.000Z</time>
      </trkpt>
      <trkpt lat="47.53361" lon="6.78854">
        <ele>325.61846923828</ele>
        <time>2019-04-14T06:54:20.000Z</time>
      </trkpt>
      <trkpt lat="47.53372" lon="6.78849">
        <ele>325.77545166016</ele>
        <time>2019-04-14T06:54:23.000Z</time>
      </trkpt>
      <trkpt lat="47.53384" lon="6.78844">
        <ele>325.9873046875</ele>
        <time>2019-04-14T06:54:26.000Z</time>
      </trkpt>
      <trkpt lat="47.53395" lon="6.78839">
        <ele>326.2392578125</ele>
        <time>2019-04-14T06:54:29.000Z</time>
      </trkpt>
      <trkpt lat="47.53407" lon="6.78835">
        <ele>326.47998046875</ele>
        <time>2019-04-14T06:54:32.000Z</time>
      </trkpt>
      <trkpt lat="47.53418" lon="6.78831">
        <ele>326.72122192383</ele>
        <time>2019-04-14T06:54:35.000Z</time>
      </trkpt>
      <trkpt lat="47.53429" lon="6.78827">
        <ele>326.9128112793</ele>
        <time>2019-04-14T06:54:38.000Z</time>
      </trkpt>
      <trkpt lat="47.5344" lon="6.78823">
        <ele>327.04379272461</ele>
        <time>2019-04-14T06:54:41.000Z</time>
      </trkpt>
      <trkpt lat="47.53451" lon="6.78817">
        <ele>327.15777587891</ele>
        <time>2019-04-14T06:54:44.000Z</time>
      </trkpt>
      <trkpt lat="47.53461" lon="6.78809">
        <ele>327.28753662109</ele>
        <time>2019-04-14T06:54:47.000Z</time>
      </trkpt>
      <trkpt lat="47.5347" lon="6.78801">
        <ele>327.43380737305</ele>
        <time>2019-04-14T06:54:50.000Z</time>
      </trkpt>
      <trkpt lat="47.53479" lon="6.78792">
        <ele>327.66094970703</ele>
        <time>2019-04-14T06:54:53.000Z</time>
      </trkpt>
      <trkpt lat="47.53487" lon="6.78782">
        <ele>328.00469970703</ele>
        <time>2019-04-14T06:54:56.000Z</time>
      </trkpt>
      <trkpt lat="47.53495" lon="6.78771">
        <ele>328.45181274414</ele>
        <time>2019-04-14T06:54:59.000Z</time>
      </trkpt>
      <trkpt lat="47.53502" lon="6.78758">
        <ele>328.9674987793</ele>
        <time>2019-04-14T06:55:02.000Z</time>
      </trkpt>
      <trkpt lat="47.53506" lon="6.78742">
        <ele>329.48522949219</ele>
        <time>2019-04-14T06:55:05.000Z</time>
      </trkpt>
      <trkpt lat="47.53509" lon="6.78725">
        <ele>329.99551391602</ele>
        <time>2019-04-14T06:55:08.000Z</time>
      </trkpt>
      <trkpt lat="47.53511" lon="6.78707">
        <ele>330.51721191406</ele>
        <time>2019-04-14T06:55:11.000Z</time>
      </trkpt>
      <trkpt lat="47.53511" lon="6.78688">
        <ele>331.0578918457</ele>
        <time>2019-04-14T06:55:14.000Z</time>
      </trkpt>
      <trkpt lat="47.53511" lon="6.78667">
        <ele>331.63375854492</ele>
        <time>2019-04-14T06:55:17.000Z</time>
      </trkpt>
      <trkpt lat="47.5351" lon="6.78649">
        <ele>332.13662719727</ele>
        <time>2019-04-14T06:55:20.000Z</time>
      </trkpt>
      <trkpt lat="47.5351" lon="6.78629">
        <ele>332.53060913086</ele>
        <time>2019-04-14T06:55:23.000Z</time>
      </trkpt>
      <trkpt lat="47.53508" lon="6.78611">
        <ele>332.80871582031</ele>
        <time>2019-04-14T06:55:26.000Z</time>
      </trkpt>
      <trkpt lat="47.53508" lon="6.78592">
        <ele>332.90170288086</ele>
        <time>2019-04-14T06:55:29.000Z</time>
      </trkpt>
      <trkpt lat="47.53507" lon="6.78572">
        <ele>332.87017822266</ele>
        <time>2019-04-14T06:55:32.000Z</time>
      </trkpt>
      <trkpt lat="47.53506" lon="6.78553">
        <ele>332.91491699219</ele>
        <time>2019-04-14T06:55:35.000Z</time>
      </trkpt>
      <trkpt lat="47.53506" lon="6.78535">
        <ele>333.0686340332</ele>
        <time>2019-04-14T06:55:38.000Z</time>
      </trkpt>
      <trkpt lat="47.53505" lon="6.78516">
        <ele>333.31353759766</ele>
        <time>2019-04-14T06:55:41.000Z</time>
      </trkpt>
      <trkpt lat="47.53505" lon="6.78497">
        <ele>333.66268920898</ele>
        <time>2019-04-14T06:55:44.000Z</time>
      </trkpt>
      <trkpt lat="47.53505" lon="6.78478">
        <ele>334.01260375977</ele>
        <time>2019-04-14T06:55:47.000Z</time>
      </trkpt>
      <trkpt lat="47.53507" lon="6.78459">
        <ele>334.27597045898</ele>
        <time>2019-04-14T06:55:50.000Z</time>
      </trkpt>
      <trkpt lat="47.53513" lon="6.78439">
        <ele>334.33923339844</ele>
        <time>2019-04-14T06:55:53.000Z</time>
      </trkpt>
      <trkpt lat="47.53516" lon="6.78419">
        <ele>334.24731445312</ele>
        <time>2019-04-14T06:55:56.000Z</time>
      </trkpt>
      <trkpt lat="47.53522" lon="6.784">
        <ele>333.96258544922</ele>
        <time>2019-04-14T06:55:59.000Z</time>
      </trkpt>
      <trkpt lat="47.53528" lon="6.78377">
        <ele>333.51931762695</ele>
        <time>2019-04-14T06:56:02.000Z</time>
      </trkpt>
      <trkpt lat="47.53534" lon="6.78357">
        <ele>332.97766113281</ele>
        <time>2019-04-14T06:56:05.000Z</time>
      </trkpt>
      <trkpt lat="47.53538" lon="6.78335">
        <ele>332.48669433594</ele>
        <time>2019-04-14T06:56:08.000Z</time>
      </trkpt>
      <trkpt lat="47.53544" lon="6.78317">
        <ele>332.04266357422</ele>
        <time>2019-04-14T06:56:11.000Z</time>
      </trkpt>
      <trkpt lat="47.53551" lon="6.783">
        <ele>331.67367553711</ele>
        <time>2019-04-14T06:56:14.000Z</time>
      </trkpt>
      <trkpt lat="47.53556" lon="6.7828">
        <ele>331.43487548828</ele>
        <time>2019-04-14T06:56:17.000Z</time>
      </trkpt>
      <trkpt lat="47.53563" lon="6.78262">
        <ele>331.24304199219</ele>
        <time>2019-04-14T06:56:20.000Z</time>
      </trkpt>
      <trkpt lat="47.53571" lon="6.78244">
        <ele>331.06695556641</ele>
        <time>2019-04-14T06:56:23.000Z</time>
      </trkpt>
      <trkpt lat="47.5358" lon="6.78229">
        <ele>330.90655517578</ele>
        <time>2019-04-14T06:56:26.000Z</time>
      </trkpt>
      <trkpt lat="47.53588" lon="6.7821">
        <ele>330.96481323242</ele>
        <time>2019-04-14T06:56:29.000Z</time>
      </trkpt>
      <trkpt lat="47.53593" lon="6.78191">
        <ele>331.23291015625</ele>
        <time>2019-04-14T06:56:32.000Z</time>
      </trkpt>
      <trkpt lat="47.53605" lon="6.78179">
        <ele>331.50994873047</ele>
        <time>2019-04-14T06:56:35.000Z</time>
      </trkpt>
      <trkpt lat="47.53618" lon="6.78165">
        <ele>331.71380615234</ele>
        <time>2019-04-14T06:56:38.000Z</time>
      </trkpt>
      <trkpt lat="47.53631" lon="6.78152">
        <ele>331.81893920898</ele>
        <time>2019-04-14T06:56:41.000Z</time>
      </trkpt>
      <trkpt lat="47.53647" lon="6.78139">
        <ele>331.56936645508</ele>
        <time>2019-04-14T06:56:44.000Z</time>
      </trkpt>
      <trkpt lat="47.53663" lon="6.78126">
        <ele>330.93054199219</ele>
        <time>2019-04-14T06:56:47.000Z</time>
      </trkpt>
      <trkpt lat="47.53678" lon="6.78113">
        <ele>330.38650512695</ele>
        <time>2019-04-14T06:56:50.000Z</time>
      </trkpt>
      <trkpt lat="47.53694" lon="6.78101">
        <ele>329.98965454102</ele>
        <time>2019-04-14T06:56:53.000Z</time>
      </trkpt>
      <trkpt lat="47.53708" lon="6.78088">
        <ele>329.70071411133</ele>
        <time>2019-04-14T06:56:56.000Z</time>
      </trkpt>
      <trkpt lat="47.53714" lon="6.78073">
        <ele>329.83331298828</ele>
        <time>2019-04-14T06:56:59.000Z</time>
      </trkpt>
      <trkpt lat="47.53708" lon="6.78058">
        <ele>330.60504150391</ele>
        <time>2019-04-14T06:57:02.000Z</time>
      </trkpt>
      <trkpt lat="47.53703" lon="6.78044">
        <ele>331.73226928711</ele>
        <time>2019-04-14T06:57:05.000Z</time>
      </trkpt>
      <trkpt lat="47.53699" lon="6.78033">
        <ele>333.12484741211</ele>
        <time>2019-04-14T06:57:08.000Z</time>
      </trkpt>
      <trkpt lat="47.53696" lon="6.78022">
        <ele>334.81433105469</ele>
        <time>2019-04-14T06:57:11.000Z</time>
      </trkpt>
      <trkpt lat="47.53693" lon="6.78009">
        <ele>336.56048583984</ele>
        <time>2019-04-14T06:57:14.000Z</time>
      </trkpt>
      <trkpt lat="47.53691" lon="6.77996">
        <ele>338.10687255859</ele>
        <time>2019-04-14T06:57:17.000Z</time>
      </trkpt>
      <trkpt lat="47.5369" lon="6.77983">
        <ele>339.43179321289</ele>
        <time>2019-04-14T06:57:20.000Z</time>
      </trkpt>
      <trkpt lat="47.53688" lon="6.7797">
        <ele>340.65798950195</ele>
        <time>2019-04-14T06:57:23.000Z</time>
      </trkpt>
      <trkpt lat="47.53687" lon="6.77956">
        <ele>341.76397705078</ele>
        <time>2019-04-14T06:57:26.000Z</time>
      </trkpt>
      <trkpt lat="47.53685" lon="6.77943">
        <ele>342.74710083008</ele>
        <time>2019-04-14T06:57:29.000Z</time>
      </trkpt>
      <trkpt lat="47.53683" lon="6.7793">
        <ele>343.62203979492</ele>
        <time>2019-04-14T06:57:32.000Z</time>
      </trkpt>
      <trkpt lat="47.53682" lon="6.77918">
        <ele>344.4680480957</ele>
        <time>2019-04-14T06:57:35.000Z</time>
      </trkpt>
      <trkpt lat="47.53679" lon="6.77906">
        <ele>345.27911376953</ele>
        <time>2019-04-14T06:57:38.000Z</time>
      </trkpt>
      <trkpt lat="47.53675" lon="6.77895">
        <ele>346.03314208984</ele>
        <time>2019-04-14T06:57:41.000Z</time>
      </trkpt>
      <trkpt lat="47.53673" lon="6.77883">
        <ele>346.75894165039</ele>
        <time>2019-04-14T06:57:44.000Z</time>
      </trkpt>
      <trkpt lat="47.53672" lon="6.7787">
        <ele>347.48004150391</ele>
        <time>2019-04-14T06:57:47.000Z</time>
      </trkpt>
      <trkpt lat="47.53671" lon="6.77857">
        <ele>348.19024658203</ele>
        <time>2019-04-14T06:57:50.000Z</time>
      </trkpt>
      <trkpt lat="47.53668" lon="6.77846">
        <ele>348.8828125</ele>
        <time>2019-04-14T06:57:53.000Z</time>
      </trkpt>
      <trkpt lat="47.53664" lon="6.77833">
        <ele>349.62622070312</ele>
        <time>2019-04-14T06:57:56.000Z</time>
      </trkpt>
      <trkpt lat="47.53663" lon="6.77822">
        <ele>350.32846069336</ele>
        <time>2019-04-14T06:57:59.000Z</time>
      </trkpt>
      <trkpt lat="47.53663" lon="6.7781">
        <ele>350.95220947266</ele>
        <time>2019-04-14T06:58:02.000Z</time>
      </trkpt>
      <trkpt lat="47.53661" lon="6.77796">
        <ele>351.55651855469</ele>
        <time>2019-04-14T06:58:05.000Z</time>
      </trkpt>
      <trkpt lat="47.53657" lon="6.77783">
        <ele>352.14419555664</ele>
        <time>2019-04-14T06:58:08.000Z</time>
      </trkpt>
      <trkpt lat="47.53653" lon="6.77771">
        <ele>352.66705322266</ele>
        <time>2019-04-14T06:58:11.000Z</time>
      </trkpt>
      <trkpt lat="47.53647" lon="6.77759">
        <ele>353.18472290039</ele>
        <time>2019-04-14T06:58:14.000Z</time>
      </trkpt>
      <trkpt lat="47.53643" lon="6.7775">
        <ele>353.69497680664</ele>
        <time>2019-04-14T06:58:17.000Z</time>
      </trkpt>
      <trkpt lat="47.53637" lon="6.77738">
        <ele>354.20123291016</ele>
        <time>2019-04-14T06:58:20.000Z</time>
      </trkpt>
      <trkpt lat="47.5363" lon="6.77727">
        <ele>354.69180297852</ele>
        <time>2019-04-14T06:58:23.000Z</time>
      </trkpt>
      <trkpt lat="47.53623" lon="6.77716">
        <ele>355.14483642578</ele>
        <time>2019-04-14T06:58:26.000Z</time>
      </trkpt>
      <trkpt lat="47.53617" lon="6.77707">
        <ele>355.54193115234</ele>
        <time>2019-04-14T06:58:29.000Z</time>
      </trkpt>
      <trkpt lat="47.53611" lon="6.77697">
        <ele>355.90158081055</ele>
        <time>2019-04-14T06:58:32.000Z</time>
      </trkpt>
      <trkpt lat="47.53604" lon="6.77687">
        <ele>356.15411376953</ele>
        <time>2019-04-14T06:58:35.000Z</time>
      </trkpt>
      <trkpt lat="47.53597" lon="6.77676">
        <ele>356.30426025391</ele>
        <time>2019-04-14T06:58:38.000Z</time>
      </trkpt>
      <trkpt lat="47.53592" lon="6.77666">
        <ele>356.37600708008</ele>
        <time>2019-04-14T06:58:41.000Z</time>
      </trkpt>
      <trkpt lat="47.53586" lon="6.77654">
        <ele>356.49697875977</ele>
        <time>2019-04-14T06:58:44.000Z</time>
      </trkpt>
      <trkpt lat="47.5358" lon="6.77642">
        <ele>356.78057861328</ele>
        <time>2019-04-14T06:58:47.000Z</time>
      </trkpt>
      <trkpt lat="47.53574" lon="6.77632">
        <ele>357.30755615234</ele>
        <time>2019-04-14T06:58:50.000Z</time>
      </trkpt>
      <trkpt lat="47.53568" lon="6.7762">
        <ele>358.07260131836</ele>
        <time>2019-04-14T06:58:53.000Z</time>
      </trkpt>
      <trkpt lat="47.53562" lon="6.7761">
        <ele>359.05834960938</ele>
        <time>2019-04-14T06:58:56.000Z</time>
      </trkpt>
      <trkpt lat="47.53556" lon="6.77598">
        <ele>360.15188598633</ele>
        <time>2019-04-14T06:58:59.000Z</time>
      </trkpt>
      <trkpt lat="47.5355" lon="6.77587">
        <ele>361.23281860352</ele>
        <time>2019-04-14T06:59:02.000Z</time>
      </trkpt>
      <trkpt lat="47.53546" lon="6.77577">
        <ele>362.20843505859</ele>
        <time>2019-04-14T06:59:05.000Z</time>
      </trkpt>
      <trkpt lat="47.53542" lon="6.77565">
        <ele>363.08245849609</ele>
        <time>2019-04-14T06:59:08.000Z</time>
      </trkpt>
      <trkpt lat="47.53539" lon="6.77554">
        <ele>363.85369873047</ele>
        <time>2019-04-14T06:59:11.000Z</time>
      </trkpt>
      <trkpt lat="47.53534" lon="6.77542">
        <ele>364.51129150391</ele>
        <time>2019-04-14T06:59:14.000Z</time>
      </trkpt>
      <trkpt lat="47.53531" lon="6.77529">
        <ele>365.04461669922</ele>
        <time>2019-04-14T06:59:17.000Z</time>
      </trkpt>
      <trkpt lat="47.53527" lon="6.77516">
        <ele>365.46008300781</ele>
        <time>2019-04-14T06:59:20.000Z</time>
      </trkpt>
      <trkpt lat="47.53522" lon="6.77504">
        <ele>365.74481201172</ele>
        <time>2019-04-14T06:59:23.000Z</time>
      </trkpt>
      <trkpt lat="47.53517" lon="6.77493">
        <ele>365.92715454102</ele>
        <time>2019-04-14T06:59:26.000Z</time>
      </trkpt>
      <trkpt lat="47.53511" lon="6.77481">
        <ele>366.03247070312</ele>
        <time>2019-04-14T06:59:29.000Z</time>
      </trkpt>
      <trkpt lat="47.53505" lon="6.7747">
        <ele>366.06332397461</ele>
        <time>2019-04-14T06:59:32.000Z</time>
      </trkpt>
      <trkpt lat="47.53498" lon="6.7746">
        <ele>366.07626342773</ele>
        <time>2019-04-14T06:59:35.000Z</time>
      </trkpt>
      <trkpt lat="47.53491" lon="6.77451">
        <ele>366.27505493164</ele>
        <time>2019-04-14T06:59:38.000Z</time>
      </trkpt>
      <trkpt lat="47.53484" lon="6.7744">
        <ele>366.59262084961</ele>
        <time>2019-04-14T06:59:41.000Z</time>
      </trkpt>
      <trkpt lat="47.53477" lon="6.7743">
        <ele>366.99966430664</ele>
        <time>2019-04-14T06:59:44.000Z</time>
      </trkpt>
      <trkpt lat="47.53471" lon="6.77418">
        <ele>367.47543334961</ele>
        <time>2019-04-14T06:59:47.000Z</time>
      </trkpt>
      <trkpt lat="47.53466" lon="6.77406">
        <ele>367.97210693359</ele>
        <time>2019-04-14T06:59:50.000Z</time>
      </trkpt>
      <trkpt lat="47.5346" lon="6.77395">
        <ele>368.30569458008</ele>
        <time>2019-04-14T06:59:53.000Z</time>
      </trkpt>
      <trkpt lat="47.53455" lon="6.77384">
        <ele>368.50491333008</ele>
        <time>2019-04-14T06:59:56.000Z</time>
      </trkpt>
      <trkpt lat="47.5345" lon="6.77373">
        <ele>368.58389282227</ele>
        <time>2019-04-14T06:59:59.000Z</time>
      </trkpt>
      <trkpt lat="47.53444" lon="6.77361">
        <ele>368.56860351562</ele>
        <time>2019-04-14T07:00:02.000Z</time>
      </trkpt>
      <trkpt lat="47.53438" lon="6.77349">
        <ele>368.44720458984</ele>
        <time>2019-04-14T07:00:05.000Z</time>
      </trkpt>
      <trkpt lat="47.53432" lon="6.77335">
        <ele>368.19299316406</ele>
        <time>2019-04-14T07:00:08.000Z</time>
      </trkpt>
      <trkpt lat="47.53426" lon="6.77321">
        <ele>367.86126708984</ele>
        <time>2019-04-14T07:00:11.000Z</time>
      </trkpt>
      <trkpt lat="47.5342" lon="6.77308">
        <ele>367.45782470703</ele>
        <time>2019-04-14T07:00:14.000Z</time>
      </trkpt>
      <trkpt lat="47.53416" lon="6.77295">
        <ele>367.01055908203</ele>
        <time>2019-04-14T07:00:17.000Z</time>
      </trkpt>
      <trkpt lat="47.5341" lon="6.77277">
        <ele>366.55535888672</ele>
        <time>2019-04-14T07:00:20.000Z</time>
      </trkpt>
      <trkpt lat="47.53403" lon="6.77261">
        <ele>366.11465454102</ele>
        <time>2019-04-14T07:00:23.000Z</time>
      </trkpt>
      <trkpt lat="47.53399" lon="6.77244">
        <ele>365.68832397461</ele>
        <time>2019-04-14T07:00:26.000Z</time>
      </trkpt>
      <trkpt lat="47.53395" lon="6.77231">
        <ele>365.3850402832</ele>
        <time>2019-04-14T07:00:29.000Z</time>
      </trkpt>
      <trkpt lat="47.53393" lon="6.77217">
        <ele>365.20822143555</ele>
        <time>2019-04-14T07:00:32.000Z</time>
      </trkpt>
      <trkpt lat="47.53393" lon="6.772">
        <ele>365.16372680664</ele>
        <time>2019-04-14T07:00:35.000Z</time>
      </trkpt>
      <trkpt lat="47.53393" lon="6.77185">
        <ele>365.26220703125</ele>
        <time>2019-04-14T07:00:38.000Z</time>
      </trkpt>
      <trkpt lat="47.53395" lon="6.77173">
        <ele>365.46896362305</ele>
        <time>2019-04-14T07:00:41.000Z</time>
      </trkpt>
      <trkpt lat="47.53397" lon="6.77161">
        <ele>365.73342895508</ele>
        <time>2019-04-14T07:00:44.000Z</time>
      </trkpt>
      <trkpt lat="47.53397" lon="6.77148">
        <ele>366.10501098633</ele>
        <time>2019-04-14T07:00:47.000Z</time>
      </trkpt>
      <trkpt lat="47.53395" lon="6.77135">
        <ele>366.56475830078</ele>
        <time>2019-04-14T07:00:50.000Z</time>
      </trkpt>
      <trkpt lat="47.53394" lon="6.77124">
        <ele>367.11538696289</ele>
        <time>2019-04-14T07:00:53.000Z</time>
      </trkpt>
      <trkpt lat="47.53394" lon="6.77114">
        <ele>367.74032592773</ele>
        <time>2019-04-14T07:00:56.000Z</time>
      </trkpt>
      <trkpt lat="47.53391" lon="6.77101">
        <ele>368.44296264648</ele>
        <time>2019-04-14T07:00:59.000Z</time>
      </trkpt>
      <trkpt lat="47.5339" lon="6.77089">
        <ele>369.1533203125</ele>
        <time>2019-04-14T07:01:02.000Z</time>
      </trkpt>
      <trkpt lat="47.53391" lon="6.77078">
        <ele>369.83197021484</ele>
        <time>2019-04-14T07:01:05.000Z</time>
      </trkpt>
      <trkpt lat="47.5339" lon="6.77066">
        <ele>370.48513793945</ele>
        <time>2019-04-14T07:01:08.000Z</time>
      </trkpt>
      <trkpt lat="47.5339" lon="6.77054">
        <ele>371.12957763672</ele>
        <time>2019-04-14T07:01:11.000Z</time>
      </trkpt>
      <trkpt lat="47.5339" lon="6.77041">
        <ele>371.72296142578</ele>
        <time>2019-04-14T07:01:14.000Z</time>
      </trkpt>
      <trkpt lat="47.53389" lon="6.7703">
        <ele>372.26818847656</ele>
        <time>2019-04-14T07:01:17.000Z</time>
      </trkpt>
      <trkpt lat="47.53388" lon="6.77017">
        <ele>372.81729125977</ele>
        <time>2019-04-14T07:01:20.000Z</time>
      </trkpt>
      <trkpt lat="47.53387" lon="6.77007">
        <ele>373.35455322266</ele>
        <time>2019-04-14T07:01:23.000Z</time>
      </trkpt>
      <trkpt lat="47.53385" lon="6.76995">
        <ele>373.91766357422</ele>
        <time>2019-04-14T07:01:26.000Z</time>
      </trkpt>
      <trkpt lat="47.53384" lon="6.76984">
        <ele>374.50698852539</ele>
        <time>2019-04-14T07:01:29.000Z</time>
      </trkpt>
      <trkpt lat="47.53382" lon="6.76971">
        <ele>375.15484619141</ele>
        <time>2019-04-14T07:01:32.000Z</time>
      </trkpt>
      <trkpt lat="47.53378" lon="6.76957">
        <ele>375.86596679688</ele>
        <time>2019-04-14T07:01:35.000Z</time>
      </trkpt>
      <trkpt lat="47.53373" lon="6.76947">
        <ele>376.630859375</ele>
        <time>2019-04-14T07:01:38.000Z</time>
      </trkpt>
      <trkpt lat="47.53368" lon="6.76938">
        <ele>377.38903808594</ele>
        <time>2019-04-14T07:01:41.000Z</time>
      </trkpt>
      <trkpt lat="47.53363" lon="6.76931">
        <ele>378.11474609375</ele>
        <time>2019-04-14T07:01:44.000Z</time>
      </trkpt>
      <trkpt lat="47.53361" lon="6.76921">
        <ele>378.81384277344</ele>
        <time>2019-04-14T07:01:47.000Z</time>
      </trkpt>
      <trkpt lat="47.53362" lon="6.7691">
        <ele>379.40823364258</ele>
        <time>2019-04-14T07:01:50.000Z</time>
      </trkpt>
      <trkpt lat="47.53363" lon="6.76901">
        <ele>379.88623046875</ele>
        <time>2019-04-14T07:01:53.000Z</time>
      </trkpt>
      <trkpt lat="47.53363" lon="6.7689">
        <ele>380.28668212891</ele>
        <time>2019-04-14T07:01:56.000Z</time>
      </trkpt>
      <trkpt lat="47.53363" lon="6.76879">
        <ele>380.62438964844</ele>
        <time>2019-04-14T07:01:59.000Z</time>
      </trkpt>
      <trkpt lat="47.53363" lon="6.76868">
        <ele>380.87231445312</ele>
        <time>2019-04-14T07:02:02.000Z</time>
      </trkpt>
      <trkpt lat="47.53362" lon="6.76856">
        <ele>381.09387207031</ele>
        <time>2019-04-14T07:02:05.000Z</time>
      </trkpt>
      <trkpt lat="47.53359" lon="6.76844">
        <ele>381.31167602539</ele>
        <time>2019-04-14T07:02:08.000Z</time>
      </trkpt>
      <trkpt lat="47.53354" lon="6.76832">
        <ele>381.49090576172</ele>
        <time>2019-04-14T07:02:11.000Z</time>
      </trkpt>
      <trkpt lat="47.53348" lon="6.76822">
        <ele>381.61157226562</ele>
        <time>2019-04-14T07:02:14.000Z</time>
      </trkpt>
      <trkpt lat="47.53337" lon="6.76811">
        <ele>381.62640380859</ele>
        <time>2019-04-14T07:02:17.000Z</time>
      </trkpt>
      <trkpt lat="47.53324" lon="6.76798">
        <ele>381.61370849609</ele>
        <time>2019-04-14T07:02:20.000Z</time>
      </trkpt>
      <trkpt lat="47.53312" lon="6.76788">
        <ele>381.60272216797</ele>
        <time>2019-04-14T07:02:23.000Z</time>
      </trkpt>
      <trkpt lat="47.53297" lon="6.76775">
        <ele>381.61761474609</ele>
        <time>2019-04-14T07:02:26.000Z</time>
      </trkpt>
      <trkpt lat="47.53286" lon="6.76766">
        <ele>381.66314697266</ele>
        <time>2019-04-14T07:02:29.000Z</time>
      </trkpt>
      <trkpt lat="47.53276" lon="6.76759">
        <ele>381.77508544922</ele>
        <time>2019-04-14T07:02:32.000Z</time>
      </trkpt>
      <trkpt lat="47.53267" lon="6.76754">
        <ele>381.87396240234</ele>
        <time>2019-04-14T07:02:35.000Z</time>
      </trkpt>
      <trkpt lat="47.53258" lon="6.76749">
        <ele>381.9440612793</ele>
        <time>2019-04-14T07:02:38.000Z</time>
      </trkpt>
      <trkpt lat="47.53249" lon="6.76743">
        <ele>381.98440551758</ele>
        <time>2019-04-14T07:02:41.000Z</time>
      </trkpt>
      <trkpt lat="47.53234" lon="6.76733">
        <ele>381.91656494141</ele>
        <time>2019-04-14T07:02:44.000Z</time>
      </trkpt>
      <trkpt lat="47.53218" lon="6.76721">
        <ele>381.74035644531</ele>
        <time>2019-04-14T07:02:47.000Z</time>
      </trkpt>
      <trkpt lat="47.53208" lon="6.76712">
        <ele>381.48516845703</ele>
        <time>2019-04-14T07:02:50.000Z</time>
      </trkpt>
      <trkpt lat="47.53199" lon="6.76703">
        <ele>381.15579223633</ele>
        <time>2019-04-14T07:02:53.000Z</time>
      </trkpt>
      <trkpt lat="47.53187" lon="6.7669">
        <ele>380.73217773438</ele>
        <time>2019-04-14T07:02:56.000Z</time>
      </trkpt>
      <trkpt lat="47.53175" lon="6.76677">
        <ele>380.29501342773</ele>
        <time>2019-04-14T07:02:59.000Z</time>
      </trkpt>
      <trkpt lat="47.53165" lon="6.76665">
        <ele>379.88653564453</ele>
        <time>2019-04-14T07:03:02.000Z</time>
      </trkpt>
      <trkpt lat="47.53152" lon="6.76654">
        <ele>379.59197998047</ele>
        <time>2019-04-14T07:03:05.000Z</time>
      </trkpt>
      <trkpt lat="47.53142" lon="6.76642">
        <ele>379.38424682617</ele>
        <time>2019-04-14T07:03:08.000Z</time>
      </trkpt>
      <trkpt lat="47.53143" lon="6.76631">
        <ele>379.26971435547</ele>
        <time>2019-04-14T07:03:10.000Z</time>
      </trkpt>
      <trkpt lat="47.53144" lon="6.7662">
        <ele>379.26751708984</ele>
        <time>2019-04-14T07:03:12.000Z</time>
      </trkpt>
      <trkpt lat="47.53146" lon="6.76611">
        <ele>379.34301757812</ele>
        <time>2019-04-14T07:03:14.000Z</time>
      </trkpt>
      <trkpt lat="47.53148" lon="6.76602">
        <ele>379.39080810547</ele>
        <time>2019-04-14T07:03:16.000Z</time>
      </trkpt>
      <trkpt lat="47.5315" lon="6.76591">
        <ele>379.43850708008</ele>
        <time>2019-04-14T07:03:19.000Z</time>
      </trkpt>
      <trkpt lat="47.5315" lon="6.76578">
        <ele>379.47619628906</ele>
        <time>2019-04-14T07:03:22.000Z</time>
      </trkpt>
      <trkpt lat="47.53152" lon="6.76569">
        <ele>379.49212646484</ele>
        <time>2019-04-14T07:03:24.000Z</time>
      </trkpt>
      <trkpt lat="47.53155" lon="6.76557">
        <ele>379.47875976562</ele>
        <time>2019-04-14T07:03:27.000Z</time>
      </trkpt>
      <trkpt lat="47.53157" lon="6.76547">
        <ele>379.43893432617</ele>
        <time>2019-04-14T07:03:29.000Z</time>
      </trkpt>
      <trkpt lat="47.5316" lon="6.76534">
        <ele>379.36587524414</ele>
        <time>2019-04-14T07:03:32.000Z</time>
      </trkpt>
      <trkpt lat="47.53164" lon="6.76521">
        <ele>379.29620361328</ele>
        <time>2019-04-14T07:03:35.000Z</time>
      </trkpt>
      <trkpt lat="47.53167" lon="6.76511">
        <ele>379.23345947266</ele>
        <time>2019-04-14T07:03:37.000Z</time>
      </trkpt>
      <trkpt lat="47.53169" lon="6.76491">
        <ele>379.25561523438</ele>
        <time>2019-04-14T07:03:40.000Z</time>
      </trkpt>
      <trkpt lat="47.53172" lon="6.76472">
        <ele>379.45013427734</ele>
        <time>2019-04-14T07:03:43.000Z</time>
      </trkpt>
      <trkpt lat="47.53174" lon="6.7646">
        <ele>379.76132202148</ele>
        <time>2019-04-14T07:03:45.000Z</time>
      </trkpt>
      <trkpt lat="47.53177" lon="6.76447">
        <ele>380.18569946289</ele>
        <time>2019-04-14T07:03:48.000Z</time>
      </trkpt>
      <trkpt lat="47.53178" lon="6.76437">
        <ele>380.6848449707</ele>
        <time>2019-04-14T07:03:50.000Z</time>
      </trkpt>
      <trkpt lat="47.53183" lon="6.76425">
        <ele>381.22045898438</ele>
        <time>2019-04-14T07:03:53.000Z</time>
      </trkpt>
      <trkpt lat="47.53187" lon="6.76414">
        <ele>381.6686706543</ele>
        <time>2019-04-14T07:03:56.000Z</time>
      </trkpt>
      <trkpt lat="47.53191" lon="6.76402">
        <ele>382.03350830078</ele>
        <time>2019-04-14T07:03:59.000Z</time>
      </trkpt>
      <trkpt lat="47.53194" lon="6.76392">
        <ele>382.30596923828</ele>
        <time>2019-04-14T07:04:01.000Z</time>
      </trkpt>
      <trkpt lat="47.53198" lon="6.76379">
        <ele>382.52932739258</ele>
        <time>2019-04-14T07:04:04.000Z</time>
      </trkpt>
      <trkpt lat="47.53202" lon="6.76364">
        <ele>382.671875</ele>
        <time>2019-04-14T07:04:07.000Z</time>
      </trkpt>
      <trkpt lat="47.53208" lon="6.76349">
        <ele>382.76953125</ele>
        <time>2019-04-14T07:04:10.000Z</time>
      </trkpt>
      <trkpt lat="47.53211" lon="6.76338">
        <ele>382.865234375</ele>
        <time>2019-04-14T07:04:12.000Z</time>
      </trkpt>
      <trkpt lat="47.53213" lon="6.76321">
        <ele>382.94177246094</ele>
        <time>2019-04-14T07:04:15.000Z</time>
      </trkpt>
      <trkpt lat="47.53216" lon="6.76304">
        <ele>382.99673461914</ele>
        <time>2019-04-14T07:04:18.000Z</time>
      </trkpt>
      <trkpt lat="47.53217" lon="6.7629">
        <ele>383.02593994141</ele>
        <time>2019-04-14T07:04:20.000Z</time>
      </trkpt>
      <trkpt lat="47.53217" lon="6.76271">
        <ele>383.01119995117</ele>
        <time>2019-04-14T07:04:23.000Z</time>
      </trkpt>
      <trkpt lat="47.53217" lon="6.76252">
        <ele>382.96588134766</ele>
        <time>2019-04-14T07:04:26.000Z</time>
      </trkpt>
      <trkpt lat="47.53218" lon="6.76241">
        <ele>382.93765258789</ele>
        <time>2019-04-14T07:04:28.000Z</time>
      </trkpt>
      <trkpt lat="47.53216" lon="6.76218">
        <ele>382.91864013672</ele>
        <time>2019-04-14T07:04:31.000Z</time>
      </trkpt>
      <trkpt lat="47.53214" lon="6.76203">
        <ele>382.90573120117</ele>
        <time>2019-04-14T07:04:33.000Z</time>
      </trkpt>
      <trkpt lat="47.53212" lon="6.76186">
        <ele>382.92288208008</ele>
        <time>2019-04-14T07:04:36.000Z</time>
      </trkpt>
      <trkpt lat="47.5321" lon="6.76171">
        <ele>382.96148681641</ele>
        <time>2019-04-14T07:04:39.000Z</time>
      </trkpt>
      <trkpt lat="47.53211" lon="6.7616">
        <ele>383.00726318359</ele>
        <time>2019-04-14T07:04:42.000Z</time>
      </trkpt>
      <trkpt lat="47.53214" lon="6.76149">
        <ele>383.08337402344</ele>
        <time>2019-04-14T07:04:45.000Z</time>
      </trkpt>
      <trkpt lat="47.53217" lon="6.76137">
        <ele>383.19537353516</ele>
        <time>2019-04-14T07:04:48.000Z</time>
      </trkpt>
      <trkpt lat="47.5322" lon="6.76123">
        <ele>383.32650756836</ele>
        <time>2019-04-14T07:04:51.000Z</time>
      </trkpt>
      <trkpt lat="47.5322" lon="6.76106">
        <ele>383.48065185547</ele>
        <time>2019-04-14T07:04:54.000Z</time>
      </trkpt>
      <trkpt lat="47.53218" lon="6.76091">
        <ele>383.63845825195</ele>
        <time>2019-04-14T07:04:57.000Z</time>
      </trkpt>
      <trkpt lat="47.53217" lon="6.76077">
        <ele>383.77734375</ele>
        <time>2019-04-14T07:05:00.000Z</time>
      </trkpt>
      <trkpt lat="47.53216" lon="6.76064">
        <ele>383.88815307617</ele>
        <time>2019-04-14T07:05:03.000Z</time>
      </trkpt>
      <trkpt lat="47.53216" lon="6.76052">
        <ele>383.97564697266</ele>
        <time>2019-04-14T07:05:06.000Z</time>
      </trkpt>
      <trkpt lat="47.53216" lon="6.76037">
        <ele>384.04238891602</ele>
        <time>2019-04-14T07:05:09.000Z</time>
      </trkpt>
      <trkpt lat="47.53215" lon="6.76019">
        <ele>384.09921264648</ele>
        <time>2019-04-14T07:05:12.000Z</time>
      </trkpt>
      <trkpt lat="47.53214" lon="6.76002">
        <ele>384.15625</ele>
        <time>2019-04-14T07:05:15.000Z</time>
      </trkpt>
      <trkpt lat="47.53212" lon="6.75988">
        <ele>384.20874023438</ele>
        <time>2019-04-14T07:05:18.000Z</time>
      </trkpt>
      <trkpt lat="47.53211" lon="6.7597">
        <ele>384.24780273438</ele>
        <time>2019-04-14T07:05:21.000Z</time>
      </trkpt>
      <trkpt lat="47.53205" lon="6.75944">
        <ele>384.25274658203</ele>
        <time>2019-04-14T07:05:24.000Z</time>
      </trkpt>
      <trkpt lat="47.53201" lon="6.75922">
        <ele>384.189453125</ele>
        <time>2019-04-14T07:05:27.000Z</time>
      </trkpt>
      <trkpt lat="47.53191" lon="6.75915">
        <ele>384.02920532227</ele>
        <time>2019-04-14T07:05:30.000Z</time>
      </trkpt>
      <trkpt lat="47.5318" lon="6.75917">
        <ele>383.83557128906</ele>
        <time>2019-04-14T07:05:33.000Z</time>
      </trkpt>
      <trkpt lat="47.53169" lon="6.7592">
        <ele>383.61248779297</ele>
        <time>2019-04-14T07:05:36.000Z</time>
      </trkpt>
      <trkpt lat="47.53158" lon="6.75919">
        <ele>383.39556884766</ele>
        <time>2019-04-14T07:05:39.000Z</time>
      </trkpt>
      <trkpt lat="47.53147" lon="6.7592">
        <ele>383.24002075195</ele>
        <time>2019-04-14T07:05:42.000Z</time>
      </trkpt>
      <trkpt lat="47.53137" lon="6.75921">
        <ele>383.17245483398</ele>
        <time>2019-04-14T07:05:45.000Z</time>
      </trkpt>
      <trkpt lat="47.53127" lon="6.75921">
        <ele>383.13891601562</ele>
        <time>2019-04-14T07:05:48.000Z</time>
      </trkpt>
      <trkpt lat="47.53118" lon="6.75923">
        <ele>383.16387939453</ele>
        <time>2019-04-14T07:05:51.000Z</time>
      </trkpt>
      <trkpt lat="47.53107" lon="6.75924">
        <ele>383.21920776367</ele>
        <time>2019-04-14T07:05:54.000Z</time>
      </trkpt>
      <trkpt lat="47.53098" lon="6.75927">
        <ele>383.29330444336</ele>
        <time>2019-04-14T07:05:57.000Z</time>
      </trkpt>
      <trkpt lat="47.53088" lon="6.75928">
        <ele>383.37271118164</ele>
        <time>2019-04-14T07:06:00.000Z</time>
      </trkpt>
      <trkpt lat="47.53078" lon="6.75931">
        <ele>383.42495727539</ele>
        <time>2019-04-14T07:06:03.000Z</time>
      </trkpt>
      <trkpt lat="47.53069" lon="6.75934">
        <ele>383.41146850586</ele>
        <time>2019-04-14T07:06:06.000Z</time>
      </trkpt>
      <trkpt lat="47.53058" lon="6.75936">
        <ele>383.32849121094</ele>
        <time>2019-04-14T07:06:09.000Z</time>
      </trkpt>
      <trkpt lat="47.53049" lon="6.75938">
        <ele>383.16833496094</ele>
        <time>2019-04-14T07:06:12.000Z</time>
      </trkpt>
      <trkpt lat="47.5304" lon="6.75942">
        <ele>382.98089599609</ele>
        <time>2019-04-14T07:06:15.000Z</time>
      </trkpt>
      <trkpt lat="47.53029" lon="6.75946">
        <ele>382.79644775391</ele>
        <time>2019-04-14T07:06:18.000Z</time>
      </trkpt>
      <trkpt lat="47.53018" lon="6.75949">
        <ele>382.61810302734</ele>
        <time>2019-04-14T07:06:21.000Z</time>
      </trkpt>
      <trkpt lat="47.53006" lon="6.75952">
        <ele>382.46710205078</ele>
        <time>2019-04-14T07:06:24.000Z</time>
      </trkpt>
      <trkpt lat="47.52993" lon="6.75957">
        <ele>382.28213500977</ele>
        <time>2019-04-14T07:06:27.000Z</time>
      </trkpt>
      <trkpt lat="47.5298" lon="6.75959">
        <ele>381.88693237305</ele>
        <time>2019-04-14T07:06:30.000Z</time>
      </trkpt>
      <trkpt lat="47.52974" lon="6.75964">
        <ele>381.44564819336</ele>
        <time>2019-04-14T07:06:33.000Z</time>
      </trkpt>
      <trkpt lat="47.52969" lon="6.75968">
        <ele>381.00213623047</ele>
        <time>2019-04-14T07:06:36.000Z</time>
      </trkpt>
      <trkpt lat="47.52961" lon="6.75966">
        <ele>380.40097045898</ele>
        <time>2019-04-14T07:06:39.000Z</time>
      </trkpt>
      <trkpt lat="47.52948" lon="6.75967">
        <ele>379.62774658203</ele>
        <time>2019-04-14T07:06:42.000Z</time>
      </trkpt>
      <trkpt lat="47.52937" lon="6.75965">
        <ele>378.83145141602</ele>
        <time>2019-04-14T07:06:45.000Z</time>
      </trkpt>
      <trkpt lat="47.5293" lon="6.7595">
        <ele>377.89630126953</ele>
        <time>2019-04-14T07:06:48.000Z</time>
      </trkpt>
      <trkpt lat="47.52929" lon="6.75932">
        <ele>376.89462280273</ele>
        <time>2019-04-14T07:06:51.000Z</time>
      </trkpt>
      <trkpt lat="47.52928" lon="6.75911">
        <ele>375.96423339844</ele>
        <time>2019-04-14T07:06:54.000Z</time>
      </trkpt>
      <trkpt lat="47.52924" lon="6.75891">
        <ele>375.14614868164</ele>
        <time>2019-04-14T07:06:57.000Z</time>
      </trkpt>
      <trkpt lat="47.52917" lon="6.75875">
        <ele>374.42431640625</ele>
        <time>2019-04-14T07:07:00.000Z</time>
      </trkpt>
      <trkpt lat="47.52913" lon="6.75863">
        <ele>373.77529907227</ele>
        <time>2019-04-14T07:07:03.000Z</time>
      </trkpt>
      <trkpt lat="47.52913" lon="6.75857">
        <ele>373.18914794922</ele>
        <time>2019-04-14T07:07:06.000Z</time>
      </trkpt>
      <trkpt lat="47.52915" lon="6.75851">
        <ele>372.73416137695</ele>
        <time>2019-04-14T07:07:09.000Z</time>
      </trkpt>
      <trkpt lat="47.52921" lon="6.75849">
        <ele>372.48736572266</ele>
        <time>2019-04-14T07:07:12.000Z</time>
      </trkpt>
      <trkpt lat="47.52927" lon="6.75845">
        <ele>372.43179321289</ele>
        <time>2019-04-14T07:07:15.000Z</time>
      </trkpt>
      <trkpt lat="47.52929" lon="6.75833">
        <ele>372.46557617188</ele>
        <time>2019-04-14T07:07:18.000Z</time>
      </trkpt>
      <trkpt lat="47.52929" lon="6.75817">
        <ele>372.25765991211</ele>
        <time>2019-04-14T07:07:21.000Z</time>
      </trkpt>
      <trkpt lat="47.52927" lon="6.75806">
        <ele>371.82104492188</ele>
        <time>2019-04-14T07:07:24.000Z</time>
      </trkpt>
      <trkpt lat="47.52927" lon="6.758">
        <ele>371.20693969727</ele>
        <time>2019-04-14T07:07:27.000Z</time>
      </trkpt>
      <trkpt lat="47.52933" lon="6.75795">
        <ele>370.54205322266</ele>
        <time>2019-04-14T07:07:30.000Z</time>
      </trkpt>
      <trkpt lat="47.52943" lon="6.7579">
        <ele>369.97796630859</ele>
        <time>2019-04-14T07:07:33.000Z</time>
      </trkpt>
      <trkpt lat="47.52952" lon="6.75784">
        <ele>369.74185180664</ele>
        <time>2019-04-14T07:07:36.000Z</time>
      </trkpt>
      <trkpt lat="47.5296" lon="6.75776">
        <ele>369.72796630859</ele>
        <time>2019-04-14T07:07:39.000Z</time>
      </trkpt>
      <trkpt lat="47.5297" lon="6.75766">
        <ele>369.85552978516</ele>
        <time>2019-04-14T07:07:42.000Z</time>
      </trkpt>
      <trkpt lat="47.52981" lon="6.75755">
        <ele>370.07183837891</ele>
        <time>2019-04-14T07:07:45.000Z</time>
      </trkpt>
      <trkpt lat="47.52993" lon="6.75739">
        <ele>370.21566772461</ele>
        <time>2019-04-14T07:07:48.000Z</time>
      </trkpt>
      <trkpt lat="47.53004" lon="6.75718">
        <ele>370.10433959961</ele>
        <time>2019-04-14T07:07:51.000Z</time>
      </trkpt>
      <trkpt lat="47.53011" lon="6.75699">
        <ele>369.72534179688</ele>
        <time>2019-04-14T07:07:54.000Z</time>
      </trkpt>
      <trkpt lat="47.53019" lon="6.75677">
        <ele>369.03253173828</ele>
        <time>2019-04-14T07:07:57.000Z</time>
      </trkpt>
      <trkpt lat="47.53017" lon="6.75645">
        <ele>368.39224243164</ele>
        <time>2019-04-14T07:08:00.000Z</time>
      </trkpt>
      <trkpt lat="47.53009" lon="6.75621">
        <ele>367.99612426758</ele>
        <time>2019-04-14T07:08:03.000Z</time>
      </trkpt>
      <trkpt lat="47.52996" lon="6.75612">
        <ele>367.80358886719</ele>
        <time>2019-04-14T07:08:06.000Z</time>
      </trkpt>
      <trkpt lat="47.52988" lon="6.75605">
        <ele>368.02529907227</ele>
        <time>2019-04-14T07:08:09.000Z</time>
      </trkpt>
      <trkpt lat="47.52985" lon="6.75596">
        <ele>368.68490600586</ele>
        <time>2019-04-14T07:08:12.000Z</time>
      </trkpt>
      <trkpt lat="47.52985" lon="6.75585">
        <ele>369.37390136719</ele>
        <time>2019-04-14T07:08:15.000Z</time>
      </trkpt>
      <trkpt lat="47.52989" lon="6.75575">
        <ele>369.92730712891</ele>
        <time>2019-04-14T07:08:18.000Z</time>
      </trkpt>
      <trkpt lat="47.52995" lon="6.75563">
        <ele>370.58599853516</ele>
        <time>2019-04-14T07:08:21.000Z</time>
      </trkpt>
      <trkpt lat="47.53004" lon="6.75555">
        <ele>371.24737548828</ele>
        <time>2019-04-14T07:08:24.000Z</time>
      </trkpt>
      <trkpt lat="47.53011" lon="6.75549">
        <ele>371.97827148438</ele>
        <time>2019-04-14T07:08:27.000Z</time>
      </trkpt>
      <trkpt lat="47.53016" lon="6.75547">
        <ele>372.68719482422</ele>
        <time>2019-04-14T07:08:30.000Z</time>
      </trkpt>
      <trkpt lat="47.53023" lon="6.75546">
        <ele>373.44973754883</ele>
        <time>2019-04-14T07:08:33.000Z</time>
      </trkpt>
      <trkpt lat="47.53029" lon="6.75546">
        <ele>374.23004150391</ele>
        <time>2019-04-14T07:08:36.000Z</time>
      </trkpt>
      <trkpt lat="47.53035" lon="6.75547">
        <ele>374.95742797852</ele>
        <time>2019-04-14T07:08:39.000Z</time>
      </trkpt>
      <trkpt lat="47.5304" lon="6.75543">
        <ele>375.62188720703</ele>
        <time>2019-04-14T07:08:42.000Z</time>
      </trkpt>
      <trkpt lat="47.53045" lon="6.75535">
        <ele>376.37060546875</ele>
        <time>2019-04-14T07:08:45.000Z</time>
      </trkpt>
      <trkpt lat="47.53051" lon="6.75527">
        <ele>377.18933105469</ele>
        <time>2019-04-14T07:08:48.000Z</time>
      </trkpt>
      <trkpt lat="47.53055" lon="6.75521">
        <ele>378.04418945312</ele>
        <time>2019-04-14T07:08:51.000Z</time>
      </trkpt>
      <trkpt lat="47.53061" lon="6.75516">
        <ele>378.98065185547</ele>
        <time>2019-04-14T07:08:54.000Z</time>
      </trkpt>
      <trkpt lat="47.53066" lon="6.75511">
        <ele>379.93405151367</ele>
        <time>2019-04-14T07:08:57.000Z</time>
      </trkpt>
      <trkpt lat="47.53072" lon="6.75506">
        <ele>380.84490966797</ele>
        <time>2019-04-14T07:09:00.000Z</time>
      </trkpt>
      <trkpt lat="47.53078" lon="6.75501">
        <ele>381.69061279297</ele>
        <time>2019-04-14T07:09:03.000Z</time>
      </trkpt>
      <trkpt lat="47.53083" lon="6.75499">
        <ele>382.52087402344</ele>
        <time>2019-04-14T07:09:06.000Z</time>
      </trkpt>
      <trkpt lat="47.53088" lon="6.75494">
        <ele>383.29141235352</ele>
        <time>2019-04-14T07:09:09.000Z</time>
      </trkpt>
      <trkpt lat="47.53094" lon="6.75488">
        <ele>384.02935791016</ele>
        <time>2019-04-14T07:09:12.000Z</time>
      </trkpt>
      <trkpt lat="47.53097" lon="6.75485">
        <ele>384.68417358398</ele>
        <time>2019-04-14T07:09:15.000Z</time>
      </trkpt>
      <trkpt lat="47.53102" lon="6.75481">
        <ele>385.30126953125</ele>
        <time>2019-04-14T07:09:18.000Z</time>
      </trkpt>
      <trkpt lat="47.53107" lon="6.75476">
        <ele>385.90771484375</ele>
        <time>2019-04-14T07:09:21.000Z</time>
      </trkpt>
      <trkpt lat="47.53111" lon="6.75474">
        <ele>386.49536132812</ele>
        <time>2019-04-14T07:09:24.000Z</time>
      </trkpt>
      <trkpt lat="47.53117" lon="6.7547">
        <ele>387.06726074219</ele>
        <time>2019-04-14T07:09:27.000Z</time>
      </trkpt>
      <trkpt lat="47.53123" lon="6.75467">
        <ele>387.69873046875</ele>
        <time>2019-04-14T07:09:30.000Z</time>
      </trkpt>
      <trkpt lat="47.53129" lon="6.75465">
        <ele>388.33190917969</ele>
        <time>2019-04-14T07:09:33.000Z</time>
      </trkpt>
      <trkpt lat="47.53135" lon="6.75463">
        <ele>388.9609375</ele>
        <time>2019-04-14T07:09:36.000Z</time>
      </trkpt>
      <trkpt lat="47.53139" lon="6.7546">
        <ele>389.60339355469</ele>
        <time>2019-04-14T07:09:39.000Z</time>
      </trkpt>
      <trkpt lat="47.53145" lon="6.75455">
        <ele>390.25354003906</ele>
        <time>2019-04-14T07:09:42.000Z</time>
      </trkpt>
      <trkpt lat="47.53149" lon="6.75449">
        <ele>390.861328125</ele>
        <time>2019-04-14T07:09:45.000Z</time>
      </trkpt>
      <trkpt lat="47.53151" lon="6.75444">
        <ele>391.44189453125</ele>
        <time>2019-04-14T07:09:48.000Z</time>
      </trkpt>
      <trkpt lat="47.53156" lon="6.75439">
        <ele>392.02282714844</ele>
        <time>2019-04-14T07:09:51.000Z</time>
      </trkpt>
      <trkpt lat="47.5316" lon="6.75433">
        <ele>392.61193847656</ele>
        <time>2019-04-14T07:09:54.000Z</time>
      </trkpt>
      <trkpt lat="47.53166" lon="6.75426">
        <ele>393.22314453125</ele>
        <time>2019-04-14T07:09:57.000Z</time>
      </trkpt>
      <trkpt lat="47.53171" lon="6.7542">
        <ele>393.82836914062</ele>
        <time>2019-04-14T07:10:00.000Z</time>
      </trkpt>
      <trkpt lat="47.53176" lon="6.75414">
        <ele>394.45248413086</ele>
        <time>2019-04-14T07:10:03.000Z</time>
      </trkpt>
      <trkpt lat="47.5318" lon="6.75407">
        <ele>395.0530090332</ele>
        <time>2019-04-14T07:10:06.000Z</time>
      </trkpt>
      <trkpt lat="47.53184" lon="6.75402">
        <ele>395.62261962891</ele>
        <time>2019-04-14T07:10:09.000Z</time>
      </trkpt>
      <trkpt lat="47.53188" lon="6.75395">
        <ele>396.15347290039</ele>
        <time>2019-04-14T07:10:12.000Z</time>
      </trkpt>
      <trkpt lat="47.53193" lon="6.75391">
        <ele>396.66036987305</ele>
        <time>2019-04-14T07:10:15.000Z</time>
      </trkpt>
      <trkpt lat="47.53197" lon="6.75391">
        <ele>397.12866210938</ele>
        <time>2019-04-14T07:10:18.000Z</time>
      </trkpt>
      <trkpt lat="47.53202" lon="6.75394">
        <ele>397.53060913086</ele>
        <time>2019-04-14T07:10:21.000Z</time>
      </trkpt>
      <trkpt lat="47.53205" lon="6.75396">
        <ele>397.86505126953</ele>
        <time>2019-04-14T07:10:24.000Z</time>
      </trkpt>
      <trkpt lat="47.5321" lon="6.75397">
        <ele>398.1369934082</ele>
        <time>2019-04-14T07:10:27.000Z</time>
      </trkpt>
      <trkpt lat="47.53215" lon="6.75399">
        <ele>398.36041259766</ele>
        <time>2019-04-14T07:10:30.000Z</time>
      </trkpt>
      <trkpt lat="47.53222" lon="6.75403">
        <ele>398.56265258789</ele>
        <time>2019-04-14T07:10:33.000Z</time>
      </trkpt>
      <trkpt lat="47.53228" lon="6.75404">
        <ele>398.79760742188</ele>
        <time>2019-04-14T07:10:36.000Z</time>
      </trkpt>
      <trkpt lat="47.53233" lon="6.75399">
        <ele>399.12930297852</ele>
        <time>2019-04-14T07:10:39.000Z</time>
      </trkpt>
      <trkpt lat="47.53238" lon="6.75393">
        <ele>399.53289794922</ele>
        <time>2019-04-14T07:10:42.000Z</time>
      </trkpt>
      <trkpt lat="47.53242" lon="6.75387">
        <ele>400.03814697266</ele>
        <time>2019-04-14T07:10:45.000Z</time>
      </trkpt>
      <trkpt lat="47.53247" lon="6.7538">
        <ele>400.6337890625</ele>
        <time>2019-04-14T07:10:48.000Z</time>
      </trkpt>
      <trkpt lat="47.53252" lon="6.75374">
        <ele>401.29721069336</ele>
        <time>2019-04-14T07:10:51.000Z</time>
      </trkpt>
      <trkpt lat="47.53257" lon="6.75369">
        <ele>401.95980834961</ele>
        <time>2019-04-14T07:10:54.000Z</time>
      </trkpt>
      <trkpt lat="47.53262" lon="6.75365">
        <ele>402.59115600586</ele>
        <time>2019-04-14T07:10:57.000Z</time>
      </trkpt>
      <trkpt lat="47.53266" lon="6.75362">
        <ele>403.16473388672</ele>
        <time>2019-04-14T07:11:00.000Z</time>
      </trkpt>
      <trkpt lat="47.53272" lon="6.75359">
        <ele>403.7165222168</ele>
        <time>2019-04-14T07:11:03.000Z</time>
      </trkpt>
      <trkpt lat="47.53276" lon="6.75356">
        <ele>404.20770263672</ele>
        <time>2019-04-14T07:11:06.000Z</time>
      </trkpt>
      <trkpt lat="47.5328" lon="6.75353">
        <ele>404.66345214844</ele>
        <time>2019-04-14T07:11:09.000Z</time>
      </trkpt>
      <trkpt lat="47.53284" lon="6.75352">
        <ele>405.08395385742</ele>
        <time>2019-04-14T07:11:12.000Z</time>
      </trkpt>
      <trkpt lat="47.53288" lon="6.75349">
        <ele>405.50714111328</ele>
        <time>2019-04-14T07:11:15.000Z</time>
      </trkpt>
      <trkpt lat="47.53292" lon="6.75345">
        <ele>405.91610717773</ele>
        <time>2019-04-14T07:11:18.000Z</time>
      </trkpt>
      <trkpt lat="47.53297" lon="6.75339">
        <ele>406.38714599609</ele>
        <time>2019-04-14T07:11:21.000Z</time>
      </trkpt>
      <trkpt lat="47.53302" lon="6.75335">
        <ele>406.87252807617</ele>
        <time>2019-04-14T07:11:24.000Z</time>
      </trkpt>
      <trkpt lat="47.53308" lon="6.75332">
        <ele>407.39923095703</ele>
        <time>2019-04-14T07:11:27.000Z</time>
      </trkpt>
      <trkpt lat="47.53313" lon="6.75328">
        <ele>407.9274597168</ele>
        <time>2019-04-14T07:11:30.000Z</time>
      </trkpt>
      <trkpt lat="47.53318" lon="6.75325">
        <ele>408.44033813477</ele>
        <time>2019-04-14T07:11:33.000Z</time>
      </trkpt>
      <trkpt lat="47.53325" lon="6.75322">
        <ele>408.91680908203</ele>
        <time>2019-04-14T07:11:36.000Z</time>
      </trkpt>
      <trkpt lat="47.53331" lon="6.7532">
        <ele>409.39309692383</ele>
        <time>2019-04-14T07:11:39.000Z</time>
      </trkpt>
      <trkpt lat="47.53338" lon="6.75318">
        <ele>409.85049438477</ele>
        <time>2019-04-14T07:11:42.000Z</time>
      </trkpt>
      <trkpt lat="47.53344" lon="6.75316">
        <ele>410.29043579102</ele>
        <time>2019-04-14T07:11:45.000Z</time>
      </trkpt>
      <trkpt lat="47.53349" lon="6.75315">
        <ele>410.70034790039</ele>
        <time>2019-04-14T07:11:48.000Z</time>
      </trkpt>
      <trkpt lat="47.53355" lon="6.75313">
        <ele>411.09259033203</ele>
        <time>2019-04-14T07:11:51.000Z</time>
      </trkpt>
      <trkpt lat="47.53362" lon="6.7531">
        <ele>411.46142578125</ele>
        <time>2019-04-14T07:11:54.000Z</time>
      </trkpt>
      <trkpt lat="47.53366" lon="6.75306">
        <ele>411.81567382812</ele>
        <time>2019-04-14T07:11:57.000Z</time>
      </trkpt>
      <trkpt lat="47.53371" lon="6.75304">
        <ele>412.1650390625</ele>
        <time>2019-04-14T07:12:00.000Z</time>
      </trkpt>
      <trkpt lat="47.53376" lon="6.75302">
        <ele>412.52334594727</ele>
        <time>2019-04-14T07:12:03.000Z</time>
      </trkpt>
      <trkpt lat="47.53382" lon="6.75299">
        <ele>412.88241577148</ele>
        <time>2019-04-14T07:12:06.000Z</time>
      </trkpt>
      <trkpt lat="47.5339" lon="6.75296">
        <ele>413.25512695312</ele>
        <time>2019-04-14T07:12:09.000Z</time>
      </trkpt>
      <trkpt lat="47.53396" lon="6.7529">
        <ele>413.66122436523</ele>
        <time>2019-04-14T07:12:12.000Z</time>
      </trkpt>
      <trkpt lat="47.53402" lon="6.75283">
        <ele>414.10815429688</ele>
        <time>2019-04-14T07:12:15.000Z</time>
      </trkpt>
      <trkpt lat="47.53409" lon="6.75279">
        <ele>414.58837890625</ele>
        <time>2019-04-14T07:12:18.000Z</time>
      </trkpt>
      <trkpt lat="47.53415" lon="6.75276">
        <ele>415.06787109375</ele>
        <time>2019-04-14T07:12:21.000Z</time>
      </trkpt>
      <trkpt lat="47.53421" lon="6.75273">
        <ele>415.54248046875</ele>
        <time>2019-04-14T07:12:24.000Z</time>
      </trkpt>
      <trkpt lat="47.53428" lon="6.7527">
        <ele>416.00665283203</ele>
        <time>2019-04-14T07:12:27.000Z</time>
      </trkpt>
      <trkpt lat="47.53436" lon="6.75269">
        <ele>416.4658203125</ele>
        <time>2019-04-14T07:12:30.000Z</time>
      </trkpt>
      <trkpt lat="47.53442" lon="6.75269">
        <ele>416.89788818359</ele>
        <time>2019-04-14T07:12:33.000Z</time>
      </trkpt>
      <trkpt lat="47.5345" lon="6.75268">
        <ele>417.35137939453</ele>
        <time>2019-04-14T07:12:36.000Z</time>
      </trkpt>
      <trkpt lat="47.53457" lon="6.7527">
        <ele>417.78442382812</ele>
        <time>2019-04-14T07:12:39.000Z</time>
      </trkpt>
      <trkpt lat="47.53465" lon="6.75271">
        <ele>418.19613647461</ele>
        <time>2019-04-14T07:12:42.000Z</time>
      </trkpt>
      <trkpt lat="47.53474" lon="6.75271">
        <ele>418.62045288086</ele>
        <time>2019-04-14T07:12:45.000Z</time>
      </trkpt>
      <trkpt lat="47.53483" lon="6.75272">
        <ele>419.06045532227</ele>
        <time>2019-04-14T07:12:48.000Z</time>
      </trkpt>
      <trkpt lat="47.53491" lon="6.75272">
        <ele>419.49584960938</ele>
        <time>2019-04-14T07:12:51.000Z</time>
      </trkpt>
      <trkpt lat="47.53499" lon="6.75272">
        <ele>419.95745849609</ele>
        <time>2019-04-14T07:12:54.000Z</time>
      </trkpt>
      <trkpt lat="47.53508" lon="6.75272">
        <ele>420.41137695312</ele>
        <time>2019-04-14T07:12:57.000Z</time>
      </trkpt>
      <trkpt lat="47.53517" lon="6.75274">
        <ele>420.82119750977</ele>
        <time>2019-04-14T07:13:00.000Z</time>
      </trkpt>
      <trkpt lat="47.53526" lon="6.75273">
        <ele>421.2177734375</ele>
        <time>2019-04-14T07:13:03.000Z</time>
      </trkpt>
      <trkpt lat="47.53532" lon="6.75272">
        <ele>421.59408569336</ele>
        <time>2019-04-14T07:13:06.000Z</time>
      </trkpt>
      <trkpt lat="47.53542" lon="6.75271">
        <ele>421.95855712891</ele>
        <time>2019-04-14T07:13:09.000Z</time>
      </trkpt>
      <trkpt lat="47.53551" lon="6.7527">
        <ele>422.35235595703</ele>
        <time>2019-04-14T07:13:12.000Z</time>
      </trkpt>
      <trkpt lat="47.53559" lon="6.75267">
        <ele>422.79135131836</ele>
        <time>2019-04-14T07:13:15.000Z</time>
      </trkpt>
      <trkpt lat="47.53567" lon="6.75266">
        <ele>423.23699951172</ele>
        <time>2019-04-14T07:13:18.000Z</time>
      </trkpt>
      <trkpt lat="47.53574" lon="6.75261">
        <ele>423.71917724609</ele>
        <time>2019-04-14T07:13:21.000Z</time>
      </trkpt>
      <trkpt lat="47.5358" lon="6.75258">
        <ele>424.22955322266</ele>
        <time>2019-04-14T07:13:24.000Z</time>
      </trkpt>
      <trkpt lat="47.53586" lon="6.75254">
        <ele>424.74496459961</ele>
        <time>2019-04-14T07:13:27.000Z</time>
      </trkpt>
      <trkpt lat="47.53593" lon="6.75249">
        <ele>425.27362060547</ele>
        <time>2019-04-14T07:13:30.000Z</time>
      </trkpt>
      <trkpt lat="47.536" lon="6.75245">
        <ele>425.84503173828</ele>
        <time>2019-04-14T07:13:33.000Z</time>
      </trkpt>
      <trkpt lat="47.53605" lon="6.75243">
        <ele>426.37567138672</ele>
        <time>2019-04-14T07:13:36.000Z</time>
      </trkpt>
      <trkpt lat="47.5361" lon="6.75241">
        <ele>426.86956787109</ele>
        <time>2019-04-14T07:13:39.000Z</time>
      </trkpt>
      <trkpt lat="47.53616" lon="6.75238">
        <ele>427.37158203125</ele>
        <time>2019-04-14T07:13:42.000Z</time>
      </trkpt>
      <trkpt lat="47.5362" lon="6.75234">
        <ele>427.83554077148</ele>
        <time>2019-04-14T07:13:45.000Z</time>
      </trkpt>
      <trkpt lat="47.53624" lon="6.75232">
        <ele>428.23715209961</ele>
        <time>2019-04-14T07:13:48.000Z</time>
      </trkpt>
      <trkpt lat="47.53629" lon="6.75229">
        <ele>428.67178344727</ele>
        <time>2019-04-14T07:13:51.000Z</time>
      </trkpt>
      <trkpt lat="47.53635" lon="6.75226">
        <ele>429.12200927734</ele>
        <time>2019-04-14T07:13:54.000Z</time>
      </trkpt>
      <trkpt lat="47.53642" lon="6.75225">
        <ele>429.54672241211</ele>
        <time>2019-04-14T07:13:57.000Z</time>
      </trkpt>
      <trkpt lat="47.53648" lon="6.75224">
        <ele>429.95010375977</ele>
        <time>2019-04-14T07:14:00.000Z</time>
      </trkpt>
      <trkpt lat="47.53653" lon="6.75223">
        <ele>430.34844970703</ele>
        <time>2019-04-14T07:14:03.000Z</time>
      </trkpt>
      <trkpt lat="47.53659" lon="6.75222">
        <ele>430.71875</ele>
        <time>2019-04-14T07:14:06.000Z</time>
      </trkpt>
      <trkpt lat="47.53663" lon="6.75218">
        <ele>431.09823608398</ele>
        <time>2019-04-14T07:14:09.000Z</time>
      </trkpt>
      <trkpt lat="47.53666" lon="6.75213">
        <ele>431.5263671875</ele>
        <time>2019-04-14T07:14:12.000Z</time>
      </trkpt>
      <trkpt lat="47.53668" lon="6.75208">
        <ele>431.99829101562</ele>
        <time>2019-04-14T07:14:15.000Z</time>
      </trkpt>
      <trkpt lat="47.5367" lon="6.75201">
        <ele>432.54962158203</ele>
        <time>2019-04-14T07:14:18.000Z</time>
      </trkpt>
      <trkpt lat="47.53672" lon="6.75195">
        <ele>433.15692138672</ele>
        <time>2019-04-14T07:14:21.000Z</time>
      </trkpt>
      <trkpt lat="47.53675" lon="6.75188">
        <ele>433.79132080078</ele>
        <time>2019-04-14T07:14:24.000Z</time>
      </trkpt>
      <trkpt lat="47.53679" lon="6.7518">
        <ele>434.455078125</ele>
        <time>2019-04-14T07:14:27.000Z</time>
      </trkpt>
      <trkpt lat="47.53682" lon="6.75171">
        <ele>435.16357421875</ele>
        <time>2019-04-14T07:14:30.000Z</time>
      </trkpt>
      <trkpt lat="47.53686" lon="6.75162">
        <ele>435.83627319336</ele>
        <time>2019-04-14T07:14:33.000Z</time>
      </trkpt>
      <trkpt lat="47.5369" lon="6.75153">
        <ele>436.41278076172</ele>
        <time>2019-04-14T07:14:36.000Z</time>
      </trkpt>
      <trkpt lat="47.53693" lon="6.75146">
        <ele>436.88897705078</ele>
        <time>2019-04-14T07:14:39.000Z</time>
      </trkpt>
      <trkpt lat="47.53696" lon="6.75139">
        <ele>437.21417236328</ele>
        <time>2019-04-14T07:14:42.000Z</time>
      </trkpt>
      <trkpt lat="47.53701" lon="6.75132">
        <ele>437.38150024414</ele>
        <time>2019-04-14T07:14:45.000Z</time>
      </trkpt>
      <trkpt lat="47.53704" lon="6.75122">
        <ele>437.44833374023</ele>
        <time>2019-04-14T07:14:48.000Z</time>
      </trkpt>
      <trkpt lat="47.53708" lon="6.75112">
        <ele>437.451171875</ele>
        <time>2019-04-14T07:14:51.000Z</time>
      </trkpt>
      <trkpt lat="47.53714" lon="6.75102">
        <ele>437.36074829102</ele>
        <time>2019-04-14T07:14:54.000Z</time>
      </trkpt>
      <trkpt lat="47.5372" lon="6.75093">
        <ele>437.17660522461</ele>
        <time>2019-04-14T07:14:57.000Z</time>
      </trkpt>
      <trkpt lat="47.53727" lon="6.75081">
        <ele>436.87149047852</ele>
        <time>2019-04-14T07:15:00.000Z</time>
      </trkpt>
      <trkpt lat="47.53733" lon="6.75067">
        <ele>436.40811157227</ele>
        <time>2019-04-14T07:15:03.000Z</time>
      </trkpt>
      <trkpt lat="47.53737" lon="6.75051">
        <ele>435.83895874023</ele>
        <time>2019-04-14T07:15:06.000Z</time>
      </trkpt>
      <trkpt lat="47.53734" lon="6.75036">
        <ele>435.35214233398</ele>
        <time>2019-04-14T07:15:09.000Z</time>
      </trkpt>
      <trkpt lat="47.53728" lon="6.75027">
        <ele>435.0419921875</ele>
        <time>2019-04-14T07:15:12.000Z</time>
      </trkpt>
      <trkpt lat="47.53723" lon="6.75022">
        <ele>434.95840454102</ele>
        <time>2019-04-14T07:15:15.000Z</time>
      </trkpt>
      <trkpt lat="47.53722" lon="6.75021">
        <ele>435.05850219727</ele>
        <time>2019-04-14T07:15:18.000Z</time>
      </trkpt>
      <trkpt lat="47.53722" lon="6.75021">
        <ele>435.05850219727</ele>
        <time>2019-04-14T07:15:38.000Z</time>
      </trkpt>
      <trkpt lat="47.5372" lon="6.7502">
        <ele>435.32586669922</ele>
        <time>2019-04-14T07:17:48.000Z</time>
      </trkpt>
      <trkpt lat="47.5372" lon="6.7502">
        <ele>435.32586669922</ele>
        <time>2019-04-14T07:18:08.000Z</time>
      </trkpt>
      <trkpt lat="47.53718" lon="6.75018">
        <ele>435.61904907227</ele>
        <time>2019-04-14T07:18:22.000Z</time>
      </trkpt>
      <trkpt lat="47.53714" lon="6.75012">
        <ele>435.90249633789</ele>
        <time>2019-04-14T07:18:25.000Z</time>
      </trkpt>
      <trkpt lat="47.53707" lon="6.75009">
        <ele>436.24005126953</ele>
        <time>2019-04-14T07:18:28.000Z</time>
      </trkpt>
      <trkpt lat="47.53699" lon="6.75">
        <ele>436.71929931641</ele>
        <time>2019-04-14T07:18:31.000Z</time>
      </trkpt>
      <trkpt lat="47.53693" lon="6.74988">
        <ele>437.23345947266</ele>
        <time>2019-04-14T07:18:34.000Z</time>
      </trkpt>
      <trkpt lat="47.53687" lon="6.74978">
        <ele>437.79010009766</ele>
        <time>2019-04-14T07:18:37.000Z</time>
      </trkpt>
      <trkpt lat="47.53681" lon="6.74969">
        <ele>438.30258178711</ele>
        <time>2019-04-14T07:18:40.000Z</time>
      </trkpt>
      <trkpt lat="47.53675" lon="6.7496">
        <ele>438.70928955078</ele>
        <time>2019-04-14T07:18:43.000Z</time>
      </trkpt>
      <trkpt lat="47.53667" lon="6.74952">
        <ele>439.01934814453</ele>
        <time>2019-04-14T07:18:46.000Z</time>
      </trkpt>
      <trkpt lat="47.5366" lon="6.74941">
        <ele>439.25579833984</ele>
        <time>2019-04-14T07:18:49.000Z</time>
      </trkpt>
      <trkpt lat="47.53653" lon="6.74932">
        <ele>439.41186523438</ele>
        <time>2019-04-14T07:18:52.000Z</time>
      </trkpt>
      <trkpt lat="47.53647" lon="6.74923">
        <ele>439.54629516602</ele>
        <time>2019-04-14T07:18:55.000Z</time>
      </trkpt>
      <trkpt lat="47.5364" lon="6.74915">
        <ele>439.65420532227</ele>
        <time>2019-04-14T07:18:58.000Z</time>
      </trkpt>
      <trkpt lat="47.53633" lon="6.74907">
        <ele>439.72723388672</ele>
        <time>2019-04-14T07:19:01.000Z</time>
      </trkpt>
      <trkpt lat="47.53626" lon="6.74899">
        <ele>439.83795166016</ele>
        <time>2019-04-14T07:19:04.000Z</time>
      </trkpt>
      <trkpt lat="47.5362" lon="6.7489">
        <ele>439.98696899414</ele>
        <time>2019-04-14T07:19:07.000Z</time>
      </trkpt>
      <trkpt lat="47.53614" lon="6.7488">
        <ele>440.15420532227</ele>
        <time>2019-04-14T07:19:10.000Z</time>
      </trkpt>
      <trkpt lat="47.53608" lon="6.7487">
        <ele>440.36505126953</ele>
        <time>2019-04-14T07:19:13.000Z</time>
      </trkpt>
      <trkpt lat="47.53601" lon="6.74862">
        <ele>440.65463256836</ele>
        <time>2019-04-14T07:19:16.000Z</time>
      </trkpt>
      <trkpt lat="47.53593" lon="6.74854">
        <ele>441.04296875</ele>
        <time>2019-04-14T07:19:19.000Z</time>
      </trkpt>
      <trkpt lat="47.53586" lon="6.74846">
        <ele>441.54925537109</ele>
        <time>2019-04-14T07:19:22.000Z</time>
      </trkpt>
      <trkpt lat="47.53579" lon="6.74838">
        <ele>442.03326416016</ele>
        <time>2019-04-14T07:19:25.000Z</time>
      </trkpt>
      <trkpt lat="47.53572" lon="6.74829">
        <ele>442.41558837891</ele>
        <time>2019-04-14T07:19:28.000Z</time>
      </trkpt>
      <trkpt lat="47.53566" lon="6.74821">
        <ele>442.66567993164</ele>
        <time>2019-04-14T07:19:31.000Z</time>
      </trkpt>
      <trkpt lat="47.53559" lon="6.74811">
        <ele>442.77822875977</ele>
        <time>2019-04-14T07:19:34.000Z</time>
      </trkpt>
      <trkpt lat="47.53552" lon="6.74803">
        <ele>442.73504638672</ele>
        <time>2019-04-14T07:19:37.000Z</time>
      </trkpt>
      <trkpt lat="47.53544" lon="6.74794">
        <ele>442.69180297852</ele>
        <time>2019-04-14T07:19:40.000Z</time>
      </trkpt>
      <trkpt lat="47.53539" lon="6.74785">
        <ele>442.7109375</ele>
        <time>2019-04-14T07:19:43.000Z</time>
      </trkpt>
      <trkpt lat="47.53534" lon="6.74777">
        <ele>442.77880859375</ele>
        <time>2019-04-14T07:19:46.000Z</time>
      </trkpt>
      <trkpt lat="47.53526" lon="6.74768">
        <ele>442.90063476562</ele>
        <time>2019-04-14T07:19:49.000Z</time>
      </trkpt>
      <trkpt lat="47.5352" lon="6.74757">
        <ele>443.08081054688</ele>
        <time>2019-04-14T07:19:52.000Z</time>
      </trkpt>
      <trkpt lat="47.53514" lon="6.74746">
        <ele>443.28125</ele>
        <time>2019-04-14T07:19:55.000Z</time>
      </trkpt>
      <trkpt lat="47.53509" lon="6.74736">
        <ele>443.41241455078</ele>
        <time>2019-04-14T07:19:58.000Z</time>
      </trkpt>
      <trkpt lat="47.53503" lon="6.74727">
        <ele>443.48764038086</ele>
        <time>2019-04-14T07:20:01.000Z</time>
      </trkpt>
      <trkpt lat="47.53494" lon="6.74715">
        <ele>443.36758422852</ele>
        <time>2019-04-14T07:20:04.000Z</time>
      </trkpt>
      <trkpt lat="47.53486" lon="6.74703">
        <ele>442.97607421875</ele>
        <time>2019-04-14T07:20:07.000Z</time>
      </trkpt>
      <trkpt lat="47.53479" lon="6.74686">
        <ele>442.36117553711</ele>
        <time>2019-04-14T07:20:10.000Z</time>
      </trkpt>
      <trkpt lat="47.53472" lon="6.74669">
        <ele>441.60052490234</ele>
        <time>2019-04-14T07:20:13.000Z</time>
      </trkpt>
      <trkpt lat="47.53464" lon="6.74653">
        <ele>440.67007446289</ele>
        <time>2019-04-14T07:20:16.000Z</time>
      </trkpt>
      <trkpt lat="47.53451" lon="6.74634">
        <ele>439.67071533203</ele>
        <time>2019-04-14T07:20:19.000Z</time>
      </trkpt>
      <trkpt lat="47.5344" lon="6.74623">
        <ele>438.73297119141</ele>
        <time>2019-04-14T07:20:22.000Z</time>
      </trkpt>
      <trkpt lat="47.53431" lon="6.74616">
        <ele>437.88174438477</ele>
        <time>2019-04-14T07:20:25.000Z</time>
      </trkpt>
      <trkpt lat="47.53419" lon="6.74605">
        <ele>437.11669921875</ele>
        <time>2019-04-14T07:20:28.000Z</time>
      </trkpt>
      <trkpt lat="47.53408" lon="6.74598">
        <ele>436.51626586914</ele>
        <time>2019-04-14T07:20:31.000Z</time>
      </trkpt>
      <trkpt lat="47.53391" lon="6.74587">
        <ele>436.11346435547</ele>
        <time>2019-04-14T07:20:34.000Z</time>
      </trkpt>
      <trkpt lat="47.53378" lon="6.7458">
        <ele>435.84115600586</ele>
        <time>2019-04-14T07:20:37.000Z</time>
      </trkpt>
      <trkpt lat="47.53366" lon="6.7457">
        <ele>435.65267944336</ele>
        <time>2019-04-14T07:20:40.000Z</time>
      </trkpt>
      <trkpt lat="47.53354" lon="6.74559">
        <ele>435.53900146484</ele>
        <time>2019-04-14T07:20:43.000Z</time>
      </trkpt>
      <trkpt lat="47.53347" lon="6.7455">
        <ele>435.43927001953</ele>
        <time>2019-04-14T07:20:46.000Z</time>
      </trkpt>
      <trkpt lat="47.53337" lon="6.74545">
        <ele>435.32260131836</ele>
        <time>2019-04-14T07:20:49.000Z</time>
      </trkpt>
      <trkpt lat="47.53317" lon="6.74538">
        <ele>435.3037109375</ele>
        <time>2019-04-14T07:20:52.000Z</time>
      </trkpt>
      <trkpt lat="47.53299" lon="6.74528">
        <ele>435.37857055664</ele>
        <time>2019-04-14T07:20:55.000Z</time>
      </trkpt>
      <trkpt lat="47.53283" lon="6.74519">
        <ele>435.51815795898</ele>
        <time>2019-04-14T07:20:58.000Z</time>
      </trkpt>
      <trkpt lat="47.53267" lon="6.74509">
        <ele>435.68328857422</ele>
        <time>2019-04-14T07:21:01.000Z</time>
      </trkpt>
      <trkpt lat="47.53249" lon="6.74502">
        <ele>435.86157226562</ele>
        <time>2019-04-14T07:21:04.000Z</time>
      </trkpt>
      <trkpt lat="47.53228" lon="6.74485">
        <ele>435.36190795898</ele>
        <time>2019-04-14T07:21:07.000Z</time>
      </trkpt>
      <trkpt lat="47.5321" lon="6.74465">
        <ele>434.21035766602</ele>
        <time>2019-04-14T07:21:10.000Z</time>
      </trkpt>
      <trkpt lat="47.53193" lon="6.74455">
        <ele>432.55892944336</ele>
        <time>2019-04-14T07:21:13.000Z</time>
      </trkpt>
      <trkpt lat="47.53176" lon="6.74452">
        <ele>430.56192016602</ele>
        <time>2019-04-14T07:21:16.000Z</time>
      </trkpt>
      <trkpt lat="47.5316" lon="6.74445">
        <ele>428.15704345703</ele>
        <time>2019-04-14T07:21:19.000Z</time>
      </trkpt>
      <trkpt lat="47.53144" lon="6.74432">
        <ele>425.84344482422</ele>
        <time>2019-04-14T07:21:22.000Z</time>
      </trkpt>
      <trkpt lat="47.53128" lon="6.7442">
        <ele>423.62588500977</ele>
        <time>2019-04-14T07:21:25.000Z</time>
      </trkpt>
      <trkpt lat="47.53107" lon="6.74402">
        <ele>421.39276123047</ele>
        <time>2019-04-14T07:21:28.000Z</time>
      </trkpt>
      <trkpt lat="47.53093" lon="6.74387">
        <ele>419.22296142578</ele>
        <time>2019-04-14T07:21:31.000Z</time>
      </trkpt>
      <trkpt lat="47.53075" lon="6.74372">
        <ele>417.14349365234</ele>
        <time>2019-04-14T07:21:34.000Z</time>
      </trkpt>
      <trkpt lat="47.53058" lon="6.74355">
        <ele>415.15640258789</ele>
        <time>2019-04-14T07:21:37.000Z</time>
      </trkpt>
      <trkpt lat="47.5304" lon="6.74336">
        <ele>413.22299194336</ele>
        <time>2019-04-14T07:21:40.000Z</time>
      </trkpt>
      <trkpt lat="47.53023" lon="6.74321">
        <ele>411.26748657227</ele>
        <time>2019-04-14T07:21:43.000Z</time>
      </trkpt>
      <trkpt lat="47.53004" lon="6.74301">
        <ele>409.10418701172</ele>
        <time>2019-04-14T07:21:46.000Z</time>
      </trkpt>
      <trkpt lat="47.52991" lon="6.74286">
        <ele>407.12240600586</ele>
        <time>2019-04-14T07:21:49.000Z</time>
      </trkpt>
      <trkpt lat="47.52969" lon="6.74268">
        <ele>405.39224243164</ele>
        <time>2019-04-14T07:21:52.000Z</time>
      </trkpt>
      <trkpt lat="47.52953" lon="6.74251">
        <ele>403.98544311523</ele>
        <time>2019-04-14T07:21:55.000Z</time>
      </trkpt>
      <trkpt lat="47.52939" lon="6.74237">
        <ele>402.8962097168</ele>
        <time>2019-04-14T07:21:58.000Z</time>
      </trkpt>
      <trkpt lat="47.52926" lon="6.74225">
        <ele>402.14099121094</ele>
        <time>2019-04-14T07:22:01.000Z</time>
      </trkpt>
      <trkpt lat="47.52914" lon="6.74205">
        <ele>401.41314697266</ele>
        <time>2019-04-14T07:22:04.000Z</time>
      </trkpt>
      <trkpt lat="47.52903" lon="6.74184">
        <ele>400.79965209961</ele>
        <time>2019-04-14T07:22:07.000Z</time>
      </trkpt>
      <trkpt lat="47.5289" lon="6.74164">
        <ele>400.24014282227</ele>
        <time>2019-04-14T07:22:10.000Z</time>
      </trkpt>
      <trkpt lat="47.5288" lon="6.74141">
        <ele>399.60266113281</ele>
        <time>2019-04-14T07:22:13.000Z</time>
      </trkpt>
      <trkpt lat="47.52867" lon="6.74117">
        <ele>398.84136962891</ele>
        <time>2019-04-14T07:22:16.000Z</time>
      </trkpt>
      <trkpt lat="47.52856" lon="6.74093">
        <ele>397.92669677734</ele>
        <time>2019-04-14T07:22:19.000Z</time>
      </trkpt>
      <trkpt lat="47.52846" lon="6.74074">
        <ele>396.68948364258</ele>
        <time>2019-04-14T07:22:22.000Z</time>
      </trkpt>
      <trkpt lat="47.52836" lon="6.74074">
        <ele>395.51431274414</ele>
        <time>2019-04-14T07:22:25.000Z</time>
      </trkpt>
      <trkpt lat="47.52828" lon="6.74082">
        <ele>394.75326538086</ele>
        <time>2019-04-14T07:22:28.000Z</time>
      </trkpt>
      <trkpt lat="47.52818" lon="6.74096">
        <ele>394.27825927734</ele>
        <time>2019-04-14T07:22:31.000Z</time>
      </trkpt>
      <trkpt lat="47.52814" lon="6.74097">
        <ele>394.03244018555</ele>
        <time>2019-04-14T07:22:34.000Z</time>
      </trkpt>
      <trkpt lat="47.52806" lon="6.74093">
        <ele>393.95074462891</ele>
        <time>2019-04-14T07:22:37.000Z</time>
      </trkpt>
      <trkpt lat="47.52789" lon="6.7409">
        <ele>393.52645874023</ele>
        <time>2019-04-14T07:22:40.000Z</time>
      </trkpt>
      <trkpt lat="47.52774" lon="6.74082">
        <ele>392.63177490234</ele>
        <time>2019-04-14T07:22:43.000Z</time>
      </trkpt>
      <trkpt lat="47.5276" lon="6.74073">
        <ele>391.365234375</ele>
        <time>2019-04-14T07:22:46.000Z</time>
      </trkpt>
      <trkpt lat="47.52742" lon="6.74056">
        <ele>389.62896728516</ele>
        <time>2019-04-14T07:22:49.000Z</time>
      </trkpt>
      <trkpt lat="47.52722" lon="6.74045">
        <ele>387.55010986328</ele>
        <time>2019-04-14T07:22:52.000Z</time>
      </trkpt>
      <trkpt lat="47.52702" lon="6.74035">
        <ele>385.34194946289</ele>
        <time>2019-04-14T07:22:55.000Z</time>
      </trkpt>
      <trkpt lat="47.52688" lon="6.74034">
        <ele>383.17303466797</ele>
        <time>2019-04-14T07:22:58.000Z</time>
      </trkpt>
      <trkpt lat="47.52681" lon="6.74026">
        <ele>381.21823120117</ele>
        <time>2019-04-14T07:23:01.000Z</time>
      </trkpt>
      <trkpt lat="47.52684" lon="6.74017">
        <ele>379.80950927734</ele>
        <time>2019-04-14T07:23:04.000Z</time>
      </trkpt>
      <trkpt lat="47.52683" lon="6.74004">
        <ele>378.90484619141</ele>
        <time>2019-04-14T07:23:07.000Z</time>
      </trkpt>
      <trkpt lat="47.52684" lon="6.73989">
        <ele>378.33905029297</ele>
        <time>2019-04-14T07:23:10.000Z</time>
      </trkpt>
      <trkpt lat="47.52686" lon="6.73972">
        <ele>377.90176391602</ele>
        <time>2019-04-14T07:23:13.000Z</time>
      </trkpt>
      <trkpt lat="47.52688" lon="6.73957">
        <ele>377.48348999023</ele>
        <time>2019-04-14T07:23:16.000Z</time>
      </trkpt>
      <trkpt lat="47.52691" lon="6.73943">
        <ele>376.91561889648</ele>
        <time>2019-04-14T07:23:19.000Z</time>
      </trkpt>
      <trkpt lat="47.52695" lon="6.73928">
        <ele>376.26885986328</ele>
        <time>2019-04-14T07:23:22.000Z</time>
      </trkpt>
      <trkpt lat="47.52698" lon="6.73916">
        <ele>375.63674926758</ele>
        <time>2019-04-14T07:23:25.000Z</time>
      </trkpt>
      <trkpt lat="47.52701" lon="6.73904">
        <ele>375.05102539062</ele>
        <time>2019-04-14T07:23:28.000Z</time>
      </trkpt>
      <trkpt lat="47.52703" lon="6.73893">
        <ele>374.47924804688</ele>
        <time>2019-04-14T07:23:31.000Z</time>
      </trkpt>
      <trkpt lat="47.52706" lon="6.7388">
        <ele>373.90048217773</ele>
        <time>2019-04-14T07:23:34.000Z</time>
      </trkpt>
      <trkpt lat="47.5271" lon="6.73865">
        <ele>373.28964233398</ele>
        <time>2019-04-14T07:23:37.000Z</time>
      </trkpt>
      <trkpt lat="47.52713" lon="6.7385">
        <ele>372.62170410156</ele>
        <time>2019-04-14T07:23:40.000Z</time>
      </trkpt>
      <trkpt lat="47.52717" lon="6.73832">
        <ele>371.85211181641</ele>
        <time>2019-04-14T07:23:43.000Z</time>
      </trkpt>
      <trkpt lat="47.52719" lon="6.7381">
        <ele>370.91021728516</ele>
        <time>2019-04-14T07:23:46.000Z</time>
      </trkpt>
      <trkpt lat="47.52722" lon="6.73787">
        <ele>369.79919433594</ele>
        <time>2019-04-14T07:23:49.000Z</time>
      </trkpt>
      <trkpt lat="47.52724" lon="6.7376">
        <ele>368.48742675781</ele>
        <time>2019-04-14T07:23:52.000Z</time>
      </trkpt>
      <trkpt lat="47.52723" lon="6.73733">
        <ele>366.94189453125</ele>
        <time>2019-04-14T07:23:55.000Z</time>
      </trkpt>
      <trkpt lat="47.52728" lon="6.73712">
        <ele>365.28012084961</ele>
        <time>2019-04-14T07:23:58.000Z</time>
      </trkpt>
      <trkpt lat="47.52737" lon="6.73686">
        <ele>363.47955322266</ele>
        <time>2019-04-14T07:24:01.000Z</time>
      </trkpt>
      <trkpt lat="47.5275" lon="6.73663">
        <ele>361.58953857422</ele>
        <time>2019-04-14T07:24:04.000Z</time>
      </trkpt>
      <trkpt lat="47.52769" lon="6.73645">
        <ele>359.95477294922</ele>
        <time>2019-04-14T07:24:07.000Z</time>
      </trkpt>
      <trkpt lat="47.52788" lon="6.73622">
        <ele>358.76153564453</ele>
        <time>2019-04-14T07:24:10.000Z</time>
      </trkpt>
      <trkpt lat="47.52797" lon="6.73588">
        <ele>357.953125</ele>
        <time>2019-04-14T07:24:13.000Z</time>
      </trkpt>
      <trkpt lat="47.52795" lon="6.73562">
        <ele>357.6982421875</ele>
        <time>2019-04-14T07:24:16.000Z</time>
      </trkpt>
      <trkpt lat="47.52789" lon="6.73547">
        <ele>357.83145141602</ele>
        <time>2019-04-14T07:24:19.000Z</time>
      </trkpt>
      <trkpt lat="47.52777" lon="6.73536">
        <ele>357.93310546875</ele>
        <time>2019-04-14T07:24:22.000Z</time>
      </trkpt>
      <trkpt lat="47.52765" lon="6.73531">
        <ele>357.79458618164</ele>
        <time>2019-04-14T07:24:25.000Z</time>
      </trkpt>
      <trkpt lat="47.52751" lon="6.73526">
        <ele>357.35336303711</ele>
        <time>2019-04-14T07:24:28.000Z</time>
      </trkpt>
      <trkpt lat="47.52744" lon="6.73514">
        <ele>356.75454711914</ele>
        <time>2019-04-14T07:24:31.000Z</time>
      </trkpt>
      <trkpt lat="47.52741" lon="6.73497">
        <ele>356.24740600586</ele>
        <time>2019-04-14T07:24:34.000Z</time>
      </trkpt>
      <trkpt lat="47.52739" lon="6.73478">
        <ele>355.80715942383</ele>
        <time>2019-04-14T07:24:37.000Z</time>
      </trkpt>
      <trkpt lat="47.52738" lon="6.73458">
        <ele>355.5048828125</ele>
        <time>2019-04-14T07:24:40.000Z</time>
      </trkpt>
      <trkpt lat="47.52738" lon="6.73434">
        <ele>355.42413330078</ele>
        <time>2019-04-14T07:24:43.000Z</time>
      </trkpt>
      <trkpt lat="47.5274" lon="6.73412">
        <ele>355.40948486328</ele>
        <time>2019-04-14T07:24:46.000Z</time>
      </trkpt>
      <trkpt lat="47.52742" lon="6.73398">
        <ele>355.34173583984</ele>
        <time>2019-04-14T07:24:48.000Z</time>
      </trkpt>
      <trkpt lat="47.52745" lon="6.73372">
        <ele>355.36849975586</ele>
        <time>2019-04-14T07:24:51.000Z</time>
      </trkpt>
      <trkpt lat="47.52745" lon="6.73357">
        <ele>355.44525146484</ele>
        <time>2019-04-14T07:24:53.000Z</time>
      </trkpt>
      <trkpt lat="47.52748" lon="6.73336">
        <ele>355.57427978516</ele>
        <time>2019-04-14T07:24:56.000Z</time>
      </trkpt>
      <trkpt lat="47.5275" lon="6.73315">
        <ele>355.66763305664</ele>
        <time>2019-04-14T07:24:59.000Z</time>
      </trkpt>
      <trkpt lat="47.52753" lon="6.73291">
        <ele>355.72406005859</ele>
        <time>2019-04-14T07:25:02.000Z</time>
      </trkpt>
      <trkpt lat="47.52753" lon="6.73278">
        <ele>355.73416137695</ele>
        <time>2019-04-14T07:25:04.000Z</time>
      </trkpt>
      <trkpt lat="47.52755" lon="6.73256">
        <ele>355.73516845703</ele>
        <time>2019-04-14T07:25:07.000Z</time>
      </trkpt>
      <trkpt lat="47.52759" lon="6.73234">
        <ele>355.74307250977</ele>
        <time>2019-04-14T07:25:10.000Z</time>
      </trkpt>
      <trkpt lat="47.52763" lon="6.73211">
        <ele>355.77914428711</ele>
        <time>2019-04-14T07:25:13.000Z</time>
      </trkpt>
      <trkpt lat="47.52767" lon="6.73189">
        <ele>355.85787963867</ele>
        <time>2019-04-14T07:25:16.000Z</time>
      </trkpt>
      <trkpt lat="47.52771" lon="6.73167">
        <ele>355.97064208984</ele>
        <time>2019-04-14T07:25:19.000Z</time>
      </trkpt>
      <trkpt lat="47.52773" lon="6.73151">
        <ele>356.09930419922</ele>
        <time>2019-04-14T07:25:21.000Z</time>
      </trkpt>
      <trkpt lat="47.52778" lon="6.7313">
        <ele>356.18664550781</ele>
        <time>2019-04-14T07:25:24.000Z</time>
      </trkpt>
      <trkpt lat="47.52783" lon="6.73119">
        <ele>356.24771118164</ele>
        <time>2019-04-14T07:25:26.000Z</time>
      </trkpt>
      <trkpt lat="47.52789" lon="6.73106">
        <ele>356.27624511719</ele>
        <time>2019-04-14T07:25:29.000Z</time>
      </trkpt>
      <trkpt lat="47.52794" lon="6.731">
        <ele>356.29965209961</ele>
        <time>2019-04-14T07:25:31.000Z</time>
      </trkpt>
      <trkpt lat="47.52804" lon="6.73095">
        <ele>356.36370849609</ele>
        <time>2019-04-14T07:25:34.000Z</time>
      </trkpt>
      <trkpt lat="47.52811" lon="6.73093">
        <ele>356.45425415039</ele>
        <time>2019-04-14T07:25:36.000Z</time>
      </trkpt>
      <trkpt lat="47.52818" lon="6.73092">
        <ele>356.56945800781</ele>
        <time>2019-04-14T07:25:38.000Z</time>
      </trkpt>
      <trkpt lat="47.52829" lon="6.73087">
        <ele>356.70941162109</ele>
        <time>2019-04-14T07:25:41.000Z</time>
      </trkpt>
      <trkpt lat="47.52841" lon="6.73081">
        <ele>356.81649780273</ele>
        <time>2019-04-14T07:25:44.000Z</time>
      </trkpt>
      <trkpt lat="47.52848" lon="6.73077">
        <ele>356.82992553711</ele>
        <time>2019-04-14T07:25:46.000Z</time>
      </trkpt>
      <trkpt lat="47.52854" lon="6.73072">
        <ele>356.74700927734</ele>
        <time>2019-04-14T07:25:48.000Z</time>
      </trkpt>
      <trkpt lat="47.52863" lon="6.7306">
        <ele>356.47091674805</ele>
        <time>2019-04-14T07:25:51.000Z</time>
      </trkpt>
      <trkpt lat="47.52868" lon="6.73044">
        <ele>355.92651367188</ele>
        <time>2019-04-14T07:25:53.000Z</time>
      </trkpt>
      <trkpt lat="47.52872" lon="6.73025">
        <ele>355.12802124023</ele>
        <time>2019-04-14T07:25:56.000Z</time>
      </trkpt>
      <trkpt lat="47.52877" lon="6.73011">
        <ele>354.18490600586</ele>
        <time>2019-04-14T07:25:59.000Z</time>
      </trkpt>
      <trkpt lat="47.52885" lon="6.72997">
        <ele>353.09854125977</ele>
        <time>2019-04-14T07:26:02.000Z</time>
      </trkpt>
      <trkpt lat="47.52893" lon="6.72986">
        <ele>351.9397277832</ele>
        <time>2019-04-14T07:26:04.000Z</time>
      </trkpt>
      <trkpt lat="47.52908" lon="6.72968">
        <ele>350.72595214844</ele>
        <time>2019-04-14T07:26:07.000Z</time>
      </trkpt>
      <trkpt lat="47.5292" lon="6.72954">
        <ele>349.63293457031</ele>
        <time>2019-04-14T07:26:09.000Z</time>
      </trkpt>
      <trkpt lat="47.5293" lon="6.72925">
        <ele>348.380859375</ele>
        <time>2019-04-14T07:26:12.000Z</time>
      </trkpt>
      <trkpt lat="47.52935" lon="6.72891">
        <ele>346.75796508789</ele>
        <time>2019-04-14T07:26:15.000Z</time>
      </trkpt>
      <trkpt lat="47.52928" lon="6.72856">
        <ele>344.50469970703</ele>
        <time>2019-04-14T07:26:18.000Z</time>
      </trkpt>
      <trkpt lat="47.52919" lon="6.72823">
        <ele>341.92620849609</ele>
        <time>2019-04-14T07:26:21.000Z</time>
      </trkpt>
      <trkpt lat="47.52913" lon="6.72807">
        <ele>339.49981689453</ele>
        <time>2019-04-14T07:26:24.000Z</time>
      </trkpt>
      <trkpt lat="47.52908" lon="6.72798">
        <ele>337.46087646484</ele>
        <time>2019-04-14T07:26:26.000Z</time>
      </trkpt>
      <trkpt lat="47.52904" lon="6.72792">
        <ele>336.02505493164</ele>
        <time>2019-04-14T07:26:28.000Z</time>
      </trkpt>
      <trkpt lat="47.52893" lon="6.72789">
        <ele>335.47467041016</ele>
        <time>2019-04-14T07:26:31.000Z</time>
      </trkpt>
      <trkpt lat="47.52885" lon="6.72785">
        <ele>335.56723022461</ele>
        <time>2019-04-14T07:26:33.000Z</time>
      </trkpt>
      <trkpt lat="47.52874" lon="6.72775">
        <ele>335.712890625</ele>
        <time>2019-04-14T07:26:36.000Z</time>
      </trkpt>
      <trkpt lat="47.52861" lon="6.72763">
        <ele>335.89959716797</ele>
        <time>2019-04-14T07:26:39.000Z</time>
      </trkpt>
      <trkpt lat="47.52851" lon="6.72757">
        <ele>336.11264038086</ele>
        <time>2019-04-14T07:26:41.000Z</time>
      </trkpt>
      <trkpt lat="47.52842" lon="6.72752">
        <ele>336.34866333008</ele>
        <time>2019-04-14T07:26:43.000Z</time>
      </trkpt>
      <trkpt lat="47.52829" lon="6.7275">
        <ele>336.60171508789</ele>
        <time>2019-04-14T07:26:46.000Z</time>
      </trkpt>
      <trkpt lat="47.52819" lon="6.72752">
        <ele>336.81655883789</ele>
        <time>2019-04-14T07:26:48.000Z</time>
      </trkpt>
      <trkpt lat="47.52806" lon="6.7276">
        <ele>336.95288085938</ele>
        <time>2019-04-14T07:26:51.000Z</time>
      </trkpt>
      <trkpt lat="47.52795" lon="6.72772">
        <ele>337.01513671875</ele>
        <time>2019-04-14T07:26:54.000Z</time>
      </trkpt>
      <trkpt lat="47.52784" lon="6.72782">
        <ele>337.00830078125</ele>
        <time>2019-04-14T07:26:57.000Z</time>
      </trkpt>
      <trkpt lat="47.52771" lon="6.72791">
        <ele>336.94775390625</ele>
        <time>2019-04-14T07:27:00.000Z</time>
      </trkpt>
      <trkpt lat="47.52756" lon="6.728">
        <ele>336.8662109375</ele>
        <time>2019-04-14T07:27:03.000Z</time>
      </trkpt>
      <trkpt lat="47.52748" lon="6.72809">
        <ele>336.77703857422</ele>
        <time>2019-04-14T07:27:05.000Z</time>
      </trkpt>
      <trkpt lat="47.52733" lon="6.7282">
        <ele>336.7375793457</ele>
        <time>2019-04-14T07:27:08.000Z</time>
      </trkpt>
      <trkpt lat="47.52719" lon="6.72833">
        <ele>336.72259521484</ele>
        <time>2019-04-14T07:27:11.000Z</time>
      </trkpt>
      <trkpt lat="47.52709" lon="6.72838">
        <ele>336.76181030273</ele>
        <time>2019-04-14T07:27:13.000Z</time>
      </trkpt>
      <trkpt lat="47.52691" lon="6.72842">
        <ele>336.88494873047</ele>
        <time>2019-04-14T07:27:16.000Z</time>
      </trkpt>
      <trkpt lat="47.52679" lon="6.72834">
        <ele>337.09927368164</ele>
        <time>2019-04-14T07:27:19.000Z</time>
      </trkpt>
      <trkpt lat="47.52669" lon="6.72821">
        <ele>337.42645263672</ele>
        <time>2019-04-14T07:27:22.000Z</time>
      </trkpt>
      <trkpt lat="47.52665" lon="6.72812">
        <ele>337.84979248047</ele>
        <time>2019-04-14T07:27:24.000Z</time>
      </trkpt>
      <trkpt lat="47.52663" lon="6.72802">
        <ele>338.32574462891</ele>
        <time>2019-04-14T07:27:27.000Z</time>
      </trkpt>
      <trkpt lat="47.5266" lon="6.72796">
        <ele>338.80874633789</ele>
        <time>2019-04-14T07:27:29.000Z</time>
      </trkpt>
      <trkpt lat="47.52655" lon="6.72788">
        <ele>339.33285522461</ele>
        <time>2019-04-14T07:27:32.000Z</time>
      </trkpt>
      <trkpt lat="47.52651" lon="6.72783">
        <ele>339.81942749023</ele>
        <time>2019-04-14T07:27:34.000Z</time>
      </trkpt>
      <trkpt lat="47.52644" lon="6.72777">
        <ele>340.36581420898</ele>
        <time>2019-04-14T07:27:37.000Z</time>
      </trkpt>
      <trkpt lat="47.52635" lon="6.72775">
        <ele>340.95440673828</ele>
        <time>2019-04-14T07:27:40.000Z</time>
      </trkpt>
      <trkpt lat="47.52628" lon="6.72774">
        <ele>341.58099365234</ele>
        <time>2019-04-14T07:27:43.000Z</time>
      </trkpt>
      <trkpt lat="47.5262" lon="6.72772">
        <ele>342.22714233398</ele>
        <time>2019-04-14T07:27:46.000Z</time>
      </trkpt>
      <trkpt lat="47.52611" lon="6.7277">
        <ele>342.92916870117</ele>
        <time>2019-04-14T07:27:49.000Z</time>
      </trkpt>
      <trkpt lat="47.52602" lon="6.72769">
        <ele>343.6155090332</ele>
        <time>2019-04-14T07:27:52.000Z</time>
      </trkpt>
      <trkpt lat="47.52597" lon="6.72769">
        <ele>344.23431396484</ele>
        <time>2019-04-14T07:27:54.000Z</time>
      </trkpt>
      <trkpt lat="47.52587" lon="6.7277">
        <ele>344.87347412109</ele>
        <time>2019-04-14T07:27:57.000Z</time>
      </trkpt>
      <trkpt lat="47.52582" lon="6.7277">
        <ele>345.44110107422</ele>
        <time>2019-04-14T07:27:59.000Z</time>
      </trkpt>
      <trkpt lat="47.52573" lon="6.72771">
        <ele>345.94876098633</ele>
        <time>2019-04-14T07:28:02.000Z</time>
      </trkpt>
      <trkpt lat="47.52563" lon="6.72774">
        <ele>346.38946533203</ele>
        <time>2019-04-14T07:28:05.000Z</time>
      </trkpt>
      <trkpt lat="47.52557" lon="6.72777">
        <ele>346.79602050781</ele>
        <time>2019-04-14T07:28:07.000Z</time>
      </trkpt>
      <trkpt lat="47.52552" lon="6.7278">
        <ele>347.08554077148</ele>
        <time>2019-04-14T07:28:09.000Z</time>
      </trkpt>
      <trkpt lat="47.52547" lon="6.72783">
        <ele>347.33218383789</ele>
        <time>2019-04-14T07:28:11.000Z</time>
      </trkpt>
      <trkpt lat="47.52541" lon="6.72791">
        <ele>347.48455810547</ele>
        <time>2019-04-14T07:28:14.000Z</time>
      </trkpt>
      <trkpt lat="47.52536" lon="6.72796">
        <ele>347.57196044922</ele>
        <time>2019-04-14T07:28:16.000Z</time>
      </trkpt>
      <trkpt lat="47.52529" lon="6.72805">
        <ele>347.62573242188</ele>
        <time>2019-04-14T07:28:19.000Z</time>
      </trkpt>
      <trkpt lat="47.52525" lon="6.72811">
        <ele>347.66293334961</ele>
        <time>2019-04-14T07:28:21.000Z</time>
      </trkpt>
      <trkpt lat="47.52521" lon="6.72817">
        <ele>347.69033813477</ele>
        <time>2019-04-14T07:28:23.000Z</time>
      </trkpt>
      <trkpt lat="47.52514" lon="6.72826">
        <ele>347.75985717773</ele>
        <time>2019-04-14T07:28:26.000Z</time>
      </trkpt>
      <trkpt lat="47.52507" lon="6.72834">
        <ele>347.89077758789</ele>
        <time>2019-04-14T07:28:29.000Z</time>
      </trkpt>
      <trkpt lat="47.52502" lon="6.72838">
        <ele>348.08770751953</ele>
        <time>2019-04-14T07:28:31.000Z</time>
      </trkpt>
      <trkpt lat="47.52496" lon="6.72842">
        <ele>348.33111572266</ele>
        <time>2019-04-14T07:28:33.000Z</time>
      </trkpt>
      <trkpt lat="47.52486" lon="6.72848">
        <ele>348.64361572266</ele>
        <time>2019-04-14T07:28:36.000Z</time>
      </trkpt>
      <trkpt lat="47.5248" lon="6.72851">
        <ele>348.97406005859</ele>
        <time>2019-04-14T07:28:38.000Z</time>
      </trkpt>
      <trkpt lat="47.52474" lon="6.72852">
        <ele>349.30786132812</ele>
        <time>2019-04-14T07:28:40.000Z</time>
      </trkpt>
      <trkpt lat="47.52465" lon="6.72853">
        <ele>349.69128417969</ele>
        <time>2019-04-14T07:28:43.000Z</time>
      </trkpt>
      <trkpt lat="47.52459" lon="6.72854">
        <ele>350.10443115234</ele>
        <time>2019-04-14T07:28:45.000Z</time>
      </trkpt>
      <trkpt lat="47.52448" lon="6.72853">
        <ele>350.57562255859</ele>
        <time>2019-04-14T07:28:48.000Z</time>
      </trkpt>
      <trkpt lat="47.52438" lon="6.72852">
        <ele>351.12634277344</ele>
        <time>2019-04-14T07:28:51.000Z</time>
      </trkpt>
      <trkpt lat="47.52428" lon="6.7285">
        <ele>351.7405090332</ele>
        <time>2019-04-14T07:28:54.000Z</time>
      </trkpt>
      <trkpt lat="47.52422" lon="6.7285">
        <ele>352.32241821289</ele>
        <time>2019-04-14T07:28:56.000Z</time>
      </trkpt>
      <trkpt lat="47.52415" lon="6.7285">
        <ele>352.89083862305</ele>
        <time>2019-04-14T07:28:58.000Z</time>
      </trkpt>
      <trkpt lat="47.52409" lon="6.7285">
        <ele>353.35580444336</ele>
        <time>2019-04-14T07:29:00.000Z</time>
      </trkpt>
      <trkpt lat="47.52398" lon="6.72852">
        <ele>353.73037719727</ele>
        <time>2019-04-14T07:29:03.000Z</time>
      </trkpt>
      <trkpt lat="47.52387" lon="6.72853">
        <ele>354.02038574219</ele>
        <time>2019-04-14T07:29:06.000Z</time>
      </trkpt>
      <trkpt lat="47.52376" lon="6.72853">
        <ele>354.27655029297</ele>
        <time>2019-04-14T07:29:09.000Z</time>
      </trkpt>
      <trkpt lat="47.52372" lon="6.72854">
        <ele>354.47274780273</ele>
        <time>2019-04-14T07:29:11.000Z</time>
      </trkpt>
      <trkpt lat="47.5237" lon="6.72853">
        <ele>354.65048217773</ele>
        <time>2019-04-14T07:29:13.000Z</time>
      </trkpt>
      <trkpt lat="47.52372" lon="6.72849">
        <ele>354.79937744141</ele>
        <time>2019-04-14T07:29:16.000Z</time>
      </trkpt>
      <trkpt lat="47.52374" lon="6.72855">
        <ele>354.84820556641</ele>
        <time>2019-04-14T07:29:19.000Z</time>
      </trkpt>
      <trkpt lat="47.52374" lon="6.72859">
        <ele>354.81433105469</ele>
        <time>2019-04-14T07:29:21.000Z</time>
      </trkpt>
      <trkpt lat="47.52376" lon="6.72859">
        <ele>354.76092529297</ele>
        <time>2019-04-14T07:29:24.000Z</time>
      </trkpt>
      <trkpt lat="47.52376" lon="6.72857">
        <ele>354.70590209961</ele>
        <time>2019-04-14T07:29:26.000Z</time>
      </trkpt>
      <trkpt lat="47.52373" lon="6.72854">
        <ele>354.66760253906</ele>
        <time>2019-04-14T07:29:29.000Z</time>
      </trkpt>
      <trkpt lat="47.5237" lon="6.72853">
        <ele>354.69946289062</ele>
        <time>2019-04-14T07:29:31.000Z</time>
      </trkpt>
      <trkpt lat="47.52365" lon="6.72852">
        <ele>354.79763793945</ele>
        <time>2019-04-14T07:29:34.000Z</time>
      </trkpt>
      <trkpt lat="47.5236" lon="6.72849">
        <ele>354.95684814453</ele>
        <time>2019-04-14T07:29:37.000Z</time>
      </trkpt>
      <trkpt lat="47.52357" lon="6.72846">
        <ele>355.13970947266</ele>
        <time>2019-04-14T07:29:39.000Z</time>
      </trkpt>
      <trkpt lat="47.52351" lon="6.72842">
        <ele>355.36419677734</ele>
        <time>2019-04-14T07:29:42.000Z</time>
      </trkpt>
      <trkpt lat="47.52343" lon="6.7284">
        <ele>355.64166259766</ele>
        <time>2019-04-14T07:29:45.000Z</time>
      </trkpt>
      <trkpt lat="47.52339" lon="6.72839">
        <ele>355.92294311523</ele>
        <time>2019-04-14T07:29:47.000Z</time>
      </trkpt>
      <trkpt lat="47.52335" lon="6.72838">
        <ele>356.18414306641</ele>
        <time>2019-04-14T07:29:49.000Z</time>
      </trkpt>
      <trkpt lat="47.52328" lon="6.72837">
        <ele>356.40203857422</ele>
        <time>2019-04-14T07:29:52.000Z</time>
      </trkpt>
      <trkpt lat="47.52324" lon="6.72833">
        <ele>356.55651855469</ele>
        <time>2019-04-14T07:29:54.000Z</time>
      </trkpt>
      <trkpt lat="47.52319" lon="6.72825">
        <ele>356.74542236328</ele>
        <time>2019-04-14T07:29:57.000Z</time>
      </trkpt>
      <trkpt lat="47.52316" lon="6.72814">
        <ele>357.05364990234</ele>
        <time>2019-04-14T07:30:00.000Z</time>
      </trkpt>
      <trkpt lat="47.52315" lon="6.72807">
        <ele>357.44018554688</ele>
        <time>2019-04-14T07:30:02.000Z</time>
      </trkpt>
      <trkpt lat="47.52314" lon="6.72796">
        <ele>358.00256347656</ele>
        <time>2019-04-14T07:30:05.000Z</time>
      </trkpt>
      <trkpt lat="47.52315" lon="6.72786">
        <ele>358.7470703125</ele>
        <time>2019-04-14T07:30:08.000Z</time>
      </trkpt>
      <trkpt lat="47.52316" lon="6.72781">
        <ele>359.49649047852</ele>
        <time>2019-04-14T07:30:10.000Z</time>
      </trkpt>
      <trkpt lat="47.52318" lon="6.72773">
        <ele>360.25775146484</ele>
        <time>2019-04-14T07:30:13.000Z</time>
      </trkpt>
      <trkpt lat="47.52319" lon="6.72766">
        <ele>361.08221435547</ele>
        <time>2019-04-14T07:30:16.000Z</time>
      </trkpt>
      <trkpt lat="47.52322" lon="6.72758">
        <ele>361.93530273438</ele>
        <time>2019-04-14T07:30:19.000Z</time>
      </trkpt>
      <trkpt lat="47.52324" lon="6.72754">
        <ele>362.72869873047</ele>
        <time>2019-04-14T07:30:21.000Z</time>
      </trkpt>
      <trkpt lat="47.52327" lon="6.72749">
        <ele>363.57302856445</ele>
        <time>2019-04-14T07:30:23.000Z</time>
      </trkpt>
      <trkpt lat="47.52331" lon="6.72743">
        <ele>364.48361206055</ele>
        <time>2019-04-14T07:30:26.000Z</time>
      </trkpt>
      <trkpt lat="47.52335" lon="6.72736">
        <ele>365.43075561523</ele>
        <time>2019-04-14T07:30:29.000Z</time>
      </trkpt>
      <trkpt lat="47.52337" lon="6.72732">
        <ele>366.24029541016</ele>
        <time>2019-04-14T07:30:31.000Z</time>
      </trkpt>
      <trkpt lat="47.52339" lon="6.72727">
        <ele>366.98007202148</ele>
        <time>2019-04-14T07:30:33.000Z</time>
      </trkpt>
      <trkpt lat="47.52342" lon="6.72721">
        <ele>367.66802978516</ele>
        <time>2019-04-14T07:30:36.000Z</time>
      </trkpt>
      <trkpt lat="47.52344" lon="6.72717">
        <ele>368.17837524414</ele>
        <time>2019-04-14T07:30:39.000Z</time>
      </trkpt>
      <trkpt lat="47.52347" lon="6.72712">
        <ele>368.55743408203</ele>
        <time>2019-04-14T07:30:42.000Z</time>
      </trkpt>
      <trkpt lat="47.52349" lon="6.72708">
        <ele>368.9599609375</ele>
        <time>2019-04-14T07:30:45.000Z</time>
      </trkpt>
      <trkpt lat="47.52349" lon="6.72704">
        <ele>369.40490722656</ele>
        <time>2019-04-14T07:30:47.000Z</time>
      </trkpt>
      <trkpt lat="47.52348" lon="6.72695">
        <ele>369.97467041016</ele>
        <time>2019-04-14T07:30:50.000Z</time>
      </trkpt>
      <trkpt lat="47.52347" lon="6.72689">
        <ele>370.62905883789</ele>
        <time>2019-04-14T07:30:52.000Z</time>
      </trkpt>
      <trkpt lat="47.52346" lon="6.72681">
        <ele>371.40716552734</ele>
        <time>2019-04-14T07:30:55.000Z</time>
      </trkpt>
      <trkpt lat="47.52345" lon="6.72672">
        <ele>372.31680297852</ele>
        <time>2019-04-14T07:30:58.000Z</time>
      </trkpt>
      <trkpt lat="47.52344" lon="6.72667">
        <ele>373.25476074219</ele>
        <time>2019-04-14T07:31:00.000Z</time>
      </trkpt>
      <trkpt lat="47.52343" lon="6.72661">
        <ele>373.98281860352</ele>
        <time>2019-04-14T07:31:02.000Z</time>
      </trkpt>
      <trkpt lat="47.52343" lon="6.72652">
        <ele>374.60552978516</ele>
        <time>2019-04-14T07:31:05.000Z</time>
      </trkpt>
      <trkpt lat="47.52344" lon="6.72647">
        <ele>375.05523681641</ele>
        <time>2019-04-14T07:31:07.000Z</time>
      </trkpt>
      <trkpt lat="47.52345" lon="6.72642">
        <ele>375.32122802734</ele>
        <time>2019-04-14T07:31:09.000Z</time>
      </trkpt>
      <trkpt lat="47.52349" lon="6.72636">
        <ele>375.50469970703</ele>
        <time>2019-04-14T07:31:12.000Z</time>
      </trkpt>
      <trkpt lat="47.52354" lon="6.72631">
        <ele>375.73406982422</ele>
        <time>2019-04-14T07:31:15.000Z</time>
      </trkpt>
      <trkpt lat="47.52357" lon="6.72628">
        <ele>375.97463989258</ele>
        <time>2019-04-14T07:31:17.000Z</time>
      </trkpt>
      <trkpt lat="47.52362" lon="6.72624">
        <ele>376.26211547852</ele>
        <time>2019-04-14T07:31:20.000Z</time>
      </trkpt>
      <trkpt lat="47.52366" lon="6.72621">
        <ele>376.59265136719</ele>
        <time>2019-04-14T07:31:23.000Z</time>
      </trkpt>
      <trkpt lat="47.5237" lon="6.72616">
        <ele>376.95770263672</ele>
        <time>2019-04-14T07:31:26.000Z</time>
      </trkpt>
      <trkpt lat="47.52374" lon="6.72614">
        <ele>377.31820678711</ele>
        <time>2019-04-14T07:31:28.000Z</time>
      </trkpt>
      <trkpt lat="47.52378" lon="6.72611">
        <ele>377.71670532227</ele>
        <time>2019-04-14T07:31:31.000Z</time>
      </trkpt>
      <trkpt lat="47.52381" lon="6.72607">
        <ele>378.13275146484</ele>
        <time>2019-04-14T07:31:34.000Z</time>
      </trkpt>
      <trkpt lat="47.52385" lon="6.72602">
        <ele>378.59967041016</ele>
        <time>2019-04-14T07:31:37.000Z</time>
      </trkpt>
      <trkpt lat="47.52388" lon="6.72599">
        <ele>379.07186889648</ele>
        <time>2019-04-14T07:31:39.000Z</time>
      </trkpt>
      <trkpt lat="47.52392" lon="6.72593">
        <ele>379.62405395508</ele>
        <time>2019-04-14T07:31:42.000Z</time>
      </trkpt>
      <trkpt lat="47.52396" lon="6.72587">
        <ele>380.24798583984</ele>
        <time>2019-04-14T07:31:45.000Z</time>
      </trkpt>
      <trkpt lat="47.52398" lon="6.72585">
        <ele>380.8616027832</ele>
        <time>2019-04-14T07:31:47.000Z</time>
      </trkpt>
      <trkpt lat="47.52402" lon="6.7258">
        <ele>381.51300048828</ele>
        <time>2019-04-14T07:31:50.000Z</time>
      </trkpt>
      <trkpt lat="47.52406" lon="6.72575">
        <ele>382.23382568359</ele>
        <time>2019-04-14T07:31:53.000Z</time>
      </trkpt>
      <trkpt lat="47.52409" lon="6.72572">
        <ele>382.91171264648</ele>
        <time>2019-04-14T07:31:55.000Z</time>
      </trkpt>
      <trkpt lat="47.52415" lon="6.72566">
        <ele>383.62445068359</ele>
        <time>2019-04-14T07:31:58.000Z</time>
      </trkpt>
      <trkpt lat="47.52418" lon="6.72563">
        <ele>384.34292602539</ele>
        <time>2019-04-14T07:32:00.000Z</time>
      </trkpt>
      <trkpt lat="47.52423" lon="6.72558">
        <ele>384.92437744141</ele>
        <time>2019-04-14T07:32:03.000Z</time>
      </trkpt>
      <trkpt lat="47.52427" lon="6.72555">
        <ele>385.35848999023</ele>
        <time>2019-04-14T07:32:05.000Z</time>
      </trkpt>
      <trkpt lat="47.52433" lon="6.72551">
        <ele>385.69198608398</ele>
        <time>2019-04-14T07:32:08.000Z</time>
      </trkpt>
      <trkpt lat="47.52437" lon="6.72549">
        <ele>385.82852172852</ele>
        <time>2019-04-14T07:32:10.000Z</time>
      </trkpt>
      <trkpt lat="47.52443" lon="6.72546">
        <ele>385.86923217773</ele>
        <time>2019-04-14T07:32:13.000Z</time>
      </trkpt>
      <trkpt lat="47.52449" lon="6.72542">
        <ele>385.88909912109</ele>
        <time>2019-04-14T07:32:16.000Z</time>
      </trkpt>
      <trkpt lat="47.52449" lon="6.72542">
        <ele>385.88909912109</ele>
        <time>2019-04-14T07:32:36.000Z</time>
      </trkpt>
      <trkpt lat="47.5245" lon="6.7254">
        <ele>385.93365478516</ele>
        <time>2019-04-14T07:33:01.000Z</time>
      </trkpt>
      <trkpt lat="47.5245" lon="6.7254">
        <ele>385.93365478516</ele>
        <time>2019-04-14T07:33:21.000Z</time>
      </trkpt>
      <trkpt lat="47.52449" lon="6.72538">
        <ele>386.01007080078</ele>
        <time>2019-04-14T07:33:29.000Z</time>
      </trkpt>
      <trkpt lat="47.52451" lon="6.72537">
        <ele>386.09399414062</ele>
        <time>2019-04-14T07:33:33.000Z</time>
      </trkpt>
      <trkpt lat="47.52456" lon="6.72536">
        <ele>386.14663696289</ele>
        <time>2019-04-14T07:33:35.000Z</time>
      </trkpt>
      <trkpt lat="47.52463" lon="6.72534">
        <ele>386.17193603516</ele>
        <time>2019-04-14T07:33:37.000Z</time>
      </trkpt>
      <trkpt lat="47.52472" lon="6.7253">
        <ele>386.15277099609</ele>
        <time>2019-04-14T07:33:39.000Z</time>
      </trkpt>
      <trkpt lat="47.52487" lon="6.72523">
        <ele>386.11694335938</ele>
        <time>2019-04-14T07:33:42.000Z</time>
      </trkpt>
      <trkpt lat="47.52494" lon="6.72515">
        <ele>386.16986083984</ele>
        <time>2019-04-14T07:33:44.000Z</time>
      </trkpt>
      <trkpt lat="47.52506" lon="6.72501">
        <ele>386.29156494141</ele>
        <time>2019-04-14T07:33:47.000Z</time>
      </trkpt>
      <trkpt lat="47.52512" lon="6.72488">
        <ele>386.41751098633</ele>
        <time>2019-04-14T07:33:49.000Z</time>
      </trkpt>
      <trkpt lat="47.52519" lon="6.72475">
        <ele>386.44955444336</ele>
        <time>2019-04-14T07:33:51.000Z</time>
      </trkpt>
      <trkpt lat="47.52534" lon="6.72457">
        <ele>386.21746826172</ele>
        <time>2019-04-14T07:33:54.000Z</time>
      </trkpt>
      <trkpt lat="47.52545" lon="6.72448">
        <ele>385.68344116211</ele>
        <time>2019-04-14T07:33:56.000Z</time>
      </trkpt>
      <trkpt lat="47.52561" lon="6.7244">
        <ele>384.75216674805</ele>
        <time>2019-04-14T07:33:59.000Z</time>
      </trkpt>
      <trkpt lat="47.52572" lon="6.72429">
        <ele>383.68298339844</ele>
        <time>2019-04-14T07:34:02.000Z</time>
      </trkpt>
      <trkpt lat="47.5258" lon="6.72425">
        <ele>382.54122924805</ele>
        <time>2019-04-14T07:34:04.000Z</time>
      </trkpt>
      <trkpt lat="47.52588" lon="6.72423">
        <ele>381.50689697266</ele>
        <time>2019-04-14T07:34:06.000Z</time>
      </trkpt>
      <trkpt lat="47.52596" lon="6.72417">
        <ele>380.64520263672</ele>
        <time>2019-04-14T07:34:09.000Z</time>
      </trkpt>
      <trkpt lat="47.52596" lon="6.72412">
        <ele>380.19873046875</ele>
        <time>2019-04-14T07:34:11.000Z</time>
      </trkpt>
      <trkpt lat="47.52592" lon="6.7241">
        <ele>380.00421142578</ele>
        <time>2019-04-14T07:34:14.000Z</time>
      </trkpt>
      <trkpt lat="47.52589" lon="6.72408">
        <ele>380.06518554688</ele>
        <time>2019-04-14T07:34:17.000Z</time>
      </trkpt>
      <trkpt lat="47.52586" lon="6.72405">
        <ele>380.35705566406</ele>
        <time>2019-04-14T07:34:19.000Z</time>
      </trkpt>
      <trkpt lat="47.52582" lon="6.72398">
        <ele>380.85604858398</ele>
        <time>2019-04-14T07:34:22.000Z</time>
      </trkpt>
      <trkpt lat="47.52578" lon="6.72395">
        <ele>381.45452880859</ele>
        <time>2019-04-14T07:34:24.000Z</time>
      </trkpt>
      <trkpt lat="47.52572" lon="6.7239">
        <ele>382.15615844727</ele>
        <time>2019-04-14T07:34:27.000Z</time>
      </trkpt>
      <trkpt lat="47.52568" lon="6.72387">
        <ele>382.91607666016</ele>
        <time>2019-04-14T07:34:29.000Z</time>
      </trkpt>
      <trkpt lat="47.52562" lon="6.7238">
        <ele>383.78448486328</ele>
        <time>2019-04-14T07:34:32.000Z</time>
      </trkpt>
      <trkpt lat="47.52558" lon="6.72376">
        <ele>384.60458374023</ele>
        <time>2019-04-14T07:34:34.000Z</time>
      </trkpt>
      <trkpt lat="47.52552" lon="6.72368">
        <ele>385.46090698242</ele>
        <time>2019-04-14T07:34:37.000Z</time>
      </trkpt>
      <trkpt lat="47.52547" lon="6.72359">
        <ele>386.28173828125</ele>
        <time>2019-04-14T07:34:40.000Z</time>
      </trkpt>
      <trkpt lat="47.52542" lon="6.72351">
        <ele>387.09066772461</ele>
        <time>2019-04-14T07:34:43.000Z</time>
      </trkpt>
      <trkpt lat="47.52538" lon="6.72343">
        <ele>387.81796264648</ele>
        <time>2019-04-14T07:34:46.000Z</time>
      </trkpt>
      <trkpt lat="47.52535" lon="6.72335">
        <ele>388.49514770508</ele>
        <time>2019-04-14T07:34:49.000Z</time>
      </trkpt>
      <trkpt lat="47.52538" lon="6.72327">
        <ele>388.95953369141</ele>
        <time>2019-04-14T07:34:51.000Z</time>
      </trkpt>
      <trkpt lat="47.52545" lon="6.72317">
        <ele>389.12457275391</ele>
        <time>2019-04-14T07:34:54.000Z</time>
      </trkpt>
      <trkpt lat="47.52551" lon="6.7231">
        <ele>389.06121826172</ele>
        <time>2019-04-14T07:34:56.000Z</time>
      </trkpt>
      <trkpt lat="47.5256" lon="6.72296">
        <ele>388.72564697266</ele>
        <time>2019-04-14T07:34:59.000Z</time>
      </trkpt>
      <trkpt lat="47.52569" lon="6.72283">
        <ele>388.18832397461</ele>
        <time>2019-04-14T07:35:02.000Z</time>
      </trkpt>
      <trkpt lat="47.52579" lon="6.72268">
        <ele>387.53210449219</ele>
        <time>2019-04-14T07:35:05.000Z</time>
      </trkpt>
      <trkpt lat="47.52585" lon="6.72258">
        <ele>386.93112182617</ele>
        <time>2019-04-14T07:35:07.000Z</time>
      </trkpt>
      <trkpt lat="47.52591" lon="6.72247">
        <ele>386.31317138672</ele>
        <time>2019-04-14T07:35:09.000Z</time>
      </trkpt>
      <trkpt lat="47.526" lon="6.72232">
        <ele>385.72982788086</ele>
        <time>2019-04-14T07:35:12.000Z</time>
      </trkpt>
      <trkpt lat="47.52611" lon="6.72217">
        <ele>385.14459228516</ele>
        <time>2019-04-14T07:35:15.000Z</time>
      </trkpt>
      <trkpt lat="47.52622" lon="6.72198">
        <ele>384.64111328125</ele>
        <time>2019-04-14T07:35:18.000Z</time>
      </trkpt>
      <trkpt lat="47.52632" lon="6.7218">
        <ele>384.19625854492</ele>
        <time>2019-04-14T07:35:21.000Z</time>
      </trkpt>
      <trkpt lat="47.5264" lon="6.72163">
        <ele>383.91445922852</ele>
        <time>2019-04-14T07:35:24.000Z</time>
      </trkpt>
      <trkpt lat="47.52649" lon="6.72145">
        <ele>383.82089233398</ele>
        <time>2019-04-14T07:35:27.000Z</time>
      </trkpt>
      <trkpt lat="47.52655" lon="6.72135">
        <ele>383.91781616211</ele>
        <time>2019-04-14T07:35:29.000Z</time>
      </trkpt>
      <trkpt lat="47.5266" lon="6.72125">
        <ele>384.14682006836</ele>
        <time>2019-04-14T07:35:31.000Z</time>
      </trkpt>
      <trkpt lat="47.52667" lon="6.72114">
        <ele>384.46392822266</ele>
        <time>2019-04-14T07:35:34.000Z</time>
      </trkpt>
      <trkpt lat="47.52674" lon="6.72102">
        <ele>384.79650878906</ele>
        <time>2019-04-14T07:35:37.000Z</time>
      </trkpt>
      <trkpt lat="47.52678" lon="6.72095">
        <ele>385.09085083008</ele>
        <time>2019-04-14T07:35:39.000Z</time>
      </trkpt>
      <trkpt lat="47.52686" lon="6.72084">
        <ele>385.36669921875</ele>
        <time>2019-04-14T07:35:42.000Z</time>
      </trkpt>
      <trkpt lat="47.52692" lon="6.72073">
        <ele>385.59759521484</ele>
        <time>2019-04-14T07:35:45.000Z</time>
      </trkpt>
      <trkpt lat="47.52697" lon="6.72066">
        <ele>385.78240966797</ele>
        <time>2019-04-14T07:35:47.000Z</time>
      </trkpt>
      <trkpt lat="47.52704" lon="6.72055">
        <ele>385.94329833984</ele>
        <time>2019-04-14T07:35:50.000Z</time>
      </trkpt>
      <trkpt lat="47.52708" lon="6.72048">
        <ele>386.10034179688</ele>
        <time>2019-04-14T07:35:52.000Z</time>
      </trkpt>
      <trkpt lat="47.52713" lon="6.72041">
        <ele>386.24530029297</ele>
        <time>2019-04-14T07:35:54.000Z</time>
      </trkpt>
      <trkpt lat="47.52721" lon="6.72033">
        <ele>386.40609741211</ele>
        <time>2019-04-14T07:35:57.000Z</time>
      </trkpt>
      <trkpt lat="47.52728" lon="6.72028">
        <ele>386.5608215332</ele>
        <time>2019-04-14T07:35:59.000Z</time>
      </trkpt>
      <trkpt lat="47.52734" lon="6.72022">
        <ele>386.70028686523</ele>
        <time>2019-04-14T07:36:01.000Z</time>
      </trkpt>
      <trkpt lat="47.52745" lon="6.72013">
        <ele>386.86376953125</ele>
        <time>2019-04-14T07:36:04.000Z</time>
      </trkpt>
      <trkpt lat="47.52758" lon="6.72003">
        <ele>387.0729675293</ele>
        <time>2019-04-14T07:36:07.000Z</time>
      </trkpt>
      <trkpt lat="47.5277" lon="6.71995">
        <ele>387.25848388672</ele>
        <time>2019-04-14T07:36:10.000Z</time>
      </trkpt>
      <trkpt lat="47.52781" lon="6.71985">
        <ele>387.41552734375</ele>
        <time>2019-04-14T07:36:13.000Z</time>
      </trkpt>
      <trkpt lat="47.52787" lon="6.7198">
        <ele>387.53103637695</ele>
        <time>2019-04-14T07:36:15.000Z</time>
      </trkpt>
      <trkpt lat="47.52796" lon="6.71972">
        <ele>387.55181884766</ele>
        <time>2019-04-14T07:36:18.000Z</time>
      </trkpt>
      <trkpt lat="47.52805" lon="6.71964">
        <ele>387.45223999023</ele>
        <time>2019-04-14T07:36:21.000Z</time>
      </trkpt>
      <trkpt lat="47.52815" lon="6.71956">
        <ele>387.27178955078</ele>
        <time>2019-04-14T07:36:24.000Z</time>
      </trkpt>
      <trkpt lat="47.52824" lon="6.71947">
        <ele>387.03866577148</ele>
        <time>2019-04-14T07:36:27.000Z</time>
      </trkpt>
      <trkpt lat="47.5283" lon="6.71941">
        <ele>386.7688293457</ele>
        <time>2019-04-14T07:36:29.000Z</time>
      </trkpt>
      <trkpt lat="47.52839" lon="6.71932">
        <ele>386.50170898438</ele>
        <time>2019-04-14T07:36:32.000Z</time>
      </trkpt>
      <trkpt lat="47.52845" lon="6.71924">
        <ele>386.27972412109</ele>
        <time>2019-04-14T07:36:34.000Z</time>
      </trkpt>
      <trkpt lat="47.52851" lon="6.71915">
        <ele>386.12884521484</ele>
        <time>2019-04-14T07:36:36.000Z</time>
      </trkpt>
      <trkpt lat="47.52861" lon="6.71903">
        <ele>386.05218505859</ele>
        <time>2019-04-14T07:36:39.000Z</time>
      </trkpt>
      <trkpt lat="47.52868" lon="6.71895">
        <ele>386.01141357422</ele>
        <time>2019-04-14T07:36:41.000Z</time>
      </trkpt>
      <trkpt lat="47.52876" lon="6.71877">
        <ele>385.95864868164</ele>
        <time>2019-04-14T07:36:44.000Z</time>
      </trkpt>
      <trkpt lat="47.52887" lon="6.71865">
        <ele>385.80380249023</ele>
        <time>2019-04-14T07:36:47.000Z</time>
      </trkpt>
      <trkpt lat="47.52898" lon="6.71864">
        <ele>385.56671142578</ele>
        <time>2019-04-14T07:36:49.000Z</time>
      </trkpt>
      <trkpt lat="47.52906" lon="6.71864">
        <ele>385.25421142578</ele>
        <time>2019-04-14T07:36:51.000Z</time>
      </trkpt>
      <trkpt lat="47.52923" lon="6.71851">
        <ele>384.60809326172</ele>
        <time>2019-04-14T07:36:54.000Z</time>
      </trkpt>
      <trkpt lat="47.52942" lon="6.71846">
        <ele>383.42904663086</ele>
        <time>2019-04-14T07:36:57.000Z</time>
      </trkpt>
      <trkpt lat="47.52954" lon="6.71841">
        <ele>381.97817993164</ele>
        <time>2019-04-14T07:36:59.000Z</time>
      </trkpt>
      <trkpt lat="47.52966" lon="6.71831">
        <ele>380.21417236328</ele>
        <time>2019-04-14T07:37:02.000Z</time>
      </trkpt>
      <trkpt lat="47.52972" lon="6.71826">
        <ele>378.33682250977</ele>
        <time>2019-04-14T07:37:04.000Z</time>
      </trkpt>
      <trkpt lat="47.52977" lon="6.71811">
        <ele>376.75170898438</ele>
        <time>2019-04-14T07:37:07.000Z</time>
      </trkpt>
      <trkpt lat="47.52979" lon="6.71798">
        <ele>375.76879882812</ele>
        <time>2019-04-14T07:37:09.000Z</time>
      </trkpt>
      <trkpt lat="47.5298" lon="6.7178">
        <ele>375.20944213867</ele>
        <time>2019-04-14T07:37:11.000Z</time>
      </trkpt>
      <trkpt lat="47.52985" lon="6.71766">
        <ele>374.99838256836</ele>
        <time>2019-04-14T07:37:14.000Z</time>
      </trkpt>
      <trkpt lat="47.53004" lon="6.71761">
        <ele>374.49276733398</ele>
        <time>2019-04-14T07:37:17.000Z</time>
      </trkpt>
      <trkpt lat="47.53015" lon="6.71753">
        <ele>373.54144287109</ele>
        <time>2019-04-14T07:37:19.000Z</time>
      </trkpt>
      <trkpt lat="47.53034" lon="6.71745">
        <ele>371.50619506836</ele>
        <time>2019-04-14T07:37:22.000Z</time>
      </trkpt>
      <trkpt lat="47.53043" lon="6.71746">
        <ele>368.93936157227</ele>
        <time>2019-04-14T07:37:24.000Z</time>
      </trkpt>
      <trkpt lat="47.53067" lon="6.71747">
        <ele>365.16464233398</ele>
        <time>2019-04-14T07:37:27.000Z</time>
      </trkpt>
      <trkpt lat="47.53088" lon="6.71756">
        <ele>361.03881835938</ele>
        <time>2019-04-14T07:37:30.000Z</time>
      </trkpt>
      <trkpt lat="47.53098" lon="6.7177">
        <ele>357.36529541016</ele>
        <time>2019-04-14T07:37:32.000Z</time>
      </trkpt>
      <trkpt lat="47.5311" lon="6.71782">
        <ele>354.57614135742</ele>
        <time>2019-04-14T07:37:34.000Z</time>
      </trkpt>
      <trkpt lat="47.53135" lon="6.71806">
        <ele>351.65014648438</ele>
        <time>2019-04-14T07:37:37.000Z</time>
      </trkpt>
      <trkpt lat="47.53159" lon="6.71828">
        <ele>349.16940307617</ele>
        <time>2019-04-14T07:37:40.000Z</time>
      </trkpt>
      <trkpt lat="47.53176" lon="6.71839">
        <ele>347.3796081543</ele>
        <time>2019-04-14T07:37:43.000Z</time>
      </trkpt>
      <trkpt lat="47.53188" lon="6.7184">
        <ele>345.81362915039</ele>
        <time>2019-04-14T07:37:45.000Z</time>
      </trkpt>
      <trkpt lat="47.53201" lon="6.71835">
        <ele>344.56372070312</ele>
        <time>2019-04-14T07:37:48.000Z</time>
      </trkpt>
      <trkpt lat="47.5321" lon="6.71833">
        <ele>344.05395507812</ele>
        <time>2019-04-14T07:37:50.000Z</time>
      </trkpt>
      <trkpt lat="47.53222" lon="6.71832">
        <ele>344.50924682617</ele>
        <time>2019-04-14T07:37:53.000Z</time>
      </trkpt>
      <trkpt lat="47.53228" lon="6.71828">
        <ele>345.20272827148</ele>
        <time>2019-04-14T07:37:56.000Z</time>
      </trkpt>
      <trkpt lat="47.53235" lon="6.71816">
        <ele>345.82601928711</ele>
        <time>2019-04-14T07:37:59.000Z</time>
      </trkpt>
      <trkpt lat="47.53236" lon="6.7181">
        <ele>346.33377075195</ele>
        <time>2019-04-14T07:38:01.000Z</time>
      </trkpt>
      <trkpt lat="47.53235" lon="6.71811">
        <ele>346.70867919922</ele>
        <time>2019-04-14T07:38:13.000Z</time>
      </trkpt>
      <trkpt lat="47.53236" lon="6.71801">
        <ele>346.93823242188</ele>
        <time>2019-04-14T07:38:16.000Z</time>
      </trkpt>
      <trkpt lat="47.53236" lon="6.71791">
        <ele>347.07727050781</ele>
        <time>2019-04-14T07:38:19.000Z</time>
      </trkpt>
      <trkpt lat="47.53234" lon="6.71785">
        <ele>347.09893798828</ele>
        <time>2019-04-14T07:38:22.000Z</time>
      </trkpt>
      <trkpt lat="47.53233" lon="6.71787">
        <ele>347.07907104492</ele>
        <time>2019-04-14T07:38:25.000Z</time>
      </trkpt>
      <trkpt lat="47.53231" lon="6.71786">
        <ele>347.05230712891</ele>
        <time>2019-04-14T07:38:28.000Z</time>
      </trkpt>
      <trkpt lat="47.5323" lon="6.71786">
        <ele>346.99816894531</ele>
        <time>2019-04-14T07:38:30.000Z</time>
      </trkpt>
      <trkpt lat="47.5323" lon="6.71787">
        <ele>346.93444824219</ele>
        <time>2019-04-14T07:38:37.000Z</time>
      </trkpt>
      <trkpt lat="47.53232" lon="6.7179">
        <ele>346.89682006836</ele>
        <time>2019-04-14T07:38:39.000Z</time>
      </trkpt>
      <trkpt lat="47.53234" lon="6.71788">
        <ele>346.91006469727</ele>
        <time>2019-04-14T07:38:42.000Z</time>
      </trkpt>
      <trkpt lat="47.53235" lon="6.71785">
        <ele>346.95831298828</ele>
        <time>2019-04-14T07:38:44.000Z</time>
      </trkpt>
      <trkpt lat="47.53235" lon="6.71781">
        <ele>347.01931762695</ele>
        <time>2019-04-14T07:38:47.000Z</time>
      </trkpt>
      <trkpt lat="47.53235" lon="6.71778">
        <ele>347.08001708984</ele>
        <time>2019-04-14T07:38:50.000Z</time>
      </trkpt>
      <trkpt lat="47.53235" lon="6.71778">
        <ele>347.08001708984</ele>
        <time>2019-04-14T07:39:10.000Z</time>
      </trkpt>
      <trkpt lat="47.53239" lon="6.71778">
        <ele>347.17007446289</ele>
        <time>2019-04-14T07:39:28.000Z</time>
      </trkpt>
      <trkpt lat="47.53239" lon="6.71778">
        <ele>347.17007446289</ele>
        <time>2019-04-14T07:39:48.000Z</time>
      </trkpt>
      <trkpt lat="47.53239" lon="6.71776">
        <ele>347.23941040039</ele>
        <time>2019-04-14T07:40:00.000Z</time>
      </trkpt>
      <trkpt lat="47.5324" lon="6.71774">
        <ele>347.29824829102</ele>
        <time>2019-04-14T07:40:02.000Z</time>
      </trkpt>
      <trkpt lat="47.5324" lon="6.71774">
        <ele>347.29824829102</ele>
        <time>2019-04-14T07:40:22.000Z</time>
      </trkpt>
      <trkpt lat="47.53237" lon="6.71773">
        <ele>347.33209228516</ele>
        <time>2019-04-14T07:40:44.000Z</time>
      </trkpt>
      <trkpt lat="47.53236" lon="6.71773">
        <ele>347.349609375</ele>
        <time>2019-04-14T07:40:55.000Z</time>
      </trkpt>
      <trkpt lat="47.53235" lon="6.71772">
        <ele>347.31777954102</ele>
        <time>2019-04-14T07:40:58.000Z</time>
      </trkpt>
      <trkpt lat="47.53236" lon="6.71774">
        <ele>347.28805541992</ele>
        <time>2019-04-14T07:41:06.000Z</time>
      </trkpt>
      <trkpt lat="47.53236" lon="6.71774">
        <ele>347.28805541992</ele>
        <time>2019-04-14T07:41:26.000Z</time>
      </trkpt>
      <trkpt lat="47.5324" lon="6.71773">
        <ele>347.28887939453</ele>
        <time>2019-04-14T07:41:41.000Z</time>
      </trkpt>
      <trkpt lat="47.53241" lon="6.71771">
        <ele>347.3298034668</ele>
        <time>2019-04-14T07:41:54.000Z</time>
      </trkpt>
      <trkpt lat="47.5324" lon="6.71773">
        <ele>347.37420654297</ele>
        <time>2019-04-14T07:41:57.000Z</time>
      </trkpt>
      <trkpt lat="47.53239" lon="6.71775">
        <ele>347.41250610352</ele>
        <time>2019-04-14T07:41:59.000Z</time>
      </trkpt>
      <trkpt lat="47.53239" lon="6.71775">
        <ele>347.41250610352</ele>
        <time>2019-04-14T07:42:19.000Z</time>
      </trkpt>
      <trkpt lat="47.53236" lon="6.71772">
        <ele>347.40960693359</ele>
        <time>2019-04-14T07:42:35.000Z</time>
      </trkpt>
      <trkpt lat="47.53236" lon="6.71772">
        <ele>347.40960693359</ele>
        <time>2019-04-14T07:42:55.000Z</time>
      </trkpt>
      <trkpt lat="47.53236" lon="6.71771">
        <ele>347.3757019043</ele>
        <time>2019-04-14T07:43:04.000Z</time>
      </trkpt>
      <trkpt lat="47.53235" lon="6.7177">
        <ele>347.31512451172</ele>
        <time>2019-04-14T07:43:07.000Z</time>
      </trkpt>
      <trkpt lat="47.53235" lon="6.7177">
        <ele>347.31512451172</ele>
        <time>2019-04-14T07:43:27.000Z</time>
      </trkpt>
      <trkpt lat="47.53233" lon="6.7177">
        <ele>347.23342895508</ele>
        <time>2019-04-14T07:43:32.000Z</time>
      </trkpt>
      <trkpt lat="47.53233" lon="6.7177">
        <ele>347.23342895508</ele>
        <time>2019-04-14T07:43:52.000Z</time>
      </trkpt>
      <trkpt lat="47.53232" lon="6.71773">
        <ele>347.15850830078</ele>
        <time>2019-04-14T07:44:03.000Z</time>
      </trkpt>
      <trkpt lat="47.53233" lon="6.71771">
        <ele>347.11944580078</ele>
        <time>2019-04-14T07:44:06.000Z</time>
      </trkpt>
      <trkpt lat="47.53234" lon="6.71771">
        <ele>347.09747314453</ele>
        <time>2019-04-14T07:44:17.000Z</time>
      </trkpt>
      <trkpt lat="47.53236" lon="6.71771">
        <ele>347.10528564453</ele>
        <time>2019-04-14T07:44:20.000Z</time>
      </trkpt>
      <trkpt lat="47.53236" lon="6.71771">
        <ele>347.10528564453</ele>
        <time>2019-04-14T07:44:40.000Z</time>
      </trkpt>
      <trkpt lat="47.53235" lon="6.71773">
        <ele>347.12957763672</ele>
        <time>2019-04-14T07:45:26.000Z</time>
      </trkpt>
      <trkpt lat="47.53236" lon="6.71772">
        <ele>347.17535400391</ele>
        <time>2019-04-14T07:45:29.000Z</time>
      </trkpt>
      <trkpt lat="47.53235" lon="6.71773">
        <ele>347.20434570312</ele>
        <time>2019-04-14T07:45:33.000Z</time>
      </trkpt>
      <trkpt lat="47.53234" lon="6.71773">
        <ele>347.19329833984</ele>
        <time>2019-04-14T07:45:36.000Z</time>
      </trkpt>
      <trkpt lat="47.53234" lon="6.71773">
        <ele>347.19329833984</ele>
        <time>2019-04-14T07:45:56.000Z</time>
      </trkpt>
      <trkpt lat="47.53234" lon="6.71775">
        <ele>347.17224121094</ele>
        <time>2019-04-14T07:46:36.000Z</time>
      </trkpt>
      <trkpt lat="47.53239" lon="6.71776">
        <ele>347.2190246582</ele>
        <time>2019-04-14T07:46:42.000Z</time>
      </trkpt>
      <trkpt lat="47.5324" lon="6.71777">
        <ele>347.26034545898</ele>
        <time>2019-04-14T07:46:46.000Z</time>
      </trkpt>
      <trkpt lat="47.5324" lon="6.71775">
        <ele>347.30816650391</ele>
        <time>2019-04-14T07:47:01.000Z</time>
      </trkpt>
      <trkpt lat="47.5324" lon="6.71775">
        <ele>347.30816650391</ele>
        <time>2019-04-14T07:47:21.000Z</time>
      </trkpt>
      <trkpt lat="47.53236" lon="6.71775">
        <ele>347.33740234375</ele>
        <time>2019-04-14T07:47:46.000Z</time>
      </trkpt>
      <trkpt lat="47.53236" lon="6.71775">
        <ele>347.33740234375</ele>
        <time>2019-04-14T07:48:06.000Z</time>
      </trkpt>
      <trkpt lat="47.53235" lon="6.71775">
        <ele>347.34219360352</ele>
        <time>2019-04-14T07:48:17.000Z</time>
      </trkpt>
      <trkpt lat="47.53233" lon="6.71776">
        <ele>347.27420043945</ele>
        <time>2019-04-14T07:48:29.000Z</time>
      </trkpt>
      <trkpt lat="47.53234" lon="6.71779">
        <ele>347.20394897461</ele>
        <time>2019-04-14T07:48:40.000Z</time>
      </trkpt>
      <trkpt lat="47.53232" lon="6.7178">
        <ele>347.11322021484</ele>
        <time>2019-04-14T07:48:43.000Z</time>
      </trkpt>
      <trkpt lat="47.5323" lon="6.7178">
        <ele>347.04046630859</ele>
        <time>2019-04-14T07:48:46.000Z</time>
      </trkpt>
      <trkpt lat="47.5323" lon="6.71783">
        <ele>346.97265625</ele>
        <time>2019-04-14T07:48:49.000Z</time>
      </trkpt>
      <trkpt lat="47.5323" lon="6.71783">
        <ele>346.93334960938</ele>
        <time>2019-04-14T07:48:53.000Z</time>
      </trkpt>
      <trkpt lat="47.53231" lon="6.71781">
        <ele>346.89453125</ele>
        <time>2019-04-14T07:48:56.000Z</time>
      </trkpt>
      <trkpt lat="47.53229" lon="6.71781">
        <ele>346.86099243164</ele>
        <time>2019-04-14T07:49:15.000Z</time>
      </trkpt>
      <trkpt lat="47.5323" lon="6.71779">
        <ele>346.86206054688</ele>
        <time>2019-04-14T07:49:27.000Z</time>
      </trkpt>
      <trkpt lat="47.53231" lon="6.71781">
        <ele>346.87826538086</ele>
        <time>2019-04-14T07:49:32.000Z</time>
      </trkpt>
      <trkpt lat="47.53231" lon="6.71779">
        <ele>346.88787841797</ele>
        <time>2019-04-14T07:49:35.000Z</time>
      </trkpt>
      <trkpt lat="47.53231" lon="6.71777">
        <ele>346.89712524414</ele>
        <time>2019-04-14T07:49:38.000Z</time>
      </trkpt>
      <trkpt lat="47.53231" lon="6.71777">
        <ele>346.89712524414</ele>
        <time>2019-04-14T07:49:58.000Z</time>
      </trkpt>
      <trkpt lat="47.53231" lon="6.71774">
        <ele>346.92837524414</ele>
        <time>2019-04-14T07:50:20.000Z</time>
      </trkpt>
      <trkpt lat="47.53227" lon="6.71775">
        <ele>346.89273071289</ele>
        <time>2019-04-14T07:50:36.000Z</time>
      </trkpt>
      <trkpt lat="47.53221" lon="6.71774">
        <ele>346.79321289062</ele>
        <time>2019-04-14T07:50:39.000Z</time>
      </trkpt>
      <trkpt lat="47.53213" lon="6.7177">
        <ele>346.61450195312</ele>
        <time>2019-04-14T07:50:42.000Z</time>
      </trkpt>
      <trkpt lat="47.53203" lon="6.71763">
        <ele>346.34027099609</ele>
        <time>2019-04-14T07:50:45.000Z</time>
      </trkpt>
      <trkpt lat="47.53194" lon="6.71752">
        <ele>346.00030517578</ele>
        <time>2019-04-14T07:50:48.000Z</time>
      </trkpt>
      <trkpt lat="47.53185" lon="6.71739">
        <ele>345.77926635742</ele>
        <time>2019-04-14T07:50:51.000Z</time>
      </trkpt>
      <trkpt lat="47.53177" lon="6.71726">
        <ele>345.71844482422</ele>
        <time>2019-04-14T07:50:54.000Z</time>
      </trkpt>
      <trkpt lat="47.53171" lon="6.71711">
        <ele>345.83087158203</ele>
        <time>2019-04-14T07:50:57.000Z</time>
      </trkpt>
      <trkpt lat="47.53164" lon="6.71697">
        <ele>346.16348266602</ele>
        <time>2019-04-14T07:51:00.000Z</time>
      </trkpt>
      <trkpt lat="47.53156" lon="6.71683">
        <ele>346.71380615234</ele>
        <time>2019-04-14T07:51:03.000Z</time>
      </trkpt>
      <trkpt lat="47.53148" lon="6.71669">
        <ele>347.29010009766</ele>
        <time>2019-04-14T07:51:06.000Z</time>
      </trkpt>
      <trkpt lat="47.53141" lon="6.71654">
        <ele>347.91268920898</ele>
        <time>2019-04-14T07:51:09.000Z</time>
      </trkpt>
      <trkpt lat="47.53135" lon="6.71642">
        <ele>348.53720092773</ele>
        <time>2019-04-14T07:51:12.000Z</time>
      </trkpt>
      <trkpt lat="47.53127" lon="6.71638">
        <ele>348.98541259766</ele>
        <time>2019-04-14T07:51:15.000Z</time>
      </trkpt>
      <trkpt lat="47.53114" lon="6.71644">
        <ele>349.09027099609</ele>
        <time>2019-04-14T07:51:18.000Z</time>
      </trkpt>
      <trkpt lat="47.53104" lon="6.71654">
        <ele>348.94989013672</ele>
        <time>2019-04-14T07:51:21.000Z</time>
      </trkpt>
      <trkpt lat="47.53098" lon="6.71661">
        <ele>348.59197998047</ele>
        <time>2019-04-14T07:51:24.000Z</time>
      </trkpt>
      <trkpt lat="47.53098" lon="6.71664">
        <ele>348.12396240234</ele>
        <time>2019-04-14T07:51:27.000Z</time>
      </trkpt>
      <trkpt lat="47.53105" lon="6.71659">
        <ele>347.76876831055</ele>
        <time>2019-04-14T07:51:30.000Z</time>
      </trkpt>
      <trkpt lat="47.53113" lon="6.7165">
        <ele>347.71221923828</ele>
        <time>2019-04-14T07:51:33.000Z</time>
      </trkpt>
      <trkpt lat="47.53121" lon="6.7164">
        <ele>347.96597290039</ele>
        <time>2019-04-14T07:51:36.000Z</time>
      </trkpt>
      <trkpt lat="47.53127" lon="6.71632">
        <ele>348.43707275391</ele>
        <time>2019-04-14T07:51:39.000Z</time>
      </trkpt>
      <trkpt lat="47.5313" lon="6.71624">
        <ele>349.04449462891</ele>
        <time>2019-04-14T07:51:42.000Z</time>
      </trkpt>
      <trkpt lat="47.5313" lon="6.71613">
        <ele>349.70474243164</ele>
        <time>2019-04-14T07:51:45.000Z</time>
      </trkpt>
      <trkpt lat="47.53128" lon="6.71602">
        <ele>350.33987426758</ele>
        <time>2019-04-14T07:51:48.000Z</time>
      </trkpt>
      <trkpt lat="47.53125" lon="6.7159">
        <ele>350.85284423828</ele>
        <time>2019-04-14T07:51:51.000Z</time>
      </trkpt>
      <trkpt lat="47.5312" lon="6.7158">
        <ele>351.224609375</ele>
        <time>2019-04-14T07:51:54.000Z</time>
      </trkpt>
      <trkpt lat="47.53118" lon="6.71571">
        <ele>351.5205078125</ele>
        <time>2019-04-14T07:51:57.000Z</time>
      </trkpt>
      <trkpt lat="47.53117" lon="6.71561">
        <ele>351.76605224609</ele>
        <time>2019-04-14T07:52:00.000Z</time>
      </trkpt>
      <trkpt lat="47.53114" lon="6.71552">
        <ele>351.97244262695</ele>
        <time>2019-04-14T07:52:03.000Z</time>
      </trkpt>
      <trkpt lat="47.53111" lon="6.71543">
        <ele>352.18560791016</ele>
        <time>2019-04-14T07:52:06.000Z</time>
      </trkpt>
      <trkpt lat="47.53108" lon="6.71532">
        <ele>352.48315429688</ele>
        <time>2019-04-14T07:52:09.000Z</time>
      </trkpt>
      <trkpt lat="47.53106" lon="6.71522">
        <ele>352.82037353516</ele>
        <time>2019-04-14T07:52:12.000Z</time>
      </trkpt>
      <trkpt lat="47.53106" lon="6.71513">
        <ele>353.18212890625</ele>
        <time>2019-04-14T07:52:15.000Z</time>
      </trkpt>
      <trkpt lat="47.53106" lon="6.71503">
        <ele>353.61782836914</ele>
        <time>2019-04-14T07:52:18.000Z</time>
      </trkpt>
      <trkpt lat="47.53106" lon="6.71493">
        <ele>354.12371826172</ele>
        <time>2019-04-14T07:52:21.000Z</time>
      </trkpt>
      <trkpt lat="47.53105" lon="6.71485">
        <ele>354.60858154297</ele>
        <time>2019-04-14T07:52:24.000Z</time>
      </trkpt>
      <trkpt lat="47.53103" lon="6.71477">
        <ele>355.06869506836</ele>
        <time>2019-04-14T07:52:27.000Z</time>
      </trkpt>
      <trkpt lat="47.531" lon="6.71466">
        <ele>355.49502563477</ele>
        <time>2019-04-14T07:52:30.000Z</time>
      </trkpt>
      <trkpt lat="47.53098" lon="6.71458">
        <ele>355.85198974609</ele>
        <time>2019-04-14T07:52:33.000Z</time>
      </trkpt>
      <trkpt lat="47.53097" lon="6.7145">
        <ele>356.18463134766</ele>
        <time>2019-04-14T07:52:36.000Z</time>
      </trkpt>
      <trkpt lat="47.53095" lon="6.7144">
        <ele>356.53265380859</ele>
        <time>2019-04-14T07:52:39.000Z</time>
      </trkpt>
      <trkpt lat="47.53093" lon="6.71429">
        <ele>356.91156005859</ele>
        <time>2019-04-14T07:52:42.000Z</time>
      </trkpt>
      <trkpt lat="47.53091" lon="6.71416">
        <ele>357.35675048828</ele>
        <time>2019-04-14T07:52:45.000Z</time>
      </trkpt>
      <trkpt lat="47.53088" lon="6.71402">
        <ele>357.84957885742</ele>
        <time>2019-04-14T07:52:48.000Z</time>
      </trkpt>
      <trkpt lat="47.53083" lon="6.7139">
        <ele>358.3229675293</ele>
        <time>2019-04-14T07:52:51.000Z</time>
      </trkpt>
      <trkpt lat="47.5308" lon="6.7138">
        <ele>358.77307128906</ele>
        <time>2019-04-14T07:52:54.000Z</time>
      </trkpt>
      <trkpt lat="47.53077" lon="6.7137">
        <ele>359.18634033203</ele>
        <time>2019-04-14T07:52:57.000Z</time>
      </trkpt>
      <trkpt lat="47.53074" lon="6.71359">
        <ele>359.51196289062</ele>
        <time>2019-04-14T07:53:00.000Z</time>
      </trkpt>
      <trkpt lat="47.5307" lon="6.71348">
        <ele>359.7939453125</ele>
        <time>2019-04-14T07:53:03.000Z</time>
      </trkpt>
      <trkpt lat="47.53067" lon="6.71336">
        <ele>360.078125</ele>
        <time>2019-04-14T07:53:06.000Z</time>
      </trkpt>
      <trkpt lat="47.53063" lon="6.71325">
        <ele>360.29672241211</ele>
        <time>2019-04-14T07:53:09.000Z</time>
      </trkpt>
      <trkpt lat="47.5306" lon="6.71315">
        <ele>360.4475402832</ele>
        <time>2019-04-14T07:53:12.000Z</time>
      </trkpt>
      <trkpt lat="47.53057" lon="6.71303">
        <ele>360.55892944336</ele>
        <time>2019-04-14T07:53:15.000Z</time>
      </trkpt>
      <trkpt lat="47.53056" lon="6.7129">
        <ele>360.638671875</ele>
        <time>2019-04-14T07:53:18.000Z</time>
      </trkpt>
      <trkpt lat="47.53056" lon="6.7128">
        <ele>360.67303466797</ele>
        <time>2019-04-14T07:53:21.000Z</time>
      </trkpt>
      <trkpt lat="47.53062" lon="6.71278">
        <ele>360.76971435547</ele>
        <time>2019-04-14T07:53:24.000Z</time>
      </trkpt>
      <trkpt lat="47.5307" lon="6.71283">
        <ele>360.9416809082</ele>
        <time>2019-04-14T07:53:27.000Z</time>
      </trkpt>
      <trkpt lat="47.53082" lon="6.71286">
        <ele>361.21072387695</ele>
        <time>2019-04-14T07:53:30.000Z</time>
      </trkpt>
      <trkpt lat="47.53092" lon="6.71286">
        <ele>361.54086303711</ele>
        <time>2019-04-14T07:53:33.000Z</time>
      </trkpt>
      <trkpt lat="47.53101" lon="6.71283">
        <ele>361.92529296875</ele>
        <time>2019-04-14T07:53:36.000Z</time>
      </trkpt>
      <trkpt lat="47.53109" lon="6.71279">
        <ele>362.33013916016</ele>
        <time>2019-04-14T07:53:39.000Z</time>
      </trkpt>
      <trkpt lat="47.53119" lon="6.71276">
        <ele>362.75521850586</ele>
        <time>2019-04-14T07:53:42.000Z</time>
      </trkpt>
      <trkpt lat="47.53127" lon="6.71273">
        <ele>363.15927124023</ele>
        <time>2019-04-14T07:53:45.000Z</time>
      </trkpt>
      <trkpt lat="47.53135" lon="6.7127">
        <ele>363.55648803711</ele>
        <time>2019-04-14T07:53:48.000Z</time>
      </trkpt>
      <trkpt lat="47.53144" lon="6.71267">
        <ele>363.95355224609</ele>
        <time>2019-04-14T07:53:51.000Z</time>
      </trkpt>
      <trkpt lat="47.53152" lon="6.71265">
        <ele>364.35299682617</ele>
        <time>2019-04-14T07:53:54.000Z</time>
      </trkpt>
      <trkpt lat="47.5316" lon="6.71262">
        <ele>364.74755859375</ele>
        <time>2019-04-14T07:53:57.000Z</time>
      </trkpt>
      <trkpt lat="47.53168" lon="6.71258">
        <ele>365.13674926758</ele>
        <time>2019-04-14T07:54:00.000Z</time>
      </trkpt>
      <trkpt lat="47.53177" lon="6.71256">
        <ele>365.45678710938</ele>
        <time>2019-04-14T07:54:03.000Z</time>
      </trkpt>
      <trkpt lat="47.53186" lon="6.71253">
        <ele>365.70159912109</ele>
        <time>2019-04-14T07:54:06.000Z</time>
      </trkpt>
      <trkpt lat="47.53194" lon="6.71251">
        <ele>365.87173461914</ele>
        <time>2019-04-14T07:54:09.000Z</time>
      </trkpt>
      <trkpt lat="47.53203" lon="6.71248">
        <ele>365.97479248047</ele>
        <time>2019-04-14T07:54:12.000Z</time>
      </trkpt>
      <trkpt lat="47.53211" lon="6.71246">
        <ele>366.02655029297</ele>
        <time>2019-04-14T07:54:15.000Z</time>
      </trkpt>
      <trkpt lat="47.5322" lon="6.71245">
        <ele>366.08862304688</ele>
        <time>2019-04-14T07:54:18.000Z</time>
      </trkpt>
      <trkpt lat="47.53228" lon="6.71241">
        <ele>366.18399047852</ele>
        <time>2019-04-14T07:54:21.000Z</time>
      </trkpt>
      <trkpt lat="47.53231" lon="6.71228">
        <ele>366.41452026367</ele>
        <time>2019-04-14T07:54:24.000Z</time>
      </trkpt>
      <trkpt lat="47.53232" lon="6.71212">
        <ele>366.79473876953</ele>
        <time>2019-04-14T07:54:27.000Z</time>
      </trkpt>
      <trkpt lat="47.53234" lon="6.71199">
        <ele>367.31018066406</ele>
        <time>2019-04-14T07:54:30.000Z</time>
      </trkpt>
      <trkpt lat="47.53238" lon="6.71185">
        <ele>367.96963500977</ele>
        <time>2019-04-14T07:54:33.000Z</time>
      </trkpt>
      <trkpt lat="47.5324" lon="6.71171">
        <ele>368.76312255859</ele>
        <time>2019-04-14T07:54:36.000Z</time>
      </trkpt>
      <trkpt lat="47.53243" lon="6.71156">
        <ele>369.66195678711</ele>
        <time>2019-04-14T07:54:39.000Z</time>
      </trkpt>
      <trkpt lat="47.53246" lon="6.71142">
        <ele>370.65087890625</ele>
        <time>2019-04-14T07:54:42.000Z</time>
      </trkpt>
      <trkpt lat="47.53247" lon="6.7113">
        <ele>371.69525146484</ele>
        <time>2019-04-14T07:54:45.000Z</time>
      </trkpt>
      <trkpt lat="47.53251" lon="6.71117">
        <ele>372.81799316406</ele>
        <time>2019-04-14T07:54:48.000Z</time>
      </trkpt>
      <trkpt lat="47.53253" lon="6.71105">
        <ele>373.93109130859</ele>
        <time>2019-04-14T07:54:51.000Z</time>
      </trkpt>
      <trkpt lat="47.53258" lon="6.71092">
        <ele>374.97189331055</ele>
        <time>2019-04-14T07:54:54.000Z</time>
      </trkpt>
      <trkpt lat="47.53261" lon="6.71075">
        <ele>375.93417358398</ele>
        <time>2019-04-14T07:54:57.000Z</time>
      </trkpt>
      <trkpt lat="47.53263" lon="6.7106">
        <ele>376.81219482422</ele>
        <time>2019-04-14T07:55:00.000Z</time>
      </trkpt>
      <trkpt lat="47.53267" lon="6.71045">
        <ele>377.58117675781</ele>
        <time>2019-04-14T07:55:03.000Z</time>
      </trkpt>
      <trkpt lat="47.5327" lon="6.71031">
        <ele>378.32754516602</ele>
        <time>2019-04-14T07:55:06.000Z</time>
      </trkpt>
      <trkpt lat="47.53273" lon="6.71019">
        <ele>379.04333496094</ele>
        <time>2019-04-14T07:55:09.000Z</time>
      </trkpt>
      <trkpt lat="47.53276" lon="6.71007">
        <ele>379.73910522461</ele>
        <time>2019-04-14T07:55:12.000Z</time>
      </trkpt>
      <trkpt lat="47.53278" lon="6.70997">
        <ele>380.46490478516</ele>
        <time>2019-04-14T07:55:15.000Z</time>
      </trkpt>
      <trkpt lat="47.53282" lon="6.70987">
        <ele>381.26791381836</ele>
        <time>2019-04-14T07:55:18.000Z</time>
      </trkpt>
      <trkpt lat="47.53287" lon="6.70975">
        <ele>382.16177368164</ele>
        <time>2019-04-14T07:55:21.000Z</time>
      </trkpt>
      <trkpt lat="47.53291" lon="6.70963">
        <ele>383.15093994141</ele>
        <time>2019-04-14T07:55:24.000Z</time>
      </trkpt>
      <trkpt lat="47.53295" lon="6.70951">
        <ele>384.19268798828</ele>
        <time>2019-04-14T07:55:27.000Z</time>
      </trkpt>
      <trkpt lat="47.53299" lon="6.70942">
        <ele>385.24694824219</ele>
        <time>2019-04-14T07:55:30.000Z</time>
      </trkpt>
      <trkpt lat="47.53303" lon="6.70931">
        <ele>386.27716064453</ele>
        <time>2019-04-14T07:55:33.000Z</time>
      </trkpt>
      <trkpt lat="47.53305" lon="6.70922">
        <ele>387.22579956055</ele>
        <time>2019-04-14T07:55:36.000Z</time>
      </trkpt>
      <trkpt lat="47.53308" lon="6.70911">
        <ele>388.12777709961</ele>
        <time>2019-04-14T07:55:39.000Z</time>
      </trkpt>
      <trkpt lat="47.53313" lon="6.70899">
        <ele>389.05331420898</ele>
        <time>2019-04-14T07:55:42.000Z</time>
      </trkpt>
      <trkpt lat="47.53321" lon="6.70887">
        <ele>390.03472900391</ele>
        <time>2019-04-14T07:55:45.000Z</time>
      </trkpt>
      <trkpt lat="47.53329" lon="6.70877">
        <ele>390.98419189453</ele>
        <time>2019-04-14T07:55:48.000Z</time>
      </trkpt>
      <trkpt lat="47.53354" lon="6.70859">
        <ele>391.87164306641</ele>
        <time>2019-04-14T07:55:52.000Z</time>
      </trkpt>
      <trkpt lat="47.53368" lon="6.70862">
        <ele>392.34811401367</ele>
        <time>2019-04-14T07:55:54.000Z</time>
      </trkpt>
      <trkpt lat="47.53387" lon="6.70881">
        <ele>392.0634765625</ele>
        <time>2019-04-14T07:55:57.000Z</time>
      </trkpt>
      <trkpt lat="47.53395" lon="6.70899">
        <ele>391.14318847656</ele>
        <time>2019-04-14T07:56:00.000Z</time>
      </trkpt>
      <trkpt lat="47.53404" lon="6.70903">
        <ele>389.91323852539</ele>
        <time>2019-04-14T07:56:03.000Z</time>
      </trkpt>
      <trkpt lat="47.53412" lon="6.70895">
        <ele>388.64508056641</ele>
        <time>2019-04-14T07:56:06.000Z</time>
      </trkpt>
      <trkpt lat="47.53427" lon="6.7089">
        <ele>387.72259521484</ele>
        <time>2019-04-14T07:56:09.000Z</time>
      </trkpt>
      <trkpt lat="47.53437" lon="6.70886">
        <ele>387.46899414062</ele>
        <time>2019-04-14T07:56:12.000Z</time>
      </trkpt>
      <trkpt lat="47.53448" lon="6.70882">
        <ele>387.75811767578</ele>
        <time>2019-04-14T07:56:15.000Z</time>
      </trkpt>
      <trkpt lat="47.53458" lon="6.70876">
        <ele>388.3388671875</ele>
        <time>2019-04-14T07:56:18.000Z</time>
      </trkpt>
      <trkpt lat="47.53465" lon="6.70871">
        <ele>388.96856689453</ele>
        <time>2019-04-14T07:56:21.000Z</time>
      </trkpt>
      <trkpt lat="47.53472" lon="6.70865">
        <ele>389.55487060547</ele>
        <time>2019-04-14T07:56:24.000Z</time>
      </trkpt>
      <trkpt lat="47.53475" lon="6.70862">
        <ele>390.04672241211</ele>
        <time>2019-04-14T07:56:27.000Z</time>
      </trkpt>
      <trkpt lat="47.53479" lon="6.70858">
        <ele>390.45526123047</ele>
        <time>2019-04-14T07:56:30.000Z</time>
      </trkpt>
      <trkpt lat="47.53487" lon="6.70854">
        <ele>390.787109375</ele>
        <time>2019-04-14T07:56:33.000Z</time>
      </trkpt>
      <trkpt lat="47.53497" lon="6.70851">
        <ele>391.05731201172</ele>
        <time>2019-04-14T07:56:36.000Z</time>
      </trkpt>
      <trkpt lat="47.53506" lon="6.70849">
        <ele>391.31872558594</ele>
        <time>2019-04-14T07:56:39.000Z</time>
      </trkpt>
      <trkpt lat="47.53516" lon="6.70847">
        <ele>391.63232421875</ele>
        <time>2019-04-14T07:56:42.000Z</time>
      </trkpt>
      <trkpt lat="47.53526" lon="6.70843">
        <ele>392.01574707031</ele>
        <time>2019-04-14T07:56:45.000Z</time>
      </trkpt>
      <trkpt lat="47.53535" lon="6.7084">
        <ele>392.44149780273</ele>
        <time>2019-04-14T07:56:48.000Z</time>
      </trkpt>
      <trkpt lat="47.53545" lon="6.70836">
        <ele>392.94619750977</ele>
        <time>2019-04-14T07:56:51.000Z</time>
      </trkpt>
      <trkpt lat="47.5355" lon="6.70834">
        <ele>393.4453125</ele>
        <time>2019-04-14T07:56:54.000Z</time>
      </trkpt>
      <trkpt lat="47.53559" lon="6.7083">
        <ele>394.00039672852</ele>
        <time>2019-04-14T07:56:57.000Z</time>
      </trkpt>
      <trkpt lat="47.53569" lon="6.70824">
        <ele>394.62020874023</ele>
        <time>2019-04-14T07:57:00.000Z</time>
      </trkpt>
      <trkpt lat="47.53575" lon="6.70815">
        <ele>395.32601928711</ele>
        <time>2019-04-14T07:57:03.000Z</time>
      </trkpt>
      <trkpt lat="47.5358" lon="6.70806">
        <ele>396.09307861328</ele>
        <time>2019-04-14T07:57:06.000Z</time>
      </trkpt>
      <trkpt lat="47.53588" lon="6.70795">
        <ele>397.01303100586</ele>
        <time>2019-04-14T07:57:09.000Z</time>
      </trkpt>
      <trkpt lat="47.53596" lon="6.70784">
        <ele>397.96185302734</ele>
        <time>2019-04-14T07:57:12.000Z</time>
      </trkpt>
      <trkpt lat="47.53603" lon="6.70777">
        <ele>398.85021972656</ele>
        <time>2019-04-14T07:57:15.000Z</time>
      </trkpt>
      <trkpt lat="47.53609" lon="6.70773">
        <ele>399.62533569336</ele>
        <time>2019-04-14T07:57:18.000Z</time>
      </trkpt>
      <trkpt lat="47.53617" lon="6.70769">
        <ele>400.28698730469</ele>
        <time>2019-04-14T07:57:21.000Z</time>
      </trkpt>
      <trkpt lat="47.53631" lon="6.70768">
        <ele>400.77954101562</ele>
        <time>2019-04-14T07:57:24.000Z</time>
      </trkpt>
      <trkpt lat="47.53641" lon="6.70769">
        <ele>401.11853027344</ele>
        <time>2019-04-14T07:57:27.000Z</time>
      </trkpt>
      <trkpt lat="47.53646" lon="6.70771">
        <ele>401.34429931641</ele>
        <time>2019-04-14T07:57:30.000Z</time>
      </trkpt>
      <trkpt lat="47.53652" lon="6.70773">
        <ele>401.51406860352</ele>
        <time>2019-04-14T07:57:33.000Z</time>
      </trkpt>
      <trkpt lat="47.53658" lon="6.70777">
        <ele>401.63595581055</ele>
        <time>2019-04-14T07:57:36.000Z</time>
      </trkpt>
      <trkpt lat="47.53664" lon="6.7078">
        <ele>401.73568725586</ele>
        <time>2019-04-14T07:57:39.000Z</time>
      </trkpt>
      <trkpt lat="47.5367" lon="6.70784">
        <ele>401.88748168945</ele>
        <time>2019-04-14T07:57:42.000Z</time>
      </trkpt>
      <trkpt lat="47.53677" lon="6.70789">
        <ele>402.16290283203</ele>
        <time>2019-04-14T07:57:45.000Z</time>
      </trkpt>
      <trkpt lat="47.53683" lon="6.70793">
        <ele>402.5305480957</ele>
        <time>2019-04-14T07:57:48.000Z</time>
      </trkpt>
      <trkpt lat="47.53688" lon="6.70797">
        <ele>402.99078369141</ele>
        <time>2019-04-14T07:57:51.000Z</time>
      </trkpt>
      <trkpt lat="47.53695" lon="6.70802">
        <ele>403.5390625</ele>
        <time>2019-04-14T07:57:54.000Z</time>
      </trkpt>
      <trkpt lat="47.53701" lon="6.70806">
        <ele>404.1328125</ele>
        <time>2019-04-14T07:57:57.000Z</time>
      </trkpt>
      <trkpt lat="47.53709" lon="6.7081">
        <ele>404.75</ele>
        <time>2019-04-14T07:58:00.000Z</time>
      </trkpt>
      <trkpt lat="47.53717" lon="6.70814">
        <ele>405.3984375</ele>
        <time>2019-04-14T07:58:03.000Z</time>
      </trkpt>
      <trkpt lat="47.53722" lon="6.70819">
        <ele>406.046875</ele>
        <time>2019-04-14T07:58:06.000Z</time>
      </trkpt>
      <trkpt lat="47.53727" lon="6.70826">
        <ele>406.6640625</ele>
        <time>2019-04-14T07:58:09.000Z</time>
      </trkpt>
      <trkpt lat="47.53732" lon="6.70832">
        <ele>407.2578125</ele>
        <time>2019-04-14T07:58:12.000Z</time>
      </trkpt>
      <trkpt lat="47.53738" lon="6.70835">
        <ele>407.78143310547</ele>
        <time>2019-04-14T07:58:15.000Z</time>
      </trkpt>
      <trkpt lat="47.53743" lon="6.70839">
        <ele>408.21978759766</ele>
        <time>2019-04-14T07:58:18.000Z</time>
      </trkpt>
      <trkpt lat="47.53748" lon="6.70843">
        <ele>408.5954284668</ele>
        <time>2019-04-14T07:58:21.000Z</time>
      </trkpt>
      <trkpt lat="47.53755" lon="6.70847">
        <ele>408.94064331055</ele>
        <time>2019-04-14T07:58:24.000Z</time>
      </trkpt>
      <trkpt lat="47.53762" lon="6.7085">
        <ele>409.25338745117</ele>
        <time>2019-04-14T07:58:27.000Z</time>
      </trkpt>
      <trkpt lat="47.53769" lon="6.70853">
        <ele>409.52508544922</ele>
        <time>2019-04-14T07:58:30.000Z</time>
      </trkpt>
      <trkpt lat="47.53773" lon="6.70856">
        <ele>409.76113891602</ele>
        <time>2019-04-14T07:58:33.000Z</time>
      </trkpt>
      <trkpt lat="47.5378" lon="6.7086">
        <ele>410.00103759766</ele>
        <time>2019-04-14T07:58:36.000Z</time>
      </trkpt>
      <trkpt lat="47.53786" lon="6.70864">
        <ele>410.23623657227</ele>
        <time>2019-04-14T07:58:39.000Z</time>
      </trkpt>
      <trkpt lat="47.53793" lon="6.70869">
        <ele>410.44937133789</ele>
        <time>2019-04-14T07:58:42.000Z</time>
      </trkpt>
      <trkpt lat="47.53801" lon="6.70873">
        <ele>410.68231201172</ele>
        <time>2019-04-14T07:58:45.000Z</time>
      </trkpt>
      <trkpt lat="47.53808" lon="6.70878">
        <ele>410.95663452148</ele>
        <time>2019-04-14T07:58:48.000Z</time>
      </trkpt>
      <trkpt lat="47.53817" lon="6.70885">
        <ele>411.25082397461</ele>
        <time>2019-04-14T07:58:51.000Z</time>
      </trkpt>
      <trkpt lat="47.53824" lon="6.70891">
        <ele>411.55596923828</ele>
        <time>2019-04-14T07:58:54.000Z</time>
      </trkpt>
      <trkpt lat="47.53831" lon="6.70897">
        <ele>411.87078857422</ele>
        <time>2019-04-14T07:58:57.000Z</time>
      </trkpt>
      <trkpt lat="47.53839" lon="6.709">
        <ele>412.12051391602</ele>
        <time>2019-04-14T07:59:00.000Z</time>
      </trkpt>
      <trkpt lat="47.53847" lon="6.70901">
        <ele>412.26113891602</ele>
        <time>2019-04-14T07:59:03.000Z</time>
      </trkpt>
      <trkpt lat="47.53856" lon="6.70903">
        <ele>412.28033447266</ele>
        <time>2019-04-14T07:59:06.000Z</time>
      </trkpt>
      <trkpt lat="47.53867" lon="6.70902">
        <ele>412.19662475586</ele>
        <time>2019-04-14T07:59:09.000Z</time>
      </trkpt>
      <trkpt lat="47.53876" lon="6.70901">
        <ele>412.01538085938</ele>
        <time>2019-04-14T07:59:12.000Z</time>
      </trkpt>
      <trkpt lat="47.53888" lon="6.70901">
        <ele>411.77743530273</ele>
        <time>2019-04-14T07:59:15.000Z</time>
      </trkpt>
      <trkpt lat="47.53901" lon="6.70903">
        <ele>411.53256225586</ele>
        <time>2019-04-14T07:59:18.000Z</time>
      </trkpt>
      <trkpt lat="47.53919" lon="6.70904">
        <ele>411.18588256836</ele>
        <time>2019-04-14T07:59:21.000Z</time>
      </trkpt>
      <trkpt lat="47.53938" lon="6.70907">
        <ele>410.13412475586</ele>
        <time>2019-04-14T07:59:24.000Z</time>
      </trkpt>
      <trkpt lat="47.53954" lon="6.70899">
        <ele>408.43658447266</ele>
        <time>2019-04-14T07:59:27.000Z</time>
      </trkpt>
      <trkpt lat="47.53972" lon="6.70883">
        <ele>406.00680541992</ele>
        <time>2019-04-14T07:59:30.000Z</time>
      </trkpt>
      <trkpt lat="47.53991" lon="6.70861">
        <ele>402.84295654297</ele>
        <time>2019-04-14T07:59:33.000Z</time>
      </trkpt>
      <trkpt lat="47.54008" lon="6.70846">
        <ele>399.14614868164</ele>
        <time>2019-04-14T07:59:36.000Z</time>
      </trkpt>
      <trkpt lat="47.54022" lon="6.70826">
        <ele>395.70718383789</ele>
        <time>2019-04-14T07:59:39.000Z</time>
      </trkpt>
      <trkpt lat="47.54042" lon="6.70819">
        <ele>392.27593994141</ele>
        <time>2019-04-14T07:59:42.000Z</time>
      </trkpt>
      <trkpt lat="47.54066" lon="6.70811">
        <ele>388.82110595703</ele>
        <time>2019-04-14T07:59:45.000Z</time>
      </trkpt>
      <trkpt lat="47.54093" lon="6.70812">
        <ele>385.54232788086</ele>
        <time>2019-04-14T07:59:48.000Z</time>
      </trkpt>
      <trkpt lat="47.5412" lon="6.70801">
        <ele>382.84521484375</ele>
        <time>2019-04-14T07:59:51.000Z</time>
      </trkpt>
      <trkpt lat="47.54145" lon="6.7079">
        <ele>380.55895996094</ele>
        <time>2019-04-14T07:59:54.000Z</time>
      </trkpt>
      <trkpt lat="47.54157" lon="6.70781">
        <ele>378.92828369141</ele>
        <time>2019-04-14T07:59:57.000Z</time>
      </trkpt>
      <trkpt lat="47.54161" lon="6.70778">
        <ele>378.10504150391</ele>
        <time>2019-04-14T08:00:00.000Z</time>
      </trkpt>
      <trkpt lat="47.54176" lon="6.70771">
        <ele>377.89224243164</ele>
        <time>2019-04-14T08:00:03.000Z</time>
      </trkpt>
      <trkpt lat="47.54192" lon="6.70764">
        <ele>377.82308959961</ele>
        <time>2019-04-14T08:00:06.000Z</time>
      </trkpt>
      <trkpt lat="47.54209" lon="6.70757">
        <ele>377.89056396484</ele>
        <time>2019-04-14T08:00:09.000Z</time>
      </trkpt>
      <trkpt lat="47.54222" lon="6.70749">
        <ele>378.08206176758</ele>
        <time>2019-04-14T08:00:12.000Z</time>
      </trkpt>
      <trkpt lat="47.54234" lon="6.70743">
        <ele>378.38031005859</ele>
        <time>2019-04-14T08:00:15.000Z</time>
      </trkpt>
      <trkpt lat="47.54246" lon="6.70736">
        <ele>378.77127075195</ele>
        <time>2019-04-14T08:00:18.000Z</time>
      </trkpt>
      <trkpt lat="47.54256" lon="6.70728">
        <ele>379.14196777344</ele>
        <time>2019-04-14T08:00:21.000Z</time>
      </trkpt>
      <trkpt lat="47.54268" lon="6.7072">
        <ele>379.38726806641</ele>
        <time>2019-04-14T08:00:24.000Z</time>
      </trkpt>
      <trkpt lat="47.54281" lon="6.7071">
        <ele>379.45352172852</ele>
        <time>2019-04-14T08:00:27.000Z</time>
      </trkpt>
      <trkpt lat="47.54295" lon="6.70697">
        <ele>379.31665039062</ele>
        <time>2019-04-14T08:00:30.000Z</time>
      </trkpt>
      <trkpt lat="47.5431" lon="6.70686">
        <ele>378.91900634766</ele>
        <time>2019-04-14T08:00:33.000Z</time>
      </trkpt>
      <trkpt lat="47.54325" lon="6.70686">
        <ele>378.28802490234</ele>
        <time>2019-04-14T08:00:36.000Z</time>
      </trkpt>
      <trkpt lat="47.5433" lon="6.70703">
        <ele>377.63464355469</ele>
        <time>2019-04-14T08:00:39.000Z</time>
      </trkpt>
      <trkpt lat="47.54336" lon="6.7072">
        <ele>377.01788330078</ele>
        <time>2019-04-14T08:00:42.000Z</time>
      </trkpt>
      <trkpt lat="47.5434" lon="6.70737">
        <ele>376.51132202148</ele>
        <time>2019-04-14T08:00:45.000Z</time>
      </trkpt>
      <trkpt lat="47.54344" lon="6.70751">
        <ele>376.19296264648</ele>
        <time>2019-04-14T08:00:48.000Z</time>
      </trkpt>
      <trkpt lat="47.54352" lon="6.70756">
        <ele>376.10595703125</ele>
        <time>2019-04-14T08:00:51.000Z</time>
      </trkpt>
      <trkpt lat="47.54362" lon="6.70751">
        <ele>376.13687133789</ele>
        <time>2019-04-14T08:00:54.000Z</time>
      </trkpt>
      <trkpt lat="47.54371" lon="6.70743">
        <ele>376.20083618164</ele>
        <time>2019-04-14T08:00:57.000Z</time>
      </trkpt>
      <trkpt lat="47.54375" lon="6.70732">
        <ele>376.20788574219</ele>
        <time>2019-04-14T08:01:00.000Z</time>
      </trkpt>
      <trkpt lat="47.54379" lon="6.7072">
        <ele>376.13787841797</ele>
        <time>2019-04-14T08:01:03.000Z</time>
      </trkpt>
      <trkpt lat="47.54385" lon="6.70706">
        <ele>375.95892333984</ele>
        <time>2019-04-14T08:01:06.000Z</time>
      </trkpt>
      <trkpt lat="47.5439" lon="6.70692">
        <ele>375.64315795898</ele>
        <time>2019-04-14T08:01:09.000Z</time>
      </trkpt>
      <trkpt lat="47.54393" lon="6.70678">
        <ele>375.22973632812</ele>
        <time>2019-04-14T08:01:12.000Z</time>
      </trkpt>
      <trkpt lat="47.54399" lon="6.70665">
        <ele>374.74298095703</ele>
        <time>2019-04-14T08:01:15.000Z</time>
      </trkpt>
      <trkpt lat="47.5442" lon="6.70632">
        <ele>374.20788574219</ele>
        <time>2019-04-14T08:01:19.000Z</time>
      </trkpt>
      <trkpt lat="47.54429" lon="6.70613">
        <ele>373.79556274414</ele>
        <time>2019-04-14T08:01:22.000Z</time>
      </trkpt>
      <trkpt lat="47.54449" lon="6.70605">
        <ele>373.55902099609</ele>
        <time>2019-04-14T08:01:25.000Z</time>
      </trkpt>
      <trkpt lat="47.5447" lon="6.70587">
        <ele>373.4521484375</ele>
        <time>2019-04-14T08:01:28.000Z</time>
      </trkpt>
      <trkpt lat="47.54488" lon="6.70571">
        <ele>373.42730712891</ele>
        <time>2019-04-14T08:01:31.000Z</time>
      </trkpt>
      <trkpt lat="47.54505" lon="6.70565">
        <ele>373.45352172852</ele>
        <time>2019-04-14T08:01:34.000Z</time>
      </trkpt>
      <trkpt lat="47.54522" lon="6.70559">
        <ele>373.33612060547</ele>
        <time>2019-04-14T08:01:37.000Z</time>
      </trkpt>
      <trkpt lat="47.54538" lon="6.7056">
        <ele>373.09533691406</ele>
        <time>2019-04-14T08:01:40.000Z</time>
      </trkpt>
      <trkpt lat="47.5455" lon="6.70557">
        <ele>372.76284790039</ele>
        <time>2019-04-14T08:01:43.000Z</time>
      </trkpt>
      <trkpt lat="47.54565" lon="6.70551">
        <ele>372.37847900391</ele>
        <time>2019-04-14T08:01:46.000Z</time>
      </trkpt>
      <trkpt lat="47.54574" lon="6.70548">
        <ele>372.00030517578</ele>
        <time>2019-04-14T08:01:49.000Z</time>
      </trkpt>
      <trkpt lat="47.54588" lon="6.70544">
        <ele>371.70166015625</ele>
        <time>2019-04-14T08:01:52.000Z</time>
      </trkpt>
      <trkpt lat="47.546" lon="6.7054">
        <ele>371.49435424805</ele>
        <time>2019-04-14T08:01:55.000Z</time>
      </trkpt>
      <trkpt lat="47.5461" lon="6.70534">
        <ele>371.3583984375</ele>
        <time>2019-04-14T08:01:58.000Z</time>
      </trkpt>
      <trkpt lat="47.54622" lon="6.70532">
        <ele>371.3410949707</ele>
        <time>2019-04-14T08:02:01.000Z</time>
      </trkpt>
      <trkpt lat="47.54635" lon="6.70531">
        <ele>371.41076660156</ele>
        <time>2019-04-14T08:02:04.000Z</time>
      </trkpt>
      <trkpt lat="47.54646" lon="6.70529">
        <ele>371.52642822266</ele>
        <time>2019-04-14T08:02:07.000Z</time>
      </trkpt>
      <trkpt lat="47.54657" lon="6.70524">
        <ele>371.57720947266</ele>
        <time>2019-04-14T08:02:10.000Z</time>
      </trkpt>
      <trkpt lat="47.54666" lon="6.70518">
        <ele>371.56744384766</ele>
        <time>2019-04-14T08:02:13.000Z</time>
      </trkpt>
      <trkpt lat="47.54678" lon="6.7051">
        <ele>371.52749633789</ele>
        <time>2019-04-14T08:02:16.000Z</time>
      </trkpt>
      <trkpt lat="47.54688" lon="6.70501">
        <ele>371.40484619141</ele>
        <time>2019-04-14T08:02:19.000Z</time>
      </trkpt>
      <trkpt lat="47.54698" lon="6.70493">
        <ele>371.22946166992</ele>
        <time>2019-04-14T08:02:22.000Z</time>
      </trkpt>
      <trkpt lat="47.54709" lon="6.70486">
        <ele>371.03768920898</ele>
        <time>2019-04-14T08:02:25.000Z</time>
      </trkpt>
      <trkpt lat="47.54719" lon="6.7048">
        <ele>370.85317993164</ele>
        <time>2019-04-14T08:02:28.000Z</time>
      </trkpt>
      <trkpt lat="47.54727" lon="6.70475">
        <ele>370.61318969727</ele>
        <time>2019-04-14T08:02:31.000Z</time>
      </trkpt>
      <trkpt lat="47.54734" lon="6.70471">
        <ele>370.37014770508</ele>
        <time>2019-04-14T08:02:34.000Z</time>
      </trkpt>
      <trkpt lat="47.54741" lon="6.70467">
        <ele>370.10302734375</ele>
        <time>2019-04-14T08:02:37.000Z</time>
      </trkpt>
      <trkpt lat="47.54747" lon="6.70465">
        <ele>369.8327331543</ele>
        <time>2019-04-14T08:02:40.000Z</time>
      </trkpt>
      <trkpt lat="47.54752" lon="6.70463">
        <ele>369.5924987793</ele>
        <time>2019-04-14T08:02:43.000Z</time>
      </trkpt>
      <trkpt lat="47.54751" lon="6.70461">
        <ele>369.35223388672</ele>
        <time>2019-04-14T08:02:57.000Z</time>
      </trkpt>
      <trkpt lat="47.5475" lon="6.70465">
        <ele>369.25677490234</ele>
        <time>2019-04-14T08:03:00.000Z</time>
      </trkpt>
      <trkpt lat="47.5475" lon="6.70467">
        <ele>369.27618408203</ele>
        <time>2019-04-14T08:03:03.000Z</time>
      </trkpt>
      <trkpt lat="47.54752" lon="6.70469">
        <ele>369.43222045898</ele>
        <time>2019-04-14T08:03:26.000Z</time>
      </trkpt>
      <trkpt lat="47.54752" lon="6.70469">
        <ele>369.43222045898</ele>
        <time>2019-04-14T08:03:46.000Z</time>
      </trkpt>
      <trkpt lat="47.5475" lon="6.70471">
        <ele>369.63531494141</ele>
        <time>2019-04-14T08:04:09.000Z</time>
      </trkpt>
      <trkpt lat="47.5475" lon="6.70471">
        <ele>369.63531494141</ele>
        <time>2019-04-14T08:04:29.000Z</time>
      </trkpt>
      <trkpt lat="47.54748" lon="6.70473">
        <ele>369.92980957031</ele>
        <time>2019-04-14T08:04:53.000Z</time>
      </trkpt>
      <trkpt lat="47.54749" lon="6.70475">
        <ele>370.17813110352</ele>
        <time>2019-04-14T08:04:56.000Z</time>
      </trkpt>
      <trkpt lat="47.54749" lon="6.70473">
        <ele>370.34417724609</ele>
        <time>2019-04-14T08:05:03.000Z</time>
      </trkpt>
      <trkpt lat="47.54749" lon="6.70473">
        <ele>370.34417724609</ele>
        <time>2019-04-14T08:05:23.000Z</time>
      </trkpt>
      <trkpt lat="47.54753" lon="6.70469">
        <ele>370.35299682617</ele>
        <time>2019-04-14T08:05:40.000Z</time>
      </trkpt>
      <trkpt lat="47.54755" lon="6.70467">
        <ele>370.30172729492</ele>
        <time>2019-04-14T08:05:45.000Z</time>
      </trkpt>
      <trkpt lat="47.54758" lon="6.70462">
        <ele>370.10687255859</ele>
        <time>2019-04-14T08:05:48.000Z</time>
      </trkpt>
      <trkpt lat="47.54765" lon="6.7044">
        <ele>369.34552001953</ele>
        <time>2019-04-14T08:05:51.000Z</time>
      </trkpt>
      <trkpt lat="47.54771" lon="6.70417">
        <ele>368.02276611328</ele>
        <time>2019-04-14T08:05:54.000Z</time>
      </trkpt>
      <trkpt lat="47.54776" lon="6.70396">
        <ele>366.60781860352</ele>
        <time>2019-04-14T08:05:57.000Z</time>
      </trkpt>
      <trkpt lat="47.54772" lon="6.70379">
        <ele>365.07843017578</ele>
        <time>2019-04-14T08:06:00.000Z</time>
      </trkpt>
      <trkpt lat="47.54778" lon="6.70366">
        <ele>363.54919433594</ele>
        <time>2019-04-14T08:06:03.000Z</time>
      </trkpt>
      <trkpt lat="47.5479" lon="6.70362">
        <ele>362.49719238281</ele>
        <time>2019-04-14T08:06:06.000Z</time>
      </trkpt>
      <trkpt lat="47.54796" lon="6.70347">
        <ele>361.86804199219</ele>
        <time>2019-04-14T08:06:09.000Z</time>
      </trkpt>
      <trkpt lat="47.54799" lon="6.70328">
        <ele>361.22796630859</ele>
        <time>2019-04-14T08:06:12.000Z</time>
      </trkpt>
      <trkpt lat="47.54802" lon="6.70305">
        <ele>360.74255371094</ele>
        <time>2019-04-14T08:06:15.000Z</time>
      </trkpt>
      <trkpt lat="47.54805" lon="6.70284">
        <ele>360.36871337891</ele>
        <time>2019-04-14T08:06:18.000Z</time>
      </trkpt>
      <trkpt lat="47.54808" lon="6.70266">
        <ele>360.02996826172</ele>
        <time>2019-04-14T08:06:21.000Z</time>
      </trkpt>
      <trkpt lat="47.54811" lon="6.70251">
        <ele>359.85150146484</ele>
        <time>2019-04-14T08:06:24.000Z</time>
      </trkpt>
      <trkpt lat="47.54815" lon="6.70236">
        <ele>359.6969909668</ele>
        <time>2019-04-14T08:06:27.000Z</time>
      </trkpt>
      <trkpt lat="47.54819" lon="6.70221">
        <ele>359.37405395508</ele>
        <time>2019-04-14T08:06:30.000Z</time>
      </trkpt>
      <trkpt lat="47.54821" lon="6.70206">
        <ele>358.90093994141</ele>
        <time>2019-04-14T08:06:33.000Z</time>
      </trkpt>
      <trkpt lat="47.54819" lon="6.70188">
        <ele>358.29861450195</ele>
        <time>2019-04-14T08:06:36.000Z</time>
      </trkpt>
      <trkpt lat="47.54818" lon="6.7017">
        <ele>357.55383300781</ele>
        <time>2019-04-14T08:06:39.000Z</time>
      </trkpt>
      <trkpt lat="47.54816" lon="6.70151">
        <ele>356.82647705078</ele>
        <time>2019-04-14T08:06:42.000Z</time>
      </trkpt>
      <trkpt lat="47.54814" lon="6.70132">
        <ele>356.13900756836</ele>
        <time>2019-04-14T08:06:45.000Z</time>
      </trkpt>
      <trkpt lat="47.54811" lon="6.70111">
        <ele>355.47207641602</ele>
        <time>2019-04-14T08:06:48.000Z</time>
      </trkpt>
      <trkpt lat="47.54809" lon="6.70087">
        <ele>354.77212524414</ele>
        <time>2019-04-14T08:06:51.000Z</time>
      </trkpt>
      <trkpt lat="47.54809" lon="6.70065">
        <ele>354.02810668945</ele>
        <time>2019-04-14T08:06:54.000Z</time>
      </trkpt>
      <trkpt lat="47.5481" lon="6.70041">
        <ele>353.21035766602</ele>
        <time>2019-04-14T08:06:57.000Z</time>
      </trkpt>
      <trkpt lat="47.5481" lon="6.70016">
        <ele>352.29754638672</ele>
        <time>2019-04-14T08:07:00.000Z</time>
      </trkpt>
      <trkpt lat="47.54808" lon="6.6999">
        <ele>351.38357543945</ele>
        <time>2019-04-14T08:07:03.000Z</time>
      </trkpt>
      <trkpt lat="47.54799" lon="6.69968">
        <ele>350.68161010742</ele>
        <time>2019-04-14T08:07:06.000Z</time>
      </trkpt>
      <trkpt lat="47.54797" lon="6.69945">
        <ele>350.18148803711</ele>
        <time>2019-04-14T08:07:09.000Z</time>
      </trkpt>
      <trkpt lat="47.548" lon="6.69924">
        <ele>349.87210083008</ele>
        <time>2019-04-14T08:07:12.000Z</time>
      </trkpt>
      <trkpt lat="47.54807" lon="6.69903">
        <ele>349.73916625977</ele>
        <time>2019-04-14T08:07:15.000Z</time>
      </trkpt>
      <trkpt lat="47.5481" lon="6.69884">
        <ele>349.71981811523</ele>
        <time>2019-04-14T08:07:18.000Z</time>
      </trkpt>
      <trkpt lat="47.54809" lon="6.69863">
        <ele>349.6484375</ele>
        <time>2019-04-14T08:07:21.000Z</time>
      </trkpt>
      <trkpt lat="47.54811" lon="6.69847">
        <ele>349.57025146484</ele>
        <time>2019-04-14T08:07:24.000Z</time>
      </trkpt>
      <trkpt lat="47.54814" lon="6.69831">
        <ele>349.5221862793</ele>
        <time>2019-04-14T08:07:27.000Z</time>
      </trkpt>
      <trkpt lat="47.54815" lon="6.69814">
        <ele>349.54257202148</ele>
        <time>2019-04-14T08:07:30.000Z</time>
      </trkpt>
      <trkpt lat="47.54817" lon="6.69798">
        <ele>349.61581420898</ele>
        <time>2019-04-14T08:07:33.000Z</time>
      </trkpt>
      <trkpt lat="47.54818" lon="6.69781">
        <ele>349.72988891602</ele>
        <time>2019-04-14T08:07:36.000Z</time>
      </trkpt>
      <trkpt lat="47.54821" lon="6.69766">
        <ele>349.89038085938</ele>
        <time>2019-04-14T08:07:39.000Z</time>
      </trkpt>
      <trkpt lat="47.54823" lon="6.69752">
        <ele>350.0764465332</ele>
        <time>2019-04-14T08:07:42.000Z</time>
      </trkpt>
      <trkpt lat="47.54826" lon="6.6974">
        <ele>350.26593017578</ele>
        <time>2019-04-14T08:07:45.000Z</time>
      </trkpt>
      <trkpt lat="47.54826" lon="6.69726">
        <ele>350.42874145508</ele>
        <time>2019-04-14T08:07:48.000Z</time>
      </trkpt>
      <trkpt lat="47.54819" lon="6.6971">
        <ele>350.51727294922</ele>
        <time>2019-04-14T08:07:51.000Z</time>
      </trkpt>
      <trkpt lat="47.54808" lon="6.69692">
        <ele>350.50378417969</ele>
        <time>2019-04-14T08:07:54.000Z</time>
      </trkpt>
      <trkpt lat="47.54808" lon="6.69671">
        <ele>350.47622680664</ele>
        <time>2019-04-14T08:07:57.000Z</time>
      </trkpt>
      <trkpt lat="47.54815" lon="6.69651">
        <ele>350.52053833008</ele>
        <time>2019-04-14T08:08:00.000Z</time>
      </trkpt>
      <trkpt lat="47.5482" lon="6.69632">
        <ele>350.64111328125</ele>
        <time>2019-04-14T08:08:03.000Z</time>
      </trkpt>
      <trkpt lat="47.54826" lon="6.69615">
        <ele>350.86480712891</ele>
        <time>2019-04-14T08:08:06.000Z</time>
      </trkpt>
      <trkpt lat="47.54831" lon="6.69598">
        <ele>351.19018554688</ele>
        <time>2019-04-14T08:08:09.000Z</time>
      </trkpt>
      <trkpt lat="47.54838" lon="6.69586">
        <ele>351.51489257812</ele>
        <time>2019-04-14T08:08:12.000Z</time>
      </trkpt>
      <trkpt lat="47.54844" lon="6.69576">
        <ele>351.81292724609</ele>
        <time>2019-04-14T08:08:15.000Z</time>
      </trkpt>
      <trkpt lat="47.5485" lon="6.69568">
        <ele>352.09222412109</ele>
        <time>2019-04-14T08:08:18.000Z</time>
      </trkpt>
      <trkpt lat="47.54855" lon="6.69565">
        <ele>352.33795166016</ele>
        <time>2019-04-14T08:08:21.000Z</time>
      </trkpt>
      <trkpt lat="47.54863" lon="6.69568">
        <ele>352.50259399414</ele>
        <time>2019-04-14T08:08:24.000Z</time>
      </trkpt>
      <trkpt lat="47.54871" lon="6.69579">
        <ele>352.54351806641</ele>
        <time>2019-04-14T08:08:27.000Z</time>
      </trkpt>
      <trkpt lat="47.54881" lon="6.69589">
        <ele>352.45953369141</ele>
        <time>2019-04-14T08:08:30.000Z</time>
      </trkpt>
      <trkpt lat="47.54893" lon="6.69595">
        <ele>352.29275512695</ele>
        <time>2019-04-14T08:08:33.000Z</time>
      </trkpt>
      <trkpt lat="47.54905" lon="6.69601">
        <ele>352.08218383789</ele>
        <time>2019-04-14T08:08:36.000Z</time>
      </trkpt>
      <trkpt lat="47.54917" lon="6.69608">
        <ele>351.89398193359</ele>
        <time>2019-04-14T08:08:39.000Z</time>
      </trkpt>
      <trkpt lat="47.54928" lon="6.69617">
        <ele>351.90704345703</ele>
        <time>2019-04-14T08:08:42.000Z</time>
      </trkpt>
      <trkpt lat="47.54939" lon="6.69624">
        <ele>352.06500244141</ele>
        <time>2019-04-14T08:08:45.000Z</time>
      </trkpt>
      <trkpt lat="47.5495" lon="6.69616">
        <ele>352.38430786133</ele>
        <time>2019-04-14T08:08:48.000Z</time>
      </trkpt>
      <trkpt lat="47.54957" lon="6.69601">
        <ele>352.85314941406</ele>
        <time>2019-04-14T08:08:51.000Z</time>
      </trkpt>
      <trkpt lat="47.54964" lon="6.69589">
        <ele>353.4631652832</ele>
        <time>2019-04-14T08:08:54.000Z</time>
      </trkpt>
      <trkpt lat="47.54973" lon="6.6958">
        <ele>354.1071472168</ele>
        <time>2019-04-14T08:08:57.000Z</time>
      </trkpt>
      <trkpt lat="47.5498" lon="6.69572">
        <ele>354.79104614258</ele>
        <time>2019-04-14T08:09:00.000Z</time>
      </trkpt>
      <trkpt lat="47.54987" lon="6.69561">
        <ele>355.45941162109</ele>
        <time>2019-04-14T08:09:03.000Z</time>
      </trkpt>
      <trkpt lat="47.54993" lon="6.69549">
        <ele>356.12573242188</ele>
        <time>2019-04-14T08:09:06.000Z</time>
      </trkpt>
      <trkpt lat="47.54998" lon="6.69536">
        <ele>356.77838134766</ele>
        <time>2019-04-14T08:09:09.000Z</time>
      </trkpt>
      <trkpt lat="47.55002" lon="6.69522">
        <ele>357.39846801758</ele>
        <time>2019-04-14T08:09:12.000Z</time>
      </trkpt>
      <trkpt lat="47.55008" lon="6.6951">
        <ele>358.01852416992</ele>
        <time>2019-04-14T08:09:15.000Z</time>
      </trkpt>
      <trkpt lat="47.55016" lon="6.695">
        <ele>358.64736938477</ele>
        <time>2019-04-14T08:09:18.000Z</time>
      </trkpt>
      <trkpt lat="47.55024" lon="6.69495">
        <ele>359.23983764648</ele>
        <time>2019-04-14T08:09:21.000Z</time>
      </trkpt>
      <trkpt lat="47.55032" lon="6.69494">
        <ele>359.81903076172</ele>
        <time>2019-04-14T08:09:24.000Z</time>
      </trkpt>
      <trkpt lat="47.55041" lon="6.69494">
        <ele>360.38824462891</ele>
        <time>2019-04-14T08:09:27.000Z</time>
      </trkpt>
      <trkpt lat="47.5505" lon="6.69491">
        <ele>360.9221496582</ele>
        <time>2019-04-14T08:09:30.000Z</time>
      </trkpt>
      <trkpt lat="47.55058" lon="6.69483">
        <ele>361.39434814453</ele>
        <time>2019-04-14T08:09:33.000Z</time>
      </trkpt>
      <trkpt lat="47.55065" lon="6.69475">
        <ele>361.83926391602</ele>
        <time>2019-04-14T08:09:36.000Z</time>
      </trkpt>
      <trkpt lat="47.55071" lon="6.69467">
        <ele>362.24099731445</ele>
        <time>2019-04-14T08:09:39.000Z</time>
      </trkpt>
      <trkpt lat="47.55077" lon="6.69458">
        <ele>362.59399414062</ele>
        <time>2019-04-14T08:09:42.000Z</time>
      </trkpt>
      <trkpt lat="47.55083" lon="6.69451">
        <ele>362.89379882812</ele>
        <time>2019-04-14T08:09:45.000Z</time>
      </trkpt>
      <trkpt lat="47.55091" lon="6.69447">
        <ele>363.19525146484</ele>
        <time>2019-04-14T08:09:48.000Z</time>
      </trkpt>
      <trkpt lat="47.55099" lon="6.69446">
        <ele>363.52877807617</ele>
        <time>2019-04-14T08:09:51.000Z</time>
      </trkpt>
      <trkpt lat="47.55107" lon="6.69448">
        <ele>363.91265869141</ele>
        <time>2019-04-14T08:09:54.000Z</time>
      </trkpt>
      <trkpt lat="47.55116" lon="6.6945">
        <ele>364.36026000977</ele>
        <time>2019-04-14T08:09:57.000Z</time>
      </trkpt>
      <trkpt lat="47.55124" lon="6.69453">
        <ele>364.87643432617</ele>
        <time>2019-04-14T08:10:00.000Z</time>
      </trkpt>
      <trkpt lat="47.55132" lon="6.69455">
        <ele>365.42565917969</ele>
        <time>2019-04-14T08:10:03.000Z</time>
      </trkpt>
      <trkpt lat="47.5514" lon="6.69457">
        <ele>366.00433349609</ele>
        <time>2019-04-14T08:10:06.000Z</time>
      </trkpt>
      <trkpt lat="47.55149" lon="6.69458">
        <ele>366.60052490234</ele>
        <time>2019-04-14T08:10:09.000Z</time>
      </trkpt>
      <trkpt lat="47.55157" lon="6.6946">
        <ele>367.20538330078</ele>
        <time>2019-04-14T08:10:12.000Z</time>
      </trkpt>
      <trkpt lat="47.55165" lon="6.69462">
        <ele>367.82366943359</ele>
        <time>2019-04-14T08:10:15.000Z</time>
      </trkpt>
      <trkpt lat="47.55173" lon="6.69464">
        <ele>368.40020751953</ele>
        <time>2019-04-14T08:10:18.000Z</time>
      </trkpt>
      <trkpt lat="47.55181" lon="6.69467">
        <ele>368.9192199707</ele>
        <time>2019-04-14T08:10:21.000Z</time>
      </trkpt>
      <trkpt lat="47.55189" lon="6.69471">
        <ele>369.3916015625</ele>
        <time>2019-04-14T08:10:24.000Z</time>
      </trkpt>
      <trkpt lat="47.55197" lon="6.69475">
        <ele>369.84194946289</ele>
        <time>2019-04-14T08:10:27.000Z</time>
      </trkpt>
      <trkpt lat="47.55207" lon="6.6948">
        <ele>370.27899169922</ele>
        <time>2019-04-14T08:10:30.000Z</time>
      </trkpt>
      <trkpt lat="47.55214" lon="6.69487">
        <ele>370.77532958984</ele>
        <time>2019-04-14T08:10:33.000Z</time>
      </trkpt>
      <trkpt lat="47.55222" lon="6.69494">
        <ele>371.34039306641</ele>
        <time>2019-04-14T08:10:36.000Z</time>
      </trkpt>
      <trkpt lat="47.5523" lon="6.69501">
        <ele>371.9548034668</ele>
        <time>2019-04-14T08:10:39.000Z</time>
      </trkpt>
      <trkpt lat="47.55239" lon="6.69508">
        <ele>372.51458740234</ele>
        <time>2019-04-14T08:10:42.000Z</time>
      </trkpt>
      <trkpt lat="47.55248" lon="6.69512">
        <ele>373.01721191406</ele>
        <time>2019-04-14T08:10:45.000Z</time>
      </trkpt>
      <trkpt lat="47.55257" lon="6.69514">
        <ele>373.35943603516</ele>
        <time>2019-04-14T08:10:48.000Z</time>
      </trkpt>
      <trkpt lat="47.55267" lon="6.69515">
        <ele>373.50741577148</ele>
        <time>2019-04-14T08:10:51.000Z</time>
      </trkpt>
      <trkpt lat="47.55277" lon="6.69517">
        <ele>373.47311401367</ele>
        <time>2019-04-14T08:10:54.000Z</time>
      </trkpt>
      <trkpt lat="47.55289" lon="6.69521">
        <ele>373.33871459961</ele>
        <time>2019-04-14T08:10:57.000Z</time>
      </trkpt>
      <trkpt lat="47.55302" lon="6.69529">
        <ele>373.11212158203</ele>
        <time>2019-04-14T08:11:00.000Z</time>
      </trkpt>
      <trkpt lat="47.55313" lon="6.69539">
        <ele>372.92205810547</ele>
        <time>2019-04-14T08:11:03.000Z</time>
      </trkpt>
      <trkpt lat="47.55325" lon="6.69547">
        <ele>372.80447387695</ele>
        <time>2019-04-14T08:11:06.000Z</time>
      </trkpt>
      <trkpt lat="47.55335" lon="6.69556">
        <ele>372.77401733398</ele>
        <time>2019-04-14T08:11:09.000Z</time>
      </trkpt>
      <trkpt lat="47.55344" lon="6.69564">
        <ele>372.80120849609</ele>
        <time>2019-04-14T08:11:12.000Z</time>
      </trkpt>
      <trkpt lat="47.55354" lon="6.69568">
        <ele>372.82647705078</ele>
        <time>2019-04-14T08:11:15.000Z</time>
      </trkpt>
      <trkpt lat="47.55367" lon="6.69563">
        <ele>372.72308349609</ele>
        <time>2019-04-14T08:11:18.000Z</time>
      </trkpt>
      <trkpt lat="47.5538" lon="6.69544">
        <ele>372.39785766602</ele>
        <time>2019-04-14T08:11:21.000Z</time>
      </trkpt>
      <trkpt lat="47.55394" lon="6.69518">
        <ele>371.81677246094</ele>
        <time>2019-04-14T08:11:24.000Z</time>
      </trkpt>
      <trkpt lat="47.55407" lon="6.69492">
        <ele>371.06683349609</ele>
        <time>2019-04-14T08:11:27.000Z</time>
      </trkpt>
      <trkpt lat="47.5542" lon="6.69465">
        <ele>370.3415222168</ele>
        <time>2019-04-14T08:11:30.000Z</time>
      </trkpt>
      <trkpt lat="47.55432" lon="6.69438">
        <ele>369.88494873047</ele>
        <time>2019-04-14T08:11:33.000Z</time>
      </trkpt>
      <trkpt lat="47.55439" lon="6.69416">
        <ele>369.72485351562</ele>
        <time>2019-04-14T08:11:36.000Z</time>
      </trkpt>
      <trkpt lat="47.55446" lon="6.69397">
        <ele>370.06719970703</ele>
        <time>2019-04-14T08:11:39.000Z</time>
      </trkpt>
      <trkpt lat="47.55451" lon="6.69382">
        <ele>370.79443359375</ele>
        <time>2019-04-14T08:11:42.000Z</time>
      </trkpt>
      <trkpt lat="47.55458" lon="6.69368">
        <ele>371.79180908203</ele>
        <time>2019-04-14T08:11:45.000Z</time>
      </trkpt>
      <trkpt lat="47.5546" lon="6.69353">
        <ele>372.82916259766</ele>
        <time>2019-04-14T08:11:48.000Z</time>
      </trkpt>
      <trkpt lat="47.55465" lon="6.69342">
        <ele>373.98614501953</ele>
        <time>2019-04-14T08:11:51.000Z</time>
      </trkpt>
      <trkpt lat="47.55468" lon="6.6933">
        <ele>375.03179931641</ele>
        <time>2019-04-14T08:11:54.000Z</time>
      </trkpt>
      <trkpt lat="47.55473" lon="6.69323">
        <ele>376.01885986328</ele>
        <time>2019-04-14T08:11:57.000Z</time>
      </trkpt>
      <trkpt lat="47.55478" lon="6.69317">
        <ele>376.87686157227</ele>
        <time>2019-04-14T08:12:00.000Z</time>
      </trkpt>
      <trkpt lat="47.55483" lon="6.69312">
        <ele>377.68951416016</ele>
        <time>2019-04-14T08:12:03.000Z</time>
      </trkpt>
      <trkpt lat="47.55489" lon="6.69313">
        <ele>378.39459228516</ele>
        <time>2019-04-14T08:12:06.000Z</time>
      </trkpt>
      <trkpt lat="47.55495" lon="6.69319">
        <ele>379.01275634766</ele>
        <time>2019-04-14T08:12:09.000Z</time>
      </trkpt>
      <trkpt lat="47.55501" lon="6.69325">
        <ele>379.52337646484</ele>
        <time>2019-04-14T08:12:12.000Z</time>
      </trkpt>
      <trkpt lat="47.55508" lon="6.69329">
        <ele>379.90710449219</ele>
        <time>2019-04-14T08:12:15.000Z</time>
      </trkpt>
      <trkpt lat="47.55517" lon="6.69333">
        <ele>380.16845703125</ele>
        <time>2019-04-14T08:12:18.000Z</time>
      </trkpt>
      <trkpt lat="47.55525" lon="6.69338">
        <ele>380.30392456055</ele>
        <time>2019-04-14T08:12:21.000Z</time>
      </trkpt>
      <trkpt lat="47.55534" lon="6.69343">
        <ele>380.34588623047</ele>
        <time>2019-04-14T08:12:24.000Z</time>
      </trkpt>
      <trkpt lat="47.55542" lon="6.69348">
        <ele>380.34170532227</ele>
        <time>2019-04-14T08:12:27.000Z</time>
      </trkpt>
      <trkpt lat="47.5555" lon="6.69353">
        <ele>380.3434753418</ele>
        <time>2019-04-14T08:12:30.000Z</time>
      </trkpt>
      <trkpt lat="47.55559" lon="6.69359">
        <ele>380.34478759766</ele>
        <time>2019-04-14T08:12:33.000Z</time>
      </trkpt>
      <trkpt lat="47.55567" lon="6.69366">
        <ele>380.38458251953</ele>
        <time>2019-04-14T08:12:36.000Z</time>
      </trkpt>
      <trkpt lat="47.55576" lon="6.69376">
        <ele>380.44882202148</ele>
        <time>2019-04-14T08:12:39.000Z</time>
      </trkpt>
      <trkpt lat="47.55583" lon="6.69389">
        <ele>380.51596069336</ele>
        <time>2019-04-14T08:12:42.000Z</time>
      </trkpt>
      <trkpt lat="47.55588" lon="6.69402">
        <ele>380.59140014648</ele>
        <time>2019-04-14T08:12:45.000Z</time>
      </trkpt>
      <trkpt lat="47.55594" lon="6.69413">
        <ele>380.69989013672</ele>
        <time>2019-04-14T08:12:48.000Z</time>
      </trkpt>
      <trkpt lat="47.556" lon="6.69422">
        <ele>380.83862304688</ele>
        <time>2019-04-14T08:12:51.000Z</time>
      </trkpt>
      <trkpt lat="47.55607" lon="6.6943">
        <ele>381.03915405273</ele>
        <time>2019-04-14T08:12:54.000Z</time>
      </trkpt>
      <trkpt lat="47.55615" lon="6.69435">
        <ele>381.34887695312</ele>
        <time>2019-04-14T08:12:57.000Z</time>
      </trkpt>
      <trkpt lat="47.55624" lon="6.69438">
        <ele>381.78677368164</ele>
        <time>2019-04-14T08:13:00.000Z</time>
      </trkpt>
      <trkpt lat="47.55634" lon="6.69438">
        <ele>382.34100341797</ele>
        <time>2019-04-14T08:13:03.000Z</time>
      </trkpt>
      <trkpt lat="47.55643" lon="6.69437">
        <ele>383.01699829102</ele>
        <time>2019-04-14T08:13:06.000Z</time>
      </trkpt>
      <trkpt lat="47.55653" lon="6.69437">
        <ele>383.80267333984</ele>
        <time>2019-04-14T08:13:09.000Z</time>
      </trkpt>
      <trkpt lat="47.55664" lon="6.69436">
        <ele>384.66470336914</ele>
        <time>2019-04-14T08:13:12.000Z</time>
      </trkpt>
      <trkpt lat="47.55675" lon="6.69437">
        <ele>385.60400390625</ele>
        <time>2019-04-14T08:13:15.000Z</time>
      </trkpt>
      <trkpt lat="47.55686" lon="6.69441">
        <ele>386.58499145508</ele>
        <time>2019-04-14T08:13:18.000Z</time>
      </trkpt>
      <trkpt lat="47.55698" lon="6.69441">
        <ele>387.62588500977</ele>
        <time>2019-04-14T08:13:21.000Z</time>
      </trkpt>
      <trkpt lat="47.55705" lon="6.69429">
        <ele>388.68353271484</ele>
        <time>2019-04-14T08:13:24.000Z</time>
      </trkpt>
      <trkpt lat="47.55709" lon="6.69417">
        <ele>389.71160888672</ele>
        <time>2019-04-14T08:13:27.000Z</time>
      </trkpt>
      <trkpt lat="47.55715" lon="6.69404">
        <ele>390.62115478516</ele>
        <time>2019-04-14T08:13:30.000Z</time>
      </trkpt>
      <trkpt lat="47.55721" lon="6.69392">
        <ele>391.42401123047</ele>
        <time>2019-04-14T08:13:33.000Z</time>
      </trkpt>
      <trkpt lat="47.55727" lon="6.6938">
        <ele>392.09451293945</ele>
        <time>2019-04-14T08:13:36.000Z</time>
      </trkpt>
      <trkpt lat="47.55732" lon="6.69369">
        <ele>392.65133666992</ele>
        <time>2019-04-14T08:13:39.000Z</time>
      </trkpt>
      <trkpt lat="47.55737" lon="6.69358">
        <ele>393.12121582031</ele>
        <time>2019-04-14T08:13:42.000Z</time>
      </trkpt>
      <trkpt lat="47.55742" lon="6.69347">
        <ele>393.55999755859</ele>
        <time>2019-04-14T08:13:45.000Z</time>
      </trkpt>
      <trkpt lat="47.55748" lon="6.69337">
        <ele>393.99301147461</ele>
        <time>2019-04-14T08:13:48.000Z</time>
      </trkpt>
      <trkpt lat="47.55755" lon="6.69328">
        <ele>394.400390625</ele>
        <time>2019-04-14T08:13:51.000Z</time>
      </trkpt>
      <trkpt lat="47.55763" lon="6.6932">
        <ele>394.78533935547</ele>
        <time>2019-04-14T08:13:54.000Z</time>
      </trkpt>
      <trkpt lat="47.55772" lon="6.69313">
        <ele>395.20132446289</ele>
        <time>2019-04-14T08:13:57.000Z</time>
      </trkpt>
      <trkpt lat="47.5578" lon="6.69305">
        <ele>395.65023803711</ele>
        <time>2019-04-14T08:14:00.000Z</time>
      </trkpt>
      <trkpt lat="47.55789" lon="6.69297">
        <ele>396.15795898438</ele>
        <time>2019-04-14T08:14:03.000Z</time>
      </trkpt>
      <trkpt lat="47.55797" lon="6.69288">
        <ele>396.71978759766</ele>
        <time>2019-04-14T08:14:06.000Z</time>
      </trkpt>
      <trkpt lat="47.55804" lon="6.69278">
        <ele>397.33374023438</ele>
        <time>2019-04-14T08:14:09.000Z</time>
      </trkpt>
      <trkpt lat="47.55809" lon="6.69267">
        <ele>397.93338012695</ele>
        <time>2019-04-14T08:14:12.000Z</time>
      </trkpt>
      <trkpt lat="47.55814" lon="6.69256">
        <ele>398.52069091797</ele>
        <time>2019-04-14T08:14:15.000Z</time>
      </trkpt>
      <trkpt lat="47.55819" lon="6.69245">
        <ele>399.07098388672</ele>
        <time>2019-04-14T08:14:18.000Z</time>
      </trkpt>
      <trkpt lat="47.55825" lon="6.69234">
        <ele>399.62243652344</ele>
        <time>2019-04-14T08:14:21.000Z</time>
      </trkpt>
      <trkpt lat="47.55832" lon="6.69223">
        <ele>400.19781494141</ele>
        <time>2019-04-14T08:14:24.000Z</time>
      </trkpt>
      <trkpt lat="47.55838" lon="6.69211">
        <ele>400.78509521484</ele>
        <time>2019-04-14T08:14:27.000Z</time>
      </trkpt>
      <trkpt lat="47.55846" lon="6.69199">
        <ele>401.38854980469</ele>
        <time>2019-04-14T08:14:30.000Z</time>
      </trkpt>
      <trkpt lat="47.55853" lon="6.69188">
        <ele>401.9951171875</ele>
        <time>2019-04-14T08:14:33.000Z</time>
      </trkpt>
      <trkpt lat="47.55862" lon="6.69176">
        <ele>402.61041259766</ele>
        <time>2019-04-14T08:14:36.000Z</time>
      </trkpt>
      <trkpt lat="47.5587" lon="6.69165">
        <ele>403.22637939453</ele>
        <time>2019-04-14T08:14:39.000Z</time>
      </trkpt>
      <trkpt lat="47.55878" lon="6.69156">
        <ele>403.89105224609</ele>
        <time>2019-04-14T08:14:42.000Z</time>
      </trkpt>
      <trkpt lat="47.55886" lon="6.6915">
        <ele>404.57681274414</ele>
        <time>2019-04-14T08:14:45.000Z</time>
      </trkpt>
      <trkpt lat="47.55893" lon="6.69145">
        <ele>405.26226806641</ele>
        <time>2019-04-14T08:14:48.000Z</time>
      </trkpt>
      <trkpt lat="47.55901" lon="6.69142">
        <ele>405.94525146484</ele>
        <time>2019-04-14T08:14:51.000Z</time>
      </trkpt>
      <trkpt lat="47.55909" lon="6.69142">
        <ele>406.64569091797</ele>
        <time>2019-04-14T08:14:54.000Z</time>
      </trkpt>
      <trkpt lat="47.55917" lon="6.69144">
        <ele>407.33233642578</ele>
        <time>2019-04-14T08:14:57.000Z</time>
      </trkpt>
      <trkpt lat="47.55926" lon="6.69148">
        <ele>407.98681640625</ele>
        <time>2019-04-14T08:15:00.000Z</time>
      </trkpt>
      <trkpt lat="47.55932" lon="6.69156">
        <ele>408.60171508789</ele>
        <time>2019-04-14T08:15:03.000Z</time>
      </trkpt>
      <trkpt lat="47.55936" lon="6.69166">
        <ele>409.13275146484</ele>
        <time>2019-04-14T08:15:06.000Z</time>
      </trkpt>
      <trkpt lat="47.55937" lon="6.69179">
        <ele>409.53228759766</ele>
        <time>2019-04-14T08:15:09.000Z</time>
      </trkpt>
      <trkpt lat="47.55938" lon="6.69192">
        <ele>409.810546875</ele>
        <time>2019-04-14T08:15:12.000Z</time>
      </trkpt>
      <trkpt lat="47.55938" lon="6.69204">
        <ele>410.00991821289</ele>
        <time>2019-04-14T08:15:15.000Z</time>
      </trkpt>
      <trkpt lat="47.5594" lon="6.69217">
        <ele>410.15313720703</ele>
        <time>2019-04-14T08:15:18.000Z</time>
      </trkpt>
      <trkpt lat="47.55942" lon="6.6923">
        <ele>410.26919555664</ele>
        <time>2019-04-14T08:15:21.000Z</time>
      </trkpt>
      <trkpt lat="47.55945" lon="6.69243">
        <ele>410.38793945312</ele>
        <time>2019-04-14T08:15:24.000Z</time>
      </trkpt>
      <trkpt lat="47.55948" lon="6.69257">
        <ele>410.53131103516</ele>
        <time>2019-04-14T08:15:27.000Z</time>
      </trkpt>
      <trkpt lat="47.55952" lon="6.69269">
        <ele>410.7138671875</ele>
        <time>2019-04-14T08:15:30.000Z</time>
      </trkpt>
      <trkpt lat="47.55956" lon="6.69281">
        <ele>410.93319702148</ele>
        <time>2019-04-14T08:15:33.000Z</time>
      </trkpt>
      <trkpt lat="47.5596" lon="6.69292">
        <ele>411.19247436523</ele>
        <time>2019-04-14T08:15:36.000Z</time>
      </trkpt>
      <trkpt lat="47.55963" lon="6.69304">
        <ele>411.48657226562</ele>
        <time>2019-04-14T08:15:39.000Z</time>
      </trkpt>
      <trkpt lat="47.55965" lon="6.69317">
        <ele>411.80218505859</ele>
        <time>2019-04-14T08:15:42.000Z</time>
      </trkpt>
      <trkpt lat="47.55967" lon="6.69331">
        <ele>412.123046875</ele>
        <time>2019-04-14T08:15:45.000Z</time>
      </trkpt>
      <trkpt lat="47.55967" lon="6.69345">
        <ele>412.40341186523</ele>
        <time>2019-04-14T08:15:48.000Z</time>
      </trkpt>
      <trkpt lat="47.55967" lon="6.69362">
        <ele>412.63323974609</ele>
        <time>2019-04-14T08:15:51.000Z</time>
      </trkpt>
      <trkpt lat="47.55967" lon="6.6938">
        <ele>412.81567382812</ele>
        <time>2019-04-14T08:15:54.000Z</time>
      </trkpt>
      <trkpt lat="47.55967" lon="6.69399">
        <ele>412.95712280273</ele>
        <time>2019-04-14T08:15:57.000Z</time>
      </trkpt>
      <trkpt lat="47.55968" lon="6.69417">
        <ele>413.06561279297</ele>
        <time>2019-04-14T08:16:00.000Z</time>
      </trkpt>
      <trkpt lat="47.5597" lon="6.69435">
        <ele>413.21478271484</ele>
        <time>2019-04-14T08:16:03.000Z</time>
      </trkpt>
      <trkpt lat="47.55971" lon="6.69447">
        <ele>413.39047241211</ele>
        <time>2019-04-14T08:16:05.000Z</time>
      </trkpt>
      <trkpt lat="47.55973" lon="6.69465">
        <ele>413.61480712891</ele>
        <time>2019-04-14T08:16:08.000Z</time>
      </trkpt>
      <trkpt lat="47.55976" lon="6.69477">
        <ele>413.88027954102</ele>
        <time>2019-04-14T08:16:10.000Z</time>
      </trkpt>
      <trkpt lat="47.55978" lon="6.69494">
        <ele>414.18731689453</ele>
        <time>2019-04-14T08:16:13.000Z</time>
      </trkpt>
      <trkpt lat="47.5598" lon="6.69503">
        <ele>414.43682861328</ele>
        <time>2019-04-14T08:16:15.000Z</time>
      </trkpt>
      <trkpt lat="47.55981" lon="6.69513">
        <ele>414.57592773438</ele>
        <time>2019-04-14T08:16:17.000Z</time>
      </trkpt>
      <trkpt lat="47.55986" lon="6.69524">
        <ele>414.60913085938</ele>
        <time>2019-04-14T08:16:20.000Z</time>
      </trkpt>
      <trkpt lat="47.55994" lon="6.69529">
        <ele>414.65795898438</ele>
        <time>2019-04-14T08:16:23.000Z</time>
      </trkpt>
      <trkpt lat="47.56" lon="6.69533">
        <ele>414.69253540039</ele>
        <time>2019-04-14T08:16:25.000Z</time>
      </trkpt>
      <trkpt lat="47.56008" lon="6.69542">
        <ele>414.72680664062</ele>
        <time>2019-04-14T08:16:28.000Z</time>
      </trkpt>
      <trkpt lat="47.56012" lon="6.69551">
        <ele>414.78765869141</ele>
        <time>2019-04-14T08:16:30.000Z</time>
      </trkpt>
      <trkpt lat="47.56015" lon="6.69561">
        <ele>414.83877563477</ele>
        <time>2019-04-14T08:16:32.000Z</time>
      </trkpt>
      <trkpt lat="47.5602" lon="6.69576">
        <ele>414.75189208984</ele>
        <time>2019-04-14T08:16:35.000Z</time>
      </trkpt>
      <trkpt lat="47.56024" lon="6.69585">
        <ele>414.59121704102</ele>
        <time>2019-04-14T08:16:37.000Z</time>
      </trkpt>
      <trkpt lat="47.56031" lon="6.69597">
        <ele>414.48495483398</ele>
        <time>2019-04-14T08:16:40.000Z</time>
      </trkpt>
      <trkpt lat="47.56039" lon="6.69609">
        <ele>414.49053955078</ele>
        <time>2019-04-14T08:16:43.000Z</time>
      </trkpt>
      <trkpt lat="47.56047" lon="6.6962">
        <ele>414.60498046875</ele>
        <time>2019-04-14T08:16:46.000Z</time>
      </trkpt>
      <trkpt lat="47.56052" lon="6.69628">
        <ele>414.81387329102</ele>
        <time>2019-04-14T08:16:48.000Z</time>
      </trkpt>
      <trkpt lat="47.56057" lon="6.69636">
        <ele>415.08227539062</ele>
        <time>2019-04-14T08:16:50.000Z</time>
      </trkpt>
      <trkpt lat="47.56064" lon="6.69646">
        <ele>415.3486328125</ele>
        <time>2019-04-14T08:16:53.000Z</time>
      </trkpt>
      <trkpt lat="47.56069" lon="6.69652">
        <ele>415.60473632812</ele>
        <time>2019-04-14T08:16:55.000Z</time>
      </trkpt>
      <trkpt lat="47.56077" lon="6.69652">
        <ele>415.95288085938</ele>
        <time>2019-04-14T08:16:58.000Z</time>
      </trkpt>
      <trkpt lat="47.56081" lon="6.69645">
        <ele>416.39013671875</ele>
        <time>2019-04-14T08:17:00.000Z</time>
      </trkpt>
      <trkpt lat="47.56086" lon="6.69632">
        <ele>416.99276733398</ele>
        <time>2019-04-14T08:17:03.000Z</time>
      </trkpt>
      <trkpt lat="47.56089" lon="6.69623">
        <ele>417.66253662109</ele>
        <time>2019-04-14T08:17:05.000Z</time>
      </trkpt>
      <trkpt lat="47.56092" lon="6.69614">
        <ele>418.42407226562</ele>
        <time>2019-04-14T08:17:07.000Z</time>
      </trkpt>
      <trkpt lat="47.56097" lon="6.69602">
        <ele>419.26580810547</ele>
        <time>2019-04-14T08:17:10.000Z</time>
      </trkpt>
      <trkpt lat="47.561" lon="6.69594">
        <ele>420.15069580078</ele>
        <time>2019-04-14T08:17:12.000Z</time>
      </trkpt>
      <trkpt lat="47.56105" lon="6.69583">
        <ele>421.06378173828</ele>
        <time>2019-04-14T08:17:15.000Z</time>
      </trkpt>
      <trkpt lat="47.56108" lon="6.69576">
        <ele>421.93701171875</ele>
        <time>2019-04-14T08:17:17.000Z</time>
      </trkpt>
      <trkpt lat="47.56111" lon="6.69569">
        <ele>422.75262451172</ele>
        <time>2019-04-14T08:17:19.000Z</time>
      </trkpt>
      <trkpt lat="47.56116" lon="6.69559">
        <ele>423.4560546875</ele>
        <time>2019-04-14T08:17:22.000Z</time>
      </trkpt>
      <trkpt lat="47.56119" lon="6.69551">
        <ele>424.07217407227</ele>
        <time>2019-04-14T08:17:24.000Z</time>
      </trkpt>
      <trkpt lat="47.56124" lon="6.6954">
        <ele>424.57339477539</ele>
        <time>2019-04-14T08:17:27.000Z</time>
      </trkpt>
      <trkpt lat="47.5613" lon="6.69529">
        <ele>425.11566162109</ele>
        <time>2019-04-14T08:17:30.000Z</time>
      </trkpt>
      <trkpt lat="47.56134" lon="6.69522">
        <ele>425.64047241211</ele>
        <time>2019-04-14T08:17:32.000Z</time>
      </trkpt>
      <trkpt lat="47.56139" lon="6.69513">
        <ele>426.14819335938</ele>
        <time>2019-04-14T08:17:35.000Z</time>
      </trkpt>
      <trkpt lat="47.56142" lon="6.69506">
        <ele>426.64044189453</ele>
        <time>2019-04-14T08:17:37.000Z</time>
      </trkpt>
      <trkpt lat="47.5615" lon="6.69496">
        <ele>427.11346435547</ele>
        <time>2019-04-14T08:17:40.000Z</time>
      </trkpt>
      <trkpt lat="47.56156" lon="6.69486">
        <ele>427.51992797852</ele>
        <time>2019-04-14T08:17:43.000Z</time>
      </trkpt>
      <trkpt lat="47.56161" lon="6.69479">
        <ele>427.88613891602</ele>
        <time>2019-04-14T08:17:45.000Z</time>
      </trkpt>
      <trkpt lat="47.56166" lon="6.69472">
        <ele>428.17694091797</ele>
        <time>2019-04-14T08:17:47.000Z</time>
      </trkpt>
      <trkpt lat="47.56172" lon="6.69462">
        <ele>428.36386108398</ele>
        <time>2019-04-14T08:17:50.000Z</time>
      </trkpt>
      <trkpt lat="47.56177" lon="6.69455">
        <ele>428.42364501953</ele>
        <time>2019-04-14T08:17:52.000Z</time>
      </trkpt>
      <trkpt lat="47.56181" lon="6.69448">
        <ele>428.40081787109</ele>
        <time>2019-04-14T08:17:54.000Z</time>
      </trkpt>
      <trkpt lat="47.56188" lon="6.69438">
        <ele>428.32202148438</ele>
        <time>2019-04-14T08:17:57.000Z</time>
      </trkpt>
      <trkpt lat="47.56191" lon="6.69432">
        <ele>428.21151733398</ele>
        <time>2019-04-14T08:18:00.000Z</time>
      </trkpt>
      <trkpt lat="47.56194" lon="6.69428">
        <ele>428.13201904297</ele>
        <time>2019-04-14T08:18:06.000Z</time>
      </trkpt>
      <trkpt lat="47.56192" lon="6.69427">
        <ele>428.05331420898</ele>
        <time>2019-04-14T08:18:22.000Z</time>
      </trkpt>
      <trkpt lat="47.56192" lon="6.69427">
        <ele>428.05331420898</ele>
        <time>2019-04-14T08:18:42.000Z</time>
      </trkpt>
      <trkpt lat="47.56192" lon="6.69425">
        <ele>427.98110961914</ele>
        <time>2019-04-14T08:19:19.000Z</time>
      </trkpt>
      <trkpt lat="47.56195" lon="6.69416">
        <ele>427.91088867188</ele>
        <time>2019-04-14T08:19:22.000Z</time>
      </trkpt>
      <trkpt lat="47.56202" lon="6.69405">
        <ele>427.91180419922</ele>
        <time>2019-04-14T08:19:25.000Z</time>
      </trkpt>
      <trkpt lat="47.56208" lon="6.69395">
        <ele>427.97509765625</ele>
        <time>2019-04-14T08:19:28.000Z</time>
      </trkpt>
      <trkpt lat="47.56212" lon="6.69389">
        <ele>428.09170532227</ele>
        <time>2019-04-14T08:19:30.000Z</time>
      </trkpt>
      <trkpt lat="47.56219" lon="6.69379">
        <ele>428.27130126953</ele>
        <time>2019-04-14T08:19:33.000Z</time>
      </trkpt>
      <trkpt lat="47.56223" lon="6.69372">
        <ele>428.48992919922</ele>
        <time>2019-04-14T08:19:35.000Z</time>
      </trkpt>
      <trkpt lat="47.5623" lon="6.69362">
        <ele>428.6669921875</ele>
        <time>2019-04-14T08:19:38.000Z</time>
      </trkpt>
      <trkpt lat="47.56237" lon="6.69351">
        <ele>428.80444335938</ele>
        <time>2019-04-14T08:19:41.000Z</time>
      </trkpt>
      <trkpt lat="47.56245" lon="6.69341">
        <ele>428.91021728516</ele>
        <time>2019-04-14T08:19:44.000Z</time>
      </trkpt>
      <trkpt lat="47.5625" lon="6.69333">
        <ele>428.96566772461</ele>
        <time>2019-04-14T08:19:46.000Z</time>
      </trkpt>
      <trkpt lat="47.56256" lon="6.69324">
        <ele>429.01602172852</ele>
        <time>2019-04-14T08:19:48.000Z</time>
      </trkpt>
      <trkpt lat="47.56264" lon="6.6931">
        <ele>429.06021118164</ele>
        <time>2019-04-14T08:19:51.000Z</time>
      </trkpt>
      <trkpt lat="47.56271" lon="6.69298">
        <ele>429.10464477539</ele>
        <time>2019-04-14T08:19:54.000Z</time>
      </trkpt>
      <trkpt lat="47.56278" lon="6.69286">
        <ele>429.1650390625</ele>
        <time>2019-04-14T08:19:57.000Z</time>
      </trkpt>
      <trkpt lat="47.56285" lon="6.69274">
        <ele>429.248046875</ele>
        <time>2019-04-14T08:20:00.000Z</time>
      </trkpt>
      <trkpt lat="47.56292" lon="6.69263">
        <ele>429.333984375</ele>
        <time>2019-04-14T08:20:03.000Z</time>
      </trkpt>
      <trkpt lat="47.56296" lon="6.69256">
        <ele>429.4111328125</ele>
        <time>2019-04-14T08:20:05.000Z</time>
      </trkpt>
      <trkpt lat="47.56302" lon="6.69246">
        <ele>429.50570678711</ele>
        <time>2019-04-14T08:20:08.000Z</time>
      </trkpt>
      <trkpt lat="47.5631" lon="6.69236">
        <ele>429.65081787109</ele>
        <time>2019-04-14T08:20:11.000Z</time>
      </trkpt>
      <trkpt lat="47.56314" lon="6.69228">
        <ele>429.82501220703</ele>
        <time>2019-04-14T08:20:13.000Z</time>
      </trkpt>
      <trkpt lat="47.56322" lon="6.69217">
        <ele>430.05264282227</ele>
        <time>2019-04-14T08:20:16.000Z</time>
      </trkpt>
      <trkpt lat="47.56328" lon="6.69207">
        <ele>430.33837890625</ele>
        <time>2019-04-14T08:20:19.000Z</time>
      </trkpt>
      <trkpt lat="47.56335" lon="6.69196">
        <ele>430.66375732422</ele>
        <time>2019-04-14T08:20:22.000Z</time>
      </trkpt>
      <trkpt lat="47.56339" lon="6.6919">
        <ele>430.99041748047</ele>
        <time>2019-04-14T08:20:24.000Z</time>
      </trkpt>
      <trkpt lat="47.56344" lon="6.6918">
        <ele>431.36834716797</ele>
        <time>2019-04-14T08:20:27.000Z</time>
      </trkpt>
      <trkpt lat="47.56349" lon="6.6917">
        <ele>431.77801513672</ele>
        <time>2019-04-14T08:20:30.000Z</time>
      </trkpt>
      <trkpt lat="47.56355" lon="6.69159">
        <ele>432.26400756836</ele>
        <time>2019-04-14T08:20:33.000Z</time>
      </trkpt>
      <trkpt lat="47.56359" lon="6.69149">
        <ele>432.83291625977</ele>
        <time>2019-04-14T08:20:36.000Z</time>
      </trkpt>
      <trkpt lat="47.56362" lon="6.69141">
        <ele>433.45440673828</ele>
        <time>2019-04-14T08:20:38.000Z</time>
      </trkpt>
      <trkpt lat="47.56364" lon="6.69134">
        <ele>434.08770751953</ele>
        <time>2019-04-14T08:20:40.000Z</time>
      </trkpt>
      <trkpt lat="47.56368" lon="6.69123">
        <ele>434.79547119141</ele>
        <time>2019-04-14T08:20:43.000Z</time>
      </trkpt>
      <trkpt lat="47.56371" lon="6.69116">
        <ele>435.46484375</ele>
        <time>2019-04-14T08:20:45.000Z</time>
      </trkpt>
      <trkpt lat="47.56374" lon="6.69106">
        <ele>436.14315795898</ele>
        <time>2019-04-14T08:20:48.000Z</time>
      </trkpt>
      <trkpt lat="47.56377" lon="6.69095">
        <ele>436.86660766602</ele>
        <time>2019-04-14T08:20:51.000Z</time>
      </trkpt>
      <trkpt lat="47.56379" lon="6.69085">
        <ele>437.6396484375</ele>
        <time>2019-04-14T08:20:54.000Z</time>
      </trkpt>
      <trkpt lat="47.56383" lon="6.69075">
        <ele>438.44415283203</ele>
        <time>2019-04-14T08:20:57.000Z</time>
      </trkpt>
      <trkpt lat="47.56385" lon="6.69069">
        <ele>439.29312133789</ele>
        <time>2019-04-14T08:20:59.000Z</time>
      </trkpt>
      <trkpt lat="47.56388" lon="6.69059">
        <ele>440.19595336914</ele>
        <time>2019-04-14T08:21:02.000Z</time>
      </trkpt>
      <trkpt lat="47.56392" lon="6.69049">
        <ele>441.17236328125</ele>
        <time>2019-04-14T08:21:05.000Z</time>
      </trkpt>
      <trkpt lat="47.56395" lon="6.69039">
        <ele>442.19985961914</ele>
        <time>2019-04-14T08:21:08.000Z</time>
      </trkpt>
      <trkpt lat="47.56397" lon="6.6903">
        <ele>443.22735595703</ele>
        <time>2019-04-14T08:21:11.000Z</time>
      </trkpt>
      <trkpt lat="47.564" lon="6.69022">
        <ele>444.30810546875</ele>
        <time>2019-04-14T08:21:14.000Z</time>
      </trkpt>
      <trkpt lat="47.56402" lon="6.69014">
        <ele>445.34503173828</ele>
        <time>2019-04-14T08:21:17.000Z</time>
      </trkpt>
      <trkpt lat="47.56405" lon="6.69007">
        <ele>446.33798217773</ele>
        <time>2019-04-14T08:21:20.000Z</time>
      </trkpt>
      <trkpt lat="47.56408" lon="6.69">
        <ele>447.30459594727</ele>
        <time>2019-04-14T08:21:23.000Z</time>
      </trkpt>
      <trkpt lat="47.56409" lon="6.68991">
        <ele>448.19683837891</ele>
        <time>2019-04-14T08:21:26.000Z</time>
      </trkpt>
      <trkpt lat="47.56411" lon="6.68984">
        <ele>449.00277709961</ele>
        <time>2019-04-14T08:21:29.000Z</time>
      </trkpt>
      <trkpt lat="47.56413" lon="6.68976">
        <ele>449.76864624023</ele>
        <time>2019-04-14T08:21:32.000Z</time>
      </trkpt>
      <trkpt lat="47.56417" lon="6.68971">
        <ele>450.47225952148</ele>
        <time>2019-04-14T08:21:35.000Z</time>
      </trkpt>
      <trkpt lat="47.56419" lon="6.68966">
        <ele>451.08148193359</ele>
        <time>2019-04-14T08:21:38.000Z</time>
      </trkpt>
      <trkpt lat="47.56421" lon="6.68964">
        <ele>451.62493896484</ele>
        <time>2019-04-14T08:21:41.000Z</time>
      </trkpt>
      <trkpt lat="47.56425" lon="6.68967">
        <ele>452.08602905273</ele>
        <time>2019-04-14T08:21:44.000Z</time>
      </trkpt>
      <trkpt lat="47.56427" lon="6.68967">
        <ele>452.45565795898</ele>
        <time>2019-04-14T08:21:47.000Z</time>
      </trkpt>
      <trkpt lat="47.5643" lon="6.68961">
        <ele>452.81121826172</ele>
        <time>2019-04-14T08:21:50.000Z</time>
      </trkpt>
      <trkpt lat="47.56433" lon="6.68956">
        <ele>453.18096923828</ele>
        <time>2019-04-14T08:21:53.000Z</time>
      </trkpt>
      <trkpt lat="47.56435" lon="6.6895">
        <ele>453.58047485352</ele>
        <time>2019-04-14T08:21:56.000Z</time>
      </trkpt>
      <trkpt lat="47.56437" lon="6.68942">
        <ele>454.05950927734</ele>
        <time>2019-04-14T08:21:59.000Z</time>
      </trkpt>
      <trkpt lat="47.5644" lon="6.68938">
        <ele>454.60092163086</ele>
        <time>2019-04-14T08:22:02.000Z</time>
      </trkpt>
      <trkpt lat="47.56445" lon="6.68932">
        <ele>455.1474609375</ele>
        <time>2019-04-14T08:22:05.000Z</time>
      </trkpt>
      <trkpt lat="47.5645" lon="6.68927">
        <ele>455.71240234375</ele>
        <time>2019-04-14T08:22:08.000Z</time>
      </trkpt>
      <trkpt lat="47.56454" lon="6.68923">
        <ele>456.28973388672</ele>
        <time>2019-04-14T08:22:11.000Z</time>
      </trkpt>
      <trkpt lat="47.56459" lon="6.68918">
        <ele>456.86727905273</ele>
        <time>2019-04-14T08:22:14.000Z</time>
      </trkpt>
      <trkpt lat="47.56464" lon="6.68915">
        <ele>457.42666625977</ele>
        <time>2019-04-14T08:22:17.000Z</time>
      </trkpt>
      <trkpt lat="47.56469" lon="6.68913">
        <ele>457.95452880859</ele>
        <time>2019-04-14T08:22:20.000Z</time>
      </trkpt>
      <trkpt lat="47.56475" lon="6.68913">
        <ele>458.44921875</ele>
        <time>2019-04-14T08:22:23.000Z</time>
      </trkpt>
      <trkpt lat="47.5648" lon="6.68911">
        <ele>458.91314697266</ele>
        <time>2019-04-14T08:22:26.000Z</time>
      </trkpt>
      <trkpt lat="47.56487" lon="6.68911">
        <ele>459.34976196289</ele>
        <time>2019-04-14T08:22:29.000Z</time>
      </trkpt>
      <trkpt lat="47.56491" lon="6.6891">
        <ele>459.76300048828</ele>
        <time>2019-04-14T08:22:32.000Z</time>
      </trkpt>
      <trkpt lat="47.56496" lon="6.68911">
        <ele>460.15023803711</ele>
        <time>2019-04-14T08:22:35.000Z</time>
      </trkpt>
      <trkpt lat="47.56501" lon="6.68911">
        <ele>460.50994873047</ele>
        <time>2019-04-14T08:22:38.000Z</time>
      </trkpt>
      <trkpt lat="47.56507" lon="6.68914">
        <ele>460.87469482422</ele>
        <time>2019-04-14T08:22:41.000Z</time>
      </trkpt>
      <trkpt lat="47.56513" lon="6.68915">
        <ele>461.23104858398</ele>
        <time>2019-04-14T08:22:44.000Z</time>
      </trkpt>
      <trkpt lat="47.56519" lon="6.68917">
        <ele>461.59429931641</ele>
        <time>2019-04-14T08:22:47.000Z</time>
      </trkpt>
      <trkpt lat="47.56525" lon="6.68919">
        <ele>461.96615600586</ele>
        <time>2019-04-14T08:22:50.000Z</time>
      </trkpt>
      <trkpt lat="47.56531" lon="6.68921">
        <ele>462.3427734375</ele>
        <time>2019-04-14T08:22:53.000Z</time>
      </trkpt>
      <trkpt lat="47.56537" lon="6.68924">
        <ele>462.70541381836</ele>
        <time>2019-04-14T08:22:56.000Z</time>
      </trkpt>
      <trkpt lat="47.56544" lon="6.68927">
        <ele>463.04766845703</ele>
        <time>2019-04-14T08:22:59.000Z</time>
      </trkpt>
      <trkpt lat="47.56551" lon="6.68931">
        <ele>463.37753295898</ele>
        <time>2019-04-14T08:23:02.000Z</time>
      </trkpt>
      <trkpt lat="47.56558" lon="6.68932">
        <ele>463.72143554688</ele>
        <time>2019-04-14T08:23:05.000Z</time>
      </trkpt>
      <trkpt lat="47.56565" lon="6.68932">
        <ele>464.076171875</ele>
        <time>2019-04-14T08:23:08.000Z</time>
      </trkpt>
      <trkpt lat="47.56572" lon="6.68932">
        <ele>464.45565795898</ele>
        <time>2019-04-14T08:23:11.000Z</time>
      </trkpt>
      <trkpt lat="47.56579" lon="6.68933">
        <ele>464.86450195312</ele>
        <time>2019-04-14T08:23:14.000Z</time>
      </trkpt>
      <trkpt lat="47.56586" lon="6.68935">
        <ele>465.25946044922</ele>
        <time>2019-04-14T08:23:17.000Z</time>
      </trkpt>
      <trkpt lat="47.56592" lon="6.6894">
        <ele>465.57049560547</ele>
        <time>2019-04-14T08:23:20.000Z</time>
      </trkpt>
      <trkpt lat="47.56598" lon="6.68946">
        <ele>465.78857421875</ele>
        <time>2019-04-14T08:23:23.000Z</time>
      </trkpt>
      <trkpt lat="47.56605" lon="6.68953">
        <ele>465.89776611328</ele>
        <time>2019-04-14T08:23:26.000Z</time>
      </trkpt>
      <trkpt lat="47.56613" lon="6.68961">
        <ele>465.9091796875</ele>
        <time>2019-04-14T08:23:29.000Z</time>
      </trkpt>
      <trkpt lat="47.56622" lon="6.68967">
        <ele>465.89517211914</ele>
        <time>2019-04-14T08:23:32.000Z</time>
      </trkpt>
      <trkpt lat="47.56628" lon="6.68972">
        <ele>465.89053344727</ele>
        <time>2019-04-14T08:23:35.000Z</time>
      </trkpt>
      <trkpt lat="47.56638" lon="6.68979">
        <ele>465.94638061523</ele>
        <time>2019-04-14T08:23:38.000Z</time>
      </trkpt>
      <trkpt lat="47.56648" lon="6.68983">
        <ele>466.09588623047</ele>
        <time>2019-04-14T08:23:41.000Z</time>
      </trkpt>
      <trkpt lat="47.56658" lon="6.68986">
        <ele>466.33340454102</ele>
        <time>2019-04-14T08:23:44.000Z</time>
      </trkpt>
      <trkpt lat="47.56668" lon="6.6899">
        <ele>466.65496826172</ele>
        <time>2019-04-14T08:23:47.000Z</time>
      </trkpt>
      <trkpt lat="47.56677" lon="6.68994">
        <ele>467.07470703125</ele>
        <time>2019-04-14T08:23:50.000Z</time>
      </trkpt>
      <trkpt lat="47.56686" lon="6.68998">
        <ele>467.57452392578</ele>
        <time>2019-04-14T08:23:53.000Z</time>
      </trkpt>
      <trkpt lat="47.56694" lon="6.69002">
        <ele>468.087890625</ele>
        <time>2019-04-14T08:23:56.000Z</time>
      </trkpt>
      <trkpt lat="47.56702" lon="6.69007">
        <ele>468.59912109375</ele>
        <time>2019-04-14T08:23:59.000Z</time>
      </trkpt>
      <trkpt lat="47.56712" lon="6.69011">
        <ele>469.11932373047</ele>
        <time>2019-04-14T08:24:02.000Z</time>
      </trkpt>
      <trkpt lat="47.56721" lon="6.69014">
        <ele>469.63613891602</ele>
        <time>2019-04-14T08:24:05.000Z</time>
      </trkpt>
      <trkpt lat="47.56731" lon="6.69019">
        <ele>470.12881469727</ele>
        <time>2019-04-14T08:24:08.000Z</time>
      </trkpt>
      <trkpt lat="47.56741" lon="6.69024">
        <ele>470.60772705078</ele>
        <time>2019-04-14T08:24:11.000Z</time>
      </trkpt>
      <trkpt lat="47.5675" lon="6.6903">
        <ele>471.07299804688</ele>
        <time>2019-04-14T08:24:14.000Z</time>
      </trkpt>
      <trkpt lat="47.56759" lon="6.69036">
        <ele>471.44561767578</ele>
        <time>2019-04-14T08:24:17.000Z</time>
      </trkpt>
      <trkpt lat="47.56768" lon="6.69042">
        <ele>471.73028564453</ele>
        <time>2019-04-14T08:24:20.000Z</time>
      </trkpt>
      <trkpt lat="47.56777" lon="6.69047">
        <ele>471.95693969727</ele>
        <time>2019-04-14T08:24:23.000Z</time>
      </trkpt>
      <trkpt lat="47.56785" lon="6.69054">
        <ele>472.11245727539</ele>
        <time>2019-04-14T08:24:26.000Z</time>
      </trkpt>
      <trkpt lat="47.56792" lon="6.69061">
        <ele>472.19989013672</ele>
        <time>2019-04-14T08:24:29.000Z</time>
      </trkpt>
      <trkpt lat="47.568" lon="6.69071">
        <ele>472.26596069336</ele>
        <time>2019-04-14T08:24:32.000Z</time>
      </trkpt>
      <trkpt lat="47.5681" lon="6.69082">
        <ele>472.33099365234</ele>
        <time>2019-04-14T08:24:35.000Z</time>
      </trkpt>
      <trkpt lat="47.56818" lon="6.6909">
        <ele>472.32659912109</ele>
        <time>2019-04-14T08:24:38.000Z</time>
      </trkpt>
      <trkpt lat="47.56827" lon="6.69097">
        <ele>472.27856445312</ele>
        <time>2019-04-14T08:24:41.000Z</time>
      </trkpt>
      <trkpt lat="47.56837" lon="6.69103">
        <ele>472.24063110352</ele>
        <time>2019-04-14T08:24:44.000Z</time>
      </trkpt>
      <trkpt lat="47.56847" lon="6.69107">
        <ele>472.24838256836</ele>
        <time>2019-04-14T08:24:47.000Z</time>
      </trkpt>
      <trkpt lat="47.56856" lon="6.69108">
        <ele>472.32989501953</ele>
        <time>2019-04-14T08:24:50.000Z</time>
      </trkpt>
      <trkpt lat="47.56863" lon="6.6911">
        <ele>472.50473022461</ele>
        <time>2019-04-14T08:24:53.000Z</time>
      </trkpt>
      <trkpt lat="47.56872" lon="6.69114">
        <ele>472.76165771484</ele>
        <time>2019-04-14T08:24:56.000Z</time>
      </trkpt>
      <trkpt lat="47.56879" lon="6.69116">
        <ele>473.0810546875</ele>
        <time>2019-04-14T08:24:59.000Z</time>
      </trkpt>
      <trkpt lat="47.56887" lon="6.69117">
        <ele>473.45672607422</ele>
        <time>2019-04-14T08:25:02.000Z</time>
      </trkpt>
      <trkpt lat="47.56896" lon="6.69117">
        <ele>473.86334228516</ele>
        <time>2019-04-14T08:25:05.000Z</time>
      </trkpt>
      <trkpt lat="47.56905" lon="6.69116">
        <ele>474.34478759766</ele>
        <time>2019-04-14T08:25:08.000Z</time>
      </trkpt>
      <trkpt lat="47.56912" lon="6.69116">
        <ele>474.89144897461</ele>
        <time>2019-04-14T08:25:11.000Z</time>
      </trkpt>
      <trkpt lat="47.56918" lon="6.69115">
        <ele>475.47418212891</ele>
        <time>2019-04-14T08:25:14.000Z</time>
      </trkpt>
      <trkpt lat="47.56926" lon="6.69118">
        <ele>476.1103515625</ele>
        <time>2019-04-14T08:25:17.000Z</time>
      </trkpt>
      <trkpt lat="47.56934" lon="6.69124">
        <ele>476.75601196289</ele>
        <time>2019-04-14T08:25:20.000Z</time>
      </trkpt>
      <trkpt lat="47.56941" lon="6.69131">
        <ele>477.35906982422</ele>
        <time>2019-04-14T08:25:23.000Z</time>
      </trkpt>
      <trkpt lat="47.56948" lon="6.69139">
        <ele>477.97158813477</ele>
        <time>2019-04-14T08:25:26.000Z</time>
      </trkpt>
      <trkpt lat="47.56956" lon="6.69145">
        <ele>478.619140625</ele>
        <time>2019-04-14T08:25:29.000Z</time>
      </trkpt>
      <trkpt lat="47.56963" lon="6.69153">
        <ele>479.23455810547</ele>
        <time>2019-04-14T08:25:32.000Z</time>
      </trkpt>
      <trkpt lat="47.56971" lon="6.69161">
        <ele>479.89071655273</ele>
        <time>2019-04-14T08:25:35.000Z</time>
      </trkpt>
      <trkpt lat="47.56978" lon="6.69171">
        <ele>480.58535766602</ele>
        <time>2019-04-14T08:25:38.000Z</time>
      </trkpt>
      <trkpt lat="47.56987" lon="6.69179">
        <ele>481.34405517578</ele>
        <time>2019-04-14T08:25:41.000Z</time>
      </trkpt>
      <trkpt lat="47.56997" lon="6.69185">
        <ele>482.23013305664</ele>
        <time>2019-04-14T08:25:44.000Z</time>
      </trkpt>
      <trkpt lat="47.57005" lon="6.69191">
        <ele>483.11944580078</ele>
        <time>2019-04-14T08:25:47.000Z</time>
      </trkpt>
      <trkpt lat="47.57014" lon="6.69196">
        <ele>483.89224243164</ele>
        <time>2019-04-14T08:25:50.000Z</time>
      </trkpt>
      <trkpt lat="47.57025" lon="6.692">
        <ele>484.59564208984</ele>
        <time>2019-04-14T08:25:53.000Z</time>
      </trkpt>
      <trkpt lat="47.57035" lon="6.69201">
        <ele>485.18731689453</ele>
        <time>2019-04-14T08:25:56.000Z</time>
      </trkpt>
      <trkpt lat="47.57047" lon="6.69199">
        <ele>485.61254882812</ele>
        <time>2019-04-14T08:25:59.000Z</time>
      </trkpt>
      <trkpt lat="47.57056" lon="6.69195">
        <ele>486.00942993164</ele>
        <time>2019-04-14T08:26:02.000Z</time>
      </trkpt>
      <trkpt lat="47.57066" lon="6.69192">
        <ele>486.44223022461</ele>
        <time>2019-04-14T08:26:05.000Z</time>
      </trkpt>
      <trkpt lat="47.57077" lon="6.69191">
        <ele>486.90155029297</ele>
        <time>2019-04-14T08:26:08.000Z</time>
      </trkpt>
      <trkpt lat="47.57087" lon="6.6919">
        <ele>487.33609008789</ele>
        <time>2019-04-14T08:26:11.000Z</time>
      </trkpt>
      <trkpt lat="47.57096" lon="6.69188">
        <ele>487.65570068359</ele>
        <time>2019-04-14T08:26:14.000Z</time>
      </trkpt>
      <trkpt lat="47.57105" lon="6.69186">
        <ele>487.85946655273</ele>
        <time>2019-04-14T08:26:17.000Z</time>
      </trkpt>
      <trkpt lat="47.57114" lon="6.69181">
        <ele>487.97552490234</ele>
        <time>2019-04-14T08:26:20.000Z</time>
      </trkpt>
      <trkpt lat="47.57124" lon="6.69178">
        <ele>487.99639892578</ele>
        <time>2019-04-14T08:26:23.000Z</time>
      </trkpt>
      <trkpt lat="47.57133" lon="6.69177">
        <ele>487.95697021484</ele>
        <time>2019-04-14T08:26:26.000Z</time>
      </trkpt>
      <trkpt lat="47.57142" lon="6.69172">
        <ele>487.95440673828</ele>
        <time>2019-04-14T08:26:29.000Z</time>
      </trkpt>
      <trkpt lat="47.57149" lon="6.69163">
        <ele>488.03253173828</ele>
        <time>2019-04-14T08:26:32.000Z</time>
      </trkpt>
      <trkpt lat="47.57157" lon="6.69157">
        <ele>488.11953735352</ele>
        <time>2019-04-14T08:26:35.000Z</time>
      </trkpt>
      <trkpt lat="47.57166" lon="6.69153">
        <ele>488.19467163086</ele>
        <time>2019-04-14T08:26:38.000Z</time>
      </trkpt>
      <trkpt lat="47.57176" lon="6.6915">
        <ele>488.17132568359</ele>
        <time>2019-04-14T08:26:41.000Z</time>
      </trkpt>
      <trkpt lat="47.57186" lon="6.69148">
        <ele>488.00115966797</ele>
        <time>2019-04-14T08:26:44.000Z</time>
      </trkpt>
      <trkpt lat="47.57196" lon="6.69147">
        <ele>487.64144897461</ele>
        <time>2019-04-14T08:26:47.000Z</time>
      </trkpt>
      <trkpt lat="47.57207" lon="6.69146">
        <ele>487.12167358398</ele>
        <time>2019-04-14T08:26:50.000Z</time>
      </trkpt>
      <trkpt lat="47.57217" lon="6.69147">
        <ele>486.48992919922</ele>
        <time>2019-04-14T08:26:53.000Z</time>
      </trkpt>
      <trkpt lat="47.5722" lon="6.69141">
        <ele>485.94125366211</ele>
        <time>2019-04-14T08:26:56.000Z</time>
      </trkpt>
      <trkpt lat="47.57217" lon="6.69131">
        <ele>485.57080078125</ele>
        <time>2019-04-14T08:26:59.000Z</time>
      </trkpt>
      <trkpt lat="47.57213" lon="6.69118">
        <ele>485.41723632812</ele>
        <time>2019-04-14T08:27:02.000Z</time>
      </trkpt>
      <trkpt lat="47.57209" lon="6.69105">
        <ele>485.48623657227</ele>
        <time>2019-04-14T08:27:05.000Z</time>
      </trkpt>
      <trkpt lat="47.57205" lon="6.69094">
        <ele>485.77774047852</ele>
        <time>2019-04-14T08:27:08.000Z</time>
      </trkpt>
      <trkpt lat="47.57201" lon="6.69086">
        <ele>486.17959594727</ele>
        <time>2019-04-14T08:27:11.000Z</time>
      </trkpt>
      <trkpt lat="47.57199" lon="6.69076">
        <ele>486.46224975586</ele>
        <time>2019-04-14T08:27:14.000Z</time>
      </trkpt>
      <trkpt lat="47.57195" lon="6.69065">
        <ele>486.56121826172</ele>
        <time>2019-04-14T08:27:17.000Z</time>
      </trkpt>
      <trkpt lat="47.57193" lon="6.69058">
        <ele>486.50341796875</ele>
        <time>2019-04-14T08:27:20.000Z</time>
      </trkpt>
      <trkpt lat="47.57193" lon="6.69049">
        <ele>486.2138671875</ele>
        <time>2019-04-14T08:27:23.000Z</time>
      </trkpt>
      <trkpt lat="47.57192" lon="6.6904">
        <ele>485.73471069336</ele>
        <time>2019-04-14T08:27:26.000Z</time>
      </trkpt>
      <trkpt lat="47.57187" lon="6.69032">
        <ele>485.30917358398</ele>
        <time>2019-04-14T08:27:29.000Z</time>
      </trkpt>
      <trkpt lat="47.57185" lon="6.69022">
        <ele>484.90087890625</ele>
        <time>2019-04-14T08:27:32.000Z</time>
      </trkpt>
      <trkpt lat="47.57182" lon="6.69015">
        <ele>484.52630615234</ele>
        <time>2019-04-14T08:27:35.000Z</time>
      </trkpt>
      <trkpt lat="47.5718" lon="6.69011">
        <ele>484.27676391602</ele>
        <time>2019-04-14T08:27:38.000Z</time>
      </trkpt>
      <trkpt lat="47.57177" lon="6.69007">
        <ele>484.15567016602</ele>
        <time>2019-04-14T08:27:48.000Z</time>
      </trkpt>
      <trkpt lat="47.57176" lon="6.68999">
        <ele>483.94262695312</ele>
        <time>2019-04-14T08:27:51.000Z</time>
      </trkpt>
      <trkpt lat="47.57172" lon="6.6899">
        <ele>483.38653564453</ele>
        <time>2019-04-14T08:27:54.000Z</time>
      </trkpt>
      <trkpt lat="47.57166" lon="6.68982">
        <ele>482.64794921875</ele>
        <time>2019-04-14T08:27:57.000Z</time>
      </trkpt>
      <trkpt lat="47.57161" lon="6.68979">
        <ele>481.84506225586</ele>
        <time>2019-04-14T08:28:00.000Z</time>
      </trkpt>
      <trkpt lat="47.57156" lon="6.68976">
        <ele>481.00811767578</ele>
        <time>2019-04-14T08:28:03.000Z</time>
      </trkpt>
      <trkpt lat="47.5715" lon="6.68972">
        <ele>480.27987670898</ele>
        <time>2019-04-14T08:28:06.000Z</time>
      </trkpt>
      <trkpt lat="47.57141" lon="6.68969">
        <ele>480.10809326172</ele>
        <time>2019-04-14T08:28:09.000Z</time>
      </trkpt>
      <trkpt lat="47.57135" lon="6.68964">
        <ele>480.19052124023</ele>
        <time>2019-04-14T08:28:12.000Z</time>
      </trkpt>
      <trkpt lat="47.57127" lon="6.68961">
        <ele>480.47344970703</ele>
        <time>2019-04-14T08:28:15.000Z</time>
      </trkpt>
      <trkpt lat="47.57122" lon="6.68958">
        <ele>480.84783935547</ele>
        <time>2019-04-14T08:28:18.000Z</time>
      </trkpt>
      <trkpt lat="47.57116" lon="6.68953">
        <ele>481.29736328125</ele>
        <time>2019-04-14T08:28:21.000Z</time>
      </trkpt>
      <trkpt lat="47.5711" lon="6.68949">
        <ele>481.68872070312</ele>
        <time>2019-04-14T08:28:24.000Z</time>
      </trkpt>
      <trkpt lat="47.57105" lon="6.68944">
        <ele>482.14663696289</ele>
        <time>2019-04-14T08:28:27.000Z</time>
      </trkpt>
      <trkpt lat="47.57099" lon="6.68939">
        <ele>482.59783935547</ele>
        <time>2019-04-14T08:28:30.000Z</time>
      </trkpt>
      <trkpt lat="47.57092" lon="6.68935">
        <ele>483.18643188477</ele>
        <time>2019-04-14T08:28:33.000Z</time>
      </trkpt>
      <trkpt lat="47.57087" lon="6.68932">
        <ele>483.86752319336</ele>
        <time>2019-04-14T08:28:36.000Z</time>
      </trkpt>
      <trkpt lat="47.57084" lon="6.68931">
        <ele>484.59539794922</ele>
        <time>2019-04-14T08:28:39.000Z</time>
      </trkpt>
      <trkpt lat="47.5708" lon="6.68929">
        <ele>485.27465820312</ele>
        <time>2019-04-14T08:28:42.000Z</time>
      </trkpt>
      <trkpt lat="47.57075" lon="6.68927">
        <ele>485.84243774414</ele>
        <time>2019-04-14T08:28:45.000Z</time>
      </trkpt>
      <trkpt lat="47.57067" lon="6.68923">
        <ele>486.22811889648</ele>
        <time>2019-04-14T08:28:48.000Z</time>
      </trkpt>
      <trkpt lat="47.57058" lon="6.68918">
        <ele>486.50643920898</ele>
        <time>2019-04-14T08:28:51.000Z</time>
      </trkpt>
      <trkpt lat="47.57049" lon="6.68908">
        <ele>486.43768310547</ele>
        <time>2019-04-14T08:28:54.000Z</time>
      </trkpt>
      <trkpt lat="47.5704" lon="6.689">
        <ele>486.20391845703</ele>
        <time>2019-04-14T08:28:57.000Z</time>
      </trkpt>
      <trkpt lat="47.57031" lon="6.68891">
        <ele>485.89202880859</ele>
        <time>2019-04-14T08:29:00.000Z</time>
      </trkpt>
      <trkpt lat="47.57024" lon="6.68879">
        <ele>485.40545654297</ele>
        <time>2019-04-14T08:29:03.000Z</time>
      </trkpt>
      <trkpt lat="47.57014" lon="6.6887">
        <ele>484.97479248047</ele>
        <time>2019-04-14T08:29:06.000Z</time>
      </trkpt>
      <trkpt lat="47.57006" lon="6.68864">
        <ele>485.00634765625</ele>
        <time>2019-04-14T08:29:09.000Z</time>
      </trkpt>
      <trkpt lat="47.57001" lon="6.68862">
        <ele>485.30950927734</ele>
        <time>2019-04-14T08:29:12.000Z</time>
      </trkpt>
      <trkpt lat="47.56997" lon="6.68854">
        <ele>485.65600585938</ele>
        <time>2019-04-14T08:29:15.000Z</time>
      </trkpt>
      <trkpt lat="47.56993" lon="6.68843">
        <ele>486.03231811523</ele>
        <time>2019-04-14T08:29:18.000Z</time>
      </trkpt>
      <trkpt lat="47.56987" lon="6.68831">
        <ele>486.13842773438</ele>
        <time>2019-04-14T08:29:21.000Z</time>
      </trkpt>
      <trkpt lat="47.56984" lon="6.68818">
        <ele>485.484375</ele>
        <time>2019-04-14T08:29:24.000Z</time>
      </trkpt>
      <trkpt lat="47.56978" lon="6.68809">
        <ele>484.43276977539</ele>
        <time>2019-04-14T08:29:27.000Z</time>
      </trkpt>
      <trkpt lat="47.56973" lon="6.68808">
        <ele>483.48477172852</ele>
        <time>2019-04-14T08:29:30.000Z</time>
      </trkpt>
      <trkpt lat="47.56963" lon="6.68808">
        <ele>482.83367919922</ele>
        <time>2019-04-14T08:29:33.000Z</time>
      </trkpt>
      <trkpt lat="47.56955" lon="6.68804">
        <ele>482.35198974609</ele>
        <time>2019-04-14T08:29:36.000Z</time>
      </trkpt>
      <trkpt lat="47.56948" lon="6.68798">
        <ele>482.35382080078</ele>
        <time>2019-04-14T08:29:39.000Z</time>
      </trkpt>
      <trkpt lat="47.56939" lon="6.68791">
        <ele>482.59463500977</ele>
        <time>2019-04-14T08:29:42.000Z</time>
      </trkpt>
      <trkpt lat="47.56928" lon="6.68783">
        <ele>482.82754516602</ele>
        <time>2019-04-14T08:29:45.000Z</time>
      </trkpt>
      <trkpt lat="47.56918" lon="6.68773">
        <ele>482.91107177734</ele>
        <time>2019-04-14T08:29:48.000Z</time>
      </trkpt>
      <trkpt lat="47.56911" lon="6.68765">
        <ele>482.87915039062</ele>
        <time>2019-04-14T08:29:51.000Z</time>
      </trkpt>
      <trkpt lat="47.56903" lon="6.68763">
        <ele>482.86444091797</ele>
        <time>2019-04-14T08:29:54.000Z</time>
      </trkpt>
      <trkpt lat="47.56894" lon="6.68762">
        <ele>482.86904907227</ele>
        <time>2019-04-14T08:29:57.000Z</time>
      </trkpt>
      <trkpt lat="47.56884" lon="6.6875">
        <ele>482.6923828125</ele>
        <time>2019-04-14T08:30:00.000Z</time>
      </trkpt>
      <trkpt lat="47.56874" lon="6.68739">
        <ele>481.97705078125</ele>
        <time>2019-04-14T08:30:03.000Z</time>
      </trkpt>
      <trkpt lat="47.56864" lon="6.68736">
        <ele>481.28973388672</ele>
        <time>2019-04-14T08:30:06.000Z</time>
      </trkpt>
      <trkpt lat="47.56853" lon="6.68731">
        <ele>480.51361083984</ele>
        <time>2019-04-14T08:30:09.000Z</time>
      </trkpt>
      <trkpt lat="47.56842" lon="6.68721">
        <ele>479.39541625977</ele>
        <time>2019-04-14T08:30:12.000Z</time>
      </trkpt>
      <trkpt lat="47.56832" lon="6.68715">
        <ele>478.26333618164</ele>
        <time>2019-04-14T08:30:15.000Z</time>
      </trkpt>
      <trkpt lat="47.5682" lon="6.68713">
        <ele>477.57260131836</ele>
        <time>2019-04-14T08:30:18.000Z</time>
      </trkpt>
      <trkpt lat="47.56814" lon="6.68705">
        <ele>476.68829345703</ele>
        <time>2019-04-14T08:30:21.000Z</time>
      </trkpt>
      <trkpt lat="47.56806" lon="6.68701">
        <ele>475.84466552734</ele>
        <time>2019-04-14T08:30:24.000Z</time>
      </trkpt>
      <trkpt lat="47.56793" lon="6.68701">
        <ele>475.42373657227</ele>
        <time>2019-04-14T08:30:27.000Z</time>
      </trkpt>
      <trkpt lat="47.56779" lon="6.68702">
        <ele>475.25741577148</ele>
        <time>2019-04-14T08:30:30.000Z</time>
      </trkpt>
      <trkpt lat="47.5676" lon="6.68691">
        <ele>475.13021850586</ele>
        <time>2019-04-14T08:30:33.000Z</time>
      </trkpt>
      <trkpt lat="47.56754" lon="6.68682">
        <ele>475.24105834961</ele>
        <time>2019-04-14T08:30:36.000Z</time>
      </trkpt>
      <trkpt lat="47.56746" lon="6.68672">
        <ele>475.35620117188</ele>
        <time>2019-04-14T08:30:39.000Z</time>
      </trkpt>
      <trkpt lat="47.56739" lon="6.68666">
        <ele>475.28823852539</ele>
        <time>2019-04-14T08:30:42.000Z</time>
      </trkpt>
      <trkpt lat="47.56736" lon="6.68662">
        <ele>474.86953735352</ele>
        <time>2019-04-14T08:30:45.000Z</time>
      </trkpt>
      <trkpt lat="47.56729" lon="6.68658">
        <ele>474.26568603516</ele>
        <time>2019-04-14T08:30:48.000Z</time>
      </trkpt>
      <trkpt lat="47.56722" lon="6.68656">
        <ele>473.57550048828</ele>
        <time>2019-04-14T08:30:51.000Z</time>
      </trkpt>
      <trkpt lat="47.56718" lon="6.68645">
        <ele>472.50708007812</ele>
        <time>2019-04-14T08:30:54.000Z</time>
      </trkpt>
      <trkpt lat="47.56715" lon="6.68635">
        <ele>471.13354492188</ele>
        <time>2019-04-14T08:30:57.000Z</time>
      </trkpt>
      <trkpt lat="47.56706" lon="6.68628">
        <ele>469.76504516602</ele>
        <time>2019-04-14T08:31:00.000Z</time>
      </trkpt>
      <trkpt lat="47.56696" lon="6.68624">
        <ele>468.52349853516</ele>
        <time>2019-04-14T08:31:03.000Z</time>
      </trkpt>
      <trkpt lat="47.56687" lon="6.68618">
        <ele>467.24356079102</ele>
        <time>2019-04-14T08:31:06.000Z</time>
      </trkpt>
      <trkpt lat="47.56676" lon="6.68612">
        <ele>466.32632446289</ele>
        <time>2019-04-14T08:31:09.000Z</time>
      </trkpt>
      <trkpt lat="47.56667" lon="6.68606">
        <ele>465.76449584961</ele>
        <time>2019-04-14T08:31:12.000Z</time>
      </trkpt>
      <trkpt lat="47.56653" lon="6.68597">
        <ele>465.20330810547</ele>
        <time>2019-04-14T08:31:15.000Z</time>
      </trkpt>
      <trkpt lat="47.56646" lon="6.68592">
        <ele>464.62908935547</ele>
        <time>2019-04-14T08:31:18.000Z</time>
      </trkpt>
      <trkpt lat="47.56635" lon="6.68586">
        <ele>464.12481689453</ele>
        <time>2019-04-14T08:31:21.000Z</time>
      </trkpt>
      <trkpt lat="47.56614" lon="6.68574">
        <ele>463.22772216797</ele>
        <time>2019-04-14T08:31:24.000Z</time>
      </trkpt>
      <trkpt lat="47.56602" lon="6.68566">
        <ele>462.01098632812</ele>
        <time>2019-04-14T08:31:27.000Z</time>
      </trkpt>
      <trkpt lat="47.56594" lon="6.68561">
        <ele>460.76263427734</ele>
        <time>2019-04-14T08:31:30.000Z</time>
      </trkpt>
      <trkpt lat="47.56582" lon="6.68555">
        <ele>459.40615844727</ele>
        <time>2019-04-14T08:31:33.000Z</time>
      </trkpt>
      <trkpt lat="47.56573" lon="6.68551">
        <ele>457.94140625</ele>
        <time>2019-04-14T08:31:36.000Z</time>
      </trkpt>
      <trkpt lat="47.56566" lon="6.6855">
        <ele>456.94873046875</ele>
        <time>2019-04-14T08:31:39.000Z</time>
      </trkpt>
      <trkpt lat="47.56559" lon="6.68551">
        <ele>456.44219970703</ele>
        <time>2019-04-14T08:31:42.000Z</time>
      </trkpt>
      <trkpt lat="47.56554" lon="6.68552">
        <ele>456.25732421875</ele>
        <time>2019-04-14T08:31:45.000Z</time>
      </trkpt>
      <trkpt lat="47.56547" lon="6.68553">
        <ele>456.36395263672</ele>
        <time>2019-04-14T08:31:48.000Z</time>
      </trkpt>
      <trkpt lat="47.5654" lon="6.68553">
        <ele>456.67022705078</ele>
        <time>2019-04-14T08:31:51.000Z</time>
      </trkpt>
      <trkpt lat="47.56528" lon="6.68555">
        <ele>457.1376953125</ele>
        <time>2019-04-14T08:31:54.000Z</time>
      </trkpt>
      <trkpt lat="47.56523" lon="6.68555">
        <ele>457.50405883789</ele>
        <time>2019-04-14T08:31:57.000Z</time>
      </trkpt>
      <trkpt lat="47.56517" lon="6.68551">
        <ele>457.693359375</ele>
        <time>2019-04-14T08:32:00.000Z</time>
      </trkpt>
      <trkpt lat="47.56509" lon="6.68545">
        <ele>457.60409545898</ele>
        <time>2019-04-14T08:32:03.000Z</time>
      </trkpt>
      <trkpt lat="47.56501" lon="6.68544">
        <ele>457.50576782227</ele>
        <time>2019-04-14T08:32:06.000Z</time>
      </trkpt>
      <trkpt lat="47.56493" lon="6.68543">
        <ele>457.27496337891</ele>
        <time>2019-04-14T08:32:09.000Z</time>
      </trkpt>
      <trkpt lat="47.56486" lon="6.68545">
        <ele>457.10098266602</ele>
        <time>2019-04-14T08:32:12.000Z</time>
      </trkpt>
      <trkpt lat="47.56478" lon="6.68544">
        <ele>457.02993774414</ele>
        <time>2019-04-14T08:32:15.000Z</time>
      </trkpt>
      <trkpt lat="47.5647" lon="6.68542">
        <ele>457.13836669922</ele>
        <time>2019-04-14T08:32:18.000Z</time>
      </trkpt>
      <trkpt lat="47.56461" lon="6.68542">
        <ele>457.28067016602</ele>
        <time>2019-04-14T08:32:21.000Z</time>
      </trkpt>
      <trkpt lat="47.5645" lon="6.68542">
        <ele>457.44427490234</ele>
        <time>2019-04-14T08:32:24.000Z</time>
      </trkpt>
      <trkpt lat="47.56442" lon="6.68543">
        <ele>457.59140014648</ele>
        <time>2019-04-14T08:32:27.000Z</time>
      </trkpt>
      <trkpt lat="47.56438" lon="6.68544">
        <ele>457.78076171875</ele>
        <time>2019-04-14T08:32:30.000Z</time>
      </trkpt>
      <trkpt lat="47.5643" lon="6.68544">
        <ele>458.00512695312</ele>
        <time>2019-04-14T08:32:33.000Z</time>
      </trkpt>
      <trkpt lat="47.56422" lon="6.68544">
        <ele>458.22247314453</ele>
        <time>2019-04-14T08:32:36.000Z</time>
      </trkpt>
      <trkpt lat="47.56414" lon="6.68543">
        <ele>458.43414306641</ele>
        <time>2019-04-14T08:32:39.000Z</time>
      </trkpt>
      <trkpt lat="47.56405" lon="6.68542">
        <ele>458.63168334961</ele>
        <time>2019-04-14T08:32:42.000Z</time>
      </trkpt>
      <trkpt lat="47.56395" lon="6.6854">
        <ele>458.85311889648</ele>
        <time>2019-04-14T08:32:45.000Z</time>
      </trkpt>
      <trkpt lat="47.56384" lon="6.68536">
        <ele>459.10848999023</ele>
        <time>2019-04-14T08:32:48.000Z</time>
      </trkpt>
      <trkpt lat="47.56376" lon="6.68532">
        <ele>459.3681640625</ele>
        <time>2019-04-14T08:32:51.000Z</time>
      </trkpt>
      <trkpt lat="47.56365" lon="6.68527">
        <ele>459.65521240234</ele>
        <time>2019-04-14T08:32:54.000Z</time>
      </trkpt>
      <trkpt lat="47.56355" lon="6.68524">
        <ele>459.99990844727</ele>
        <time>2019-04-14T08:32:57.000Z</time>
      </trkpt>
      <trkpt lat="47.56346" lon="6.68521">
        <ele>460.38934326172</ele>
        <time>2019-04-14T08:33:00.000Z</time>
      </trkpt>
      <trkpt lat="47.56337" lon="6.68518">
        <ele>460.82818603516</ele>
        <time>2019-04-14T08:33:03.000Z</time>
      </trkpt>
      <trkpt lat="47.5633" lon="6.68516">
        <ele>461.30096435547</ele>
        <time>2019-04-14T08:33:06.000Z</time>
      </trkpt>
      <trkpt lat="47.56324" lon="6.68513">
        <ele>461.72222900391</ele>
        <time>2019-04-14T08:33:09.000Z</time>
      </trkpt>
      <trkpt lat="47.56319" lon="6.68512">
        <ele>462.05361938477</ele>
        <time>2019-04-14T08:33:12.000Z</time>
      </trkpt>
      <trkpt lat="47.56312" lon="6.6851">
        <ele>462.29995727539</ele>
        <time>2019-04-14T08:33:15.000Z</time>
      </trkpt>
      <trkpt lat="47.56304" lon="6.68509">
        <ele>462.46856689453</ele>
        <time>2019-04-14T08:33:18.000Z</time>
      </trkpt>
      <trkpt lat="47.56296" lon="6.68506">
        <ele>462.60122680664</ele>
        <time>2019-04-14T08:33:21.000Z</time>
      </trkpt>
      <trkpt lat="47.56288" lon="6.68502">
        <ele>462.74844360352</ele>
        <time>2019-04-14T08:33:24.000Z</time>
      </trkpt>
      <trkpt lat="47.56281" lon="6.685">
        <ele>462.90243530273</ele>
        <time>2019-04-14T08:33:27.000Z</time>
      </trkpt>
      <trkpt lat="47.56275" lon="6.68497">
        <ele>462.97320556641</ele>
        <time>2019-04-14T08:33:30.000Z</time>
      </trkpt>
      <trkpt lat="47.56268" lon="6.68494">
        <ele>462.93817138672</ele>
        <time>2019-04-14T08:33:33.000Z</time>
      </trkpt>
      <trkpt lat="47.5626" lon="6.68489">
        <ele>462.75189208984</ele>
        <time>2019-04-14T08:33:36.000Z</time>
      </trkpt>
      <trkpt lat="47.56249" lon="6.68484">
        <ele>462.42919921875</ele>
        <time>2019-04-14T08:33:39.000Z</time>
      </trkpt>
      <trkpt lat="47.56239" lon="6.68479">
        <ele>461.87948608398</ele>
        <time>2019-04-14T08:33:42.000Z</time>
      </trkpt>
      <trkpt lat="47.56231" lon="6.68475">
        <ele>461.23623657227</ele>
        <time>2019-04-14T08:33:45.000Z</time>
      </trkpt>
      <trkpt lat="47.56226" lon="6.6847">
        <ele>460.51992797852</ele>
        <time>2019-04-14T08:33:48.000Z</time>
      </trkpt>
      <trkpt lat="47.56218" lon="6.68458">
        <ele>459.62835693359</ele>
        <time>2019-04-14T08:33:51.000Z</time>
      </trkpt>
      <trkpt lat="47.56209" lon="6.68449">
        <ele>458.62451171875</ele>
        <time>2019-04-14T08:33:54.000Z</time>
      </trkpt>
      <trkpt lat="47.56195" lon="6.68438">
        <ele>457.6611328125</ele>
        <time>2019-04-14T08:33:57.000Z</time>
      </trkpt>
      <trkpt lat="47.56183" lon="6.68428">
        <ele>456.73989868164</ele>
        <time>2019-04-14T08:34:00.000Z</time>
      </trkpt>
      <trkpt lat="47.56168" lon="6.68413">
        <ele>455.76089477539</ele>
        <time>2019-04-14T08:34:03.000Z</time>
      </trkpt>
      <trkpt lat="47.56162" lon="6.68404">
        <ele>454.60516357422</ele>
        <time>2019-04-14T08:34:06.000Z</time>
      </trkpt>
      <trkpt lat="47.56161" lon="6.68402">
        <ele>453.55297851562</ele>
        <time>2019-04-14T08:34:09.000Z</time>
      </trkpt>
      <trkpt lat="47.56159" lon="6.68401">
        <ele>452.58081054688</ele>
        <time>2019-04-14T08:34:12.000Z</time>
      </trkpt>
      <trkpt lat="47.56154" lon="6.68396">
        <ele>451.47836303711</ele>
        <time>2019-04-14T08:34:15.000Z</time>
      </trkpt>
      <trkpt lat="47.56146" lon="6.68389">
        <ele>450.18475341797</ele>
        <time>2019-04-14T08:34:18.000Z</time>
      </trkpt>
      <trkpt lat="47.56141" lon="6.68382">
        <ele>449.04550170898</ele>
        <time>2019-04-14T08:34:21.000Z</time>
      </trkpt>
      <trkpt lat="47.56137" lon="6.68375">
        <ele>447.7294921875</ele>
        <time>2019-04-14T08:34:24.000Z</time>
      </trkpt>
      <trkpt lat="47.56133" lon="6.68371">
        <ele>446.34771728516</ele>
        <time>2019-04-14T08:34:27.000Z</time>
      </trkpt>
      <trkpt lat="47.56126" lon="6.68365">
        <ele>444.95858764648</ele>
        <time>2019-04-14T08:34:30.000Z</time>
      </trkpt>
      <trkpt lat="47.5612" lon="6.68359">
        <ele>443.75741577148</ele>
        <time>2019-04-14T08:34:33.000Z</time>
      </trkpt>
      <trkpt lat="47.56114" lon="6.68358">
        <ele>442.86239624023</ele>
        <time>2019-04-14T08:34:36.000Z</time>
      </trkpt>
      <trkpt lat="47.56105" lon="6.68361">
        <ele>442.37905883789</ele>
        <time>2019-04-14T08:34:39.000Z</time>
      </trkpt>
      <trkpt lat="47.56094" lon="6.68356">
        <ele>441.90487670898</ele>
        <time>2019-04-14T08:34:42.000Z</time>
      </trkpt>
      <trkpt lat="47.56092" lon="6.68354">
        <ele>441.63623046875</ele>
        <time>2019-04-14T08:34:45.000Z</time>
      </trkpt>
      <trkpt lat="47.56091" lon="6.68352">
        <ele>441.52655029297</ele>
        <time>2019-04-14T08:35:01.000Z</time>
      </trkpt>
      <trkpt lat="47.56083" lon="6.68349">
        <ele>441.37591552734</ele>
        <time>2019-04-14T08:35:04.000Z</time>
      </trkpt>
      <trkpt lat="47.56068" lon="6.68359">
        <ele>441.26409912109</ele>
        <time>2019-04-14T08:35:07.000Z</time>
      </trkpt>
      <trkpt lat="47.56056" lon="6.68374">
        <ele>441.51068115234</ele>
        <time>2019-04-14T08:35:10.000Z</time>
      </trkpt>
      <trkpt lat="47.5604" lon="6.68384">
        <ele>441.8447265625</ele>
        <time>2019-04-14T08:35:13.000Z</time>
      </trkpt>
      <trkpt lat="47.56027" lon="6.68402">
        <ele>442.39379882812</ele>
        <time>2019-04-14T08:35:16.000Z</time>
      </trkpt>
      <trkpt lat="47.5602" lon="6.68424">
        <ele>443.13525390625</ele>
        <time>2019-04-14T08:35:19.000Z</time>
      </trkpt>
      <trkpt lat="47.56023" lon="6.68441">
        <ele>443.77783203125</ele>
        <time>2019-04-14T08:35:22.000Z</time>
      </trkpt>
      <trkpt lat="47.56019" lon="6.6846">
        <ele>444.14825439453</ele>
        <time>2019-04-14T08:35:25.000Z</time>
      </trkpt>
      <trkpt lat="47.5601" lon="6.68481">
        <ele>444.34039306641</ele>
        <time>2019-04-14T08:35:28.000Z</time>
      </trkpt>
      <trkpt lat="47.55994" lon="6.68497">
        <ele>443.99151611328</ele>
        <time>2019-04-14T08:35:31.000Z</time>
      </trkpt>
      <trkpt lat="47.55969" lon="6.68511">
        <ele>442.70468139648</ele>
        <time>2019-04-14T08:35:34.000Z</time>
      </trkpt>
      <trkpt lat="47.55945" lon="6.68531">
        <ele>440.62530517578</ele>
        <time>2019-04-14T08:35:37.000Z</time>
      </trkpt>
      <trkpt lat="47.55917" lon="6.68548">
        <ele>437.82440185547</ele>
        <time>2019-04-14T08:35:40.000Z</time>
      </trkpt>
      <trkpt lat="47.55891" lon="6.68568">
        <ele>434.32806396484</ele>
        <time>2019-04-14T08:35:43.000Z</time>
      </trkpt>
      <trkpt lat="47.55868" lon="6.6858">
        <ele>430.46841430664</ele>
        <time>2019-04-14T08:35:46.000Z</time>
      </trkpt>
      <trkpt lat="47.55851" lon="6.68587">
        <ele>426.83276367188</ele>
        <time>2019-04-14T08:35:49.000Z</time>
      </trkpt>
      <trkpt lat="47.5584" lon="6.686">
        <ele>423.56292724609</ele>
        <time>2019-04-14T08:35:52.000Z</time>
      </trkpt>
      <trkpt lat="47.55839" lon="6.68618">
        <ele>421.001953125</ele>
        <time>2019-04-14T08:35:55.000Z</time>
      </trkpt>
      <trkpt lat="47.55845" lon="6.68643">
        <ele>419.41616821289</ele>
        <time>2019-04-14T08:35:58.000Z</time>
      </trkpt>
      <trkpt lat="47.55854" lon="6.68662">
        <ele>418.76205444336</ele>
        <time>2019-04-14T08:36:01.000Z</time>
      </trkpt>
      <trkpt lat="47.55861" lon="6.68678">
        <ele>418.69595336914</ele>
        <time>2019-04-14T08:36:04.000Z</time>
      </trkpt>
      <trkpt lat="47.55863" lon="6.68691">
        <ele>418.86410522461</ele>
        <time>2019-04-14T08:36:07.000Z</time>
      </trkpt>
      <trkpt lat="47.55864" lon="6.68694">
        <ele>419.05932617188</ele>
        <time>2019-04-14T08:36:10.000Z</time>
      </trkpt>
      <trkpt lat="47.55865" lon="6.68701">
        <ele>419.05508422852</ele>
        <time>2019-04-14T08:36:13.000Z</time>
      </trkpt>
      <trkpt lat="47.55867" lon="6.68708">
        <ele>418.79525756836</ele>
        <time>2019-04-14T08:36:16.000Z</time>
      </trkpt>
      <trkpt lat="47.55866" lon="6.68717">
        <ele>418.39004516602</ele>
        <time>2019-04-14T08:36:19.000Z</time>
      </trkpt>
      <trkpt lat="47.55868" lon="6.68729">
        <ele>417.99179077148</ele>
        <time>2019-04-14T08:36:22.000Z</time>
      </trkpt>
      <trkpt lat="47.5587" lon="6.68742">
        <ele>417.50381469727</ele>
        <time>2019-04-14T08:36:25.000Z</time>
      </trkpt>
      <trkpt lat="47.55872" lon="6.68756">
        <ele>416.91387939453</ele>
        <time>2019-04-14T08:36:28.000Z</time>
      </trkpt>
      <trkpt lat="47.55872" lon="6.68773">
        <ele>416.10855102539</ele>
        <time>2019-04-14T08:36:31.000Z</time>
      </trkpt>
      <trkpt lat="47.55878" lon="6.68791">
        <ele>415.29678344727</ele>
        <time>2019-04-14T08:36:34.000Z</time>
      </trkpt>
      <trkpt lat="47.55885" lon="6.68807">
        <ele>414.58673095703</ele>
        <time>2019-04-14T08:36:37.000Z</time>
      </trkpt>
      <trkpt lat="47.55892" lon="6.68824">
        <ele>413.98626708984</ele>
        <time>2019-04-14T08:36:40.000Z</time>
      </trkpt>
      <trkpt lat="47.55901" lon="6.68843">
        <ele>413.57284545898</ele>
        <time>2019-04-14T08:36:43.000Z</time>
      </trkpt>
      <trkpt lat="47.55908" lon="6.68859">
        <ele>413.46441650391</ele>
        <time>2019-04-14T08:36:46.000Z</time>
      </trkpt>
      <trkpt lat="47.55919" lon="6.68877">
        <ele>413.59310913086</ele>
        <time>2019-04-14T08:36:49.000Z</time>
      </trkpt>
      <trkpt lat="47.55926" lon="6.68891">
        <ele>413.73867797852</ele>
        <time>2019-04-14T08:36:52.000Z</time>
      </trkpt>
      <trkpt lat="47.55931" lon="6.68906">
        <ele>413.84344482422</ele>
        <time>2019-04-14T08:36:55.000Z</time>
      </trkpt>
      <trkpt lat="47.55938" lon="6.68922">
        <ele>413.93206787109</ele>
        <time>2019-04-14T08:36:58.000Z</time>
      </trkpt>
      <trkpt lat="47.55946" lon="6.6894">
        <ele>414.10797119141</ele>
        <time>2019-04-14T08:37:01.000Z</time>
      </trkpt>
      <trkpt lat="47.55955" lon="6.68959">
        <ele>414.28427124023</ele>
        <time>2019-04-14T08:37:04.000Z</time>
      </trkpt>
      <trkpt lat="47.55962" lon="6.6898">
        <ele>414.47705078125</ele>
        <time>2019-04-14T08:37:07.000Z</time>
      </trkpt>
      <trkpt lat="47.55968" lon="6.69002">
        <ele>414.68286132812</ele>
        <time>2019-04-14T08:37:10.000Z</time>
      </trkpt>
      <trkpt lat="47.55977" lon="6.69022">
        <ele>414.88006591797</ele>
        <time>2019-04-14T08:37:13.000Z</time>
      </trkpt>
      <trkpt lat="47.55984" lon="6.69044">
        <ele>414.892578125</ele>
        <time>2019-04-14T08:37:16.000Z</time>
      </trkpt>
      <trkpt lat="47.55989" lon="6.69063">
        <ele>414.71224975586</ele>
        <time>2019-04-14T08:37:19.000Z</time>
      </trkpt>
      <trkpt lat="47.55989" lon="6.69086">
        <ele>414.32916259766</ele>
        <time>2019-04-14T08:37:22.000Z</time>
      </trkpt>
      <trkpt lat="47.55983" lon="6.69106">
        <ele>413.88397216797</ele>
        <time>2019-04-14T08:37:25.000Z</time>
      </trkpt>
      <trkpt lat="47.5598" lon="6.69123">
        <ele>413.36563110352</ele>
        <time>2019-04-14T08:37:28.000Z</time>
      </trkpt>
      <trkpt lat="47.55976" lon="6.69143">
        <ele>412.84222412109</ele>
        <time>2019-04-14T08:37:31.000Z</time>
      </trkpt>
      <trkpt lat="47.55973" lon="6.69161">
        <ele>412.36367797852</ele>
        <time>2019-04-14T08:37:34.000Z</time>
      </trkpt>
      <trkpt lat="47.55969" lon="6.69178">
        <ele>412.02337646484</ele>
        <time>2019-04-14T08:37:37.000Z</time>
      </trkpt>
      <trkpt lat="47.55973" lon="6.692">
        <ele>411.80950927734</ele>
        <time>2019-04-14T08:37:40.000Z</time>
      </trkpt>
      <trkpt lat="47.55972" lon="6.69214">
        <ele>411.64208984375</ele>
        <time>2019-04-14T08:37:43.000Z</time>
      </trkpt>
      <trkpt lat="47.5597" lon="6.69231">
        <ele>411.52227783203</ele>
        <time>2019-04-14T08:37:46.000Z</time>
      </trkpt>
      <trkpt lat="47.5597" lon="6.69248">
        <ele>411.43548583984</ele>
        <time>2019-04-14T08:37:49.000Z</time>
      </trkpt>
      <trkpt lat="47.5597" lon="6.69264">
        <ele>411.44891357422</ele>
        <time>2019-04-14T08:37:52.000Z</time>
      </trkpt>
      <trkpt lat="47.5597" lon="6.6928">
        <ele>411.50698852539</ele>
        <time>2019-04-14T08:37:55.000Z</time>
      </trkpt>
      <trkpt lat="47.55968" lon="6.69297">
        <ele>411.64199829102</ele>
        <time>2019-04-14T08:37:58.000Z</time>
      </trkpt>
      <trkpt lat="47.55967" lon="6.69315">
        <ele>411.86465454102</ele>
        <time>2019-04-14T08:38:01.000Z</time>
      </trkpt>
      <trkpt lat="47.55967" lon="6.69332">
        <ele>412.16162109375</ele>
        <time>2019-04-14T08:38:04.000Z</time>
      </trkpt>
      <trkpt lat="47.55967" lon="6.6935">
        <ele>412.42733764648</ele>
        <time>2019-04-14T08:38:07.000Z</time>
      </trkpt>
      <trkpt lat="47.55967" lon="6.69369">
        <ele>412.64477539062</ele>
        <time>2019-04-14T08:38:10.000Z</time>
      </trkpt>
      <trkpt lat="47.55967" lon="6.69388">
        <ele>412.82147216797</ele>
        <time>2019-04-14T08:38:13.000Z</time>
      </trkpt>
      <trkpt lat="47.55967" lon="6.69407">
        <ele>412.96704101562</ele>
        <time>2019-04-14T08:38:16.000Z</time>
      </trkpt>
      <trkpt lat="47.55968" lon="6.69427">
        <ele>413.08993530273</ele>
        <time>2019-04-14T08:38:19.000Z</time>
      </trkpt>
      <trkpt lat="47.5597" lon="6.69445">
        <ele>413.25064086914</ele>
        <time>2019-04-14T08:38:22.000Z</time>
      </trkpt>
      <trkpt lat="47.55971" lon="6.69464">
        <ele>413.451171875</ele>
        <time>2019-04-14T08:38:25.000Z</time>
      </trkpt>
      <trkpt lat="47.55974" lon="6.69481">
        <ele>413.70709228516</ele>
        <time>2019-04-14T08:38:28.000Z</time>
      </trkpt>
      <trkpt lat="47.55977" lon="6.69499">
        <ele>414.03067016602</ele>
        <time>2019-04-14T08:38:31.000Z</time>
      </trkpt>
      <trkpt lat="47.55981" lon="6.69516">
        <ele>414.2265625</ele>
        <time>2019-04-14T08:38:34.000Z</time>
      </trkpt>
      <trkpt lat="47.55989" lon="6.69527">
        <ele>414.37246704102</ele>
        <time>2019-04-14T08:38:37.000Z</time>
      </trkpt>
      <trkpt lat="47.55999" lon="6.69531">
        <ele>414.57772827148</ele>
        <time>2019-04-14T08:38:40.000Z</time>
      </trkpt>
      <trkpt lat="47.56007" lon="6.69539">
        <ele>414.73797607422</ele>
        <time>2019-04-14T08:38:43.000Z</time>
      </trkpt>
      <trkpt lat="47.56012" lon="6.69552">
        <ele>414.73565673828</ele>
        <time>2019-04-14T08:38:46.000Z</time>
      </trkpt>
      <trkpt lat="47.56017" lon="6.69567">
        <ele>414.75350952148</ele>
        <time>2019-04-14T08:38:49.000Z</time>
      </trkpt>
      <trkpt lat="47.56021" lon="6.6958">
        <ele>414.71078491211</ele>
        <time>2019-04-14T08:38:52.000Z</time>
      </trkpt>
      <trkpt lat="47.56028" lon="6.69593">
        <ele>414.583984375</ele>
        <time>2019-04-14T08:38:55.000Z</time>
      </trkpt>
      <trkpt lat="47.56037" lon="6.69604">
        <ele>414.51385498047</ele>
        <time>2019-04-14T08:38:58.000Z</time>
      </trkpt>
      <trkpt lat="47.56045" lon="6.69615">
        <ele>414.59188842773</ele>
        <time>2019-04-14T08:39:01.000Z</time>
      </trkpt>
      <trkpt lat="47.56053" lon="6.69627">
        <ele>414.80059814453</ele>
        <time>2019-04-14T08:39:04.000Z</time>
      </trkpt>
      <trkpt lat="47.56061" lon="6.69638">
        <ele>415.13418579102</ele>
        <time>2019-04-14T08:39:07.000Z</time>
      </trkpt>
      <trkpt lat="47.56069" lon="6.69649">
        <ele>415.51220703125</ele>
        <time>2019-04-14T08:39:10.000Z</time>
      </trkpt>
      <trkpt lat="47.56078" lon="6.69647">
        <ele>415.98770141602</ele>
        <time>2019-04-14T08:39:13.000Z</time>
      </trkpt>
      <trkpt lat="47.56082" lon="6.69634">
        <ele>416.56600952148</ele>
        <time>2019-04-14T08:39:16.000Z</time>
      </trkpt>
      <trkpt lat="47.56085" lon="6.69621">
        <ele>417.23818969727</ele>
        <time>2019-04-14T08:39:19.000Z</time>
      </trkpt>
      <trkpt lat="47.56089" lon="6.6961">
        <ele>418.02166748047</ele>
        <time>2019-04-14T08:39:22.000Z</time>
      </trkpt>
      <trkpt lat="47.56093" lon="6.69598">
        <ele>418.93646240234</ele>
        <time>2019-04-14T08:39:25.000Z</time>
      </trkpt>
      <trkpt lat="47.56098" lon="6.69588">
        <ele>419.88299560547</ele>
        <time>2019-04-14T08:39:28.000Z</time>
      </trkpt>
      <trkpt lat="47.56103" lon="6.69577">
        <ele>420.82821655273</ele>
        <time>2019-04-14T08:39:31.000Z</time>
      </trkpt>
      <trkpt lat="47.56108" lon="6.69567">
        <ele>421.75961303711</ele>
        <time>2019-04-14T08:39:34.000Z</time>
      </trkpt>
      <trkpt lat="47.56113" lon="6.69557">
        <ele>422.64151000977</ele>
        <time>2019-04-14T08:39:37.000Z</time>
      </trkpt>
      <trkpt lat="47.56118" lon="6.69546">
        <ele>423.44897460938</ele>
        <time>2019-04-14T08:39:40.000Z</time>
      </trkpt>
      <trkpt lat="47.56123" lon="6.69535">
        <ele>424.15594482422</ele>
        <time>2019-04-14T08:39:43.000Z</time>
      </trkpt>
      <trkpt lat="47.56129" lon="6.69524">
        <ele>424.81030273438</ele>
        <time>2019-04-14T08:39:46.000Z</time>
      </trkpt>
      <trkpt lat="47.56134" lon="6.69513">
        <ele>425.42691040039</ele>
        <time>2019-04-14T08:39:49.000Z</time>
      </trkpt>
      <trkpt lat="47.56141" lon="6.69503">
        <ele>426.03524780273</ele>
        <time>2019-04-14T08:39:52.000Z</time>
      </trkpt>
      <trkpt lat="47.56147" lon="6.69494">
        <ele>426.60317993164</ele>
        <time>2019-04-14T08:39:55.000Z</time>
      </trkpt>
      <trkpt lat="47.56153" lon="6.69483">
        <ele>427.10562133789</ele>
        <time>2019-04-14T08:39:58.000Z</time>
      </trkpt>
      <trkpt lat="47.56159" lon="6.69472">
        <ele>427.49920654297</ele>
        <time>2019-04-14T08:40:01.000Z</time>
      </trkpt>
      <trkpt lat="47.56164" lon="6.69462">
        <ele>427.77288818359</ele>
        <time>2019-04-14T08:40:04.000Z</time>
      </trkpt>
      <trkpt lat="47.56171" lon="6.69452">
        <ele>427.90386962891</ele>
        <time>2019-04-14T08:40:07.000Z</time>
      </trkpt>
      <trkpt lat="47.56177" lon="6.69443">
        <ele>427.92211914062</ele>
        <time>2019-04-14T08:40:10.000Z</time>
      </trkpt>
      <trkpt lat="47.56185" lon="6.69435">
        <ele>427.90420532227</ele>
        <time>2019-04-14T08:40:13.000Z</time>
      </trkpt>
      <trkpt lat="47.56194" lon="6.69436">
        <ele>427.95587158203</ele>
        <time>2019-04-14T08:40:16.000Z</time>
      </trkpt>
      <trkpt lat="47.56202" lon="6.69446">
        <ele>428.17767333984</ele>
        <time>2019-04-14T08:40:19.000Z</time>
      </trkpt>
      <trkpt lat="47.5621" lon="6.69454">
        <ele>428.54385375977</ele>
        <time>2019-04-14T08:40:22.000Z</time>
      </trkpt>
      <trkpt lat="47.56219" lon="6.69461">
        <ele>429.03936767578</ele>
        <time>2019-04-14T08:40:25.000Z</time>
      </trkpt>
      <trkpt lat="47.56227" lon="6.69468">
        <ele>429.61874389648</ele>
        <time>2019-04-14T08:40:28.000Z</time>
      </trkpt>
      <trkpt lat="47.56236" lon="6.69477">
        <ele>430.20272827148</ele>
        <time>2019-04-14T08:40:31.000Z</time>
      </trkpt>
      <trkpt lat="47.56247" lon="6.6949">
        <ele>430.74594116211</ele>
        <time>2019-04-14T08:40:34.000Z</time>
      </trkpt>
      <trkpt lat="47.56258" lon="6.6951">
        <ele>431.0625</ele>
        <time>2019-04-14T08:40:37.000Z</time>
      </trkpt>
      <trkpt lat="47.56269" lon="6.69525">
        <ele>431.04205322266</ele>
        <time>2019-04-14T08:40:40.000Z</time>
      </trkpt>
      <trkpt lat="47.56279" lon="6.69543">
        <ele>430.66073608398</ele>
        <time>2019-04-14T08:40:43.000Z</time>
      </trkpt>
      <trkpt lat="47.56291" lon="6.69562">
        <ele>429.85443115234</ele>
        <time>2019-04-14T08:40:46.000Z</time>
      </trkpt>
      <trkpt lat="47.56306" lon="6.69581">
        <ele>428.49896240234</ele>
        <time>2019-04-14T08:40:49.000Z</time>
      </trkpt>
      <trkpt lat="47.56326" lon="6.69599">
        <ele>426.82177734375</ele>
        <time>2019-04-14T08:40:52.000Z</time>
      </trkpt>
      <trkpt lat="47.56348" lon="6.69623">
        <ele>424.98419189453</ele>
        <time>2019-04-14T08:40:55.000Z</time>
      </trkpt>
      <trkpt lat="47.56369" lon="6.69648">
        <ele>422.76083374023</ele>
        <time>2019-04-14T08:40:58.000Z</time>
      </trkpt>
      <trkpt lat="47.56387" lon="6.69674">
        <ele>420.05200195312</ele>
        <time>2019-04-14T08:41:01.000Z</time>
      </trkpt>
      <trkpt lat="47.56402" lon="6.69706">
        <ele>417.00592041016</ele>
        <time>2019-04-14T08:41:04.000Z</time>
      </trkpt>
      <trkpt lat="47.56412" lon="6.6974">
        <ele>413.69784545898</ele>
        <time>2019-04-14T08:41:07.000Z</time>
      </trkpt>
      <trkpt lat="47.56424" lon="6.69774">
        <ele>410.41763305664</ele>
        <time>2019-04-14T08:41:10.000Z</time>
      </trkpt>
      <trkpt lat="47.56435" lon="6.69811">
        <ele>407.6171875</ele>
        <time>2019-04-14T08:41:13.000Z</time>
      </trkpt>
      <trkpt lat="47.56447" lon="6.69847">
        <ele>405.39379882812</ele>
        <time>2019-04-14T08:41:16.000Z</time>
      </trkpt>
      <trkpt lat="47.56456" lon="6.69881">
        <ele>403.67098999023</ele>
        <time>2019-04-14T08:41:19.000Z</time>
      </trkpt>
      <trkpt lat="47.56464" lon="6.69902">
        <ele>402.41787719727</ele>
        <time>2019-04-14T08:41:22.000Z</time>
      </trkpt>
      <trkpt lat="47.56468" lon="6.69907">
        <ele>401.43188476562</ele>
        <time>2019-04-14T08:41:24.000Z</time>
      </trkpt>
      <trkpt lat="47.56475" lon="6.69898">
        <ele>400.58563232422</ele>
        <time>2019-04-14T08:41:27.000Z</time>
      </trkpt>
      <trkpt lat="47.5648" lon="6.69892">
        <ele>399.96343994141</ele>
        <time>2019-04-14T08:41:29.000Z</time>
      </trkpt>
      <trkpt lat="47.56485" lon="6.69884">
        <ele>399.61972045898</ele>
        <time>2019-04-14T08:41:31.000Z</time>
      </trkpt>
      <trkpt lat="47.56491" lon="6.69875">
        <ele>399.49429321289</ele>
        <time>2019-04-14T08:41:34.000Z</time>
      </trkpt>
      <trkpt lat="47.56496" lon="6.69871">
        <ele>399.4521484375</ele>
        <time>2019-04-14T08:41:36.000Z</time>
      </trkpt>
      <trkpt lat="47.56503" lon="6.69864">
        <ele>399.49505615234</ele>
        <time>2019-04-14T08:41:39.000Z</time>
      </trkpt>
      <trkpt lat="47.5651" lon="6.69857">
        <ele>399.72265625</ele>
        <time>2019-04-14T08:41:42.000Z</time>
      </trkpt>
      <trkpt lat="47.56518" lon="6.69848">
        <ele>400.13470458984</ele>
        <time>2019-04-14T08:41:45.000Z</time>
      </trkpt>
      <trkpt lat="47.56522" lon="6.69843">
        <ele>400.66268920898</ele>
        <time>2019-04-14T08:41:47.000Z</time>
      </trkpt>
      <trkpt lat="47.56527" lon="6.69837">
        <ele>401.33178710938</ele>
        <time>2019-04-14T08:41:49.000Z</time>
      </trkpt>
      <trkpt lat="47.56533" lon="6.69827">
        <ele>402.13958740234</ele>
        <time>2019-04-14T08:41:52.000Z</time>
      </trkpt>
      <trkpt lat="47.56537" lon="6.69821">
        <ele>402.89334106445</ele>
        <time>2019-04-14T08:41:54.000Z</time>
      </trkpt>
      <trkpt lat="47.56542" lon="6.69812">
        <ele>403.63256835938</ele>
        <time>2019-04-14T08:41:57.000Z</time>
      </trkpt>
      <trkpt lat="47.56546" lon="6.69802">
        <ele>404.42181396484</ele>
        <time>2019-04-14T08:42:00.000Z</time>
      </trkpt>
      <trkpt lat="47.56548" lon="6.69796">
        <ele>405.18316650391</ele>
        <time>2019-04-14T08:42:02.000Z</time>
      </trkpt>
      <trkpt lat="47.56549" lon="6.69789">
        <ele>405.84881591797</ele>
        <time>2019-04-14T08:42:04.000Z</time>
      </trkpt>
      <trkpt lat="47.56552" lon="6.69779">
        <ele>406.56533813477</ele>
        <time>2019-04-14T08:42:07.000Z</time>
      </trkpt>
      <trkpt lat="47.56554" lon="6.69772">
        <ele>407.21688842773</ele>
        <time>2019-04-14T08:42:09.000Z</time>
      </trkpt>
      <trkpt lat="47.56557" lon="6.69762">
        <ele>407.88214111328</ele>
        <time>2019-04-14T08:42:12.000Z</time>
      </trkpt>
      <trkpt lat="47.56559" lon="6.69756">
        <ele>408.56402587891</ele>
        <time>2019-04-14T08:42:14.000Z</time>
      </trkpt>
      <trkpt lat="47.56562" lon="6.69747">
        <ele>409.35485839844</ele>
        <time>2019-04-14T08:42:17.000Z</time>
      </trkpt>
      <trkpt lat="47.56565" lon="6.69742">
        <ele>410.11791992188</ele>
        <time>2019-04-14T08:42:19.000Z</time>
      </trkpt>
      <trkpt lat="47.5657" lon="6.69734">
        <ele>410.99984741211</ele>
        <time>2019-04-14T08:42:22.000Z</time>
      </trkpt>
      <trkpt lat="47.56573" lon="6.69727">
        <ele>411.89971923828</ele>
        <time>2019-04-14T08:42:25.000Z</time>
      </trkpt>
      <trkpt lat="47.56576" lon="6.69723">
        <ele>412.80828857422</ele>
        <time>2019-04-14T08:42:27.000Z</time>
      </trkpt>
      <trkpt lat="47.56578" lon="6.69718">
        <ele>413.63763427734</ele>
        <time>2019-04-14T08:42:29.000Z</time>
      </trkpt>
      <trkpt lat="47.56581" lon="6.69711">
        <ele>414.505859375</ele>
        <time>2019-04-14T08:42:32.000Z</time>
      </trkpt>
      <trkpt lat="47.56583" lon="6.69707">
        <ele>415.24566650391</ele>
        <time>2019-04-14T08:42:34.000Z</time>
      </trkpt>
      <trkpt lat="47.56586" lon="6.69698">
        <ele>416.02450561523</ele>
        <time>2019-04-14T08:42:37.000Z</time>
      </trkpt>
      <trkpt lat="47.56588" lon="6.69692">
        <ele>416.82147216797</ele>
        <time>2019-04-14T08:42:39.000Z</time>
      </trkpt>
      <trkpt lat="47.56591" lon="6.69685">
        <ele>417.66082763672</ele>
        <time>2019-04-14T08:42:42.000Z</time>
      </trkpt>
      <trkpt lat="47.56594" lon="6.69677">
        <ele>418.54013061523</ele>
        <time>2019-04-14T08:42:45.000Z</time>
      </trkpt>
      <trkpt lat="47.56596" lon="6.69672">
        <ele>419.44213867188</ele>
        <time>2019-04-14T08:42:47.000Z</time>
      </trkpt>
      <trkpt lat="47.56597" lon="6.69666">
        <ele>420.22427368164</ele>
        <time>2019-04-14T08:42:49.000Z</time>
      </trkpt>
      <trkpt lat="47.56598" lon="6.6966">
        <ele>420.92474365234</ele>
        <time>2019-04-14T08:42:51.000Z</time>
      </trkpt>
      <trkpt lat="47.56605" lon="6.69657">
        <ele>421.65054321289</ele>
        <time>2019-04-14T08:42:54.000Z</time>
      </trkpt>
      <trkpt lat="47.56612" lon="6.69663">
        <ele>422.28109741211</ele>
        <time>2019-04-14T08:42:57.000Z</time>
      </trkpt>
      <trkpt lat="47.56619" lon="6.69669">
        <ele>422.88729858398</ele>
        <time>2019-04-14T08:43:00.000Z</time>
      </trkpt>
      <trkpt lat="47.56623" lon="6.69673">
        <ele>423.40533447266</ele>
        <time>2019-04-14T08:43:02.000Z</time>
      </trkpt>
      <trkpt lat="47.56627" lon="6.69678">
        <ele>423.85946655273</ele>
        <time>2019-04-14T08:43:04.000Z</time>
      </trkpt>
      <trkpt lat="47.56635" lon="6.69686">
        <ele>424.18145751953</ele>
        <time>2019-04-14T08:43:07.000Z</time>
      </trkpt>
      <trkpt lat="47.5664" lon="6.69691">
        <ele>424.40454101562</ele>
        <time>2019-04-14T08:43:09.000Z</time>
      </trkpt>
      <trkpt lat="47.56646" lon="6.69696">
        <ele>424.57705688477</ele>
        <time>2019-04-14T08:43:11.000Z</time>
      </trkpt>
      <trkpt lat="47.56651" lon="6.69701">
        <ele>424.77059936523</ele>
        <time>2019-04-14T08:43:13.000Z</time>
      </trkpt>
      <trkpt lat="47.5666" lon="6.69709">
        <ele>425.03100585938</ele>
        <time>2019-04-14T08:43:16.000Z</time>
      </trkpt>
      <trkpt lat="47.56667" lon="6.69717">
        <ele>425.28036499023</ele>
        <time>2019-04-14T08:43:18.000Z</time>
      </trkpt>
      <trkpt lat="47.56679" lon="6.69728">
        <ele>425.4716796875</ele>
        <time>2019-04-14T08:43:21.000Z</time>
      </trkpt>
      <trkpt lat="47.56693" lon="6.69746">
        <ele>425.51739501953</ele>
        <time>2019-04-14T08:43:24.000Z</time>
      </trkpt>
      <trkpt lat="47.5671" lon="6.69766">
        <ele>425.33090209961</ele>
        <time>2019-04-14T08:43:27.000Z</time>
      </trkpt>
      <trkpt lat="47.56719" lon="6.69778">
        <ele>424.93984985352</ele>
        <time>2019-04-14T08:43:29.000Z</time>
      </trkpt>
      <trkpt lat="47.56728" lon="6.69788">
        <ele>424.41583251953</ele>
        <time>2019-04-14T08:43:32.000Z</time>
      </trkpt>
      <trkpt lat="47.56737" lon="6.69796">
        <ele>423.87051391602</ele>
        <time>2019-04-14T08:43:34.000Z</time>
      </trkpt>
      <trkpt lat="47.56754" lon="6.69809">
        <ele>423.39593505859</ele>
        <time>2019-04-14T08:43:37.000Z</time>
      </trkpt>
      <trkpt lat="47.56763" lon="6.69815">
        <ele>423.08828735352</ele>
        <time>2019-04-14T08:43:39.000Z</time>
      </trkpt>
      <trkpt lat="47.56784" lon="6.69828">
        <ele>422.81356811523</ele>
        <time>2019-04-14T08:43:42.000Z</time>
      </trkpt>
      <trkpt lat="47.56796" lon="6.6984">
        <ele>422.39047241211</ele>
        <time>2019-04-14T08:43:44.000Z</time>
      </trkpt>
      <trkpt lat="47.56807" lon="6.69864">
        <ele>421.31060791016</ele>
        <time>2019-04-14T08:43:47.000Z</time>
      </trkpt>
      <trkpt lat="47.56816" lon="6.69901">
        <ele>419.03826904297</ele>
        <time>2019-04-14T08:43:50.000Z</time>
      </trkpt>
      <trkpt lat="47.56825" lon="6.69927">
        <ele>416.09814453125</ele>
        <time>2019-04-14T08:43:52.000Z</time>
      </trkpt>
      <trkpt lat="47.56837" lon="6.69961">
        <ele>412.72445678711</ele>
        <time>2019-04-14T08:43:55.000Z</time>
      </trkpt>
      <trkpt lat="47.56842" lon="6.69982">
        <ele>409.31484985352</ele>
        <time>2019-04-14T08:43:57.000Z</time>
      </trkpt>
      <trkpt lat="47.56847" lon="6.69999">
        <ele>406.44213867188</ele>
        <time>2019-04-14T08:43:59.000Z</time>
      </trkpt>
      <trkpt lat="47.56852" lon="6.70019">
        <ele>405.05261230469</ele>
        <time>2019-04-14T08:44:02.000Z</time>
      </trkpt>
      <trkpt lat="47.56857" lon="6.7004">
        <ele>404.67727661133</ele>
        <time>2019-04-14T08:44:05.000Z</time>
      </trkpt>
      <trkpt lat="47.56862" lon="6.70061">
        <ele>405.17572021484</ele>
        <time>2019-04-14T08:44:08.000Z</time>
      </trkpt>
      <trkpt lat="47.56867" lon="6.70081">
        <ele>406.26406860352</ele>
        <time>2019-04-14T08:44:11.000Z</time>
      </trkpt>
      <trkpt lat="47.56871" lon="6.70094">
        <ele>407.70568847656</ele>
        <time>2019-04-14T08:44:13.000Z</time>
      </trkpt>
      <trkpt lat="47.56873" lon="6.70105">
        <ele>409.03179931641</ele>
        <time>2019-04-14T08:44:15.000Z</time>
      </trkpt>
      <trkpt lat="47.56866" lon="6.70117">
        <ele>409.93618774414</ele>
        <time>2019-04-14T08:44:18.000Z</time>
      </trkpt>
      <trkpt lat="47.56857" lon="6.70123">
        <ele>410.30096435547</ele>
        <time>2019-04-14T08:44:20.000Z</time>
      </trkpt>
      <trkpt lat="47.56844" lon="6.70135">
        <ele>410.04632568359</ele>
        <time>2019-04-14T08:44:23.000Z</time>
      </trkpt>
      <trkpt lat="47.56833" lon="6.70152">
        <ele>409.32632446289</ele>
        <time>2019-04-14T08:44:26.000Z</time>
      </trkpt>
      <trkpt lat="47.56817" lon="6.70169">
        <ele>408.30920410156</ele>
        <time>2019-04-14T08:44:29.000Z</time>
      </trkpt>
      <trkpt lat="47.56807" lon="6.70182">
        <ele>407.27716064453</ele>
        <time>2019-04-14T08:44:31.000Z</time>
      </trkpt>
      <trkpt lat="47.56798" lon="6.70193">
        <ele>406.33212280273</ele>
        <time>2019-04-14T08:44:33.000Z</time>
      </trkpt>
      <trkpt lat="47.56784" lon="6.70215">
        <ele>405.44833374023</ele>
        <time>2019-04-14T08:44:36.000Z</time>
      </trkpt>
      <trkpt lat="47.56775" lon="6.70231">
        <ele>404.65350341797</ele>
        <time>2019-04-14T08:44:38.000Z</time>
      </trkpt>
      <trkpt lat="47.56767" lon="6.70249">
        <ele>403.79653930664</ele>
        <time>2019-04-14T08:44:40.000Z</time>
      </trkpt>
      <trkpt lat="47.56755" lon="6.70275">
        <ele>402.80871582031</ele>
        <time>2019-04-14T08:44:43.000Z</time>
      </trkpt>
      <trkpt lat="47.56742" lon="6.70301">
        <ele>401.72567749023</ele>
        <time>2019-04-14T08:44:46.000Z</time>
      </trkpt>
      <trkpt lat="47.56725" lon="6.70326">
        <ele>400.67712402344</ele>
        <time>2019-04-14T08:44:49.000Z</time>
      </trkpt>
      <trkpt lat="47.56717" lon="6.7034">
        <ele>399.70678710938</ele>
        <time>2019-04-14T08:44:51.000Z</time>
      </trkpt>
      <trkpt lat="47.56703" lon="6.70364">
        <ele>398.73886108398</ele>
        <time>2019-04-14T08:44:54.000Z</time>
      </trkpt>
      <trkpt lat="47.56696" lon="6.70378">
        <ele>397.87252807617</ele>
        <time>2019-04-14T08:44:56.000Z</time>
      </trkpt>
      <trkpt lat="47.56698" lon="6.70395">
        <ele>397.21356201172</ele>
        <time>2019-04-14T08:44:59.000Z</time>
      </trkpt>
      <trkpt lat="47.56705" lon="6.70404">
        <ele>396.85317993164</ele>
        <time>2019-04-14T08:45:02.000Z</time>
      </trkpt>
      <trkpt lat="47.56709" lon="6.70411">
        <ele>396.68231201172</ele>
        <time>2019-04-14T08:45:04.000Z</time>
      </trkpt>
      <trkpt lat="47.56719" lon="6.70423">
        <ele>396.88125610352</ele>
        <time>2019-04-14T08:45:07.000Z</time>
      </trkpt>
      <trkpt lat="47.56728" lon="6.70435">
        <ele>397.380859375</ele>
        <time>2019-04-14T08:45:10.000Z</time>
      </trkpt>
      <trkpt lat="47.56737" lon="6.70446">
        <ele>398.04693603516</ele>
        <time>2019-04-14T08:45:13.000Z</time>
      </trkpt>
      <trkpt lat="47.56743" lon="6.70454">
        <ele>398.73870849609</ele>
        <time>2019-04-14T08:45:15.000Z</time>
      </trkpt>
      <trkpt lat="47.56752" lon="6.70464">
        <ele>399.55267333984</ele>
        <time>2019-04-14T08:45:18.000Z</time>
      </trkpt>
      <trkpt lat="47.56757" lon="6.70471">
        <ele>400.32705688477</ele>
        <time>2019-04-14T08:45:20.000Z</time>
      </trkpt>
      <trkpt lat="47.56764" lon="6.70481">
        <ele>401.09503173828</ele>
        <time>2019-04-14T08:45:23.000Z</time>
      </trkpt>
      <trkpt lat="47.56771" lon="6.70491">
        <ele>401.85235595703</ele>
        <time>2019-04-14T08:45:26.000Z</time>
      </trkpt>
      <trkpt lat="47.56779" lon="6.70502">
        <ele>402.60604858398</ele>
        <time>2019-04-14T08:45:29.000Z</time>
      </trkpt>
      <trkpt lat="47.56787" lon="6.70509">
        <ele>403.29739379883</ele>
        <time>2019-04-14T08:45:32.000Z</time>
      </trkpt>
      <trkpt lat="47.56796" lon="6.70509">
        <ele>404.04989624023</ele>
        <time>2019-04-14T08:45:35.000Z</time>
      </trkpt>
      <trkpt lat="47.56801" lon="6.70507">
        <ele>404.77532958984</ele>
        <time>2019-04-14T08:45:37.000Z</time>
      </trkpt>
      <trkpt lat="47.56806" lon="6.70504">
        <ele>405.470703125</ele>
        <time>2019-04-14T08:45:39.000Z</time>
      </trkpt>
      <trkpt lat="47.56812" lon="6.70499">
        <ele>406.22207641602</ele>
        <time>2019-04-14T08:45:42.000Z</time>
      </trkpt>
      <trkpt lat="47.56817" lon="6.70496">
        <ele>406.94781494141</ele>
        <time>2019-04-14T08:45:44.000Z</time>
      </trkpt>
      <trkpt lat="47.56824" lon="6.70495">
        <ele>407.64700317383</ele>
        <time>2019-04-14T08:45:47.000Z</time>
      </trkpt>
      <trkpt lat="47.56831" lon="6.70496">
        <ele>408.37487792969</ele>
        <time>2019-04-14T08:45:50.000Z</time>
      </trkpt>
      <trkpt lat="47.56836" lon="6.70498">
        <ele>409.09197998047</ele>
        <time>2019-04-14T08:45:52.000Z</time>
      </trkpt>
      <trkpt lat="47.5684" lon="6.70501">
        <ele>409.7275390625</ele>
        <time>2019-04-14T08:45:54.000Z</time>
      </trkpt>
      <trkpt lat="47.56843" lon="6.70503">
        <ele>410.34918212891</ele>
        <time>2019-04-14T08:45:56.000Z</time>
      </trkpt>
      <trkpt lat="47.56849" lon="6.70507">
        <ele>410.94442749023</ele>
        <time>2019-04-14T08:45:59.000Z</time>
      </trkpt>
      <trkpt lat="47.56852" lon="6.70509">
        <ele>411.45669555664</ele>
        <time>2019-04-14T08:46:01.000Z</time>
      </trkpt>
      <trkpt lat="47.56858" lon="6.70514">
        <ele>411.99600219727</ele>
        <time>2019-04-14T08:46:04.000Z</time>
      </trkpt>
      <trkpt lat="47.56861" lon="6.70517">
        <ele>412.54541015625</ele>
        <time>2019-04-14T08:46:06.000Z</time>
      </trkpt>
      <trkpt lat="47.56868" lon="6.7052">
        <ele>413.16708374023</ele>
        <time>2019-04-14T08:46:09.000Z</time>
      </trkpt>
      <trkpt lat="47.56873" lon="6.70522">
        <ele>413.7939453125</ele>
        <time>2019-04-14T08:46:11.000Z</time>
      </trkpt>
      <trkpt lat="47.56876" lon="6.70525">
        <ele>414.42340087891</ele>
        <time>2019-04-14T08:46:13.000Z</time>
      </trkpt>
      <trkpt lat="47.56882" lon="6.70528">
        <ele>415.07730102539</ele>
        <time>2019-04-14T08:46:16.000Z</time>
      </trkpt>
      <trkpt lat="47.56888" lon="6.7053">
        <ele>415.80859375</ele>
        <time>2019-04-14T08:46:19.000Z</time>
      </trkpt>
      <trkpt lat="47.56892" lon="6.70532">
        <ele>416.49087524414</ele>
        <time>2019-04-14T08:46:21.000Z</time>
      </trkpt>
      <trkpt lat="47.56897" lon="6.70535">
        <ele>417.18325805664</ele>
        <time>2019-04-14T08:46:24.000Z</time>
      </trkpt>
      <trkpt lat="47.56902" lon="6.70538">
        <ele>417.91015625</ele>
        <time>2019-04-14T08:46:27.000Z</time>
      </trkpt>
      <trkpt lat="47.56905" lon="6.70541">
        <ele>418.57046508789</ele>
        <time>2019-04-14T08:46:30.000Z</time>
      </trkpt>
      <trkpt lat="47.56909" lon="6.70544">
        <ele>419.13037109375</ele>
        <time>2019-04-14T08:46:33.000Z</time>
      </trkpt>
      <trkpt lat="47.56912" lon="6.70546">
        <ele>419.66464233398</ele>
        <time>2019-04-14T08:46:35.000Z</time>
      </trkpt>
      <trkpt lat="47.56913" lon="6.70547">
        <ele>420.08651733398</ele>
        <time>2019-04-14T08:46:37.000Z</time>
      </trkpt>
      <trkpt lat="47.56916" lon="6.7055">
        <ele>420.47760009766</ele>
        <time>2019-04-14T08:46:39.000Z</time>
      </trkpt>
      <trkpt lat="47.56922" lon="6.70554">
        <ele>420.91668701172</ele>
        <time>2019-04-14T08:46:42.000Z</time>
      </trkpt>
      <trkpt lat="47.56925" lon="6.70557">
        <ele>421.33935546875</ele>
        <time>2019-04-14T08:46:44.000Z</time>
      </trkpt>
      <trkpt lat="47.56931" lon="6.70563">
        <ele>421.79522705078</ele>
        <time>2019-04-14T08:46:47.000Z</time>
      </trkpt>
      <trkpt lat="47.56934" lon="6.70565">
        <ele>422.30386352539</ele>
        <time>2019-04-14T08:46:49.000Z</time>
      </trkpt>
      <trkpt lat="47.56939" lon="6.70568">
        <ele>422.85848999023</ele>
        <time>2019-04-14T08:46:52.000Z</time>
      </trkpt>
      <trkpt lat="47.56944" lon="6.70571">
        <ele>423.40576171875</ele>
        <time>2019-04-14T08:46:55.000Z</time>
      </trkpt>
      <trkpt lat="47.56947" lon="6.70574">
        <ele>423.95849609375</ele>
        <time>2019-04-14T08:46:57.000Z</time>
      </trkpt>
      <trkpt lat="47.5695" lon="6.70577">
        <ele>424.45663452148</ele>
        <time>2019-04-14T08:46:59.000Z</time>
      </trkpt>
      <trkpt lat="47.56951" lon="6.70578">
        <ele>424.90878295898</ele>
        <time>2019-04-14T08:47:01.000Z</time>
      </trkpt>
      <trkpt lat="47.56953" lon="6.7058">
        <ele>425.28881835938</ele>
        <time>2019-04-14T08:47:03.000Z</time>
      </trkpt>
      <trkpt lat="47.56959" lon="6.70585">
        <ele>425.65731811523</ele>
        <time>2019-04-14T08:47:06.000Z</time>
      </trkpt>
      <trkpt lat="47.56963" lon="6.70588">
        <ele>426.02603149414</ele>
        <time>2019-04-14T08:47:08.000Z</time>
      </trkpt>
      <trkpt lat="47.56969" lon="6.70594">
        <ele>426.47778320312</ele>
        <time>2019-04-14T08:47:11.000Z</time>
      </trkpt>
      <trkpt lat="47.56976" lon="6.706">
        <ele>427.02310180664</ele>
        <time>2019-04-14T08:47:14.000Z</time>
      </trkpt>
      <trkpt lat="47.5698" lon="6.70603">
        <ele>427.61773681641</ele>
        <time>2019-04-14T08:47:17.000Z</time>
      </trkpt>
      <trkpt lat="47.56985" lon="6.70605">
        <ele>428.24340820312</ele>
        <time>2019-04-14T08:47:20.000Z</time>
      </trkpt>
      <trkpt lat="47.56989" lon="6.70606">
        <ele>428.90356445312</ele>
        <time>2019-04-14T08:47:22.000Z</time>
      </trkpt>
      <trkpt lat="47.56995" lon="6.70611">
        <ele>429.54095458984</ele>
        <time>2019-04-14T08:47:25.000Z</time>
      </trkpt>
      <trkpt lat="47.56998" lon="6.70614">
        <ele>430.12173461914</ele>
        <time>2019-04-14T08:47:27.000Z</time>
      </trkpt>
      <trkpt lat="47.57003" lon="6.70619">
        <ele>430.7373046875</ele>
        <time>2019-04-14T08:47:30.000Z</time>
      </trkpt>
      <trkpt lat="47.57006" lon="6.70621">
        <ele>431.25497436523</ele>
        <time>2019-04-14T08:47:32.000Z</time>
      </trkpt>
      <trkpt lat="47.57011" lon="6.70625">
        <ele>431.80023193359</ele>
        <time>2019-04-14T08:47:35.000Z</time>
      </trkpt>
      <trkpt lat="47.57015" lon="6.70629">
        <ele>432.32666015625</ele>
        <time>2019-04-14T08:47:37.000Z</time>
      </trkpt>
      <trkpt lat="47.57023" lon="6.70634">
        <ele>433.01690673828</ele>
        <time>2019-04-14T08:47:40.000Z</time>
      </trkpt>
      <trkpt lat="47.57026" lon="6.70635">
        <ele>433.65032958984</ele>
        <time>2019-04-14T08:47:42.000Z</time>
      </trkpt>
      <trkpt lat="47.5703" lon="6.70639">
        <ele>434.31576538086</ele>
        <time>2019-04-14T08:47:45.000Z</time>
      </trkpt>
      <trkpt lat="47.57031" lon="6.70642">
        <ele>434.88153076172</ele>
        <time>2019-04-14T08:47:47.000Z</time>
      </trkpt>
      <trkpt lat="47.57034" lon="6.70645">
        <ele>435.41015625</ele>
        <time>2019-04-14T08:47:50.000Z</time>
      </trkpt>
      <trkpt lat="47.57039" lon="6.70649">
        <ele>435.83609008789</ele>
        <time>2019-04-14T08:47:52.000Z</time>
      </trkpt>
      <trkpt lat="47.57044" lon="6.70653">
        <ele>436.31195068359</ele>
        <time>2019-04-14T08:47:55.000Z</time>
      </trkpt>
      <trkpt lat="47.57046" lon="6.70656">
        <ele>436.74517822266</ele>
        <time>2019-04-14T08:47:57.000Z</time>
      </trkpt>
      <trkpt lat="47.57048" lon="6.7066">
        <ele>437.18365478516</ele>
        <time>2019-04-14T08:47:59.000Z</time>
      </trkpt>
      <trkpt lat="47.57055" lon="6.70666">
        <ele>437.73007202148</ele>
        <time>2019-04-14T08:48:02.000Z</time>
      </trkpt>
      <trkpt lat="47.57058" lon="6.70669">
        <ele>438.22305297852</ele>
        <time>2019-04-14T08:48:04.000Z</time>
      </trkpt>
      <trkpt lat="47.57063" lon="6.70673">
        <ele>438.71502685547</ele>
        <time>2019-04-14T08:48:07.000Z</time>
      </trkpt>
      <trkpt lat="47.57067" lon="6.70676">
        <ele>439.3046875</ele>
        <time>2019-04-14T08:48:09.000Z</time>
      </trkpt>
      <trkpt lat="47.57073" lon="6.70679">
        <ele>440.02813720703</ele>
        <time>2019-04-14T08:48:12.000Z</time>
      </trkpt>
      <trkpt lat="47.57076" lon="6.70681">
        <ele>440.6572265625</ele>
        <time>2019-04-14T08:48:14.000Z</time>
      </trkpt>
      <trkpt lat="47.57084" lon="6.70683">
        <ele>441.44931030273</ele>
        <time>2019-04-14T08:48:17.000Z</time>
      </trkpt>
      <trkpt lat="47.57088" lon="6.70686">
        <ele>442.20840454102</ele>
        <time>2019-04-14T08:48:19.000Z</time>
      </trkpt>
      <trkpt lat="47.57093" lon="6.70688">
        <ele>442.93218994141</ele>
        <time>2019-04-14T08:48:21.000Z</time>
      </trkpt>
      <trkpt lat="47.57098" lon="6.70692">
        <ele>443.59341430664</ele>
        <time>2019-04-14T08:48:24.000Z</time>
      </trkpt>
      <trkpt lat="47.57103" lon="6.70697">
        <ele>444.2490234375</ele>
        <time>2019-04-14T08:48:27.000Z</time>
      </trkpt>
      <trkpt lat="47.57106" lon="6.707">
        <ele>444.72369384766</ele>
        <time>2019-04-14T08:48:29.000Z</time>
      </trkpt>
      <trkpt lat="47.57113" lon="6.70706">
        <ele>445.23333740234</ele>
        <time>2019-04-14T08:48:32.000Z</time>
      </trkpt>
      <trkpt lat="47.57117" lon="6.70711">
        <ele>445.68725585938</ele>
        <time>2019-04-14T08:48:34.000Z</time>
      </trkpt>
      <trkpt lat="47.57124" lon="6.70715">
        <ele>446.15982055664</ele>
        <time>2019-04-14T08:48:37.000Z</time>
      </trkpt>
      <trkpt lat="47.57128" lon="6.70718">
        <ele>446.63555908203</ele>
        <time>2019-04-14T08:48:39.000Z</time>
      </trkpt>
      <trkpt lat="47.5713" lon="6.7072">
        <ele>447.08673095703</ele>
        <time>2019-04-14T08:48:42.000Z</time>
      </trkpt>
      <trkpt lat="47.57133" lon="6.70721">
        <ele>447.46200561523</ele>
        <time>2019-04-14T08:48:44.000Z</time>
      </trkpt>
      <trkpt lat="47.57135" lon="6.70722">
        <ele>447.81762695312</ele>
        <time>2019-04-14T08:48:46.000Z</time>
      </trkpt>
      <trkpt lat="47.57139" lon="6.70725">
        <ele>448.12847900391</ele>
        <time>2019-04-14T08:48:49.000Z</time>
      </trkpt>
      <trkpt lat="47.57143" lon="6.70728">
        <ele>448.42715454102</ele>
        <time>2019-04-14T08:48:51.000Z</time>
      </trkpt>
      <trkpt lat="47.57147" lon="6.70731">
        <ele>448.76455688477</ele>
        <time>2019-04-14T08:48:54.000Z</time>
      </trkpt>
      <trkpt lat="47.57151" lon="6.70734">
        <ele>449.09725952148</ele>
        <time>2019-04-14T08:48:56.000Z</time>
      </trkpt>
      <trkpt lat="47.57154" lon="6.70736">
        <ele>449.45556640625</ele>
        <time>2019-04-14T08:48:58.000Z</time>
      </trkpt>
      <trkpt lat="47.57159" lon="6.70739">
        <ele>449.83856201172</ele>
        <time>2019-04-14T08:49:01.000Z</time>
      </trkpt>
      <trkpt lat="47.57163" lon="6.70742">
        <ele>450.20843505859</ele>
        <time>2019-04-14T08:49:04.000Z</time>
      </trkpt>
      <trkpt lat="47.57167" lon="6.70746">
        <ele>450.55459594727</ele>
        <time>2019-04-14T08:49:07.000Z</time>
      </trkpt>
      <trkpt lat="47.57169" lon="6.70749">
        <ele>450.85760498047</ele>
        <time>2019-04-14T08:49:09.000Z</time>
      </trkpt>
      <trkpt lat="47.57171" lon="6.70752">
        <ele>451.11758422852</ele>
        <time>2019-04-14T08:49:11.000Z</time>
      </trkpt>
      <trkpt lat="47.57175" lon="6.70756">
        <ele>451.28790283203</ele>
        <time>2019-04-14T08:49:14.000Z</time>
      </trkpt>
      <trkpt lat="47.57177" lon="6.70758">
        <ele>451.40859985352</ele>
        <time>2019-04-14T08:49:16.000Z</time>
      </trkpt>
      <trkpt lat="47.5718" lon="6.70762">
        <ele>451.50341796875</ele>
        <time>2019-04-14T08:49:19.000Z</time>
      </trkpt>
      <trkpt lat="47.57183" lon="6.70766">
        <ele>451.61367797852</ele>
        <time>2019-04-14T08:49:22.000Z</time>
      </trkpt>
      <trkpt lat="47.57187" lon="6.7077">
        <ele>451.75531005859</ele>
        <time>2019-04-14T08:49:24.000Z</time>
      </trkpt>
      <trkpt lat="47.57191" lon="6.70774">
        <ele>451.96060180664</ele>
        <time>2019-04-14T08:49:26.000Z</time>
      </trkpt>
      <trkpt lat="47.57196" lon="6.70779">
        <ele>452.2109375</ele>
        <time>2019-04-14T08:49:29.000Z</time>
      </trkpt>
      <trkpt lat="47.572" lon="6.70783">
        <ele>452.48834228516</ele>
        <time>2019-04-14T08:49:31.000Z</time>
      </trkpt>
      <trkpt lat="47.57207" lon="6.70789">
        <ele>452.89013671875</ele>
        <time>2019-04-14T08:49:34.000Z</time>
      </trkpt>
      <trkpt lat="47.57212" lon="6.70792">
        <ele>453.39068603516</ele>
        <time>2019-04-14T08:49:37.000Z</time>
      </trkpt>
      <trkpt lat="47.57217" lon="6.70796">
        <ele>453.92340087891</ele>
        <time>2019-04-14T08:49:39.000Z</time>
      </trkpt>
      <trkpt lat="47.57222" lon="6.70801">
        <ele>454.54547119141</ele>
        <time>2019-04-14T08:49:42.000Z</time>
      </trkpt>
      <trkpt lat="47.57226" lon="6.70806">
        <ele>455.19400024414</ele>
        <time>2019-04-14T08:49:45.000Z</time>
      </trkpt>
      <trkpt lat="47.57229" lon="6.70809">
        <ele>455.76776123047</ele>
        <time>2019-04-14T08:49:47.000Z</time>
      </trkpt>
      <trkpt lat="47.57233" lon="6.70812">
        <ele>456.32022094727</ele>
        <time>2019-04-14T08:49:49.000Z</time>
      </trkpt>
      <trkpt lat="47.57237" lon="6.70815">
        <ele>456.88510131836</ele>
        <time>2019-04-14T08:49:51.000Z</time>
      </trkpt>
      <trkpt lat="47.57243" lon="6.7082">
        <ele>457.48779296875</ele>
        <time>2019-04-14T08:49:54.000Z</time>
      </trkpt>
      <trkpt lat="47.57249" lon="6.70825">
        <ele>458.21572875977</ele>
        <time>2019-04-14T08:49:57.000Z</time>
      </trkpt>
      <trkpt lat="47.57254" lon="6.7083">
        <ele>458.96502685547</ele>
        <time>2019-04-14T08:49:59.000Z</time>
      </trkpt>
      <trkpt lat="47.57261" lon="6.70836">
        <ele>459.66952514648</ele>
        <time>2019-04-14T08:50:02.000Z</time>
      </trkpt>
      <trkpt lat="47.57267" lon="6.70842">
        <ele>460.31121826172</ele>
        <time>2019-04-14T08:50:05.000Z</time>
      </trkpt>
      <trkpt lat="47.57272" lon="6.70846">
        <ele>460.83432006836</ele>
        <time>2019-04-14T08:50:07.000Z</time>
      </trkpt>
      <trkpt lat="47.57277" lon="6.70849">
        <ele>461.22079467773</ele>
        <time>2019-04-14T08:50:09.000Z</time>
      </trkpt>
      <trkpt lat="47.57282" lon="6.70854">
        <ele>461.54052734375</ele>
        <time>2019-04-14T08:50:12.000Z</time>
      </trkpt>
      <trkpt lat="47.57285" lon="6.70858">
        <ele>461.78594970703</ele>
        <time>2019-04-14T08:50:14.000Z</time>
      </trkpt>
      <trkpt lat="47.57288" lon="6.70862">
        <ele>461.98788452148</ele>
        <time>2019-04-14T08:50:16.000Z</time>
      </trkpt>
      <trkpt lat="47.57295" lon="6.70867">
        <ele>462.22198486328</ele>
        <time>2019-04-14T08:50:19.000Z</time>
      </trkpt>
      <trkpt lat="47.57299" lon="6.70869">
        <ele>462.43695068359</ele>
        <time>2019-04-14T08:50:21.000Z</time>
      </trkpt>
      <trkpt lat="47.57306" lon="6.70874">
        <ele>462.70645141602</ele>
        <time>2019-04-14T08:50:24.000Z</time>
      </trkpt>
      <trkpt lat="47.5731" lon="6.70878">
        <ele>463.00479125977</ele>
        <time>2019-04-14T08:50:26.000Z</time>
      </trkpt>
      <trkpt lat="47.57315" lon="6.70883">
        <ele>463.33782958984</ele>
        <time>2019-04-14T08:50:29.000Z</time>
      </trkpt>
      <trkpt lat="47.57316" lon="6.70886">
        <ele>463.55679321289</ele>
        <time>2019-04-14T08:50:32.000Z</time>
      </trkpt>
      <trkpt lat="47.57322" lon="6.70893">
        <ele>463.76791381836</ele>
        <time>2019-04-14T08:50:35.000Z</time>
      </trkpt>
      <trkpt lat="47.57325" lon="6.70896">
        <ele>463.93072509766</ele>
        <time>2019-04-14T08:50:37.000Z</time>
      </trkpt>
      <trkpt lat="47.57332" lon="6.70903">
        <ele>464.14666748047</ele>
        <time>2019-04-14T08:50:40.000Z</time>
      </trkpt>
      <trkpt lat="47.57337" lon="6.70908">
        <ele>464.28262329102</ele>
        <time>2019-04-14T08:50:42.000Z</time>
      </trkpt>
      <trkpt lat="47.57343" lon="6.70917">
        <ele>464.36709594727</ele>
        <time>2019-04-14T08:50:45.000Z</time>
      </trkpt>
      <trkpt lat="47.57347" lon="6.70922">
        <ele>464.34149169922</ele>
        <time>2019-04-14T08:50:47.000Z</time>
      </trkpt>
      <trkpt lat="47.57354" lon="6.7093">
        <ele>464.19424438477</ele>
        <time>2019-04-14T08:50:50.000Z</time>
      </trkpt>
      <trkpt lat="47.57364" lon="6.70939">
        <ele>463.87368774414</ele>
        <time>2019-04-14T08:50:53.000Z</time>
      </trkpt>
      <trkpt lat="47.57372" lon="6.70947">
        <ele>463.49920654297</ele>
        <time>2019-04-14T08:50:56.000Z</time>
      </trkpt>
      <trkpt lat="47.57382" lon="6.70955">
        <ele>463.13403320312</ele>
        <time>2019-04-14T08:50:59.000Z</time>
      </trkpt>
      <trkpt lat="47.57388" lon="6.70968">
        <ele>462.66918945312</ele>
        <time>2019-04-14T08:51:02.000Z</time>
      </trkpt>
      <trkpt lat="47.57387" lon="6.70982">
        <ele>462.0849609375</ele>
        <time>2019-04-14T08:51:04.000Z</time>
      </trkpt>
      <trkpt lat="47.57387" lon="6.70999">
        <ele>461.33618164062</ele>
        <time>2019-04-14T08:51:06.000Z</time>
      </trkpt>
      <trkpt lat="47.5739" lon="6.71026">
        <ele>460.24761962891</ele>
        <time>2019-04-14T08:51:09.000Z</time>
      </trkpt>
      <trkpt lat="47.57386" lon="6.7104">
        <ele>458.97900390625</ele>
        <time>2019-04-14T08:51:11.000Z</time>
      </trkpt>
      <trkpt lat="47.57395" lon="6.71062">
        <ele>457.58236694336</ele>
        <time>2019-04-14T08:51:14.000Z</time>
      </trkpt>
      <trkpt lat="47.57397" lon="6.71078">
        <ele>456.16827392578</ele>
        <time>2019-04-14T08:51:17.000Z</time>
      </trkpt>
      <trkpt lat="47.57394" lon="6.71083">
        <ele>454.88003540039</ele>
        <time>2019-04-14T08:51:20.000Z</time>
      </trkpt>
      <trkpt lat="47.57391" lon="6.71086">
        <ele>453.92791748047</ele>
        <time>2019-04-14T08:51:22.000Z</time>
      </trkpt>
      <trkpt lat="47.57384" lon="6.71091">
        <ele>453.03295898438</ele>
        <time>2019-04-14T08:51:25.000Z</time>
      </trkpt>
      <trkpt lat="47.57383" lon="6.71095">
        <ele>452.34359741211</ele>
        <time>2019-04-14T08:51:27.000Z</time>
      </trkpt>
      <trkpt lat="47.57386" lon="6.71102">
        <ele>451.728515625</ele>
        <time>2019-04-14T08:51:29.000Z</time>
      </trkpt>
      <trkpt lat="47.57395" lon="6.71126">
        <ele>450.81582641602</ele>
        <time>2019-04-14T08:51:32.000Z</time>
      </trkpt>
      <trkpt lat="47.57408" lon="6.71149">
        <ele>449.60830688477</ele>
        <time>2019-04-14T08:51:35.000Z</time>
      </trkpt>
      <trkpt lat="47.57413" lon="6.71163">
        <ele>448.32998657227</ele>
        <time>2019-04-14T08:51:37.000Z</time>
      </trkpt>
      <trkpt lat="47.57423" lon="6.71188">
        <ele>446.64266967773</ele>
        <time>2019-04-14T08:51:40.000Z</time>
      </trkpt>
      <trkpt lat="47.57429" lon="6.71205">
        <ele>444.73052978516</ele>
        <time>2019-04-14T08:51:43.000Z</time>
      </trkpt>
      <trkpt lat="47.57426" lon="6.71219">
        <ele>442.98446655273</ele>
        <time>2019-04-14T08:51:46.000Z</time>
      </trkpt>
      <trkpt lat="47.5743" lon="6.71233">
        <ele>441.33740234375</ele>
        <time>2019-04-14T08:51:48.000Z</time>
      </trkpt>
      <trkpt lat="47.57433" lon="6.71246">
        <ele>439.69140625</ele>
        <time>2019-04-14T08:51:51.000Z</time>
      </trkpt>
      <trkpt lat="47.57438" lon="6.71257">
        <ele>438.33013916016</ele>
        <time>2019-04-14T08:51:54.000Z</time>
      </trkpt>
      <trkpt lat="47.57442" lon="6.71266">
        <ele>437.17572021484</ele>
        <time>2019-04-14T08:51:56.000Z</time>
      </trkpt>
      <trkpt lat="47.57445" lon="6.71279">
        <ele>436.08056640625</ele>
        <time>2019-04-14T08:51:58.000Z</time>
      </trkpt>
      <trkpt lat="47.57452" lon="6.71296">
        <ele>434.97909545898</ele>
        <time>2019-04-14T08:52:01.000Z</time>
      </trkpt>
      <trkpt lat="47.57456" lon="6.71303">
        <ele>434.02090454102</ele>
        <time>2019-04-14T08:52:03.000Z</time>
      </trkpt>
      <trkpt lat="47.57502" lon="6.71343">
        <ele>432.74926757812</ele>
        <time>2019-04-14T08:52:09.000Z</time>
      </trkpt>
      <trkpt lat="47.57513" lon="6.71356">
        <ele>431.43402099609</ele>
        <time>2019-04-14T08:52:11.000Z</time>
      </trkpt>
      <trkpt lat="47.57519" lon="6.71375">
        <ele>430.17129516602</ele>
        <time>2019-04-14T08:52:13.000Z</time>
      </trkpt>
      <trkpt lat="47.57512" lon="6.71395">
        <ele>429.12100219727</ele>
        <time>2019-04-14T08:52:16.000Z</time>
      </trkpt>
      <trkpt lat="47.57515" lon="6.71409">
        <ele>428.08926391602</ele>
        <time>2019-04-14T08:52:18.000Z</time>
      </trkpt>
      <trkpt lat="47.57514" lon="6.71428">
        <ele>427.52090454102</ele>
        <time>2019-04-14T08:52:21.000Z</time>
      </trkpt>
      <trkpt lat="47.57516" lon="6.71444">
        <ele>427.13214111328</ele>
        <time>2019-04-14T08:52:23.000Z</time>
      </trkpt>
      <trkpt lat="47.57518" lon="6.71463">
        <ele>426.86938476562</ele>
        <time>2019-04-14T08:52:26.000Z</time>
      </trkpt>
      <trkpt lat="47.57516" lon="6.71467">
        <ele>426.65435791016</ele>
        <time>2019-04-14T08:52:29.000Z</time>
      </trkpt>
      <trkpt lat="47.57515" lon="6.71472">
        <ele>426.51214599609</ele>
        <time>2019-04-14T08:52:32.000Z</time>
      </trkpt>
      <trkpt lat="47.57512" lon="6.71473">
        <ele>426.40731811523</ele>
        <time>2019-04-14T08:52:41.000Z</time>
      </trkpt>
      <trkpt lat="47.57515" lon="6.71475">
        <ele>426.34820556641</ele>
        <time>2019-04-14T08:52:43.000Z</time>
      </trkpt>
      <trkpt lat="47.57522" lon="6.71479">
        <ele>426.36810302734</ele>
        <time>2019-04-14T08:52:46.000Z</time>
      </trkpt>
      <trkpt lat="47.57527" lon="6.7148">
        <ele>426.4619140625</ele>
        <time>2019-04-14T08:52:48.000Z</time>
      </trkpt>
      <trkpt lat="47.57531" lon="6.71482">
        <ele>426.62295532227</ele>
        <time>2019-04-14T08:52:51.000Z</time>
      </trkpt>
      <trkpt lat="47.57535" lon="6.71487">
        <ele>426.85870361328</ele>
        <time>2019-04-14T08:52:54.000Z</time>
      </trkpt>
      <trkpt lat="47.57535" lon="6.71498">
        <ele>427.09686279297</ele>
        <time>2019-04-14T08:52:57.000Z</time>
      </trkpt>
      <trkpt lat="47.57536" lon="6.71502">
        <ele>427.28387451172</ele>
        <time>2019-04-14T08:52:59.000Z</time>
      </trkpt>
      <trkpt lat="47.57544" lon="6.71503">
        <ele>427.53155517578</ele>
        <time>2019-04-14T08:53:02.000Z</time>
      </trkpt>
      <trkpt lat="47.5755" lon="6.71503">
        <ele>427.82699584961</ele>
        <time>2019-04-14T08:53:05.000Z</time>
      </trkpt>
      <trkpt lat="47.57557" lon="6.71504">
        <ele>428.15625</ele>
        <time>2019-04-14T08:53:07.000Z</time>
      </trkpt>
      <trkpt lat="47.57566" lon="6.71507">
        <ele>428.59024047852</ele>
        <time>2019-04-14T08:53:10.000Z</time>
      </trkpt>
      <trkpt lat="47.57571" lon="6.71508">
        <ele>429.09585571289</ele>
        <time>2019-04-14T08:53:12.000Z</time>
      </trkpt>
      <trkpt lat="47.5758" lon="6.71512">
        <ele>429.61822509766</ele>
        <time>2019-04-14T08:53:15.000Z</time>
      </trkpt>
      <trkpt lat="47.57584" lon="6.71513">
        <ele>430.11181640625</ele>
        <time>2019-04-14T08:53:17.000Z</time>
      </trkpt>
      <trkpt lat="47.57591" lon="6.71512">
        <ele>430.61126708984</ele>
        <time>2019-04-14T08:53:20.000Z</time>
      </trkpt>
      <trkpt lat="47.57596" lon="6.71512">
        <ele>431.05657958984</ele>
        <time>2019-04-14T08:53:22.000Z</time>
      </trkpt>
      <trkpt lat="47.57602" lon="6.71514">
        <ele>431.50262451172</ele>
        <time>2019-04-14T08:53:25.000Z</time>
      </trkpt>
      <trkpt lat="47.57605" lon="6.71514">
        <ele>431.86639404297</ele>
        <time>2019-04-14T08:53:28.000Z</time>
      </trkpt>
      <trkpt lat="47.57609" lon="6.71514">
        <ele>432.21395874023</ele>
        <time>2019-04-14T08:53:30.000Z</time>
      </trkpt>
      <trkpt lat="47.57615" lon="6.71514">
        <ele>432.55535888672</ele>
        <time>2019-04-14T08:53:33.000Z</time>
      </trkpt>
      <trkpt lat="47.57619" lon="6.71514">
        <ele>432.87347412109</ele>
        <time>2019-04-14T08:53:35.000Z</time>
      </trkpt>
      <trkpt lat="47.57624" lon="6.71515">
        <ele>433.17495727539</ele>
        <time>2019-04-14T08:53:38.000Z</time>
      </trkpt>
      <trkpt lat="47.57631" lon="6.71518">
        <ele>433.52319335938</ele>
        <time>2019-04-14T08:53:41.000Z</time>
      </trkpt>
      <trkpt lat="47.57636" lon="6.71519">
        <ele>433.89666748047</ele>
        <time>2019-04-14T08:53:43.000Z</time>
      </trkpt>
      <trkpt lat="47.57643" lon="6.71521">
        <ele>434.27661132812</ele>
        <time>2019-04-14T08:53:46.000Z</time>
      </trkpt>
      <trkpt lat="47.57648" lon="6.71523">
        <ele>434.67059326172</ele>
        <time>2019-04-14T08:53:49.000Z</time>
      </trkpt>
      <trkpt lat="47.57653" lon="6.71523">
        <ele>435.06268310547</ele>
        <time>2019-04-14T08:53:51.000Z</time>
      </trkpt>
      <trkpt lat="47.57659" lon="6.71524">
        <ele>435.43984985352</ele>
        <time>2019-04-14T08:53:54.000Z</time>
      </trkpt>
      <trkpt lat="47.57662" lon="6.71524">
        <ele>435.78875732422</ele>
        <time>2019-04-14T08:53:57.000Z</time>
      </trkpt>
      <trkpt lat="47.57666" lon="6.71527">
        <ele>436.09027099609</ele>
        <time>2019-04-14T08:54:00.000Z</time>
      </trkpt>
      <trkpt lat="47.5767" lon="6.7153">
        <ele>436.38055419922</ele>
        <time>2019-04-14T08:54:02.000Z</time>
      </trkpt>
      <trkpt lat="47.57674" lon="6.71532">
        <ele>436.65496826172</ele>
        <time>2019-04-14T08:54:04.000Z</time>
      </trkpt>
      <trkpt lat="47.57676" lon="6.71537">
        <ele>436.86791992188</ele>
        <time>2019-04-14T08:54:07.000Z</time>
      </trkpt>
      <trkpt lat="47.57676" lon="6.71542">
        <ele>437.02124023438</ele>
        <time>2019-04-14T08:54:10.000Z</time>
      </trkpt>
      <trkpt lat="47.57676" lon="6.71545">
        <ele>437.12249755859</ele>
        <time>2019-04-14T08:54:12.000Z</time>
      </trkpt>
      <trkpt lat="47.57677" lon="6.71549">
        <ele>437.18154907227</ele>
        <time>2019-04-14T08:54:14.000Z</time>
      </trkpt>
      <trkpt lat="47.5768" lon="6.71555">
        <ele>437.23648071289</ele>
        <time>2019-04-14T08:54:17.000Z</time>
      </trkpt>
      <trkpt lat="47.57687" lon="6.71561">
        <ele>437.36859130859</ele>
        <time>2019-04-14T08:54:20.000Z</time>
      </trkpt>
      <trkpt lat="47.57689" lon="6.71564">
        <ele>437.53875732422</ele>
        <time>2019-04-14T08:54:22.000Z</time>
      </trkpt>
      <trkpt lat="47.57695" lon="6.71572">
        <ele>437.79638671875</ele>
        <time>2019-04-14T08:54:25.000Z</time>
      </trkpt>
      <trkpt lat="47.57701" lon="6.71581">
        <ele>438.13739013672</ele>
        <time>2019-04-14T08:54:28.000Z</time>
      </trkpt>
      <trkpt lat="47.57702" lon="6.71585">
        <ele>438.45849609375</ele>
        <time>2019-04-14T08:54:30.000Z</time>
      </trkpt>
      <trkpt lat="47.57706" lon="6.71593">
        <ele>438.80850219727</ele>
        <time>2019-04-14T08:54:33.000Z</time>
      </trkpt>
      <trkpt lat="47.57711" lon="6.71598">
        <ele>439.26602172852</ele>
        <time>2019-04-14T08:54:35.000Z</time>
      </trkpt>
      <trkpt lat="47.57718" lon="6.71608">
        <ele>439.85952758789</ele>
        <time>2019-04-14T08:54:38.000Z</time>
      </trkpt>
      <trkpt lat="47.57722" lon="6.71614">
        <ele>440.50750732422</ele>
        <time>2019-04-14T08:54:40.000Z</time>
      </trkpt>
      <trkpt lat="47.57727" lon="6.71621">
        <ele>441.30795288086</ele>
        <time>2019-04-14T08:54:42.000Z</time>
      </trkpt>
      <trkpt lat="47.57734" lon="6.7163">
        <ele>442.23861694336</ele>
        <time>2019-04-14T08:54:45.000Z</time>
      </trkpt>
      <trkpt lat="47.57737" lon="6.71636">
        <ele>443.19024658203</ele>
        <time>2019-04-14T08:54:47.000Z</time>
      </trkpt>
      <trkpt lat="47.57738" lon="6.71642">
        <ele>444.02178955078</ele>
        <time>2019-04-14T08:54:49.000Z</time>
      </trkpt>
      <trkpt lat="47.57738" lon="6.71651">
        <ele>444.82974243164</ele>
        <time>2019-04-14T08:54:52.000Z</time>
      </trkpt>
      <trkpt lat="47.57738" lon="6.71663">
        <ele>445.61196899414</ele>
        <time>2019-04-14T08:54:55.000Z</time>
      </trkpt>
      <trkpt lat="47.57738" lon="6.71669">
        <ele>446.19708251953</ele>
        <time>2019-04-14T08:54:57.000Z</time>
      </trkpt>
      <trkpt lat="47.57737" lon="6.71675">
        <ele>446.65072631836</ele>
        <time>2019-04-14T08:54:59.000Z</time>
      </trkpt>
      <trkpt lat="47.57741" lon="6.71688">
        <ele>447.25308227539</ele>
        <time>2019-04-14T08:55:02.000Z</time>
      </trkpt>
      <trkpt lat="47.57746" lon="6.71701">
        <ele>448.00042724609</ele>
        <time>2019-04-14T08:55:05.000Z</time>
      </trkpt>
      <trkpt lat="47.5775" lon="6.71714">
        <ele>448.87158203125</ele>
        <time>2019-04-14T08:55:08.000Z</time>
      </trkpt>
      <trkpt lat="47.57756" lon="6.71726">
        <ele>449.94415283203</ele>
        <time>2019-04-14T08:55:11.000Z</time>
      </trkpt>
      <trkpt lat="47.5776" lon="6.71736">
        <ele>451.20614624023</ele>
        <time>2019-04-14T08:55:14.000Z</time>
      </trkpt>
      <trkpt lat="47.57766" lon="6.71744">
        <ele>452.44058227539</ele>
        <time>2019-04-14T08:55:17.000Z</time>
      </trkpt>
      <trkpt lat="47.57771" lon="6.7175">
        <ele>453.55670166016</ele>
        <time>2019-04-14T08:55:20.000Z</time>
      </trkpt>
      <trkpt lat="47.57776" lon="6.71755">
        <ele>454.48818969727</ele>
        <time>2019-04-14T08:55:23.000Z</time>
      </trkpt>
      <trkpt lat="47.57782" lon="6.71758">
        <ele>455.26959228516</ele>
        <time>2019-04-14T08:55:26.000Z</time>
      </trkpt>
      <trkpt lat="47.57788" lon="6.71763">
        <ele>455.93914794922</ele>
        <time>2019-04-14T08:55:29.000Z</time>
      </trkpt>
      <trkpt lat="47.57793" lon="6.71767">
        <ele>456.46615600586</ele>
        <time>2019-04-14T08:55:32.000Z</time>
      </trkpt>
      <trkpt lat="47.57798" lon="6.71775">
        <ele>456.90298461914</ele>
        <time>2019-04-14T08:55:35.000Z</time>
      </trkpt>
      <trkpt lat="47.57801" lon="6.71782">
        <ele>457.26684570312</ele>
        <time>2019-04-14T08:55:38.000Z</time>
      </trkpt>
      <trkpt lat="47.57805" lon="6.71789">
        <ele>457.54385375977</ele>
        <time>2019-04-14T08:55:41.000Z</time>
      </trkpt>
      <trkpt lat="47.57808" lon="6.71794">
        <ele>457.75067138672</ele>
        <time>2019-04-14T08:55:44.000Z</time>
      </trkpt>
      <trkpt lat="47.57809" lon="6.71798">
        <ele>457.86953735352</ele>
        <time>2019-04-14T08:55:47.000Z</time>
      </trkpt>
      <trkpt lat="47.57811" lon="6.71802">
        <ele>457.92828369141</ele>
        <time>2019-04-14T08:55:50.000Z</time>
      </trkpt>
      <trkpt lat="47.57815" lon="6.71809">
        <ele>458.00723266602</ele>
        <time>2019-04-14T08:55:53.000Z</time>
      </trkpt>
      <trkpt lat="47.57817" lon="6.71814">
        <ele>458.06582641602</ele>
        <time>2019-04-14T08:55:56.000Z</time>
      </trkpt>
      <trkpt lat="47.5782" lon="6.71818">
        <ele>458.11483764648</ele>
        <time>2019-04-14T08:55:59.000Z</time>
      </trkpt>
      <trkpt lat="47.57827" lon="6.71823">
        <ele>458.27215576172</ele>
        <time>2019-04-14T08:56:02.000Z</time>
      </trkpt>
      <trkpt lat="47.57832" lon="6.71828">
        <ele>458.48754882812</ele>
        <time>2019-04-14T08:56:05.000Z</time>
      </trkpt>
      <trkpt lat="47.57838" lon="6.71835">
        <ele>458.78237915039</ele>
        <time>2019-04-14T08:56:08.000Z</time>
      </trkpt>
      <trkpt lat="47.57843" lon="6.71842">
        <ele>459.21282958984</ele>
        <time>2019-04-14T08:56:11.000Z</time>
      </trkpt>
      <trkpt lat="47.57846" lon="6.7185">
        <ele>459.73788452148</ele>
        <time>2019-04-14T08:56:14.000Z</time>
      </trkpt>
      <trkpt lat="47.5785" lon="6.71855">
        <ele>460.26675415039</ele>
        <time>2019-04-14T08:56:17.000Z</time>
      </trkpt>
      <trkpt lat="47.57854" lon="6.71863">
        <ele>460.87216186523</ele>
        <time>2019-04-14T08:56:20.000Z</time>
      </trkpt>
      <trkpt lat="47.57858" lon="6.7187">
        <ele>461.47177124023</ele>
        <time>2019-04-14T08:56:23.000Z</time>
      </trkpt>
      <trkpt lat="47.57862" lon="6.71878">
        <ele>462.06454467773</ele>
        <time>2019-04-14T08:56:26.000Z</time>
      </trkpt>
      <trkpt lat="47.57867" lon="6.71886">
        <ele>462.68759155273</ele>
        <time>2019-04-14T08:56:29.000Z</time>
      </trkpt>
      <trkpt lat="47.57871" lon="6.71891">
        <ele>463.34414672852</ele>
        <time>2019-04-14T08:56:32.000Z</time>
      </trkpt>
      <trkpt lat="47.57875" lon="6.71896">
        <ele>463.98300170898</ele>
        <time>2019-04-14T08:56:35.000Z</time>
      </trkpt>
      <trkpt lat="47.5788" lon="6.71903">
        <ele>464.66494750977</ele>
        <time>2019-04-14T08:56:38.000Z</time>
      </trkpt>
      <trkpt lat="47.57887" lon="6.71911">
        <ele>465.40893554688</ele>
        <time>2019-04-14T08:56:41.000Z</time>
      </trkpt>
      <trkpt lat="47.57894" lon="6.71917">
        <ele>466.20248413086</ele>
        <time>2019-04-14T08:56:44.000Z</time>
      </trkpt>
      <trkpt lat="47.579" lon="6.71921">
        <ele>467.01068115234</ele>
        <time>2019-04-14T08:56:47.000Z</time>
      </trkpt>
      <trkpt lat="47.57905" lon="6.71921">
        <ele>467.82977294922</ele>
        <time>2019-04-14T08:56:50.000Z</time>
      </trkpt>
      <trkpt lat="47.57911" lon="6.71918">
        <ele>468.65274047852</ele>
        <time>2019-04-14T08:56:53.000Z</time>
      </trkpt>
      <trkpt lat="47.57914" lon="6.71917">
        <ele>469.38641357422</ele>
        <time>2019-04-14T08:56:56.000Z</time>
      </trkpt>
      <trkpt lat="47.57918" lon="6.71915">
        <ele>470.02270507812</ele>
        <time>2019-04-14T08:56:59.000Z</time>
      </trkpt>
      <trkpt lat="47.57922" lon="6.71911">
        <ele>470.6416015625</ele>
        <time>2019-04-14T08:57:02.000Z</time>
      </trkpt>
      <trkpt lat="47.57925" lon="6.71908">
        <ele>471.21978759766</ele>
        <time>2019-04-14T08:57:05.000Z</time>
      </trkpt>
      <trkpt lat="47.57928" lon="6.71906">
        <ele>471.71997070312</ele>
        <time>2019-04-14T08:57:08.000Z</time>
      </trkpt>
      <trkpt lat="47.57932" lon="6.71904">
        <ele>472.22598266602</ele>
        <time>2019-04-14T08:57:11.000Z</time>
      </trkpt>
      <trkpt lat="47.57935" lon="6.71902">
        <ele>472.72393798828</ele>
        <time>2019-04-14T08:57:14.000Z</time>
      </trkpt>
      <trkpt lat="47.57938" lon="6.71899">
        <ele>473.17016601562</ele>
        <time>2019-04-14T08:57:17.000Z</time>
      </trkpt>
      <trkpt lat="47.57942" lon="6.71897">
        <ele>473.62866210938</ele>
        <time>2019-04-14T08:57:20.000Z</time>
      </trkpt>
      <trkpt lat="47.57946" lon="6.71893">
        <ele>474.10064697266</ele>
        <time>2019-04-14T08:57:23.000Z</time>
      </trkpt>
      <trkpt lat="47.57949" lon="6.71891">
        <ele>474.55380249023</ele>
        <time>2019-04-14T08:57:26.000Z</time>
      </trkpt>
      <trkpt lat="47.57951" lon="6.71888">
        <ele>474.94912719727</ele>
        <time>2019-04-14T08:57:29.000Z</time>
      </trkpt>
      <trkpt lat="47.57954" lon="6.71884">
        <ele>475.37054443359</ele>
        <time>2019-04-14T08:57:32.000Z</time>
      </trkpt>
      <trkpt lat="47.57959" lon="6.71882">
        <ele>475.81079101562</ele>
        <time>2019-04-14T08:57:35.000Z</time>
      </trkpt>
      <trkpt lat="47.57964" lon="6.71878">
        <ele>476.26910400391</ele>
        <time>2019-04-14T08:57:38.000Z</time>
      </trkpt>
      <trkpt lat="47.57967" lon="6.71873">
        <ele>476.71743774414</ele>
        <time>2019-04-14T08:57:41.000Z</time>
      </trkpt>
      <trkpt lat="47.5797" lon="6.7187">
        <ele>477.18878173828</ele>
        <time>2019-04-14T08:57:44.000Z</time>
      </trkpt>
      <trkpt lat="47.57974" lon="6.71868">
        <ele>477.66934204102</ele>
        <time>2019-04-14T08:57:47.000Z</time>
      </trkpt>
      <trkpt lat="47.57977" lon="6.71865">
        <ele>478.07925415039</ele>
        <time>2019-04-14T08:57:50.000Z</time>
      </trkpt>
      <trkpt lat="47.5798" lon="6.71862">
        <ele>478.46313476562</ele>
        <time>2019-04-14T08:57:53.000Z</time>
      </trkpt>
      <trkpt lat="47.57984" lon="6.71859">
        <ele>478.86254882812</ele>
        <time>2019-04-14T08:57:56.000Z</time>
      </trkpt>
      <trkpt lat="47.57986" lon="6.71853">
        <ele>479.22720336914</ele>
        <time>2019-04-14T08:57:59.000Z</time>
      </trkpt>
      <trkpt lat="47.5799" lon="6.7185">
        <ele>479.55780029297</ele>
        <time>2019-04-14T08:58:02.000Z</time>
      </trkpt>
      <trkpt lat="47.57995" lon="6.71848">
        <ele>479.96182250977</ele>
        <time>2019-04-14T08:58:05.000Z</time>
      </trkpt>
      <trkpt lat="47.57999" lon="6.71847">
        <ele>480.37826538086</ele>
        <time>2019-04-14T08:58:08.000Z</time>
      </trkpt>
      <trkpt lat="47.58002" lon="6.71844">
        <ele>480.79922485352</ele>
        <time>2019-04-14T08:58:11.000Z</time>
      </trkpt>
      <trkpt lat="47.58007" lon="6.7184">
        <ele>481.31640625</ele>
        <time>2019-04-14T08:58:14.000Z</time>
      </trkpt>
      <trkpt lat="47.5801" lon="6.71838">
        <ele>481.85760498047</ele>
        <time>2019-04-14T08:58:17.000Z</time>
      </trkpt>
      <trkpt lat="47.58014" lon="6.71838">
        <ele>482.40444946289</ele>
        <time>2019-04-14T08:58:20.000Z</time>
      </trkpt>
      <trkpt lat="47.58017" lon="6.71838">
        <ele>482.96597290039</ele>
        <time>2019-04-14T08:58:23.000Z</time>
      </trkpt>
      <trkpt lat="47.5802" lon="6.71833">
        <ele>483.50698852539</ele>
        <time>2019-04-14T08:58:26.000Z</time>
      </trkpt>
      <trkpt lat="47.58023" lon="6.71829">
        <ele>484.03778076172</ele>
        <time>2019-04-14T08:58:29.000Z</time>
      </trkpt>
      <trkpt lat="47.58025" lon="6.71827">
        <ele>484.51275634766</ele>
        <time>2019-04-14T08:58:32.000Z</time>
      </trkpt>
      <trkpt lat="47.58026" lon="6.71825">
        <ele>484.88711547852</ele>
        <time>2019-04-14T08:58:35.000Z</time>
      </trkpt>
      <trkpt lat="47.58029" lon="6.7182">
        <ele>485.21697998047</ele>
        <time>2019-04-14T08:58:38.000Z</time>
      </trkpt>
      <trkpt lat="47.58033" lon="6.71817">
        <ele>485.57952880859</ele>
        <time>2019-04-14T08:58:41.000Z</time>
      </trkpt>
      <trkpt lat="47.58035" lon="6.71816">
        <ele>485.92617797852</ele>
        <time>2019-04-14T08:58:44.000Z</time>
      </trkpt>
      <trkpt lat="47.58038" lon="6.71814">
        <ele>486.29541015625</ele>
        <time>2019-04-14T08:58:47.000Z</time>
      </trkpt>
      <trkpt lat="47.58042" lon="6.71811">
        <ele>486.74346923828</ele>
        <time>2019-04-14T08:58:50.000Z</time>
      </trkpt>
      <trkpt lat="47.58046" lon="6.71809">
        <ele>487.27923583984</ele>
        <time>2019-04-14T08:58:53.000Z</time>
      </trkpt>
      <trkpt lat="47.58051" lon="6.71809">
        <ele>487.84204101562</ele>
        <time>2019-04-14T08:58:56.000Z</time>
      </trkpt>
      <trkpt lat="47.58055" lon="6.71808">
        <ele>488.47348022461</ele>
        <time>2019-04-14T08:58:59.000Z</time>
      </trkpt>
      <trkpt lat="47.5806" lon="6.71803">
        <ele>489.16790771484</ele>
        <time>2019-04-14T08:59:02.000Z</time>
      </trkpt>
      <trkpt lat="47.58064" lon="6.718">
        <ele>489.8681640625</ele>
        <time>2019-04-14T08:59:05.000Z</time>
      </trkpt>
      <trkpt lat="47.58068" lon="6.71798">
        <ele>490.50048828125</ele>
        <time>2019-04-14T08:59:08.000Z</time>
      </trkpt>
      <trkpt lat="47.58072" lon="6.71793">
        <ele>491.10424804688</ele>
        <time>2019-04-14T08:59:11.000Z</time>
      </trkpt>
      <trkpt lat="47.58075" lon="6.71789">
        <ele>491.62225341797</ele>
        <time>2019-04-14T08:59:14.000Z</time>
      </trkpt>
      <trkpt lat="47.5808" lon="6.71785">
        <ele>492.10263061523</ele>
        <time>2019-04-14T08:59:17.000Z</time>
      </trkpt>
      <trkpt lat="47.58083" lon="6.71781">
        <ele>492.55834960938</ele>
        <time>2019-04-14T08:59:20.000Z</time>
      </trkpt>
      <trkpt lat="47.58087" lon="6.71777">
        <ele>492.83047485352</ele>
        <time>2019-04-14T08:59:23.000Z</time>
      </trkpt>
      <trkpt lat="47.58091" lon="6.71772">
        <ele>492.86807250977</ele>
        <time>2019-04-14T08:59:26.000Z</time>
      </trkpt>
      <trkpt lat="47.58094" lon="6.71769">
        <ele>492.72900390625</ele>
        <time>2019-04-14T08:59:29.000Z</time>
      </trkpt>
      <trkpt lat="47.58098" lon="6.71765">
        <ele>492.37548828125</ele>
        <time>2019-04-14T08:59:32.000Z</time>
      </trkpt>
      <trkpt lat="47.58102" lon="6.71762">
        <ele>491.80947875977</ele>
        <time>2019-04-14T08:59:35.000Z</time>
      </trkpt>
      <trkpt lat="47.58105" lon="6.7176">
        <ele>491.23016357422</ele>
        <time>2019-04-14T08:59:38.000Z</time>
      </trkpt>
      <trkpt lat="47.58109" lon="6.71759">
        <ele>490.68392944336</ele>
        <time>2019-04-14T08:59:41.000Z</time>
      </trkpt>
      <trkpt lat="47.5811" lon="6.71761">
        <ele>490.25262451172</ele>
        <time>2019-04-14T08:59:45.000Z</time>
      </trkpt>
      <trkpt lat="47.58112" lon="6.71764">
        <ele>489.95083618164</ele>
        <time>2019-04-14T08:59:48.000Z</time>
      </trkpt>
      <trkpt lat="47.58113" lon="6.71766">
        <ele>489.7841796875</ele>
        <time>2019-04-14T08:59:51.000Z</time>
      </trkpt>
      <trkpt lat="47.58116" lon="6.71768">
        <ele>489.71826171875</ele>
        <time>2019-04-14T08:59:54.000Z</time>
      </trkpt>
      <trkpt lat="47.58121" lon="6.71772">
        <ele>489.71148681641</ele>
        <time>2019-04-14T08:59:57.000Z</time>
      </trkpt>
      <trkpt lat="47.58126" lon="6.71776">
        <ele>489.68579101562</ele>
        <time>2019-04-14T09:00:00.000Z</time>
      </trkpt>
      <trkpt lat="47.58128" lon="6.71779">
        <ele>489.67547607422</ele>
        <time>2019-04-14T09:00:03.000Z</time>
      </trkpt>
      <trkpt lat="47.58133" lon="6.71783">
        <ele>489.66302490234</ele>
        <time>2019-04-14T09:00:06.000Z</time>
      </trkpt>
      <trkpt lat="47.58137" lon="6.71785">
        <ele>489.63784790039</ele>
        <time>2019-04-14T09:00:09.000Z</time>
      </trkpt>
      <trkpt lat="47.58141" lon="6.71789">
        <ele>489.67803955078</ele>
        <time>2019-04-14T09:00:12.000Z</time>
      </trkpt>
      <trkpt lat="47.58145" lon="6.71794">
        <ele>489.81103515625</ele>
        <time>2019-04-14T09:00:15.000Z</time>
      </trkpt>
      <trkpt lat="47.58148" lon="6.71799">
        <ele>490.01904296875</ele>
        <time>2019-04-14T09:00:18.000Z</time>
      </trkpt>
      <trkpt lat="47.58149" lon="6.71802">
        <ele>490.28335571289</ele>
        <time>2019-04-14T09:00:21.000Z</time>
      </trkpt>
      <trkpt lat="47.5815" lon="6.71806">
        <ele>490.65707397461</ele>
        <time>2019-04-14T09:00:24.000Z</time>
      </trkpt>
      <trkpt lat="47.58153" lon="6.71812">
        <ele>491.15194702148</ele>
        <time>2019-04-14T09:00:27.000Z</time>
      </trkpt>
      <trkpt lat="47.58157" lon="6.71817">
        <ele>491.65582275391</ele>
        <time>2019-04-14T09:00:30.000Z</time>
      </trkpt>
      <trkpt lat="47.5816" lon="6.71822">
        <ele>492.18585205078</ele>
        <time>2019-04-14T09:00:33.000Z</time>
      </trkpt>
      <trkpt lat="47.58163" lon="6.71828">
        <ele>492.83642578125</ele>
        <time>2019-04-14T09:00:36.000Z</time>
      </trkpt>
      <trkpt lat="47.58166" lon="6.71834">
        <ele>493.55087280273</ele>
        <time>2019-04-14T09:00:39.000Z</time>
      </trkpt>
      <trkpt lat="47.58167" lon="6.71839">
        <ele>494.15606689453</ele>
        <time>2019-04-14T09:00:42.000Z</time>
      </trkpt>
      <trkpt lat="47.58169" lon="6.71845">
        <ele>494.60565185547</ele>
        <time>2019-04-14T09:00:45.000Z</time>
      </trkpt>
      <trkpt lat="47.58174" lon="6.71852">
        <ele>494.78253173828</ele>
        <time>2019-04-14T09:00:48.000Z</time>
      </trkpt>
      <trkpt lat="47.58181" lon="6.7186">
        <ele>494.51580810547</ele>
        <time>2019-04-14T09:00:51.000Z</time>
      </trkpt>
      <trkpt lat="47.58189" lon="6.71869">
        <ele>493.88970947266</ele>
        <time>2019-04-14T09:00:54.000Z</time>
      </trkpt>
      <trkpt lat="47.58196" lon="6.71876">
        <ele>493.08871459961</ele>
        <time>2019-04-14T09:00:57.000Z</time>
      </trkpt>
      <trkpt lat="47.58199" lon="6.71881">
        <ele>492.35464477539</ele>
        <time>2019-04-14T09:01:00.000Z</time>
      </trkpt>
      <trkpt lat="47.58199" lon="6.71889">
        <ele>491.94940185547</ele>
        <time>2019-04-14T09:01:03.000Z</time>
      </trkpt>
      <trkpt lat="47.58197" lon="6.71896">
        <ele>492.03311157227</ele>
        <time>2019-04-14T09:01:06.000Z</time>
      </trkpt>
      <trkpt lat="47.58201" lon="6.71904">
        <ele>492.41156005859</ele>
        <time>2019-04-14T09:01:09.000Z</time>
      </trkpt>
      <trkpt lat="47.58207" lon="6.71912">
        <ele>492.96606445312</ele>
        <time>2019-04-14T09:01:12.000Z</time>
      </trkpt>
      <trkpt lat="47.58207" lon="6.71918">
        <ele>493.64520263672</ele>
        <time>2019-04-14T09:01:15.000Z</time>
      </trkpt>
      <trkpt lat="47.58209" lon="6.71923">
        <ele>494.1318359375</ele>
        <time>2019-04-14T09:01:18.000Z</time>
      </trkpt>
      <trkpt lat="47.58212" lon="6.71933">
        <ele>494.40802001953</ele>
        <time>2019-04-14T09:01:21.000Z</time>
      </trkpt>
      <trkpt lat="47.5822" lon="6.71942">
        <ele>494.54742431641</ele>
        <time>2019-04-14T09:01:24.000Z</time>
      </trkpt>
      <trkpt lat="47.58227" lon="6.71948">
        <ele>494.58935546875</ele>
        <time>2019-04-14T09:01:27.000Z</time>
      </trkpt>
      <trkpt lat="47.58227" lon="6.71948">
        <ele>494.58935546875</ele>
        <time>2019-04-14T09:01:47.000Z</time>
      </trkpt>
      <trkpt lat="47.58228" lon="6.71952">
        <ele>494.54473876953</ele>
        <time>2019-04-14T09:01:51.000Z</time>
      </trkpt>
      <trkpt lat="47.58231" lon="6.71954">
        <ele>494.50433349609</ele>
        <time>2019-04-14T09:01:57.000Z</time>
      </trkpt>
      <trkpt lat="47.58231" lon="6.71956">
        <ele>494.46835327148</ele>
        <time>2019-04-14T09:02:00.000Z</time>
      </trkpt>
      <trkpt lat="47.58231" lon="6.71959">
        <ele>494.52239990234</ele>
        <time>2019-04-14T09:02:07.000Z</time>
      </trkpt>
      <trkpt lat="47.58228" lon="6.71958">
        <ele>494.64834594727</ele>
        <time>2019-04-14T09:02:22.000Z</time>
      </trkpt>
      <trkpt lat="47.58228" lon="6.71958">
        <ele>494.64834594727</ele>
        <time>2019-04-14T09:02:42.000Z</time>
      </trkpt>
      <trkpt lat="47.58231" lon="6.71959">
        <ele>494.72119140625</ele>
        <time>2019-04-14T09:03:07.000Z</time>
      </trkpt>
      <trkpt lat="47.58229" lon="6.71961">
        <ele>494.84115600586</ele>
        <time>2019-04-14T09:03:10.000Z</time>
      </trkpt>
      <trkpt lat="47.58229" lon="6.71961">
        <ele>494.84115600586</ele>
        <time>2019-04-14T09:03:30.000Z</time>
      </trkpt>
      <trkpt lat="47.5823" lon="6.7196">
        <ele>494.91180419922</ele>
        <time>2019-04-14T09:03:51.000Z</time>
      </trkpt>
      <trkpt lat="47.58232" lon="6.71961">
        <ele>494.93954467773</ele>
        <time>2019-04-14T09:03:58.000Z</time>
      </trkpt>
      <trkpt lat="47.58234" lon="6.71963">
        <ele>494.94857788086</ele>
        <time>2019-04-14T09:04:08.000Z</time>
      </trkpt>
      <trkpt lat="47.58236" lon="6.71973">
        <ele>495.11679077148</ele>
        <time>2019-04-14T09:04:11.000Z</time>
      </trkpt>
      <trkpt lat="47.5824" lon="6.71983">
        <ele>495.39483642578</ele>
        <time>2019-04-14T09:04:14.000Z</time>
      </trkpt>
      <trkpt lat="47.58249" lon="6.71991">
        <ele>495.80853271484</ele>
        <time>2019-04-14T09:04:17.000Z</time>
      </trkpt>
      <trkpt lat="47.58259" lon="6.72">
        <ele>495.77288818359</ele>
        <time>2019-04-14T09:04:20.000Z</time>
      </trkpt>
      <trkpt lat="47.58265" lon="6.72006">
        <ele>495.29971313477</ele>
        <time>2019-04-14T09:04:23.000Z</time>
      </trkpt>
      <trkpt lat="47.5827" lon="6.72009">
        <ele>494.41055297852</ele>
        <time>2019-04-14T09:04:26.000Z</time>
      </trkpt>
      <trkpt lat="47.58272" lon="6.72014">
        <ele>493.20489501953</ele>
        <time>2019-04-14T09:04:29.000Z</time>
      </trkpt>
      <trkpt lat="47.58276" lon="6.7202">
        <ele>491.69805908203</ele>
        <time>2019-04-14T09:04:32.000Z</time>
      </trkpt>
      <trkpt lat="47.58281" lon="6.72032">
        <ele>490.42059326172</ele>
        <time>2019-04-14T09:04:35.000Z</time>
      </trkpt>
      <trkpt lat="47.58289" lon="6.72046">
        <ele>489.31402587891</ele>
        <time>2019-04-14T09:04:38.000Z</time>
      </trkpt>
      <trkpt lat="47.58289" lon="6.7206">
        <ele>488.63983154297</ele>
        <time>2019-04-14T09:04:41.000Z</time>
      </trkpt>
      <trkpt lat="47.58294" lon="6.72074">
        <ele>488.14630126953</ele>
        <time>2019-04-14T09:04:44.000Z</time>
      </trkpt>
      <trkpt lat="47.583" lon="6.72091">
        <ele>487.71069335938</ele>
        <time>2019-04-14T09:04:47.000Z</time>
      </trkpt>
      <trkpt lat="47.58307" lon="6.72108">
        <ele>487.21673583984</ele>
        <time>2019-04-14T09:04:50.000Z</time>
      </trkpt>
      <trkpt lat="47.58308" lon="6.72124">
        <ele>486.91552734375</ele>
        <time>2019-04-14T09:04:53.000Z</time>
      </trkpt>
      <trkpt lat="47.58311" lon="6.72135">
        <ele>486.38873291016</ele>
        <time>2019-04-14T09:04:56.000Z</time>
      </trkpt>
      <trkpt lat="47.58318" lon="6.7215">
        <ele>485.78311157227</ele>
        <time>2019-04-14T09:04:59.000Z</time>
      </trkpt>
      <trkpt lat="47.58323" lon="6.72167">
        <ele>485.34902954102</ele>
        <time>2019-04-14T09:05:02.000Z</time>
      </trkpt>
      <trkpt lat="47.58326" lon="6.7218">
        <ele>485.05047607422</ele>
        <time>2019-04-14T09:05:05.000Z</time>
      </trkpt>
      <trkpt lat="47.58334" lon="6.72188">
        <ele>484.66488647461</ele>
        <time>2019-04-14T09:05:08.000Z</time>
      </trkpt>
      <trkpt lat="47.58339" lon="6.72201">
        <ele>483.73809814453</ele>
        <time>2019-04-14T09:05:11.000Z</time>
      </trkpt>
      <trkpt lat="47.58342" lon="6.7222">
        <ele>482.47348022461</ele>
        <time>2019-04-14T09:05:14.000Z</time>
      </trkpt>
      <trkpt lat="47.58343" lon="6.72236">
        <ele>480.89453125</ele>
        <time>2019-04-14T09:05:17.000Z</time>
      </trkpt>
      <trkpt lat="47.58342" lon="6.72255">
        <ele>479.35189819336</ele>
        <time>2019-04-14T09:05:20.000Z</time>
      </trkpt>
      <trkpt lat="47.58338" lon="6.7227">
        <ele>477.9794921875</ele>
        <time>2019-04-14T09:05:23.000Z</time>
      </trkpt>
      <trkpt lat="47.58339" lon="6.72284">
        <ele>476.79330444336</ele>
        <time>2019-04-14T09:05:26.000Z</time>
      </trkpt>
      <trkpt lat="47.58341" lon="6.72302">
        <ele>475.47354125977</ele>
        <time>2019-04-14T09:05:29.000Z</time>
      </trkpt>
      <trkpt lat="47.58339" lon="6.72325">
        <ele>474.08120727539</ele>
        <time>2019-04-14T09:05:32.000Z</time>
      </trkpt>
      <trkpt lat="47.58336" lon="6.72346">
        <ele>472.7333984375</ele>
        <time>2019-04-14T09:05:35.000Z</time>
      </trkpt>
      <trkpt lat="47.58325" lon="6.72354">
        <ele>471.49127197266</ele>
        <time>2019-04-14T09:05:38.000Z</time>
      </trkpt>
      <trkpt lat="47.58314" lon="6.7236">
        <ele>470.57940673828</ele>
        <time>2019-04-14T09:05:41.000Z</time>
      </trkpt>
      <trkpt lat="47.58304" lon="6.7237">
        <ele>470.10464477539</ele>
        <time>2019-04-14T09:05:44.000Z</time>
      </trkpt>
      <trkpt lat="47.58299" lon="6.72378">
        <ele>469.90093994141</ele>
        <time>2019-04-14T09:05:47.000Z</time>
      </trkpt>
      <trkpt lat="47.5831" lon="6.72397">
        <ele>469.50790405273</ele>
        <time>2019-04-14T09:05:50.000Z</time>
      </trkpt>
      <trkpt lat="47.5831" lon="6.7242">
        <ele>468.74795532227</ele>
        <time>2019-04-14T09:05:53.000Z</time>
      </trkpt>
      <trkpt lat="47.58329" lon="6.72458">
        <ele>467.66000366211</ele>
        <time>2019-04-14T09:05:57.000Z</time>
      </trkpt>
      <trkpt lat="47.58334" lon="6.72489">
        <ele>466.33944702148</ele>
        <time>2019-04-14T09:06:00.000Z</time>
      </trkpt>
      <trkpt lat="47.58339" lon="6.72516">
        <ele>464.34930419922</ele>
        <time>2019-04-14T09:06:03.000Z</time>
      </trkpt>
      <trkpt lat="47.58339" lon="6.72543">
        <ele>462.22607421875</ele>
        <time>2019-04-14T09:06:06.000Z</time>
      </trkpt>
      <trkpt lat="47.58346" lon="6.72567">
        <ele>459.38150024414</ele>
        <time>2019-04-14T09:06:09.000Z</time>
      </trkpt>
      <trkpt lat="47.58344" lon="6.72591">
        <ele>456.79794311523</ele>
        <time>2019-04-14T09:06:12.000Z</time>
      </trkpt>
      <trkpt lat="47.58344" lon="6.72616">
        <ele>454.15957641602</ele>
        <time>2019-04-14T09:06:15.000Z</time>
      </trkpt>
      <trkpt lat="47.58342" lon="6.72645">
        <ele>451.89739990234</ele>
        <time>2019-04-14T09:06:18.000Z</time>
      </trkpt>
      <trkpt lat="47.5834" lon="6.72668">
        <ele>449.77032470703</ele>
        <time>2019-04-14T09:06:21.000Z</time>
      </trkpt>
      <trkpt lat="47.58343" lon="6.72692">
        <ele>447.88955688477</ele>
        <time>2019-04-14T09:06:24.000Z</time>
      </trkpt>
      <trkpt lat="47.58343" lon="6.72718">
        <ele>445.64691162109</ele>
        <time>2019-04-14T09:06:27.000Z</time>
      </trkpt>
      <trkpt lat="47.58342" lon="6.72743">
        <ele>443.30337524414</ele>
        <time>2019-04-14T09:06:30.000Z</time>
      </trkpt>
      <trkpt lat="47.58338" lon="6.72766">
        <ele>441.27182006836</ele>
        <time>2019-04-14T09:06:33.000Z</time>
      </trkpt>
      <trkpt lat="47.5834" lon="6.72796">
        <ele>438.83099365234</ele>
        <time>2019-04-14T09:06:36.000Z</time>
      </trkpt>
      <trkpt lat="47.58339" lon="6.72819">
        <ele>436.76904296875</ele>
        <time>2019-04-14T09:06:39.000Z</time>
      </trkpt>
      <trkpt lat="47.58334" lon="6.72838">
        <ele>435.24212646484</ele>
        <time>2019-04-14T09:06:42.000Z</time>
      </trkpt>
      <trkpt lat="47.58335" lon="6.72863">
        <ele>433.29638671875</ele>
        <time>2019-04-14T09:06:45.000Z</time>
      </trkpt>
      <trkpt lat="47.58335" lon="6.72885">
        <ele>430.67413330078</ele>
        <time>2019-04-14T09:06:48.000Z</time>
      </trkpt>
      <trkpt lat="47.58327" lon="6.72909">
        <ele>427.96588134766</ele>
        <time>2019-04-14T09:06:51.000Z</time>
      </trkpt>
      <trkpt lat="47.58325" lon="6.72938">
        <ele>424.87295532227</ele>
        <time>2019-04-14T09:06:54.000Z</time>
      </trkpt>
      <trkpt lat="47.58326" lon="6.72968">
        <ele>421.09222412109</ele>
        <time>2019-04-14T09:06:57.000Z</time>
      </trkpt>
      <trkpt lat="47.58324" lon="6.72996">
        <ele>417.55804443359</ele>
        <time>2019-04-14T09:07:00.000Z</time>
      </trkpt>
      <trkpt lat="47.58323" lon="6.73016">
        <ele>414.46514892578</ele>
        <time>2019-04-14T09:07:03.000Z</time>
      </trkpt>
      <trkpt lat="47.5832" lon="6.73026">
        <ele>411.96240234375</ele>
        <time>2019-04-14T09:07:06.000Z</time>
      </trkpt>
      <trkpt lat="47.58321" lon="6.7304">
        <ele>410.02587890625</ele>
        <time>2019-04-14T09:07:09.000Z</time>
      </trkpt>
      <trkpt lat="47.58332" lon="6.73064">
        <ele>408.63397216797</ele>
        <time>2019-04-14T09:07:12.000Z</time>
      </trkpt>
      <trkpt lat="47.58336" lon="6.7309">
        <ele>407.38934326172</ele>
        <time>2019-04-14T09:07:15.000Z</time>
      </trkpt>
      <trkpt lat="47.58333" lon="6.73113">
        <ele>406.30209350586</ele>
        <time>2019-04-14T09:07:18.000Z</time>
      </trkpt>
      <trkpt lat="47.58337" lon="6.73139">
        <ele>404.72067260742</ele>
        <time>2019-04-14T09:07:21.000Z</time>
      </trkpt>
      <trkpt lat="47.58341" lon="6.73173">
        <ele>402.57952880859</ele>
        <time>2019-04-14T09:07:24.000Z</time>
      </trkpt>
      <trkpt lat="47.5834" lon="6.73199">
        <ele>400.10354614258</ele>
        <time>2019-04-14T09:07:27.000Z</time>
      </trkpt>
      <trkpt lat="47.58338" lon="6.73231">
        <ele>397.65292358398</ele>
        <time>2019-04-14T09:07:30.000Z</time>
      </trkpt>
      <trkpt lat="47.58339" lon="6.7327">
        <ele>394.67266845703</ele>
        <time>2019-04-14T09:07:33.000Z</time>
      </trkpt>
      <trkpt lat="47.58341" lon="6.73302">
        <ele>391.87384033203</ele>
        <time>2019-04-14T09:07:36.000Z</time>
      </trkpt>
      <trkpt lat="47.58345" lon="6.73336">
        <ele>389.1025390625</ele>
        <time>2019-04-14T09:07:39.000Z</time>
      </trkpt>
      <trkpt lat="47.58347" lon="6.73367">
        <ele>386.12066650391</ele>
        <time>2019-04-14T09:07:42.000Z</time>
      </trkpt>
      <trkpt lat="47.58344" lon="6.73394">
        <ele>383.33169555664</ele>
        <time>2019-04-14T09:07:45.000Z</time>
      </trkpt>
      <trkpt lat="47.58339" lon="6.73421">
        <ele>380.93524169922</ele>
        <time>2019-04-14T09:07:48.000Z</time>
      </trkpt>
      <trkpt lat="47.58339" lon="6.7345">
        <ele>378.3508605957</ele>
        <time>2019-04-14T09:07:51.000Z</time>
      </trkpt>
      <trkpt lat="47.58335" lon="6.7348">
        <ele>375.94180297852</ele>
        <time>2019-04-14T09:07:54.000Z</time>
      </trkpt>
      <trkpt lat="47.58326" lon="6.73509">
        <ele>373.46145629883</ele>
        <time>2019-04-14T09:07:57.000Z</time>
      </trkpt>
      <trkpt lat="47.58319" lon="6.73538">
        <ele>370.66082763672</ele>
        <time>2019-04-14T09:08:00.000Z</time>
      </trkpt>
      <trkpt lat="47.58306" lon="6.73563">
        <ele>367.60482788086</ele>
        <time>2019-04-14T09:08:03.000Z</time>
      </trkpt>
      <trkpt lat="47.58305" lon="6.73586">
        <ele>364.89001464844</ele>
        <time>2019-04-14T09:08:06.000Z</time>
      </trkpt>
      <trkpt lat="47.58315" lon="6.73608">
        <ele>362.36813354492</ele>
        <time>2019-04-14T09:08:09.000Z</time>
      </trkpt>
      <trkpt lat="47.58321" lon="6.73622">
        <ele>360.38110351562</ele>
        <time>2019-04-14T09:08:12.000Z</time>
      </trkpt>
      <trkpt lat="47.58321" lon="6.73627">
        <ele>358.93804931641</ele>
        <time>2019-04-14T09:08:15.000Z</time>
      </trkpt>
      <trkpt lat="47.58329" lon="6.73636">
        <ele>357.89855957031</ele>
        <time>2019-04-14T09:08:18.000Z</time>
      </trkpt>
      <trkpt lat="47.5834" lon="6.73642">
        <ele>356.88540649414</ele>
        <time>2019-04-14T09:08:21.000Z</time>
      </trkpt>
      <trkpt lat="47.58351" lon="6.73642">
        <ele>355.85653686523</ele>
        <time>2019-04-14T09:08:24.000Z</time>
      </trkpt>
      <trkpt lat="47.58358" lon="6.7364">
        <ele>354.81988525391</ele>
        <time>2019-04-14T09:08:27.000Z</time>
      </trkpt>
      <trkpt lat="47.58365" lon="6.73644">
        <ele>353.59820556641</ele>
        <time>2019-04-14T09:08:30.000Z</time>
      </trkpt>
      <trkpt lat="47.58368" lon="6.73653">
        <ele>352.32440185547</ele>
        <time>2019-04-14T09:08:33.000Z</time>
      </trkpt>
      <trkpt lat="47.5837" lon="6.73662">
        <ele>351.20166015625</ele>
        <time>2019-04-14T09:08:36.000Z</time>
      </trkpt>
      <trkpt lat="47.58369" lon="6.73672">
        <ele>350.41293334961</ele>
        <time>2019-04-14T09:08:39.000Z</time>
      </trkpt>
      <trkpt lat="47.58369" lon="6.7368">
        <ele>349.87835693359</ele>
        <time>2019-04-14T09:08:42.000Z</time>
      </trkpt>
      <trkpt lat="47.58367" lon="6.73685">
        <ele>349.68072509766</ele>
        <time>2019-04-14T09:08:45.000Z</time>
      </trkpt>
      <trkpt lat="47.58368" lon="6.7369">
        <ele>349.67346191406</ele>
        <time>2019-04-14T09:08:48.000Z</time>
      </trkpt>
      <trkpt lat="47.58368" lon="6.73698">
        <ele>349.84530639648</ele>
        <time>2019-04-14T09:08:51.000Z</time>
      </trkpt>
      <trkpt lat="47.58368" lon="6.73708">
        <ele>350.06121826172</ele>
        <time>2019-04-14T09:08:54.000Z</time>
      </trkpt>
      <trkpt lat="47.58368" lon="6.73715">
        <ele>350.28143310547</ele>
        <time>2019-04-14T09:08:57.000Z</time>
      </trkpt>
      <trkpt lat="47.58365" lon="6.73719">
        <ele>350.48648071289</ele>
        <time>2019-04-14T09:09:00.000Z</time>
      </trkpt>
      <trkpt lat="47.58361" lon="6.73723">
        <ele>350.77734375</ele>
        <time>2019-04-14T09:09:03.000Z</time>
      </trkpt>
      <trkpt lat="47.58357" lon="6.7373">
        <ele>351.11651611328</ele>
        <time>2019-04-14T09:09:06.000Z</time>
      </trkpt>
      <trkpt lat="47.58355" lon="6.73738">
        <ele>351.48867797852</ele>
        <time>2019-04-14T09:09:09.000Z</time>
      </trkpt>
      <trkpt lat="47.58351" lon="6.73744">
        <ele>351.88079833984</ele>
        <time>2019-04-14T09:09:12.000Z</time>
      </trkpt>
      <trkpt lat="47.58347" lon="6.73751">
        <ele>352.29046630859</ele>
        <time>2019-04-14T09:09:15.000Z</time>
      </trkpt>
      <trkpt lat="47.58345" lon="6.73756">
        <ele>352.68923950195</ele>
        <time>2019-04-14T09:09:18.000Z</time>
      </trkpt>
      <trkpt lat="47.58343" lon="6.73766">
        <ele>353.12829589844</ele>
        <time>2019-04-14T09:09:21.000Z</time>
      </trkpt>
      <trkpt lat="47.5834" lon="6.73772">
        <ele>353.59338378906</ele>
        <time>2019-04-14T09:09:24.000Z</time>
      </trkpt>
      <trkpt lat="47.58334" lon="6.73775">
        <ele>354.10440063477</ele>
        <time>2019-04-14T09:09:27.000Z</time>
      </trkpt>
      <trkpt lat="47.58329" lon="6.7378">
        <ele>354.45977783203</ele>
        <time>2019-04-14T09:09:30.000Z</time>
      </trkpt>
      <trkpt lat="47.58322" lon="6.7379">
        <ele>354.65447998047</ele>
        <time>2019-04-14T09:09:33.000Z</time>
      </trkpt>
      <trkpt lat="47.58315" lon="6.73798">
        <ele>354.60968017578</ele>
        <time>2019-04-14T09:09:36.000Z</time>
      </trkpt>
      <trkpt lat="47.58308" lon="6.73806">
        <ele>354.35626220703</ele>
        <time>2019-04-14T09:09:39.000Z</time>
      </trkpt>
      <trkpt lat="47.58302" lon="6.73814">
        <ele>353.8703918457</ele>
        <time>2019-04-14T09:09:42.000Z</time>
      </trkpt>
      <trkpt lat="47.58299" lon="6.73824">
        <ele>353.44277954102</ele>
        <time>2019-04-14T09:09:45.000Z</time>
      </trkpt>
      <trkpt lat="47.583" lon="6.73836">
        <ele>353.19271850586</ele>
        <time>2019-04-14T09:09:48.000Z</time>
      </trkpt>
      <trkpt lat="47.58302" lon="6.73848">
        <ele>353.20318603516</ele>
        <time>2019-04-14T09:09:51.000Z</time>
      </trkpt>
      <trkpt lat="47.58303" lon="6.73862">
        <ele>353.45474243164</ele>
        <time>2019-04-14T09:09:54.000Z</time>
      </trkpt>
      <trkpt lat="47.583" lon="6.73875">
        <ele>353.81890869141</ele>
        <time>2019-04-14T09:09:57.000Z</time>
      </trkpt>
      <trkpt lat="47.58298" lon="6.73888">
        <ele>354.23138427734</ele>
        <time>2019-04-14T09:10:00.000Z</time>
      </trkpt>
      <trkpt lat="47.58302" lon="6.73901">
        <ele>354.73547363281</ele>
        <time>2019-04-14T09:10:03.000Z</time>
      </trkpt>
      <trkpt lat="47.58304" lon="6.73912">
        <ele>355.25396728516</ele>
        <time>2019-04-14T09:10:06.000Z</time>
      </trkpt>
      <trkpt lat="47.58306" lon="6.73924">
        <ele>355.72421264648</ele>
        <time>2019-04-14T09:10:09.000Z</time>
      </trkpt>
      <trkpt lat="47.58308" lon="6.73937">
        <ele>356.27557373047</ele>
        <time>2019-04-14T09:10:12.000Z</time>
      </trkpt>
      <trkpt lat="47.5831" lon="6.73948">
        <ele>356.80819702148</ele>
        <time>2019-04-14T09:10:15.000Z</time>
      </trkpt>
      <trkpt lat="47.5831" lon="6.7396">
        <ele>357.11953735352</ele>
        <time>2019-04-14T09:10:18.000Z</time>
      </trkpt>
      <trkpt lat="47.58311" lon="6.73967">
        <ele>357.28564453125</ele>
        <time>2019-04-14T09:10:21.000Z</time>
      </trkpt>
      <trkpt lat="47.58313" lon="6.73979">
        <ele>357.42095947266</ele>
        <time>2019-04-14T09:10:24.000Z</time>
      </trkpt>
      <trkpt lat="47.58319" lon="6.73989">
        <ele>357.61303710938</ele>
        <time>2019-04-14T09:10:27.000Z</time>
      </trkpt>
      <trkpt lat="47.58328" lon="6.73992">
        <ele>358.03335571289</ele>
        <time>2019-04-14T09:10:30.000Z</time>
      </trkpt>
      <trkpt lat="47.58336" lon="6.73988">
        <ele>358.61614990234</ele>
        <time>2019-04-14T09:10:33.000Z</time>
      </trkpt>
      <trkpt lat="47.58344" lon="6.73984">
        <ele>359.16241455078</ele>
        <time>2019-04-14T09:10:36.000Z</time>
      </trkpt>
      <trkpt lat="47.58353" lon="6.73979">
        <ele>359.64486694336</ele>
        <time>2019-04-14T09:10:39.000Z</time>
      </trkpt>
      <trkpt lat="47.58361" lon="6.73975">
        <ele>359.97280883789</ele>
        <time>2019-04-14T09:10:42.000Z</time>
      </trkpt>
      <trkpt lat="47.5837" lon="6.73971">
        <ele>360.0302734375</ele>
        <time>2019-04-14T09:10:45.000Z</time>
      </trkpt>
      <trkpt lat="47.5838" lon="6.73965">
        <ele>359.93139648438</ele>
        <time>2019-04-14T09:10:48.000Z</time>
      </trkpt>
      <trkpt lat="47.58389" lon="6.73956">
        <ele>359.8505859375</ele>
        <time>2019-04-14T09:10:51.000Z</time>
      </trkpt>
      <trkpt lat="47.58395" lon="6.73942">
        <ele>359.82153320312</ele>
        <time>2019-04-14T09:10:54.000Z</time>
      </trkpt>
      <trkpt lat="47.584" lon="6.73932">
        <ele>359.84008789062</ele>
        <time>2019-04-14T09:10:57.000Z</time>
      </trkpt>
      <trkpt lat="47.58401" lon="6.73927">
        <ele>359.90112304688</ele>
        <time>2019-04-14T09:11:00.000Z</time>
      </trkpt>
      <trkpt lat="47.58404" lon="6.73925">
        <ele>359.9794921875</ele>
        <time>2019-04-14T09:11:03.000Z</time>
      </trkpt>
      <trkpt lat="47.58409" lon="6.73926">
        <ele>360.02661132812</ele>
        <time>2019-04-14T09:11:06.000Z</time>
      </trkpt>
      <trkpt lat="47.58414" lon="6.73932">
        <ele>359.98828125</ele>
        <time>2019-04-14T09:11:09.000Z</time>
      </trkpt>
      <trkpt lat="47.58418" lon="6.73934">
        <ele>359.7998046875</ele>
        <time>2019-04-14T09:11:12.000Z</time>
      </trkpt>
      <trkpt lat="47.58419" lon="6.73937">
        <ele>359.53359985352</ele>
        <time>2019-04-14T09:11:20.000Z</time>
      </trkpt>
      <trkpt lat="47.58422" lon="6.73946">
        <ele>359.08935546875</ele>
        <time>2019-04-14T09:11:23.000Z</time>
      </trkpt>
      <trkpt lat="47.58426" lon="6.73958">
        <ele>358.36273193359</ele>
        <time>2019-04-14T09:11:26.000Z</time>
      </trkpt>
      <trkpt lat="47.58436" lon="6.73972">
        <ele>357.08187866211</ele>
        <time>2019-04-14T09:11:29.000Z</time>
      </trkpt>
      <trkpt lat="47.58442" lon="6.73986">
        <ele>355.52334594727</ele>
        <time>2019-04-14T09:11:32.000Z</time>
      </trkpt>
      <trkpt lat="47.58448" lon="6.73998">
        <ele>353.63885498047</ele>
        <time>2019-04-14T09:11:35.000Z</time>
      </trkpt>
      <trkpt lat="47.58453" lon="6.74006">
        <ele>351.56362915039</ele>
        <time>2019-04-14T09:11:38.000Z</time>
      </trkpt>
      <trkpt lat="47.58462" lon="6.74009">
        <ele>349.25933837891</ele>
        <time>2019-04-14T09:11:41.000Z</time>
      </trkpt>
      <trkpt lat="47.58468" lon="6.74003">
        <ele>347.30484008789</ele>
        <time>2019-04-14T09:11:44.000Z</time>
      </trkpt>
      <trkpt lat="47.58469" lon="6.7399">
        <ele>345.82113647461</ele>
        <time>2019-04-14T09:11:47.000Z</time>
      </trkpt>
      <trkpt lat="47.5847" lon="6.73977">
        <ele>344.69873046875</ele>
        <time>2019-04-14T09:11:50.000Z</time>
      </trkpt>
      <trkpt lat="47.58472" lon="6.73963">
        <ele>343.87680053711</ele>
        <time>2019-04-14T09:11:53.000Z</time>
      </trkpt>
      <trkpt lat="47.58475" lon="6.73949">
        <ele>343.45687866211</ele>
        <time>2019-04-14T09:11:56.000Z</time>
      </trkpt>
      <trkpt lat="47.58475" lon="6.73936">
        <ele>343.33526611328</ele>
        <time>2019-04-14T09:11:59.000Z</time>
      </trkpt>
      <trkpt lat="47.58477" lon="6.73924">
        <ele>343.08633422852</ele>
        <time>2019-04-14T09:12:02.000Z</time>
      </trkpt>
      <trkpt lat="47.58479" lon="6.73913">
        <ele>342.75625610352</ele>
        <time>2019-04-14T09:12:05.000Z</time>
      </trkpt>
      <trkpt lat="47.58481" lon="6.73901">
        <ele>342.34576416016</ele>
        <time>2019-04-14T09:12:08.000Z</time>
      </trkpt>
      <trkpt lat="47.58482" lon="6.73889">
        <ele>341.95333862305</ele>
        <time>2019-04-14T09:12:11.000Z</time>
      </trkpt>
      <trkpt lat="47.58483" lon="6.73874">
        <ele>341.44018554688</ele>
        <time>2019-04-14T09:12:14.000Z</time>
      </trkpt>
      <trkpt lat="47.58483" lon="6.73858">
        <ele>340.96566772461</ele>
        <time>2019-04-14T09:12:17.000Z</time>
      </trkpt>
      <trkpt lat="47.58482" lon="6.73841">
        <ele>340.61126708984</ele>
        <time>2019-04-14T09:12:20.000Z</time>
      </trkpt>
      <trkpt lat="47.5848" lon="6.73825">
        <ele>340.40777587891</ele>
        <time>2019-04-14T09:12:23.000Z</time>
      </trkpt>
      <trkpt lat="47.58482" lon="6.73808">
        <ele>340.19122314453</ele>
        <time>2019-04-14T09:12:26.000Z</time>
      </trkpt>
      <trkpt lat="47.58485" lon="6.73791">
        <ele>339.85589599609</ele>
        <time>2019-04-14T09:12:29.000Z</time>
      </trkpt>
      <trkpt lat="47.58489" lon="6.73773">
        <ele>339.38052368164</ele>
        <time>2019-04-14T09:12:32.000Z</time>
      </trkpt>
      <trkpt lat="47.58492" lon="6.73757">
        <ele>338.76745605469</ele>
        <time>2019-04-14T09:12:35.000Z</time>
      </trkpt>
      <trkpt lat="47.58495" lon="6.73742">
        <ele>338.01092529297</ele>
        <time>2019-04-14T09:12:38.000Z</time>
      </trkpt>
      <trkpt lat="47.585" lon="6.73727">
        <ele>337.21957397461</ele>
        <time>2019-04-14T09:12:41.000Z</time>
      </trkpt>
      <trkpt lat="47.58507" lon="6.73715">
        <ele>336.51571655273</ele>
        <time>2019-04-14T09:12:44.000Z</time>
      </trkpt>
      <trkpt lat="47.58513" lon="6.73703">
        <ele>335.8779296875</ele>
        <time>2019-04-14T09:12:47.000Z</time>
      </trkpt>
      <trkpt lat="47.58519" lon="6.73693">
        <ele>335.27798461914</ele>
        <time>2019-04-14T09:12:50.000Z</time>
      </trkpt>
      <trkpt lat="47.58524" lon="6.73687">
        <ele>334.75985717773</ele>
        <time>2019-04-14T09:12:53.000Z</time>
      </trkpt>
      <trkpt lat="47.58525" lon="6.73686">
        <ele>334.39138793945</ele>
        <time>2019-04-14T09:12:56.000Z</time>
      </trkpt>
      <trkpt lat="47.58527" lon="6.73692">
        <ele>334.11651611328</ele>
        <time>2019-04-14T09:13:10.000Z</time>
      </trkpt>
      <trkpt lat="47.58528" lon="6.73694">
        <ele>333.93292236328</ele>
        <time>2019-04-14T09:13:14.000Z</time>
      </trkpt>
      <trkpt lat="47.58527" lon="6.73696">
        <ele>333.84091186523</ele>
        <time>2019-04-14T09:13:17.000Z</time>
      </trkpt>
      <trkpt lat="47.58525" lon="6.73697">
        <ele>333.83245849609</ele>
        <time>2019-04-14T09:13:20.000Z</time>
      </trkpt>
      <trkpt lat="47.58525" lon="6.73696">
        <ele>333.84594726562</ele>
        <time>2019-04-14T09:13:23.000Z</time>
      </trkpt>
      <trkpt lat="47.58527" lon="6.73695">
        <ele>333.85711669922</ele>
        <time>2019-04-14T09:13:26.000Z</time>
      </trkpt>
      <trkpt lat="47.5853" lon="6.73697">
        <ele>333.84051513672</ele>
        <time>2019-04-14T09:13:44.000Z</time>
      </trkpt>
      <trkpt lat="47.58531" lon="6.737">
        <ele>333.80117797852</ele>
        <time>2019-04-14T09:14:00.000Z</time>
      </trkpt>
      <trkpt lat="47.58531" lon="6.73698">
        <ele>333.7421875</ele>
        <time>2019-04-14T09:14:03.000Z</time>
      </trkpt>
      <trkpt lat="47.58531" lon="6.73694">
        <ele>333.67660522461</ele>
        <time>2019-04-14T09:14:20.000Z</time>
      </trkpt>
      <trkpt lat="47.58533" lon="6.73693">
        <ele>333.59851074219</ele>
        <time>2019-04-14T09:14:33.000Z</time>
      </trkpt>
      <trkpt lat="47.58533" lon="6.73692">
        <ele>333.55020141602</ele>
        <time>2019-04-14T09:14:40.000Z</time>
      </trkpt>
      <trkpt lat="47.58533" lon="6.73691">
        <ele>333.52243041992</ele>
        <time>2019-04-14T09:14:43.000Z</time>
      </trkpt>
      <trkpt lat="47.58532" lon="6.73689">
        <ele>333.49884033203</ele>
        <time>2019-04-14T09:14:46.000Z</time>
      </trkpt>
      <trkpt lat="47.58532" lon="6.73689">
        <ele>333.49884033203</ele>
        <time>2019-04-14T09:15:06.000Z</time>
      </trkpt>
      <trkpt lat="47.5853" lon="6.73688">
        <ele>333.50427246094</ele>
        <time>2019-04-14T09:15:30.000Z</time>
      </trkpt>
      <trkpt lat="47.58529" lon="6.73688">
        <ele>333.5500793457</ele>
        <time>2019-04-14T09:15:33.000Z</time>
      </trkpt>
      <trkpt lat="47.58531" lon="6.73689">
        <ele>333.57550048828</ele>
        <time>2019-04-14T09:15:39.000Z</time>
      </trkpt>
      <trkpt lat="47.58531" lon="6.73689">
        <ele>333.57550048828</ele>
        <time>2019-04-14T09:15:59.000Z</time>
      </trkpt>
      <trkpt lat="47.58532" lon="6.73696">
        <ele>333.59222412109</ele>
        <time>2019-04-14T09:16:42.000Z</time>
      </trkpt>
      <trkpt lat="47.58532" lon="6.73696">
        <ele>333.59222412109</ele>
        <time>2019-04-14T09:17:02.000Z</time>
      </trkpt>
      <trkpt lat="47.58533" lon="6.73698">
        <ele>333.58758544922</ele>
        <time>2019-04-14T09:17:10.000Z</time>
      </trkpt>
      <trkpt lat="47.58533" lon="6.73698">
        <ele>333.58758544922</ele>
        <time>2019-04-14T09:17:30.000Z</time>
      </trkpt>
      <trkpt lat="47.58533" lon="6.73696">
        <ele>333.55157470703</ele>
        <time>2019-04-14T09:18:49.000Z</time>
      </trkpt>
      <trkpt lat="47.58532" lon="6.73694">
        <ele>333.51986694336</ele>
        <time>2019-04-14T09:18:56.000Z</time>
      </trkpt>
      <trkpt lat="47.58534" lon="6.73693">
        <ele>333.48602294922</ele>
        <time>2019-04-14T09:19:10.000Z</time>
      </trkpt>
      <trkpt lat="47.58534" lon="6.73693">
        <ele>333.48602294922</ele>
        <time>2019-04-14T09:19:30.000Z</time>
      </trkpt>
      <trkpt lat="47.58534" lon="6.73696">
        <ele>333.45819091797</ele>
        <time>2019-04-14T09:22:04.000Z</time>
      </trkpt>
      <trkpt lat="47.58535" lon="6.73693">
        <ele>333.43780517578</ele>
        <time>2019-04-14T09:22:19.000Z</time>
      </trkpt>
      <trkpt lat="47.58535" lon="6.73693">
        <ele>333.43780517578</ele>
        <time>2019-04-14T09:22:39.000Z</time>
      </trkpt>
      <trkpt lat="47.58535" lon="6.73694">
        <ele>333.41418457031</ele>
        <time>2019-04-14T09:22:45.000Z</time>
      </trkpt>
      <trkpt lat="47.58533" lon="6.73696">
        <ele>333.41058349609</ele>
        <time>2019-04-14T09:22:54.000Z</time>
      </trkpt>
      <trkpt lat="47.58533" lon="6.73696">
        <ele>333.41058349609</ele>
        <time>2019-04-14T09:23:14.000Z</time>
      </trkpt>
      <trkpt lat="47.58533" lon="6.73698">
        <ele>333.42193603516</ele>
        <time>2019-04-14T09:23:21.000Z</time>
      </trkpt>
      <trkpt lat="47.58534" lon="6.73703">
        <ele>333.42495727539</ele>
        <time>2019-04-14T09:23:24.000Z</time>
      </trkpt>
      <trkpt lat="47.58534" lon="6.73706">
        <ele>333.43960571289</ele>
        <time>2019-04-14T09:23:27.000Z</time>
      </trkpt>
      <trkpt lat="47.58533" lon="6.7371">
        <ele>333.47454833984</ele>
        <time>2019-04-14T09:23:30.000Z</time>
      </trkpt>
      <trkpt lat="47.58533" lon="6.73706">
        <ele>333.47964477539</ele>
        <time>2019-04-14T09:23:33.000Z</time>
      </trkpt>
      <trkpt lat="47.58532" lon="6.73699">
        <ele>333.49383544922</ele>
        <time>2019-04-14T09:23:36.000Z</time>
      </trkpt>
      <trkpt lat="47.5853" lon="6.7369">
        <ele>333.54168701172</ele>
        <time>2019-04-14T09:23:39.000Z</time>
      </trkpt>
      <trkpt lat="47.58527" lon="6.73681">
        <ele>333.6025390625</ele>
        <time>2019-04-14T09:23:42.000Z</time>
      </trkpt>
      <trkpt lat="47.58526" lon="6.73672">
        <ele>333.65667724609</ele>
        <time>2019-04-14T09:23:45.000Z</time>
      </trkpt>
      <trkpt lat="47.58526" lon="6.73664">
        <ele>333.70281982422</ele>
        <time>2019-04-14T09:23:48.000Z</time>
      </trkpt>
      <trkpt lat="47.58528" lon="6.73653">
        <ele>333.72467041016</ele>
        <time>2019-04-14T09:23:51.000Z</time>
      </trkpt>
      <trkpt lat="47.58534" lon="6.73645">
        <ele>333.66143798828</ele>
        <time>2019-04-14T09:23:54.000Z</time>
      </trkpt>
      <trkpt lat="47.58541" lon="6.73641">
        <ele>333.51678466797</ele>
        <time>2019-04-14T09:23:56.000Z</time>
      </trkpt>
      <trkpt lat="47.58551" lon="6.7364">
        <ele>333.2734375</ele>
        <time>2019-04-14T09:23:58.000Z</time>
      </trkpt>
      <trkpt lat="47.58564" lon="6.73637">
        <ele>332.90234375</ele>
        <time>2019-04-14T09:24:01.000Z</time>
      </trkpt>
      <trkpt lat="47.58574" lon="6.73637">
        <ele>332.46875</ele>
        <time>2019-04-14T09:24:03.000Z</time>
      </trkpt>
      <trkpt lat="47.58587" lon="6.73634">
        <ele>332.00350952148</ele>
        <time>2019-04-14T09:24:06.000Z</time>
      </trkpt>
      <trkpt lat="47.58596" lon="6.73631">
        <ele>331.61352539062</ele>
        <time>2019-04-14T09:24:08.000Z</time>
      </trkpt>
      <trkpt lat="47.58605" lon="6.73629">
        <ele>331.3283996582</ele>
        <time>2019-04-14T09:24:10.000Z</time>
      </trkpt>
      <trkpt lat="47.58619" lon="6.73628">
        <ele>331.19277954102</ele>
        <time>2019-04-14T09:24:13.000Z</time>
      </trkpt>
      <trkpt lat="47.58632" lon="6.73627">
        <ele>331.1589050293</ele>
        <time>2019-04-14T09:24:16.000Z</time>
      </trkpt>
      <trkpt lat="47.58645" lon="6.73623">
        <ele>331.22467041016</ele>
        <time>2019-04-14T09:24:19.000Z</time>
      </trkpt>
      <trkpt lat="47.58658" lon="6.7362">
        <ele>331.28497314453</ele>
        <time>2019-04-14T09:24:22.000Z</time>
      </trkpt>
      <trkpt lat="47.5867" lon="6.73616">
        <ele>331.32730102539</ele>
        <time>2019-04-14T09:24:25.000Z</time>
      </trkpt>
      <trkpt lat="47.58684" lon="6.73614">
        <ele>331.32510375977</ele>
        <time>2019-04-14T09:24:28.000Z</time>
      </trkpt>
      <trkpt lat="47.58697" lon="6.73615">
        <ele>331.28451538086</ele>
        <time>2019-04-14T09:24:31.000Z</time>
      </trkpt>
      <trkpt lat="47.58701" lon="6.73622">
        <ele>331.23165893555</ele>
        <time>2019-04-14T09:24:33.000Z</time>
      </trkpt>
      <trkpt lat="47.58698" lon="6.73633">
        <ele>331.18209838867</ele>
        <time>2019-04-14T09:24:35.000Z</time>
      </trkpt>
      <trkpt lat="47.5869" lon="6.73649">
        <ele>331.18127441406</ele>
        <time>2019-04-14T09:24:38.000Z</time>
      </trkpt>
      <trkpt lat="47.58683" lon="6.73661">
        <ele>331.25128173828</ele>
        <time>2019-04-14T09:24:40.000Z</time>
      </trkpt>
      <trkpt lat="47.58672" lon="6.7368">
        <ele>331.34512329102</ele>
        <time>2019-04-14T09:24:43.000Z</time>
      </trkpt>
      <trkpt lat="47.58665" lon="6.73693">
        <ele>331.39752197266</ele>
        <time>2019-04-14T09:24:45.000Z</time>
      </trkpt>
      <trkpt lat="47.58656" lon="6.73714">
        <ele>331.33148193359</ele>
        <time>2019-04-14T09:24:48.000Z</time>
      </trkpt>
      <trkpt lat="47.58649" lon="6.73733">
        <ele>331.13464355469</ele>
        <time>2019-04-14T09:24:51.000Z</time>
      </trkpt>
      <trkpt lat="47.58645" lon="6.73744">
        <ele>330.84661865234</ele>
        <time>2019-04-14T09:24:53.000Z</time>
      </trkpt>
      <trkpt lat="47.58643" lon="6.73755">
        <ele>330.51388549805</ele>
        <time>2019-04-14T09:24:55.000Z</time>
      </trkpt>
      <trkpt lat="47.58638" lon="6.73772">
        <ele>330.17349243164</ele>
        <time>2019-04-14T09:24:58.000Z</time>
      </trkpt>
      <trkpt lat="47.58636" lon="6.73783">
        <ele>329.91131591797</ele>
        <time>2019-04-14T09:25:00.000Z</time>
      </trkpt>
      <trkpt lat="47.58629" lon="6.73799">
        <ele>329.70999145508</ele>
        <time>2019-04-14T09:25:03.000Z</time>
      </trkpt>
      <trkpt lat="47.58624" lon="6.73816">
        <ele>329.53326416016</ele>
        <time>2019-04-14T09:25:06.000Z</time>
      </trkpt>
      <trkpt lat="47.5862" lon="6.73827">
        <ele>329.38784790039</ele>
        <time>2019-04-14T09:25:08.000Z</time>
      </trkpt>
      <trkpt lat="47.58616" lon="6.73845">
        <ele>329.29449462891</ele>
        <time>2019-04-14T09:25:11.000Z</time>
      </trkpt>
      <trkpt lat="47.58614" lon="6.73856">
        <ele>329.2333984375</ele>
        <time>2019-04-14T09:25:13.000Z</time>
      </trkpt>
      <trkpt lat="47.58611" lon="6.73868">
        <ele>329.20092773438</ele>
        <time>2019-04-14T09:25:15.000Z</time>
      </trkpt>
      <trkpt lat="47.58607" lon="6.73884">
        <ele>329.18618774414</ele>
        <time>2019-04-14T09:25:18.000Z</time>
      </trkpt>
      <trkpt lat="47.58604" lon="6.73893">
        <ele>329.17874145508</ele>
        <time>2019-04-14T09:25:20.000Z</time>
      </trkpt>
      <trkpt lat="47.58601" lon="6.73907">
        <ele>329.15557861328</ele>
        <time>2019-04-14T09:25:23.000Z</time>
      </trkpt>
      <trkpt lat="47.58596" lon="6.73923">
        <ele>329.11630249023</ele>
        <time>2019-04-14T09:25:26.000Z</time>
      </trkpt>
      <trkpt lat="47.58593" lon="6.73935">
        <ele>329.07650756836</ele>
        <time>2019-04-14T09:25:28.000Z</time>
      </trkpt>
      <trkpt lat="47.58587" lon="6.73953">
        <ele>329.04260253906</ele>
        <time>2019-04-14T09:25:31.000Z</time>
      </trkpt>
      <trkpt lat="47.58582" lon="6.73963">
        <ele>329.04113769531</ele>
        <time>2019-04-14T09:25:33.000Z</time>
      </trkpt>
      <trkpt lat="47.58575" lon="6.73979">
        <ele>329.15823364258</ele>
        <time>2019-04-14T09:25:36.000Z</time>
      </trkpt>
      <trkpt lat="47.5857" lon="6.73991">
        <ele>329.35748291016</ele>
        <time>2019-04-14T09:25:38.000Z</time>
      </trkpt>
      <trkpt lat="47.5856" lon="6.7401">
        <ele>329.65420532227</ele>
        <time>2019-04-14T09:25:41.000Z</time>
      </trkpt>
      <trkpt lat="47.58556" lon="6.74026">
        <ele>329.94918823242</ele>
        <time>2019-04-14T09:25:43.000Z</time>
      </trkpt>
      <trkpt lat="47.58554" lon="6.74043">
        <ele>330.16058349609</ele>
        <time>2019-04-14T09:25:45.000Z</time>
      </trkpt>
      <trkpt lat="47.58551" lon="6.7406">
        <ele>330.21697998047</ele>
        <time>2019-04-14T09:25:47.000Z</time>
      </trkpt>
      <trkpt lat="47.58547" lon="6.74077">
        <ele>330.13931274414</ele>
        <time>2019-04-14T09:25:49.000Z</time>
      </trkpt>
      <trkpt lat="47.58543" lon="6.74094">
        <ele>329.94061279297</ele>
        <time>2019-04-14T09:25:51.000Z</time>
      </trkpt>
      <trkpt lat="47.58537" lon="6.74121">
        <ele>329.75732421875</ele>
        <time>2019-04-14T09:25:54.000Z</time>
      </trkpt>
      <trkpt lat="47.58534" lon="6.74137">
        <ele>329.63586425781</ele>
        <time>2019-04-14T09:25:56.000Z</time>
      </trkpt>
      <trkpt lat="47.58531" lon="6.74152">
        <ele>329.57427978516</ele>
        <time>2019-04-14T09:25:58.000Z</time>
      </trkpt>
      <trkpt lat="47.58528" lon="6.74164">
        <ele>329.5849609375</ele>
        <time>2019-04-14T09:26:00.000Z</time>
      </trkpt>
      <trkpt lat="47.58525" lon="6.74179">
        <ele>329.71072387695</ele>
        <time>2019-04-14T09:26:03.000Z</time>
      </trkpt>
      <trkpt lat="47.58523" lon="6.74188">
        <ele>329.88775634766</ele>
        <time>2019-04-14T09:26:06.000Z</time>
      </trkpt>
      <trkpt lat="47.58524" lon="6.74189">
        <ele>330.06329345703</ele>
        <time>2019-04-14T09:26:08.000Z</time>
      </trkpt>
      <trkpt lat="47.58525" lon="6.7419">
        <ele>330.23382568359</ele>
        <time>2019-04-14T09:26:13.000Z</time>
      </trkpt>
      <trkpt lat="47.58523" lon="6.74196">
        <ele>330.44940185547</ele>
        <time>2019-04-14T09:26:16.000Z</time>
      </trkpt>
      <trkpt lat="47.58522" lon="6.74199">
        <ele>330.59802246094</ele>
        <time>2019-04-14T09:26:18.000Z</time>
      </trkpt>
      <trkpt lat="47.58521" lon="6.742">
        <ele>330.69467163086</ele>
        <time>2019-04-14T09:26:30.000Z</time>
      </trkpt>
      <trkpt lat="47.5852" lon="6.74203">
        <ele>330.82275390625</ele>
        <time>2019-04-14T09:26:33.000Z</time>
      </trkpt>
      <trkpt lat="47.58517" lon="6.74206">
        <ele>330.98315429688</ele>
        <time>2019-04-14T09:26:35.000Z</time>
      </trkpt>
      <trkpt lat="47.58511" lon="6.7421">
        <ele>331.16934204102</ele>
        <time>2019-04-14T09:26:38.000Z</time>
      </trkpt>
      <trkpt lat="47.58516" lon="6.74216">
        <ele>331.34423828125</ele>
        <time>2019-04-14T09:26:41.000Z</time>
      </trkpt>
      <trkpt lat="47.58567" lon="6.74231">
        <ele>331.12344360352</ele>
        <time>2019-04-14T09:26:55.000Z</time>
      </trkpt>
      <trkpt lat="47.58571" lon="6.74242">
        <ele>330.83990478516</ele>
        <time>2019-04-14T09:26:58.000Z</time>
      </trkpt>
      <trkpt lat="47.58567" lon="6.74256">
        <ele>330.67932128906</ele>
        <time>2019-04-14T09:27:01.000Z</time>
      </trkpt>
      <trkpt lat="47.58564" lon="6.74272">
        <ele>330.70208740234</ele>
        <time>2019-04-14T09:27:04.000Z</time>
      </trkpt>
      <trkpt lat="47.58559" lon="6.74285">
        <ele>330.98007202148</ele>
        <time>2019-04-14T09:27:07.000Z</time>
      </trkpt>
      <trkpt lat="47.58556" lon="6.74297">
        <ele>331.90112304688</ele>
        <time>2019-04-14T09:27:10.000Z</time>
      </trkpt>
      <trkpt lat="47.58553" lon="6.74308">
        <ele>333.08990478516</ele>
        <time>2019-04-14T09:27:13.000Z</time>
      </trkpt>
      <trkpt lat="47.58549" lon="6.74319">
        <ele>334.37084960938</ele>
        <time>2019-04-14T09:27:16.000Z</time>
      </trkpt>
      <trkpt lat="47.58547" lon="6.7433">
        <ele>335.6286315918</ele>
        <time>2019-04-14T09:27:19.000Z</time>
      </trkpt>
      <trkpt lat="47.58545" lon="6.74342">
        <ele>336.85076904297</ele>
        <time>2019-04-14T09:27:22.000Z</time>
      </trkpt>
      <trkpt lat="47.58544" lon="6.74352">
        <ele>337.99261474609</ele>
        <time>2019-04-14T09:27:25.000Z</time>
      </trkpt>
      <trkpt lat="47.58543" lon="6.74361">
        <ele>339.0432434082</ele>
        <time>2019-04-14T09:27:28.000Z</time>
      </trkpt>
      <trkpt lat="47.58541" lon="6.7437">
        <ele>340.00149536133</ele>
        <time>2019-04-14T09:27:31.000Z</time>
      </trkpt>
      <trkpt lat="47.5854" lon="6.74377">
        <ele>340.86358642578</ele>
        <time>2019-04-14T09:27:34.000Z</time>
      </trkpt>
      <trkpt lat="47.58538" lon="6.74385">
        <ele>341.63885498047</ele>
        <time>2019-04-14T09:27:37.000Z</time>
      </trkpt>
      <trkpt lat="47.58537" lon="6.74393">
        <ele>342.37686157227</ele>
        <time>2019-04-14T09:27:40.000Z</time>
      </trkpt>
      <trkpt lat="47.58535" lon="6.74402">
        <ele>343.10739135742</ele>
        <time>2019-04-14T09:27:43.000Z</time>
      </trkpt>
      <trkpt lat="47.58534" lon="6.7441">
        <ele>343.82479858398</ele>
        <time>2019-04-14T09:27:46.000Z</time>
      </trkpt>
      <trkpt lat="47.58533" lon="6.74419">
        <ele>344.53555297852</ele>
        <time>2019-04-14T09:27:49.000Z</time>
      </trkpt>
      <trkpt lat="47.58532" lon="6.74427">
        <ele>345.23333740234</ele>
        <time>2019-04-14T09:27:52.000Z</time>
      </trkpt>
      <trkpt lat="47.58531" lon="6.74435">
        <ele>345.9055480957</ele>
        <time>2019-04-14T09:27:55.000Z</time>
      </trkpt>
      <trkpt lat="47.58531" lon="6.74444">
        <ele>346.54702758789</ele>
        <time>2019-04-14T09:27:58.000Z</time>
      </trkpt>
      <trkpt lat="47.58531" lon="6.74452">
        <ele>347.14227294922</ele>
        <time>2019-04-14T09:28:01.000Z</time>
      </trkpt>
      <trkpt lat="47.5853" lon="6.74461">
        <ele>347.71600341797</ele>
        <time>2019-04-14T09:28:04.000Z</time>
      </trkpt>
      <trkpt lat="47.5853" lon="6.74469">
        <ele>348.27032470703</ele>
        <time>2019-04-14T09:28:07.000Z</time>
      </trkpt>
      <trkpt lat="47.58529" lon="6.74478">
        <ele>348.8132019043</ele>
        <time>2019-04-14T09:28:10.000Z</time>
      </trkpt>
      <trkpt lat="47.58529" lon="6.74487">
        <ele>349.36083984375</ele>
        <time>2019-04-14T09:28:13.000Z</time>
      </trkpt>
      <trkpt lat="47.58528" lon="6.74495">
        <ele>349.9196472168</ele>
        <time>2019-04-14T09:28:16.000Z</time>
      </trkpt>
      <trkpt lat="47.58527" lon="6.74504">
        <ele>350.46258544922</ele>
        <time>2019-04-14T09:28:19.000Z</time>
      </trkpt>
      <trkpt lat="47.58527" lon="6.74513">
        <ele>350.97463989258</ele>
        <time>2019-04-14T09:28:22.000Z</time>
      </trkpt>
      <trkpt lat="47.58526" lon="6.74521">
        <ele>351.46038818359</ele>
        <time>2019-04-14T09:28:25.000Z</time>
      </trkpt>
      <trkpt lat="47.58525" lon="6.7453">
        <ele>351.91339111328</ele>
        <time>2019-04-14T09:28:28.000Z</time>
      </trkpt>
      <trkpt lat="47.58525" lon="6.74539">
        <ele>352.33666992188</ele>
        <time>2019-04-14T09:28:31.000Z</time>
      </trkpt>
      <trkpt lat="47.58525" lon="6.74548">
        <ele>352.73916625977</ele>
        <time>2019-04-14T09:28:34.000Z</time>
      </trkpt>
      <trkpt lat="47.58524" lon="6.74557">
        <ele>353.13534545898</ele>
        <time>2019-04-14T09:28:37.000Z</time>
      </trkpt>
      <trkpt lat="47.58524" lon="6.74566">
        <ele>353.5227355957</ele>
        <time>2019-04-14T09:28:40.000Z</time>
      </trkpt>
      <trkpt lat="47.58524" lon="6.74575">
        <ele>353.90142822266</ele>
        <time>2019-04-14T09:28:43.000Z</time>
      </trkpt>
      <trkpt lat="47.58524" lon="6.74583">
        <ele>354.2724609375</ele>
        <time>2019-04-14T09:28:46.000Z</time>
      </trkpt>
      <trkpt lat="47.58524" lon="6.74592">
        <ele>354.60931396484</ele>
        <time>2019-04-14T09:28:49.000Z</time>
      </trkpt>
      <trkpt lat="47.58523" lon="6.74601">
        <ele>354.91098022461</ele>
        <time>2019-04-14T09:28:52.000Z</time>
      </trkpt>
      <trkpt lat="47.58523" lon="6.74611">
        <ele>355.18444824219</ele>
        <time>2019-04-14T09:28:55.000Z</time>
      </trkpt>
      <trkpt lat="47.58524" lon="6.7462">
        <ele>355.4296875</ele>
        <time>2019-04-14T09:28:58.000Z</time>
      </trkpt>
      <trkpt lat="47.58524" lon="6.74628">
        <ele>355.64459228516</ele>
        <time>2019-04-14T09:29:01.000Z</time>
      </trkpt>
      <trkpt lat="47.58524" lon="6.74638">
        <ele>355.86074829102</ele>
        <time>2019-04-14T09:29:04.000Z</time>
      </trkpt>
      <trkpt lat="47.58524" lon="6.74647">
        <ele>356.08074951172</ele>
        <time>2019-04-14T09:29:07.000Z</time>
      </trkpt>
      <trkpt lat="47.58524" lon="6.74656">
        <ele>356.30337524414</ele>
        <time>2019-04-14T09:29:10.000Z</time>
      </trkpt>
      <trkpt lat="47.58524" lon="6.74665">
        <ele>356.52264404297</ele>
        <time>2019-04-14T09:29:13.000Z</time>
      </trkpt>
      <trkpt lat="47.58523" lon="6.74674">
        <ele>356.74444580078</ele>
        <time>2019-04-14T09:29:16.000Z</time>
      </trkpt>
      <trkpt lat="47.58523" lon="6.74683">
        <ele>356.97998046875</ele>
        <time>2019-04-14T09:29:19.000Z</time>
      </trkpt>
      <trkpt lat="47.58523" lon="6.74691">
        <ele>357.22616577148</ele>
        <time>2019-04-14T09:29:22.000Z</time>
      </trkpt>
      <trkpt lat="47.58524" lon="6.747">
        <ele>357.49069213867</ele>
        <time>2019-04-14T09:29:25.000Z</time>
      </trkpt>
      <trkpt lat="47.58525" lon="6.74708">
        <ele>357.79434204102</ele>
        <time>2019-04-14T09:29:28.000Z</time>
      </trkpt>
      <trkpt lat="47.58529" lon="6.74715">
        <ele>358.20223999023</ele>
        <time>2019-04-14T09:29:31.000Z</time>
      </trkpt>
      <trkpt lat="47.58534" lon="6.74721">
        <ele>358.73590087891</ele>
        <time>2019-04-14T09:29:34.000Z</time>
      </trkpt>
      <trkpt lat="47.58541" lon="6.74725">
        <ele>359.43670654297</ele>
        <time>2019-04-14T09:29:37.000Z</time>
      </trkpt>
      <trkpt lat="47.5855" lon="6.74732">
        <ele>360.38226318359</ele>
        <time>2019-04-14T09:29:40.000Z</time>
      </trkpt>
      <trkpt lat="47.58558" lon="6.74742">
        <ele>361.59063720703</ele>
        <time>2019-04-14T09:29:43.000Z</time>
      </trkpt>
      <trkpt lat="47.58565" lon="6.74754">
        <ele>363.01440429688</ele>
        <time>2019-04-14T09:29:46.000Z</time>
      </trkpt>
      <trkpt lat="47.58571" lon="6.74769">
        <ele>364.57772827148</ele>
        <time>2019-04-14T09:29:49.000Z</time>
      </trkpt>
      <trkpt lat="47.58574" lon="6.74784">
        <ele>366.11322021484</ele>
        <time>2019-04-14T09:29:52.000Z</time>
      </trkpt>
      <trkpt lat="47.58571" lon="6.74798">
        <ele>367.37854003906</ele>
        <time>2019-04-14T09:29:55.000Z</time>
      </trkpt>
      <trkpt lat="47.58566" lon="6.74813">
        <ele>368.24514770508</ele>
        <time>2019-04-14T09:29:58.000Z</time>
      </trkpt>
      <trkpt lat="47.58565" lon="6.74829">
        <ele>368.84823608398</ele>
        <time>2019-04-14T09:30:01.000Z</time>
      </trkpt>
      <trkpt lat="47.58567" lon="6.74843">
        <ele>369.13806152344</ele>
        <time>2019-04-14T09:30:04.000Z</time>
      </trkpt>
      <trkpt lat="47.58569" lon="6.74856">
        <ele>369.20275878906</ele>
        <time>2019-04-14T09:30:07.000Z</time>
      </trkpt>
      <trkpt lat="47.58571" lon="6.74868">
        <ele>369.18533325195</ele>
        <time>2019-04-14T09:30:10.000Z</time>
      </trkpt>
      <trkpt lat="47.58573" lon="6.74879">
        <ele>369.16656494141</ele>
        <time>2019-04-14T09:30:13.000Z</time>
      </trkpt>
      <trkpt lat="47.58573" lon="6.74891">
        <ele>368.92156982422</ele>
        <time>2019-04-14T09:30:16.000Z</time>
      </trkpt>
      <trkpt lat="47.58574" lon="6.74905">
        <ele>368.54153442383</ele>
        <time>2019-04-14T09:30:19.000Z</time>
      </trkpt>
      <trkpt lat="47.58575" lon="6.74919">
        <ele>368.12237548828</ele>
        <time>2019-04-14T09:30:22.000Z</time>
      </trkpt>
      <trkpt lat="47.58575" lon="6.74934">
        <ele>367.88775634766</ele>
        <time>2019-04-14T09:30:25.000Z</time>
      </trkpt>
      <trkpt lat="47.58576" lon="6.74948">
        <ele>367.83819580078</ele>
        <time>2019-04-14T09:30:28.000Z</time>
      </trkpt>
      <trkpt lat="47.58576" lon="6.74963">
        <ele>368.05844116211</ele>
        <time>2019-04-14T09:30:31.000Z</time>
      </trkpt>
      <trkpt lat="47.58577" lon="6.74979">
        <ele>368.56292724609</ele>
        <time>2019-04-14T09:30:34.000Z</time>
      </trkpt>
      <trkpt lat="47.58578" lon="6.74994">
        <ele>369.28945922852</ele>
        <time>2019-04-14T09:30:37.000Z</time>
      </trkpt>
      <trkpt lat="47.58574" lon="6.75007">
        <ele>369.86978149414</ele>
        <time>2019-04-14T09:30:40.000Z</time>
      </trkpt>
      <trkpt lat="47.5857" lon="6.7502">
        <ele>370.27044677734</ele>
        <time>2019-04-14T09:30:43.000Z</time>
      </trkpt>
      <trkpt lat="47.58567" lon="6.75034">
        <ele>370.54852294922</ele>
        <time>2019-04-14T09:30:46.000Z</time>
      </trkpt>
      <trkpt lat="47.58567" lon="6.75049">
        <ele>370.78448486328</ele>
        <time>2019-04-14T09:30:49.000Z</time>
      </trkpt>
      <trkpt lat="47.5857" lon="6.75063">
        <ele>371.09301757812</ele>
        <time>2019-04-14T09:30:52.000Z</time>
      </trkpt>
      <trkpt lat="47.58574" lon="6.75075">
        <ele>371.65814208984</ele>
        <time>2019-04-14T09:30:55.000Z</time>
      </trkpt>
      <trkpt lat="47.58578" lon="6.75089">
        <ele>372.50274658203</ele>
        <time>2019-04-14T09:30:58.000Z</time>
      </trkpt>
      <trkpt lat="47.58582" lon="6.75102">
        <ele>373.40267944336</ele>
        <time>2019-04-14T09:31:01.000Z</time>
      </trkpt>
      <trkpt lat="47.58587" lon="6.75114">
        <ele>374.30584716797</ele>
        <time>2019-04-14T09:31:04.000Z</time>
      </trkpt>
      <trkpt lat="47.5859" lon="6.75126">
        <ele>375.11505126953</ele>
        <time>2019-04-14T09:31:07.000Z</time>
      </trkpt>
      <trkpt lat="47.58594" lon="6.75137">
        <ele>375.78887939453</ele>
        <time>2019-04-14T09:31:10.000Z</time>
      </trkpt>
      <trkpt lat="47.58599" lon="6.75148">
        <ele>376.39373779297</ele>
        <time>2019-04-14T09:31:13.000Z</time>
      </trkpt>
      <trkpt lat="47.58602" lon="6.75159">
        <ele>377.00610351562</ele>
        <time>2019-04-14T09:31:16.000Z</time>
      </trkpt>
      <trkpt lat="47.58603" lon="6.75171">
        <ele>377.4743347168</ele>
        <time>2019-04-14T09:31:19.000Z</time>
      </trkpt>
      <trkpt lat="47.58602" lon="6.75187">
        <ele>377.64068603516</ele>
        <time>2019-04-14T09:31:22.000Z</time>
      </trkpt>
      <trkpt lat="47.5859" lon="6.75206">
        <ele>377.06768798828</ele>
        <time>2019-04-14T09:31:25.000Z</time>
      </trkpt>
      <trkpt lat="47.58571" lon="6.75214">
        <ele>375.62643432617</ele>
        <time>2019-04-14T09:31:28.000Z</time>
      </trkpt>
      <trkpt lat="47.58548" lon="6.75223">
        <ele>373.35586547852</ele>
        <time>2019-04-14T09:31:31.000Z</time>
      </trkpt>
      <trkpt lat="47.58538" lon="6.75248">
        <ele>370.73187255859</ele>
        <time>2019-04-14T09:31:34.000Z</time>
      </trkpt>
      <trkpt lat="47.58539" lon="6.75277">
        <ele>368.44940185547</ele>
        <time>2019-04-14T09:31:37.000Z</time>
      </trkpt>
      <trkpt lat="47.58539" lon="6.753">
        <ele>366.89657592773</ele>
        <time>2019-04-14T09:31:40.000Z</time>
      </trkpt>
      <trkpt lat="47.58541" lon="6.75321">
        <ele>366.22708129883</ele>
        <time>2019-04-14T09:31:43.000Z</time>
      </trkpt>
      <trkpt lat="47.58542" lon="6.75341">
        <ele>366.41351318359</ele>
        <time>2019-04-14T09:31:46.000Z</time>
      </trkpt>
      <trkpt lat="47.58544" lon="6.75357">
        <ele>367.10873413086</ele>
        <time>2019-04-14T09:31:49.000Z</time>
      </trkpt>
      <trkpt lat="47.58546" lon="6.75374">
        <ele>367.77749633789</ele>
        <time>2019-04-14T09:31:52.000Z</time>
      </trkpt>
      <trkpt lat="47.58548" lon="6.75391">
        <ele>368.48709106445</ele>
        <time>2019-04-14T09:31:55.000Z</time>
      </trkpt>
      <trkpt lat="47.5855" lon="6.75407">
        <ele>369.15426635742</ele>
        <time>2019-04-14T09:31:58.000Z</time>
      </trkpt>
      <trkpt lat="47.58552" lon="6.75423">
        <ele>369.78994750977</ele>
        <time>2019-04-14T09:32:01.000Z</time>
      </trkpt>
      <trkpt lat="47.58554" lon="6.75439">
        <ele>370.32015991211</ele>
        <time>2019-04-14T09:32:04.000Z</time>
      </trkpt>
      <trkpt lat="47.58555" lon="6.75456">
        <ele>370.70785522461</ele>
        <time>2019-04-14T09:32:07.000Z</time>
      </trkpt>
      <trkpt lat="47.58556" lon="6.75474">
        <ele>370.9514465332</ele>
        <time>2019-04-14T09:32:10.000Z</time>
      </trkpt>
      <trkpt lat="47.58556" lon="6.75493">
        <ele>371.05493164062</ele>
        <time>2019-04-14T09:32:13.000Z</time>
      </trkpt>
      <trkpt lat="47.58557" lon="6.75512">
        <ele>371.05279541016</ele>
        <time>2019-04-14T09:32:16.000Z</time>
      </trkpt>
      <trkpt lat="47.58558" lon="6.7553">
        <ele>370.97933959961</ele>
        <time>2019-04-14T09:32:19.000Z</time>
      </trkpt>
      <trkpt lat="47.58559" lon="6.7555">
        <ele>370.87692260742</ele>
        <time>2019-04-14T09:32:22.000Z</time>
      </trkpt>
      <trkpt lat="47.58561" lon="6.75568">
        <ele>370.72454833984</ele>
        <time>2019-04-14T09:32:25.000Z</time>
      </trkpt>
      <trkpt lat="47.58565" lon="6.75586">
        <ele>370.59008789062</ele>
        <time>2019-04-14T09:32:28.000Z</time>
      </trkpt>
      <trkpt lat="47.58569" lon="6.75603">
        <ele>370.47451782227</ele>
        <time>2019-04-14T09:32:31.000Z</time>
      </trkpt>
      <trkpt lat="47.58574" lon="6.7562">
        <ele>370.4114074707</ele>
        <time>2019-04-14T09:32:34.000Z</time>
      </trkpt>
      <trkpt lat="47.58578" lon="6.75637">
        <ele>370.36102294922</ele>
        <time>2019-04-14T09:32:37.000Z</time>
      </trkpt>
      <trkpt lat="47.58583" lon="6.75655">
        <ele>370.34243774414</ele>
        <time>2019-04-14T09:32:40.000Z</time>
      </trkpt>
      <trkpt lat="47.58586" lon="6.75672">
        <ele>370.33435058594</ele>
        <time>2019-04-14T09:32:43.000Z</time>
      </trkpt>
      <trkpt lat="47.58591" lon="6.75694">
        <ele>370.42083740234</ele>
        <time>2019-04-14T09:32:46.000Z</time>
      </trkpt>
      <trkpt lat="47.58593" lon="6.75716">
        <ele>370.53570556641</ele>
        <time>2019-04-14T09:32:49.000Z</time>
      </trkpt>
      <trkpt lat="47.58597" lon="6.75737">
        <ele>370.72924804688</ele>
        <time>2019-04-14T09:32:52.000Z</time>
      </trkpt>
      <trkpt lat="47.58599" lon="6.75755">
        <ele>370.97918701172</ele>
        <time>2019-04-14T09:32:55.000Z</time>
      </trkpt>
      <trkpt lat="47.58602" lon="6.75775">
        <ele>371.26077270508</ele>
        <time>2019-04-14T09:32:58.000Z</time>
      </trkpt>
      <trkpt lat="47.58606" lon="6.75796">
        <ele>371.54840087891</ele>
        <time>2019-04-14T09:33:01.000Z</time>
      </trkpt>
      <trkpt lat="47.58609" lon="6.75817">
        <ele>371.85092163086</ele>
        <time>2019-04-14T09:33:04.000Z</time>
      </trkpt>
      <trkpt lat="47.58611" lon="6.75836">
        <ele>372.11889648438</ele>
        <time>2019-04-14T09:33:07.000Z</time>
      </trkpt>
      <trkpt lat="47.58615" lon="6.75855">
        <ele>372.44677734375</ele>
        <time>2019-04-14T09:33:10.000Z</time>
      </trkpt>
      <trkpt lat="47.58619" lon="6.75872">
        <ele>372.79937744141</ele>
        <time>2019-04-14T09:33:13.000Z</time>
      </trkpt>
      <trkpt lat="47.5862" lon="6.7589">
        <ele>373.09088134766</ele>
        <time>2019-04-14T09:33:16.000Z</time>
      </trkpt>
      <trkpt lat="47.58623" lon="6.75909">
        <ele>373.35687255859</ele>
        <time>2019-04-14T09:33:19.000Z</time>
      </trkpt>
      <trkpt lat="47.58625" lon="6.75928">
        <ele>373.67340087891</ele>
        <time>2019-04-14T09:33:22.000Z</time>
      </trkpt>
      <trkpt lat="47.58627" lon="6.75948">
        <ele>373.99645996094</ele>
        <time>2019-04-14T09:33:25.000Z</time>
      </trkpt>
      <trkpt lat="47.58633" lon="6.75967">
        <ele>374.38739013672</ele>
        <time>2019-04-14T09:33:28.000Z</time>
      </trkpt>
      <trkpt lat="47.58636" lon="6.75983">
        <ele>374.84475708008</ele>
        <time>2019-04-14T09:33:31.000Z</time>
      </trkpt>
      <trkpt lat="47.58643" lon="6.76">
        <ele>375.39352416992</ele>
        <time>2019-04-14T09:33:34.000Z</time>
      </trkpt>
      <trkpt lat="47.58647" lon="6.76016">
        <ele>375.88662719727</ele>
        <time>2019-04-14T09:33:37.000Z</time>
      </trkpt>
      <trkpt lat="47.5865" lon="6.76031">
        <ele>376.2815246582</ele>
        <time>2019-04-14T09:33:40.000Z</time>
      </trkpt>
      <trkpt lat="47.58651" lon="6.76047">
        <ele>376.50213623047</ele>
        <time>2019-04-14T09:33:43.000Z</time>
      </trkpt>
      <trkpt lat="47.5865" lon="6.76061">
        <ele>376.58865356445</ele>
        <time>2019-04-14T09:33:46.000Z</time>
      </trkpt>
      <trkpt lat="47.58649" lon="6.76069">
        <ele>376.53546142578</ele>
        <time>2019-04-14T09:33:49.000Z</time>
      </trkpt>
      <trkpt lat="47.58649" lon="6.76077">
        <ele>376.43939208984</ele>
        <time>2019-04-14T09:33:52.000Z</time>
      </trkpt>
      <trkpt lat="47.58651" lon="6.76084">
        <ele>376.35586547852</ele>
        <time>2019-04-14T09:33:55.000Z</time>
      </trkpt>
      <trkpt lat="47.58658" lon="6.76088">
        <ele>376.38162231445</ele>
        <time>2019-04-14T09:33:58.000Z</time>
      </trkpt>
      <trkpt lat="47.58664" lon="6.76091">
        <ele>376.50973510742</ele>
        <time>2019-04-14T09:34:01.000Z</time>
      </trkpt>
      <trkpt lat="47.5867" lon="6.76095">
        <ele>376.78631591797</ele>
        <time>2019-04-14T09:34:04.000Z</time>
      </trkpt>
      <trkpt lat="47.58676" lon="6.76099">
        <ele>377.21719360352</ele>
        <time>2019-04-14T09:34:07.000Z</time>
      </trkpt>
      <trkpt lat="47.5868" lon="6.76106">
        <ele>377.74691772461</ele>
        <time>2019-04-14T09:34:10.000Z</time>
      </trkpt>
      <trkpt lat="47.58676" lon="6.76124">
        <ele>378.19088745117</ele>
        <time>2019-04-14T09:34:13.000Z</time>
      </trkpt>
      <trkpt lat="47.58673" lon="6.76148">
        <ele>378.61239624023</ele>
        <time>2019-04-14T09:34:16.000Z</time>
      </trkpt>
      <trkpt lat="47.58677" lon="6.7617">
        <ele>379.10064697266</ele>
        <time>2019-04-14T09:34:19.000Z</time>
      </trkpt>
      <trkpt lat="47.58683" lon="6.76185">
        <ele>379.67468261719</ele>
        <time>2019-04-14T09:34:22.000Z</time>
      </trkpt>
      <trkpt lat="47.58686" lon="6.762">
        <ele>380.28546142578</ele>
        <time>2019-04-14T09:34:25.000Z</time>
      </trkpt>
      <trkpt lat="47.58691" lon="6.76213">
        <ele>381.06326293945</ele>
        <time>2019-04-14T09:34:28.000Z</time>
      </trkpt>
      <trkpt lat="47.58694" lon="6.76227">
        <ele>381.94573974609</ele>
        <time>2019-04-14T09:34:31.000Z</time>
      </trkpt>
      <trkpt lat="47.58698" lon="6.76239">
        <ele>382.77090454102</ele>
        <time>2019-04-14T09:34:34.000Z</time>
      </trkpt>
      <trkpt lat="47.58702" lon="6.76252">
        <ele>383.52090454102</ele>
        <time>2019-04-14T09:34:37.000Z</time>
      </trkpt>
      <trkpt lat="47.58706" lon="6.76265">
        <ele>384.24664306641</ele>
        <time>2019-04-14T09:34:40.000Z</time>
      </trkpt>
      <trkpt lat="47.5871" lon="6.76278">
        <ele>384.93682861328</ele>
        <time>2019-04-14T09:34:43.000Z</time>
      </trkpt>
      <trkpt lat="47.58713" lon="6.7629">
        <ele>385.57843017578</ele>
        <time>2019-04-14T09:34:46.000Z</time>
      </trkpt>
      <trkpt lat="47.58716" lon="6.76302">
        <ele>386.18548583984</ele>
        <time>2019-04-14T09:34:49.000Z</time>
      </trkpt>
      <trkpt lat="47.58719" lon="6.76314">
        <ele>386.74096679688</ele>
        <time>2019-04-14T09:34:52.000Z</time>
      </trkpt>
      <trkpt lat="47.58723" lon="6.76327">
        <ele>387.26013183594</ele>
        <time>2019-04-14T09:34:55.000Z</time>
      </trkpt>
      <trkpt lat="47.58726" lon="6.76338">
        <ele>387.71926879883</ele>
        <time>2019-04-14T09:34:58.000Z</time>
      </trkpt>
      <trkpt lat="47.58729" lon="6.76349">
        <ele>388.1110534668</ele>
        <time>2019-04-14T09:35:01.000Z</time>
      </trkpt>
      <trkpt lat="47.58732" lon="6.7636">
        <ele>388.43255615234</ele>
        <time>2019-04-14T09:35:04.000Z</time>
      </trkpt>
      <trkpt lat="47.58736" lon="6.76371">
        <ele>388.68292236328</ele>
        <time>2019-04-14T09:35:07.000Z</time>
      </trkpt>
      <trkpt lat="47.58739" lon="6.76383">
        <ele>388.84619140625</ele>
        <time>2019-04-14T09:35:10.000Z</time>
      </trkpt>
      <trkpt lat="47.58743" lon="6.76395">
        <ele>388.95147705078</ele>
        <time>2019-04-14T09:35:13.000Z</time>
      </trkpt>
      <trkpt lat="47.58746" lon="6.76406">
        <ele>389.01623535156</ele>
        <time>2019-04-14T09:35:16.000Z</time>
      </trkpt>
      <trkpt lat="47.58749" lon="6.76418">
        <ele>389.04425048828</ele>
        <time>2019-04-14T09:35:19.000Z</time>
      </trkpt>
      <trkpt lat="47.58752" lon="6.76429">
        <ele>389.14993286133</ele>
        <time>2019-04-14T09:35:22.000Z</time>
      </trkpt>
      <trkpt lat="47.58755" lon="6.7644">
        <ele>389.38787841797</ele>
        <time>2019-04-14T09:35:25.000Z</time>
      </trkpt>
      <trkpt lat="47.58758" lon="6.7645">
        <ele>389.74429321289</ele>
        <time>2019-04-14T09:35:28.000Z</time>
      </trkpt>
      <trkpt lat="47.5876" lon="6.76461">
        <ele>390.2360534668</ele>
        <time>2019-04-14T09:35:31.000Z</time>
      </trkpt>
      <trkpt lat="47.58764" lon="6.76471">
        <ele>390.85992431641</ele>
        <time>2019-04-14T09:35:34.000Z</time>
      </trkpt>
      <trkpt lat="47.58766" lon="6.76481">
        <ele>391.49227905273</ele>
        <time>2019-04-14T09:35:37.000Z</time>
      </trkpt>
      <trkpt lat="47.58769" lon="6.76491">
        <ele>392.10113525391</ele>
        <time>2019-04-14T09:35:40.000Z</time>
      </trkpt>
      <trkpt lat="47.58772" lon="6.76501">
        <ele>392.70639038086</ele>
        <time>2019-04-14T09:35:43.000Z</time>
      </trkpt>
      <trkpt lat="47.58775" lon="6.76511">
        <ele>393.25079345703</ele>
        <time>2019-04-14T09:35:46.000Z</time>
      </trkpt>
      <trkpt lat="47.58777" lon="6.7652">
        <ele>393.73333740234</ele>
        <time>2019-04-14T09:35:49.000Z</time>
      </trkpt>
      <trkpt lat="47.58779" lon="6.7653">
        <ele>394.1643371582</ele>
        <time>2019-04-14T09:35:52.000Z</time>
      </trkpt>
      <trkpt lat="47.58781" lon="6.7654">
        <ele>394.52313232422</ele>
        <time>2019-04-14T09:35:55.000Z</time>
      </trkpt>
      <trkpt lat="47.58784" lon="6.76549">
        <ele>394.81781005859</ele>
        <time>2019-04-14T09:35:58.000Z</time>
      </trkpt>
      <trkpt lat="47.58788" lon="6.76559">
        <ele>395.10919189453</ele>
        <time>2019-04-14T09:36:01.000Z</time>
      </trkpt>
      <trkpt lat="47.5879" lon="6.76569">
        <ele>395.38739013672</ele>
        <time>2019-04-14T09:36:04.000Z</time>
      </trkpt>
      <trkpt lat="47.58792" lon="6.7658">
        <ele>395.63500976562</ele>
        <time>2019-04-14T09:36:07.000Z</time>
      </trkpt>
      <trkpt lat="47.58795" lon="6.7659">
        <ele>395.91616821289</ele>
        <time>2019-04-14T09:36:10.000Z</time>
      </trkpt>
      <trkpt lat="47.58798" lon="6.766">
        <ele>396.23187255859</ele>
        <time>2019-04-14T09:36:13.000Z</time>
      </trkpt>
      <trkpt lat="47.58802" lon="6.76611">
        <ele>396.58489990234</ele>
        <time>2019-04-14T09:36:16.000Z</time>
      </trkpt>
      <trkpt lat="47.58805" lon="6.7662">
        <ele>396.97796630859</ele>
        <time>2019-04-14T09:36:19.000Z</time>
      </trkpt>
      <trkpt lat="47.5881" lon="6.76629">
        <ele>397.43392944336</ele>
        <time>2019-04-14T09:36:22.000Z</time>
      </trkpt>
      <trkpt lat="47.58815" lon="6.76638">
        <ele>397.89678955078</ele>
        <time>2019-04-14T09:36:25.000Z</time>
      </trkpt>
      <trkpt lat="47.58819" lon="6.76646">
        <ele>398.33636474609</ele>
        <time>2019-04-14T09:36:28.000Z</time>
      </trkpt>
      <trkpt lat="47.58823" lon="6.76654">
        <ele>398.72387695312</ele>
        <time>2019-04-14T09:36:31.000Z</time>
      </trkpt>
      <trkpt lat="47.58826" lon="6.76663">
        <ele>399.06927490234</ele>
        <time>2019-04-14T09:36:34.000Z</time>
      </trkpt>
      <trkpt lat="47.58829" lon="6.76671">
        <ele>399.35464477539</ele>
        <time>2019-04-14T09:36:37.000Z</time>
      </trkpt>
      <trkpt lat="47.58832" lon="6.76681">
        <ele>399.58145141602</ele>
        <time>2019-04-14T09:36:40.000Z</time>
      </trkpt>
      <trkpt lat="47.58835" lon="6.7669">
        <ele>399.79318237305</ele>
        <time>2019-04-14T09:36:43.000Z</time>
      </trkpt>
      <trkpt lat="47.58838" lon="6.767">
        <ele>400.02740478516</ele>
        <time>2019-04-14T09:36:46.000Z</time>
      </trkpt>
      <trkpt lat="47.58841" lon="6.76709">
        <ele>400.29727172852</ele>
        <time>2019-04-14T09:36:49.000Z</time>
      </trkpt>
      <trkpt lat="47.58845" lon="6.76717">
        <ele>400.64117431641</ele>
        <time>2019-04-14T09:36:52.000Z</time>
      </trkpt>
      <trkpt lat="47.58851" lon="6.76718">
        <ele>401.10342407227</ele>
        <time>2019-04-14T09:36:55.000Z</time>
      </trkpt>
      <trkpt lat="47.58857" lon="6.76716">
        <ele>401.65277099609</ele>
        <time>2019-04-14T09:36:58.000Z</time>
      </trkpt>
      <trkpt lat="47.58862" lon="6.76711">
        <ele>402.25103759766</ele>
        <time>2019-04-14T09:37:01.000Z</time>
      </trkpt>
      <trkpt lat="47.58867" lon="6.76707">
        <ele>402.88494873047</ele>
        <time>2019-04-14T09:37:04.000Z</time>
      </trkpt>
      <trkpt lat="47.58871" lon="6.76702">
        <ele>403.53158569336</ele>
        <time>2019-04-14T09:37:07.000Z</time>
      </trkpt>
      <trkpt lat="47.58876" lon="6.76698">
        <ele>404.14907836914</ele>
        <time>2019-04-14T09:37:10.000Z</time>
      </trkpt>
      <trkpt lat="47.58881" lon="6.76693">
        <ele>404.73803710938</ele>
        <time>2019-04-14T09:37:13.000Z</time>
      </trkpt>
      <trkpt lat="47.58886" lon="6.76689">
        <ele>405.31192016602</ele>
        <time>2019-04-14T09:37:16.000Z</time>
      </trkpt>
      <trkpt lat="47.5889" lon="6.76686">
        <ele>405.87210083008</ele>
        <time>2019-04-14T09:37:19.000Z</time>
      </trkpt>
      <trkpt lat="47.58895" lon="6.76682">
        <ele>406.43707275391</ele>
        <time>2019-04-14T09:37:22.000Z</time>
      </trkpt>
      <trkpt lat="47.589" lon="6.76678">
        <ele>406.98657226562</ele>
        <time>2019-04-14T09:37:25.000Z</time>
      </trkpt>
      <trkpt lat="47.58905" lon="6.76675">
        <ele>407.53326416016</ele>
        <time>2019-04-14T09:37:28.000Z</time>
      </trkpt>
      <trkpt lat="47.58909" lon="6.76671">
        <ele>408.06582641602</ele>
        <time>2019-04-14T09:37:31.000Z</time>
      </trkpt>
      <trkpt lat="47.58913" lon="6.76668">
        <ele>408.60357666016</ele>
        <time>2019-04-14T09:37:34.000Z</time>
      </trkpt>
      <trkpt lat="47.58918" lon="6.76665">
        <ele>409.1298828125</ele>
        <time>2019-04-14T09:37:37.000Z</time>
      </trkpt>
      <trkpt lat="47.58923" lon="6.76663">
        <ele>409.69976806641</ele>
        <time>2019-04-14T09:37:40.000Z</time>
      </trkpt>
      <trkpt lat="47.58928" lon="6.76661">
        <ele>410.28930664062</ele>
        <time>2019-04-14T09:37:43.000Z</time>
      </trkpt>
      <trkpt lat="47.58934" lon="6.7666">
        <ele>410.92846679688</ele>
        <time>2019-04-14T09:37:46.000Z</time>
      </trkpt>
      <trkpt lat="47.58939" lon="6.76659">
        <ele>411.59780883789</ele>
        <time>2019-04-14T09:37:49.000Z</time>
      </trkpt>
      <trkpt lat="47.58945" lon="6.76657">
        <ele>412.31768798828</ele>
        <time>2019-04-14T09:37:52.000Z</time>
      </trkpt>
      <trkpt lat="47.5895" lon="6.76656">
        <ele>413.04315185547</ele>
        <time>2019-04-14T09:37:55.000Z</time>
      </trkpt>
      <trkpt lat="47.58957" lon="6.76656">
        <ele>413.79721069336</ele>
        <time>2019-04-14T09:37:58.000Z</time>
      </trkpt>
      <trkpt lat="47.58963" lon="6.76655">
        <ele>414.57070922852</ele>
        <time>2019-04-14T09:38:01.000Z</time>
      </trkpt>
      <trkpt lat="47.58969" lon="6.76653">
        <ele>415.36358642578</ele>
        <time>2019-04-14T09:38:04.000Z</time>
      </trkpt>
      <trkpt lat="47.58975" lon="6.76652">
        <ele>416.15454101562</ele>
        <time>2019-04-14T09:38:07.000Z</time>
      </trkpt>
      <trkpt lat="47.5898" lon="6.7665">
        <ele>416.93341064453</ele>
        <time>2019-04-14T09:38:10.000Z</time>
      </trkpt>
      <trkpt lat="47.58985" lon="6.76648">
        <ele>417.67938232422</ele>
        <time>2019-04-14T09:38:13.000Z</time>
      </trkpt>
      <trkpt lat="47.5899" lon="6.76646">
        <ele>418.40264892578</ele>
        <time>2019-04-14T09:38:16.000Z</time>
      </trkpt>
      <trkpt lat="47.58996" lon="6.76644">
        <ele>419.1025390625</ele>
        <time>2019-04-14T09:38:19.000Z</time>
      </trkpt>
      <trkpt lat="47.59001" lon="6.76641">
        <ele>419.77334594727</ele>
        <time>2019-04-14T09:38:22.000Z</time>
      </trkpt>
      <trkpt lat="47.59007" lon="6.76637">
        <ele>420.43383789062</ele>
        <time>2019-04-14T09:38:25.000Z</time>
      </trkpt>
      <trkpt lat="47.59013" lon="6.76634">
        <ele>421.08837890625</ele>
        <time>2019-04-14T09:38:28.000Z</time>
      </trkpt>
      <trkpt lat="47.59018" lon="6.7663">
        <ele>421.71221923828</ele>
        <time>2019-04-14T09:38:31.000Z</time>
      </trkpt>
      <trkpt lat="47.59024" lon="6.76627">
        <ele>422.33306884766</ele>
        <time>2019-04-14T09:38:34.000Z</time>
      </trkpt>
      <trkpt lat="47.59029" lon="6.76624">
        <ele>422.94232177734</ele>
        <time>2019-04-14T09:38:37.000Z</time>
      </trkpt>
      <trkpt lat="47.59035" lon="6.76619">
        <ele>423.55606079102</ele>
        <time>2019-04-14T09:38:40.000Z</time>
      </trkpt>
      <trkpt lat="47.5904" lon="6.76616">
        <ele>424.16241455078</ele>
        <time>2019-04-14T09:38:43.000Z</time>
      </trkpt>
      <trkpt lat="47.59045" lon="6.76614">
        <ele>424.77548217773</ele>
        <time>2019-04-14T09:38:46.000Z</time>
      </trkpt>
      <trkpt lat="47.5905" lon="6.76612">
        <ele>425.36987304688</ele>
        <time>2019-04-14T09:38:49.000Z</time>
      </trkpt>
      <trkpt lat="47.59055" lon="6.76609">
        <ele>425.96450805664</ele>
        <time>2019-04-14T09:38:52.000Z</time>
      </trkpt>
      <trkpt lat="47.59058" lon="6.76605">
        <ele>426.53082275391</ele>
        <time>2019-04-14T09:38:55.000Z</time>
      </trkpt>
      <trkpt lat="47.59062" lon="6.76601">
        <ele>427.07046508789</ele>
        <time>2019-04-14T09:38:58.000Z</time>
      </trkpt>
      <trkpt lat="47.59065" lon="6.76597">
        <ele>427.59545898438</ele>
        <time>2019-04-14T09:39:01.000Z</time>
      </trkpt>
      <trkpt lat="47.59069" lon="6.76594">
        <ele>428.09295654297</ele>
        <time>2019-04-14T09:39:04.000Z</time>
      </trkpt>
      <trkpt lat="47.59074" lon="6.76596">
        <ele>428.57696533203</ele>
        <time>2019-04-14T09:39:07.000Z</time>
      </trkpt>
      <trkpt lat="47.59077" lon="6.76601">
        <ele>429.02215576172</ele>
        <time>2019-04-14T09:39:10.000Z</time>
      </trkpt>
      <trkpt lat="47.59082" lon="6.76603">
        <ele>429.48193359375</ele>
        <time>2019-04-14T09:39:13.000Z</time>
      </trkpt>
      <trkpt lat="47.59088" lon="6.76602">
        <ele>430.03979492188</ele>
        <time>2019-04-14T09:39:16.000Z</time>
      </trkpt>
      <trkpt lat="47.59095" lon="6.76601">
        <ele>430.73370361328</ele>
        <time>2019-04-14T09:39:19.000Z</time>
      </trkpt>
      <trkpt lat="47.591" lon="6.766">
        <ele>431.48641967773</ele>
        <time>2019-04-14T09:39:22.000Z</time>
      </trkpt>
      <trkpt lat="47.59105" lon="6.76599">
        <ele>432.34576416016</ele>
        <time>2019-04-14T09:39:25.000Z</time>
      </trkpt>
      <trkpt lat="47.59109" lon="6.76596">
        <ele>433.26586914062</ele>
        <time>2019-04-14T09:39:28.000Z</time>
      </trkpt>
      <trkpt lat="47.59113" lon="6.76595">
        <ele>434.14306640625</ele>
        <time>2019-04-14T09:39:31.000Z</time>
      </trkpt>
      <trkpt lat="47.59116" lon="6.76602">
        <ele>434.86059570312</ele>
        <time>2019-04-14T09:39:34.000Z</time>
      </trkpt>
      <trkpt lat="47.59117" lon="6.76614">
        <ele>435.37084960938</ele>
        <time>2019-04-14T09:39:37.000Z</time>
      </trkpt>
      <trkpt lat="47.59118" lon="6.76628">
        <ele>435.66918945312</ele>
        <time>2019-04-14T09:39:40.000Z</time>
      </trkpt>
      <trkpt lat="47.59119" lon="6.76644">
        <ele>435.79418945312</ele>
        <time>2019-04-14T09:39:43.000Z</time>
      </trkpt>
      <trkpt lat="47.59123" lon="6.76665">
        <ele>435.78735351562</ele>
        <time>2019-04-14T09:39:46.000Z</time>
      </trkpt>
      <trkpt lat="47.59128" lon="6.76691">
        <ele>435.755859375</ele>
        <time>2019-04-14T09:39:49.000Z</time>
      </trkpt>
      <trkpt lat="47.59132" lon="6.76715">
        <ele>435.77490234375</ele>
        <time>2019-04-14T09:39:52.000Z</time>
      </trkpt>
      <trkpt lat="47.59137" lon="6.76736">
        <ele>435.89965820312</ele>
        <time>2019-04-14T09:39:55.000Z</time>
      </trkpt>
      <trkpt lat="47.59135" lon="6.7675">
        <ele>435.91000366211</ele>
        <time>2019-04-14T09:39:58.000Z</time>
      </trkpt>
      <trkpt lat="47.59135" lon="6.76765">
        <ele>435.84344482422</ele>
        <time>2019-04-14T09:40:01.000Z</time>
      </trkpt>
      <trkpt lat="47.59137" lon="6.76782">
        <ele>435.70166015625</ele>
        <time>2019-04-14T09:40:04.000Z</time>
      </trkpt>
      <trkpt lat="47.59137" lon="6.76799">
        <ele>435.48495483398</ele>
        <time>2019-04-14T09:40:07.000Z</time>
      </trkpt>
      <trkpt lat="47.59138" lon="6.76817">
        <ele>435.14105224609</ele>
        <time>2019-04-14T09:40:10.000Z</time>
      </trkpt>
      <trkpt lat="47.59138" lon="6.76834">
        <ele>434.84042358398</ele>
        <time>2019-04-14T09:40:13.000Z</time>
      </trkpt>
      <trkpt lat="47.59138" lon="6.76857">
        <ele>434.4130859375</ele>
        <time>2019-04-14T09:40:16.000Z</time>
      </trkpt>
      <trkpt lat="47.59139" lon="6.7688">
        <ele>433.86758422852</ele>
        <time>2019-04-14T09:40:19.000Z</time>
      </trkpt>
      <trkpt lat="47.59138" lon="6.76903">
        <ele>433.19149780273</ele>
        <time>2019-04-14T09:40:22.000Z</time>
      </trkpt>
      <trkpt lat="47.59143" lon="6.76924">
        <ele>432.53692626953</ele>
        <time>2019-04-14T09:40:25.000Z</time>
      </trkpt>
      <trkpt lat="47.59146" lon="6.76942">
        <ele>431.94961547852</ele>
        <time>2019-04-14T09:40:28.000Z</time>
      </trkpt>
      <trkpt lat="47.59153" lon="6.76962">
        <ele>431.58056640625</ele>
        <time>2019-04-14T09:40:31.000Z</time>
      </trkpt>
      <trkpt lat="47.59156" lon="6.76983">
        <ele>431.33383178711</ele>
        <time>2019-04-14T09:40:34.000Z</time>
      </trkpt>
      <trkpt lat="47.5916" lon="6.77002">
        <ele>431.23419189453</ele>
        <time>2019-04-14T09:40:37.000Z</time>
      </trkpt>
      <trkpt lat="47.59166" lon="6.77025">
        <ele>431.05377197266</ele>
        <time>2019-04-14T09:40:40.000Z</time>
      </trkpt>
      <trkpt lat="47.59169" lon="6.77047">
        <ele>430.70321655273</ele>
        <time>2019-04-14T09:40:43.000Z</time>
      </trkpt>
      <trkpt lat="47.59175" lon="6.77066">
        <ele>430.24179077148</ele>
        <time>2019-04-14T09:40:46.000Z</time>
      </trkpt>
      <trkpt lat="47.59171" lon="6.77079">
        <ele>429.55743408203</ele>
        <time>2019-04-14T09:40:49.000Z</time>
      </trkpt>
      <trkpt lat="47.59159" lon="6.7709">
        <ele>428.47509765625</ele>
        <time>2019-04-14T09:40:52.000Z</time>
      </trkpt>
      <trkpt lat="47.59158" lon="6.77107">
        <ele>427.37628173828</ele>
        <time>2019-04-14T09:40:55.000Z</time>
      </trkpt>
      <trkpt lat="47.59157" lon="6.77123">
        <ele>426.33700561523</ele>
        <time>2019-04-14T09:40:58.000Z</time>
      </trkpt>
      <trkpt lat="47.59159" lon="6.77138">
        <ele>425.31558227539</ele>
        <time>2019-04-14T09:41:01.000Z</time>
      </trkpt>
      <trkpt lat="47.59159" lon="6.7716">
        <ele>424.39038085938</ele>
        <time>2019-04-14T09:41:04.000Z</time>
      </trkpt>
      <trkpt lat="47.59156" lon="6.77174">
        <ele>423.67315673828</ele>
        <time>2019-04-14T09:41:07.000Z</time>
      </trkpt>
      <trkpt lat="47.59156" lon="6.77187">
        <ele>422.90689086914</ele>
        <time>2019-04-14T09:41:10.000Z</time>
      </trkpt>
      <trkpt lat="47.59151" lon="6.77198">
        <ele>421.95889282227</ele>
        <time>2019-04-14T09:41:13.000Z</time>
      </trkpt>
      <trkpt lat="47.59148" lon="6.77213">
        <ele>420.77041625977</ele>
        <time>2019-04-14T09:41:16.000Z</time>
      </trkpt>
      <trkpt lat="47.59152" lon="6.77228">
        <ele>419.59268188477</ele>
        <time>2019-04-14T09:41:19.000Z</time>
      </trkpt>
      <trkpt lat="47.59151" lon="6.77245">
        <ele>418.35943603516</ele>
        <time>2019-04-14T09:41:22.000Z</time>
      </trkpt>
      <trkpt lat="47.59148" lon="6.77266">
        <ele>416.79962158203</ele>
        <time>2019-04-14T09:41:25.000Z</time>
      </trkpt>
      <trkpt lat="47.59152" lon="6.77291">
        <ele>415.0068359375</ele>
        <time>2019-04-14T09:41:28.000Z</time>
      </trkpt>
      <trkpt lat="47.59165" lon="6.77309">
        <ele>413.20938110352</ele>
        <time>2019-04-14T09:41:31.000Z</time>
      </trkpt>
      <trkpt lat="47.59179" lon="6.77315">
        <ele>411.50088500977</ele>
        <time>2019-04-14T09:41:34.000Z</time>
      </trkpt>
      <trkpt lat="47.59202" lon="6.77344">
        <ele>409.58895874023</ele>
        <time>2019-04-14T09:41:38.000Z</time>
      </trkpt>
      <trkpt lat="47.59219" lon="6.77352">
        <ele>408.24481201172</ele>
        <time>2019-04-14T09:41:41.000Z</time>
      </trkpt>
      <trkpt lat="47.59229" lon="6.77354">
        <ele>407.52282714844</ele>
        <time>2019-04-14T09:41:44.000Z</time>
      </trkpt>
      <trkpt lat="47.59241" lon="6.77358">
        <ele>407.21875</ele>
        <time>2019-04-14T09:41:47.000Z</time>
      </trkpt>
      <trkpt lat="47.59251" lon="6.77368">
        <ele>407.05172729492</ele>
        <time>2019-04-14T09:41:50.000Z</time>
      </trkpt>
      <trkpt lat="47.59258" lon="6.77378">
        <ele>407.53656005859</ele>
        <time>2019-04-14T09:41:53.000Z</time>
      </trkpt>
      <trkpt lat="47.59263" lon="6.77384">
        <ele>408.06597900391</ele>
        <time>2019-04-14T09:41:56.000Z</time>
      </trkpt>
      <trkpt lat="47.59269" lon="6.7739">
        <ele>408.66940307617</ele>
        <time>2019-04-14T09:41:59.000Z</time>
      </trkpt>
      <trkpt lat="47.59275" lon="6.77397">
        <ele>409.29641723633</ele>
        <time>2019-04-14T09:42:02.000Z</time>
      </trkpt>
      <trkpt lat="47.59279" lon="6.77404">
        <ele>409.95050048828</ele>
        <time>2019-04-14T09:42:05.000Z</time>
      </trkpt>
      <trkpt lat="47.59282" lon="6.77412">
        <ele>410.52090454102</ele>
        <time>2019-04-14T09:42:08.000Z</time>
      </trkpt>
      <trkpt lat="47.59286" lon="6.77419">
        <ele>411.09857177734</ele>
        <time>2019-04-14T09:42:11.000Z</time>
      </trkpt>
      <trkpt lat="47.59289" lon="6.77428">
        <ele>411.60589599609</ele>
        <time>2019-04-14T09:42:14.000Z</time>
      </trkpt>
      <trkpt lat="47.59292" lon="6.77434">
        <ele>412.06021118164</ele>
        <time>2019-04-14T09:42:17.000Z</time>
      </trkpt>
      <trkpt lat="47.59295" lon="6.77442">
        <ele>412.50640869141</ele>
        <time>2019-04-14T09:42:20.000Z</time>
      </trkpt>
      <trkpt lat="47.59299" lon="6.77449">
        <ele>413.00823974609</ele>
        <time>2019-04-14T09:42:23.000Z</time>
      </trkpt>
      <trkpt lat="47.59302" lon="6.77457">
        <ele>413.48403930664</ele>
        <time>2019-04-14T09:42:26.000Z</time>
      </trkpt>
      <trkpt lat="47.59304" lon="6.77463">
        <ele>413.94287109375</ele>
        <time>2019-04-14T09:42:29.000Z</time>
      </trkpt>
      <trkpt lat="47.59309" lon="6.77469">
        <ele>414.43545532227</ele>
        <time>2019-04-14T09:42:32.000Z</time>
      </trkpt>
      <trkpt lat="47.59315" lon="6.77469">
        <ele>415.03955078125</ele>
        <time>2019-04-14T09:42:35.000Z</time>
      </trkpt>
      <trkpt lat="47.59318" lon="6.77476">
        <ele>415.59735107422</ele>
        <time>2019-04-14T09:42:38.000Z</time>
      </trkpt>
      <trkpt lat="47.59315" lon="6.77485">
        <ele>415.98028564453</ele>
        <time>2019-04-14T09:42:41.000Z</time>
      </trkpt>
      <trkpt lat="47.59316" lon="6.77495">
        <ele>416.2880859375</ele>
        <time>2019-04-14T09:42:44.000Z</time>
      </trkpt>
      <trkpt lat="47.59317" lon="6.77504">
        <ele>416.46664428711</ele>
        <time>2019-04-14T09:42:47.000Z</time>
      </trkpt>
      <trkpt lat="47.5932" lon="6.77516">
        <ele>416.41171264648</ele>
        <time>2019-04-14T09:42:50.000Z</time>
      </trkpt>
      <trkpt lat="47.59325" lon="6.7753">
        <ele>416.29647827148</ele>
        <time>2019-04-14T09:42:53.000Z</time>
      </trkpt>
      <trkpt lat="47.5933" lon="6.77542">
        <ele>416.29345703125</ele>
        <time>2019-04-14T09:42:56.000Z</time>
      </trkpt>
      <trkpt lat="47.59335" lon="6.77554">
        <ele>416.34268188477</ele>
        <time>2019-04-14T09:42:59.000Z</time>
      </trkpt>
      <trkpt lat="47.59341" lon="6.77566">
        <ele>416.4521484375</ele>
        <time>2019-04-14T09:43:02.000Z</time>
      </trkpt>
      <trkpt lat="47.59349" lon="6.77575">
        <ele>416.64804077148</ele>
        <time>2019-04-14T09:43:05.000Z</time>
      </trkpt>
      <trkpt lat="47.59356" lon="6.7758">
        <ele>416.91632080078</ele>
        <time>2019-04-14T09:43:08.000Z</time>
      </trkpt>
      <trkpt lat="47.59363" lon="6.77589">
        <ele>417.16546630859</ele>
        <time>2019-04-14T09:43:11.000Z</time>
      </trkpt>
      <trkpt lat="47.59366" lon="6.77599">
        <ele>417.23321533203</ele>
        <time>2019-04-14T09:43:14.000Z</time>
      </trkpt>
      <trkpt lat="47.59368" lon="6.7761">
        <ele>417.07290649414</ele>
        <time>2019-04-14T09:43:17.000Z</time>
      </trkpt>
      <trkpt lat="47.59369" lon="6.77622">
        <ele>416.62670898438</ele>
        <time>2019-04-14T09:43:20.000Z</time>
      </trkpt>
      <trkpt lat="47.59374" lon="6.77635">
        <ele>415.9287109375</ele>
        <time>2019-04-14T09:43:23.000Z</time>
      </trkpt>
      <trkpt lat="47.59382" lon="6.77644">
        <ele>415.21939086914</ele>
        <time>2019-04-14T09:43:26.000Z</time>
      </trkpt>
      <trkpt lat="47.5939" lon="6.77652">
        <ele>414.63607788086</ele>
        <time>2019-04-14T09:43:29.000Z</time>
      </trkpt>
      <trkpt lat="47.59397" lon="6.77661">
        <ele>414.15762329102</ele>
        <time>2019-04-14T09:43:32.000Z</time>
      </trkpt>
      <trkpt lat="47.594" lon="6.77669">
        <ele>413.82257080078</ele>
        <time>2019-04-14T09:43:35.000Z</time>
      </trkpt>
      <trkpt lat="47.59407" lon="6.77679">
        <ele>413.59243774414</ele>
        <time>2019-04-14T09:43:38.000Z</time>
      </trkpt>
      <trkpt lat="47.59413" lon="6.77686">
        <ele>413.38580322266</ele>
        <time>2019-04-14T09:43:41.000Z</time>
      </trkpt>
      <trkpt lat="47.5942" lon="6.77695">
        <ele>413.13208007812</ele>
        <time>2019-04-14T09:43:44.000Z</time>
      </trkpt>
      <trkpt lat="47.59428" lon="6.77702">
        <ele>412.90341186523</ele>
        <time>2019-04-14T09:43:47.000Z</time>
      </trkpt>
      <trkpt lat="47.59439" lon="6.77709">
        <ele>412.72769165039</ele>
        <time>2019-04-14T09:43:50.000Z</time>
      </trkpt>
      <trkpt lat="47.59449" lon="6.77718">
        <ele>412.53985595703</ele>
        <time>2019-04-14T09:43:53.000Z</time>
      </trkpt>
      <trkpt lat="47.59462" lon="6.77725">
        <ele>412.30722045898</ele>
        <time>2019-04-14T09:43:56.000Z</time>
      </trkpt>
      <trkpt lat="47.59471" lon="6.77727">
        <ele>412.16015625</ele>
        <time>2019-04-14T09:43:59.000Z</time>
      </trkpt>
      <trkpt lat="47.5948" lon="6.77732">
        <ele>412.04071044922</ele>
        <time>2019-04-14T09:44:02.000Z</time>
      </trkpt>
      <trkpt lat="47.59489" lon="6.7775">
        <ele>411.68798828125</ele>
        <time>2019-04-14T09:44:05.000Z</time>
      </trkpt>
      <trkpt lat="47.59497" lon="6.77767">
        <ele>411.33276367188</ele>
        <time>2019-04-14T09:44:08.000Z</time>
      </trkpt>
      <trkpt lat="47.59509" lon="6.77783">
        <ele>410.92822265625</ele>
        <time>2019-04-14T09:44:11.000Z</time>
      </trkpt>
      <trkpt lat="47.59518" lon="6.77793">
        <ele>410.40966796875</ele>
        <time>2019-04-14T09:44:14.000Z</time>
      </trkpt>
      <trkpt lat="47.59517" lon="6.77802">
        <ele>409.83242797852</ele>
        <time>2019-04-14T09:44:17.000Z</time>
      </trkpt>
      <trkpt lat="47.59518" lon="6.77817">
        <ele>409.37280273438</ele>
        <time>2019-04-14T09:44:20.000Z</time>
      </trkpt>
      <trkpt lat="47.59518" lon="6.77833">
        <ele>408.83453369141</ele>
        <time>2019-04-14T09:44:23.000Z</time>
      </trkpt>
      <trkpt lat="47.59519" lon="6.77843">
        <ele>408.26272583008</ele>
        <time>2019-04-14T09:44:26.000Z</time>
      </trkpt>
      <trkpt lat="47.59515" lon="6.77854">
        <ele>407.66683959961</ele>
        <time>2019-04-14T09:44:29.000Z</time>
      </trkpt>
      <trkpt lat="47.59518" lon="6.77875">
        <ele>406.89102172852</ele>
        <time>2019-04-14T09:44:32.000Z</time>
      </trkpt>
      <trkpt lat="47.5952" lon="6.77899">
        <ele>405.98526000977</ele>
        <time>2019-04-14T09:44:35.000Z</time>
      </trkpt>
      <trkpt lat="47.59522" lon="6.77915">
        <ele>405.03387451172</ele>
        <time>2019-04-14T09:44:38.000Z</time>
      </trkpt>
      <trkpt lat="47.59523" lon="6.77926">
        <ele>404.1369934082</ele>
        <time>2019-04-14T09:44:41.000Z</time>
      </trkpt>
      <trkpt lat="47.59516" lon="6.77937">
        <ele>403.31365966797</ele>
        <time>2019-04-14T09:44:44.000Z</time>
      </trkpt>
      <trkpt lat="47.59506" lon="6.77944">
        <ele>402.73834228516</ele>
        <time>2019-04-14T09:44:47.000Z</time>
      </trkpt>
      <trkpt lat="47.59496" lon="6.77949">
        <ele>402.36822509766</ele>
        <time>2019-04-14T09:44:50.000Z</time>
      </trkpt>
      <trkpt lat="47.59483" lon="6.77954">
        <ele>401.9621887207</ele>
        <time>2019-04-14T09:44:53.000Z</time>
      </trkpt>
      <trkpt lat="47.59467" lon="6.77959">
        <ele>401.34829711914</ele>
        <time>2019-04-14T09:44:56.000Z</time>
      </trkpt>
      <trkpt lat="47.59448" lon="6.77965">
        <ele>400.42816162109</ele>
        <time>2019-04-14T09:44:59.000Z</time>
      </trkpt>
      <trkpt lat="47.59423" lon="6.77972">
        <ele>399.07403564453</ele>
        <time>2019-04-14T09:45:02.000Z</time>
      </trkpt>
      <trkpt lat="47.59396" lon="6.77979">
        <ele>397.11090087891</ele>
        <time>2019-04-14T09:45:05.000Z</time>
      </trkpt>
      <trkpt lat="47.59364" lon="6.77989">
        <ele>394.4660949707</ele>
        <time>2019-04-14T09:45:08.000Z</time>
      </trkpt>
      <trkpt lat="47.5933" lon="6.77998">
        <ele>391.1416015625</ele>
        <time>2019-04-14T09:45:11.000Z</time>
      </trkpt>
      <trkpt lat="47.59297" lon="6.78008">
        <ele>387.5046081543</ele>
        <time>2019-04-14T09:45:14.000Z</time>
      </trkpt>
      <trkpt lat="47.59264" lon="6.78029">
        <ele>383.65902709961</ele>
        <time>2019-04-14T09:45:17.000Z</time>
      </trkpt>
      <trkpt lat="47.59237" lon="6.78058">
        <ele>379.98895263672</ele>
        <time>2019-04-14T09:45:20.000Z</time>
      </trkpt>
      <trkpt lat="47.59208" lon="6.7809">
        <ele>376.85684204102</ele>
        <time>2019-04-14T09:45:23.000Z</time>
      </trkpt>
      <trkpt lat="47.59181" lon="6.78121">
        <ele>374.46304321289</ele>
        <time>2019-04-14T09:45:26.000Z</time>
      </trkpt>
      <trkpt lat="47.59155" lon="6.78139">
        <ele>372.46405029297</ele>
        <time>2019-04-14T09:45:29.000Z</time>
      </trkpt>
      <trkpt lat="47.59129" lon="6.7815">
        <ele>370.65960693359</ele>
        <time>2019-04-14T09:45:32.000Z</time>
      </trkpt>
      <trkpt lat="47.59113" lon="6.78181">
        <ele>369.00360107422</ele>
        <time>2019-04-14T09:45:35.000Z</time>
      </trkpt>
      <trkpt lat="47.59092" lon="6.78206">
        <ele>367.26263427734</ele>
        <time>2019-04-14T09:45:38.000Z</time>
      </trkpt>
      <trkpt lat="47.5907" lon="6.7823">
        <ele>365.43182373047</ele>
        <time>2019-04-14T09:45:41.000Z</time>
      </trkpt>
      <trkpt lat="47.5905" lon="6.78253">
        <ele>363.58395385742</ele>
        <time>2019-04-14T09:45:44.000Z</time>
      </trkpt>
      <trkpt lat="47.59033" lon="6.7827">
        <ele>361.98345947266</ele>
        <time>2019-04-14T09:45:47.000Z</time>
      </trkpt>
      <trkpt lat="47.59019" lon="6.78285">
        <ele>360.70907592773</ele>
        <time>2019-04-14T09:45:50.000Z</time>
      </trkpt>
      <trkpt lat="47.59019" lon="6.78293">
        <ele>359.90277099609</ele>
        <time>2019-04-14T09:45:53.000Z</time>
      </trkpt>
      <trkpt lat="47.59028" lon="6.78291">
        <ele>359.36669921875</ele>
        <time>2019-04-14T09:45:56.000Z</time>
      </trkpt>
      <trkpt lat="47.59035" lon="6.78294">
        <ele>359.06958007812</ele>
        <time>2019-04-14T09:45:59.000Z</time>
      </trkpt>
      <trkpt lat="47.59037" lon="6.78306">
        <ele>358.92044067383</ele>
        <time>2019-04-14T09:46:02.000Z</time>
      </trkpt>
      <trkpt lat="47.59037" lon="6.78335">
        <ele>358.66137695312</ele>
        <time>2019-04-14T09:46:05.000Z</time>
      </trkpt>
      <trkpt lat="47.59044" lon="6.78363">
        <ele>357.77835083008</ele>
        <time>2019-04-14T09:46:08.000Z</time>
      </trkpt>
      <trkpt lat="47.59044" lon="6.78387">
        <ele>356.50042724609</ele>
        <time>2019-04-14T09:46:11.000Z</time>
      </trkpt>
      <trkpt lat="47.59047" lon="6.78411">
        <ele>354.82907104492</ele>
        <time>2019-04-14T09:46:14.000Z</time>
      </trkpt>
      <trkpt lat="47.59048" lon="6.78434">
        <ele>353.11221313477</ele>
        <time>2019-04-14T09:46:17.000Z</time>
      </trkpt>
      <trkpt lat="47.59045" lon="6.78459">
        <ele>351.48358154297</ele>
        <time>2019-04-14T09:46:20.000Z</time>
      </trkpt>
      <trkpt lat="47.59039" lon="6.78486">
        <ele>350.33074951172</ele>
        <time>2019-04-14T09:46:23.000Z</time>
      </trkpt>
      <trkpt lat="47.59029" lon="6.7851">
        <ele>349.4079284668</ele>
        <time>2019-04-14T09:46:26.000Z</time>
      </trkpt>
      <trkpt lat="47.59018" lon="6.78533">
        <ele>348.78570556641</ele>
        <time>2019-04-14T09:46:29.000Z</time>
      </trkpt>
      <trkpt lat="47.59006" lon="6.78553">
        <ele>348.06042480469</ele>
        <time>2019-04-14T09:46:32.000Z</time>
      </trkpt>
      <trkpt lat="47.58989" lon="6.78568">
        <ele>347.29208374023</ele>
        <time>2019-04-14T09:46:35.000Z</time>
      </trkpt>
      <trkpt lat="47.58977" lon="6.78587">
        <ele>346.77987670898</ele>
        <time>2019-04-14T09:46:38.000Z</time>
      </trkpt>
      <trkpt lat="47.58962" lon="6.786">
        <ele>346.75152587891</ele>
        <time>2019-04-14T09:46:41.000Z</time>
      </trkpt>
      <trkpt lat="47.58944" lon="6.78603">
        <ele>346.92904663086</ele>
        <time>2019-04-14T09:46:44.000Z</time>
      </trkpt>
      <trkpt lat="47.58927" lon="6.78597">
        <ele>347.18511962891</ele>
        <time>2019-04-14T09:46:47.000Z</time>
      </trkpt>
      <trkpt lat="47.58912" lon="6.78598">
        <ele>347.59527587891</ele>
        <time>2019-04-14T09:46:50.000Z</time>
      </trkpt>
      <trkpt lat="47.58895" lon="6.78599">
        <ele>347.95101928711</ele>
        <time>2019-04-14T09:46:53.000Z</time>
      </trkpt>
      <trkpt lat="47.58879" lon="6.78592">
        <ele>347.93218994141</ele>
        <time>2019-04-14T09:46:56.000Z</time>
      </trkpt>
      <trkpt lat="47.58861" lon="6.78587">
        <ele>347.81802368164</ele>
        <time>2019-04-14T09:46:59.000Z</time>
      </trkpt>
      <trkpt lat="47.58843" lon="6.78583">
        <ele>347.85247802734</ele>
        <time>2019-04-14T09:47:02.000Z</time>
      </trkpt>
      <trkpt lat="47.58826" lon="6.78577">
        <ele>347.84341430664</ele>
        <time>2019-04-14T09:47:05.000Z</time>
      </trkpt>
      <trkpt lat="47.58816" lon="6.7857">
        <ele>347.74545288086</ele>
        <time>2019-04-14T09:47:07.000Z</time>
      </trkpt>
      <trkpt lat="47.58808" lon="6.78569">
        <ele>347.73782348633</ele>
        <time>2019-04-14T09:47:09.000Z</time>
      </trkpt>
      <trkpt lat="47.58789" lon="6.78562">
        <ele>347.72619628906</ele>
        <time>2019-04-14T09:47:12.000Z</time>
      </trkpt>
      <trkpt lat="47.58774" lon="6.78568">
        <ele>347.78372192383</ele>
        <time>2019-04-14T09:47:15.000Z</time>
      </trkpt>
      <trkpt lat="47.58762" lon="6.78572">
        <ele>347.88442993164</ele>
        <time>2019-04-14T09:47:17.000Z</time>
      </trkpt>
      <trkpt lat="47.58754" lon="6.78577">
        <ele>348.07427978516</ele>
        <time>2019-04-14T09:47:19.000Z</time>
      </trkpt>
      <trkpt lat="47.58738" lon="6.78583">
        <ele>348.23947143555</ele>
        <time>2019-04-14T09:47:22.000Z</time>
      </trkpt>
      <trkpt lat="47.58726" lon="6.78586">
        <ele>348.36636352539</ele>
        <time>2019-04-14T09:47:25.000Z</time>
      </trkpt>
      <trkpt lat="47.58714" lon="6.78592">
        <ele>348.36950683594</ele>
        <time>2019-04-14T09:47:28.000Z</time>
      </trkpt>
      <trkpt lat="47.58703" lon="6.78599">
        <ele>348.29248046875</ele>
        <time>2019-04-14T09:47:31.000Z</time>
      </trkpt>
      <trkpt lat="47.58696" lon="6.78603">
        <ele>348.14031982422</ele>
        <time>2019-04-14T09:47:33.000Z</time>
      </trkpt>
      <trkpt lat="47.58689" lon="6.78607">
        <ele>347.99609375</ele>
        <time>2019-04-14T09:47:35.000Z</time>
      </trkpt>
      <trkpt lat="47.58679" lon="6.78611">
        <ele>347.89007568359</ele>
        <time>2019-04-14T09:47:38.000Z</time>
      </trkpt>
      <trkpt lat="47.58673" lon="6.78613">
        <ele>347.8049621582</ele>
        <time>2019-04-14T09:47:40.000Z</time>
      </trkpt>
      <trkpt lat="47.58664" lon="6.78617">
        <ele>347.71566772461</ele>
        <time>2019-04-14T09:47:43.000Z</time>
      </trkpt>
      <trkpt lat="47.58653" lon="6.78622">
        <ele>347.60586547852</ele>
        <time>2019-04-14T09:47:46.000Z</time>
      </trkpt>
      <trkpt lat="47.58647" lon="6.78625">
        <ele>347.49877929688</ele>
        <time>2019-04-14T09:47:48.000Z</time>
      </trkpt>
      <trkpt lat="47.58638" lon="6.78634">
        <ele>347.4462890625</ele>
        <time>2019-04-14T09:47:51.000Z</time>
      </trkpt>
      <trkpt lat="47.58632" lon="6.7864">
        <ele>347.44320678711</ele>
        <time>2019-04-14T09:47:53.000Z</time>
      </trkpt>
      <trkpt lat="47.58627" lon="6.78646">
        <ele>347.49780273438</ele>
        <time>2019-04-14T09:47:55.000Z</time>
      </trkpt>
      <trkpt lat="47.58618" lon="6.78655">
        <ele>347.64532470703</ele>
        <time>2019-04-14T09:47:58.000Z</time>
      </trkpt>
      <trkpt lat="47.58612" lon="6.7866">
        <ele>347.84365844727</ele>
        <time>2019-04-14T09:48:00.000Z</time>
      </trkpt>
      <trkpt lat="47.58604" lon="6.78671">
        <ele>348.08261108398</ele>
        <time>2019-04-14T09:48:03.000Z</time>
      </trkpt>
      <trkpt lat="47.58599" lon="6.78677">
        <ele>348.32015991211</ele>
        <time>2019-04-14T09:48:05.000Z</time>
      </trkpt>
      <trkpt lat="47.58593" lon="6.78688">
        <ele>348.56967163086</ele>
        <time>2019-04-14T09:48:08.000Z</time>
      </trkpt>
      <trkpt lat="47.5859" lon="6.78697">
        <ele>348.80850219727</ele>
        <time>2019-04-14T09:48:10.000Z</time>
      </trkpt>
      <trkpt lat="47.58588" lon="6.78705">
        <ele>349.05255126953</ele>
        <time>2019-04-14T09:48:12.000Z</time>
      </trkpt>
      <trkpt lat="47.58585" lon="6.78715">
        <ele>349.27984619141</ele>
        <time>2019-04-14T09:48:15.000Z</time>
      </trkpt>
      <trkpt lat="47.58585" lon="6.7872">
        <ele>349.51217651367</ele>
        <time>2019-04-14T09:48:17.000Z</time>
      </trkpt>
      <trkpt lat="47.58584" lon="6.78725">
        <ele>349.73135375977</ele>
        <time>2019-04-14T09:48:19.000Z</time>
      </trkpt>
      <trkpt lat="47.58581" lon="6.78737">
        <ele>349.9577331543</ele>
        <time>2019-04-14T09:48:22.000Z</time>
      </trkpt>
      <trkpt lat="47.5858" lon="6.78748">
        <ele>350.19476318359</ele>
        <time>2019-04-14T09:48:24.000Z</time>
      </trkpt>
      <trkpt lat="47.58575" lon="6.78765">
        <ele>350.37777709961</ele>
        <time>2019-04-14T09:48:27.000Z</time>
      </trkpt>
      <trkpt lat="47.58567" lon="6.78773">
        <ele>350.45440673828</ele>
        <time>2019-04-14T09:48:30.000Z</time>
      </trkpt>
      <trkpt lat="47.58561" lon="6.7877">
        <ele>350.41586303711</ele>
        <time>2019-04-14T09:48:32.000Z</time>
      </trkpt>
      <trkpt lat="47.58552" lon="6.78761">
        <ele>350.19378662109</ele>
        <time>2019-04-14T09:48:35.000Z</time>
      </trkpt>
      <trkpt lat="47.58543" lon="6.78769">
        <ele>349.84234619141</ele>
        <time>2019-04-14T09:48:38.000Z</time>
      </trkpt>
      <trkpt lat="47.58532" lon="6.78786">
        <ele>349.42666625977</ele>
        <time>2019-04-14T09:48:41.000Z</time>
      </trkpt>
      <trkpt lat="47.58519" lon="6.78802">
        <ele>349.01007080078</ele>
        <time>2019-04-14T09:48:44.000Z</time>
      </trkpt>
      <trkpt lat="47.58503" lon="6.78815">
        <ele>348.56817626953</ele>
        <time>2019-04-14T09:48:47.000Z</time>
      </trkpt>
      <trkpt lat="47.5849" lon="6.78828">
        <ele>348.18447875977</ele>
        <time>2019-04-14T09:48:50.000Z</time>
      </trkpt>
      <trkpt lat="47.58476" lon="6.78842">
        <ele>347.79983520508</ele>
        <time>2019-04-14T09:48:53.000Z</time>
      </trkpt>
      <trkpt lat="47.58463" lon="6.78843">
        <ele>347.36065673828</ele>
        <time>2019-04-14T09:48:56.000Z</time>
      </trkpt>
      <trkpt lat="47.58456" lon="6.78822">
        <ele>346.83181762695</ele>
        <time>2019-04-14T09:48:59.000Z</time>
      </trkpt>
      <trkpt lat="47.58454" lon="6.78796">
        <ele>346.26846313477</ele>
        <time>2019-04-14T09:49:02.000Z</time>
      </trkpt>
      <trkpt lat="47.58455" lon="6.7877">
        <ele>345.65127563477</ele>
        <time>2019-04-14T09:49:05.000Z</time>
      </trkpt>
      <trkpt lat="47.58452" lon="6.78743">
        <ele>344.9801940918</ele>
        <time>2019-04-14T09:49:08.000Z</time>
      </trkpt>
      <trkpt lat="47.58452" lon="6.78716">
        <ele>344.38537597656</ele>
        <time>2019-04-14T09:49:11.000Z</time>
      </trkpt>
      <trkpt lat="47.58451" lon="6.78684">
        <ele>343.90130615234</ele>
        <time>2019-04-14T09:49:14.000Z</time>
      </trkpt>
      <trkpt lat="47.58442" lon="6.7865">
        <ele>343.37802124023</ele>
        <time>2019-04-14T09:49:17.000Z</time>
      </trkpt>
      <trkpt lat="47.5843" lon="6.78616">
        <ele>342.80279541016</ele>
        <time>2019-04-14T09:49:20.000Z</time>
      </trkpt>
      <trkpt lat="47.58411" lon="6.78607">
        <ele>342.26095581055</ele>
        <time>2019-04-14T09:49:23.000Z</time>
      </trkpt>
      <trkpt lat="47.58399" lon="6.786">
        <ele>341.71987915039</ele>
        <time>2019-04-14T09:49:26.000Z</time>
      </trkpt>
      <trkpt lat="47.58395" lon="6.78579">
        <ele>341.18438720703</ele>
        <time>2019-04-14T09:49:29.000Z</time>
      </trkpt>
      <trkpt lat="47.58393" lon="6.7856">
        <ele>340.85440063477</ele>
        <time>2019-04-14T09:49:32.000Z</time>
      </trkpt>
      <trkpt lat="47.58391" lon="6.78539">
        <ele>340.72006225586</ele>
        <time>2019-04-14T09:49:35.000Z</time>
      </trkpt>
      <trkpt lat="47.58382" lon="6.78521">
        <ele>340.65045166016</ele>
        <time>2019-04-14T09:49:38.000Z</time>
      </trkpt>
      <trkpt lat="47.58368" lon="6.78512">
        <ele>340.53915405273</ele>
        <time>2019-04-14T09:49:41.000Z</time>
      </trkpt>
      <trkpt lat="47.58353" lon="6.78504">
        <ele>340.37609863281</ele>
        <time>2019-04-14T09:49:44.000Z</time>
      </trkpt>
      <trkpt lat="47.58339" lon="6.78497">
        <ele>340.07150268555</ele>
        <time>2019-04-14T09:49:47.000Z</time>
      </trkpt>
      <trkpt lat="47.58323" lon="6.7849">
        <ele>339.58297729492</ele>
        <time>2019-04-14T09:49:50.000Z</time>
      </trkpt>
      <trkpt lat="47.58309" lon="6.78479">
        <ele>338.97943115234</ele>
        <time>2019-04-14T09:49:53.000Z</time>
      </trkpt>
      <trkpt lat="47.58294" lon="6.78472">
        <ele>338.34942626953</ele>
        <time>2019-04-14T09:49:56.000Z</time>
      </trkpt>
      <trkpt lat="47.58278" lon="6.78465">
        <ele>337.72564697266</ele>
        <time>2019-04-14T09:49:59.000Z</time>
      </trkpt>
      <trkpt lat="47.58262" lon="6.78454">
        <ele>337.14031982422</ele>
        <time>2019-04-14T09:50:02.000Z</time>
      </trkpt>
      <trkpt lat="47.58249" lon="6.78445">
        <ele>336.68365478516</ele>
        <time>2019-04-14T09:50:05.000Z</time>
      </trkpt>
      <trkpt lat="47.58232" lon="6.78436">
        <ele>336.42068481445</ele>
        <time>2019-04-14T09:50:08.000Z</time>
      </trkpt>
      <trkpt lat="47.58216" lon="6.78429">
        <ele>336.30657958984</ele>
        <time>2019-04-14T09:50:11.000Z</time>
      </trkpt>
      <trkpt lat="47.58199" lon="6.78421">
        <ele>336.31777954102</ele>
        <time>2019-04-14T09:50:14.000Z</time>
      </trkpt>
      <trkpt lat="47.58185" lon="6.78413">
        <ele>336.45953369141</ele>
        <time>2019-04-14T09:50:17.000Z</time>
      </trkpt>
      <trkpt lat="47.58171" lon="6.78418">
        <ele>336.64605712891</ele>
        <time>2019-04-14T09:50:20.000Z</time>
      </trkpt>
      <trkpt lat="47.58161" lon="6.78433">
        <ele>336.89923095703</ele>
        <time>2019-04-14T09:50:23.000Z</time>
      </trkpt>
      <trkpt lat="47.5815" lon="6.78448">
        <ele>337.29351806641</ele>
        <time>2019-04-14T09:50:26.000Z</time>
      </trkpt>
      <trkpt lat="47.58142" lon="6.78463">
        <ele>337.84481811523</ele>
        <time>2019-04-14T09:50:29.000Z</time>
      </trkpt>
      <trkpt lat="47.58131" lon="6.78472">
        <ele>338.55584716797</ele>
        <time>2019-04-14T09:50:32.000Z</time>
      </trkpt>
      <trkpt lat="47.58121" lon="6.78455">
        <ele>339.29632568359</ele>
        <time>2019-04-14T09:50:35.000Z</time>
      </trkpt>
      <trkpt lat="47.58111" lon="6.78438">
        <ele>339.91607666016</ele>
        <time>2019-04-14T09:50:38.000Z</time>
      </trkpt>
      <trkpt lat="47.581" lon="6.78423">
        <ele>340.33404541016</ele>
        <time>2019-04-14T09:50:41.000Z</time>
      </trkpt>
      <trkpt lat="47.58089" lon="6.78407">
        <ele>340.58270263672</ele>
        <time>2019-04-14T09:50:44.000Z</time>
      </trkpt>
      <trkpt lat="47.58078" lon="6.78388">
        <ele>340.71893310547</ele>
        <time>2019-04-14T09:50:47.000Z</time>
      </trkpt>
      <trkpt lat="47.58065" lon="6.78372">
        <ele>340.90692138672</ele>
        <time>2019-04-14T09:50:50.000Z</time>
      </trkpt>
      <trkpt lat="47.5805" lon="6.78356">
        <ele>341.07366943359</ele>
        <time>2019-04-14T09:50:53.000Z</time>
      </trkpt>
      <trkpt lat="47.58035" lon="6.78345">
        <ele>341.17489624023</ele>
        <time>2019-04-14T09:50:56.000Z</time>
      </trkpt>
      <trkpt lat="47.5802" lon="6.78332">
        <ele>341.04693603516</ele>
        <time>2019-04-14T09:50:59.000Z</time>
      </trkpt>
      <trkpt lat="47.58004" lon="6.78319">
        <ele>340.76745605469</ele>
        <time>2019-04-14T09:51:02.000Z</time>
      </trkpt>
      <trkpt lat="47.57991" lon="6.78303">
        <ele>340.52581787109</ele>
        <time>2019-04-14T09:51:05.000Z</time>
      </trkpt>
      <trkpt lat="47.57975" lon="6.78291">
        <ele>340.52279663086</ele>
        <time>2019-04-14T09:51:08.000Z</time>
      </trkpt>
      <trkpt lat="47.5796" lon="6.78277">
        <ele>340.67364501953</ele>
        <time>2019-04-14T09:51:11.000Z</time>
      </trkpt>
      <trkpt lat="47.57946" lon="6.78267">
        <ele>341.03344726562</ele>
        <time>2019-04-14T09:51:14.000Z</time>
      </trkpt>
      <trkpt lat="47.57934" lon="6.78255">
        <ele>341.29360961914</ele>
        <time>2019-04-14T09:51:17.000Z</time>
      </trkpt>
      <trkpt lat="47.57924" lon="6.78246">
        <ele>341.35134887695</ele>
        <time>2019-04-14T09:51:20.000Z</time>
      </trkpt>
      <trkpt lat="47.57921" lon="6.78251">
        <ele>341.26913452148</ele>
        <time>2019-04-14T09:51:23.000Z</time>
      </trkpt>
      <trkpt lat="47.57917" lon="6.78256">
        <ele>341.29718017578</ele>
        <time>2019-04-14T09:51:26.000Z</time>
      </trkpt>
      <trkpt lat="47.57914" lon="6.78261">
        <ele>341.54058837891</ele>
        <time>2019-04-14T09:51:29.000Z</time>
      </trkpt>
      <trkpt lat="47.57912" lon="6.78269">
        <ele>342.21166992188</ele>
        <time>2019-04-14T09:51:32.000Z</time>
      </trkpt>
      <trkpt lat="47.57912" lon="6.78276">
        <ele>343.19839477539</ele>
        <time>2019-04-14T09:51:35.000Z</time>
      </trkpt>
      <trkpt lat="47.57911" lon="6.78282">
        <ele>344.3388671875</ele>
        <time>2019-04-14T09:51:38.000Z</time>
      </trkpt>
      <trkpt lat="47.57909" lon="6.78287">
        <ele>345.50390625</ele>
        <time>2019-04-14T09:51:41.000Z</time>
      </trkpt>
      <trkpt lat="47.57909" lon="6.78292">
        <ele>346.60620117188</ele>
        <time>2019-04-14T09:51:44.000Z</time>
      </trkpt>
      <trkpt lat="47.57908" lon="6.78295">
        <ele>347.58453369141</ele>
        <time>2019-04-14T09:51:47.000Z</time>
      </trkpt>
      <trkpt lat="47.57907" lon="6.783">
        <ele>348.49526977539</ele>
        <time>2019-04-14T09:51:50.000Z</time>
      </trkpt>
      <trkpt lat="47.57907" lon="6.78305">
        <ele>349.33428955078</ele>
        <time>2019-04-14T09:51:53.000Z</time>
      </trkpt>
      <trkpt lat="47.57908" lon="6.78309">
        <ele>350.07467651367</ele>
        <time>2019-04-14T09:51:56.000Z</time>
      </trkpt>
      <trkpt lat="47.57911" lon="6.78313">
        <ele>350.69500732422</ele>
        <time>2019-04-14T09:51:59.000Z</time>
      </trkpt>
      <trkpt lat="47.57914" lon="6.78317">
        <ele>351.20953369141</ele>
        <time>2019-04-14T09:52:02.000Z</time>
      </trkpt>
      <trkpt lat="47.57918" lon="6.78322">
        <ele>351.59414672852</ele>
        <time>2019-04-14T09:52:05.000Z</time>
      </trkpt>
      <trkpt lat="47.57923" lon="6.78328">
        <ele>351.82806396484</ele>
        <time>2019-04-14T09:52:08.000Z</time>
      </trkpt>
      <trkpt lat="47.57927" lon="6.78333">
        <ele>351.98696899414</ele>
        <time>2019-04-14T09:52:11.000Z</time>
      </trkpt>
      <trkpt lat="47.57932" lon="6.78339">
        <ele>352.16333007812</ele>
        <time>2019-04-14T09:52:14.000Z</time>
      </trkpt>
      <trkpt lat="47.57936" lon="6.78346">
        <ele>352.32696533203</ele>
        <time>2019-04-14T09:52:17.000Z</time>
      </trkpt>
      <trkpt lat="47.5794" lon="6.78351">
        <ele>352.4938659668</ele>
        <time>2019-04-14T09:52:20.000Z</time>
      </trkpt>
      <trkpt lat="47.57944" lon="6.78358">
        <ele>352.71786499023</ele>
        <time>2019-04-14T09:52:23.000Z</time>
      </trkpt>
      <trkpt lat="47.57949" lon="6.78364">
        <ele>352.91864013672</ele>
        <time>2019-04-14T09:52:26.000Z</time>
      </trkpt>
      <trkpt lat="47.57954" lon="6.7837">
        <ele>353.08709716797</ele>
        <time>2019-04-14T09:52:29.000Z</time>
      </trkpt>
      <trkpt lat="47.5796" lon="6.78376">
        <ele>353.22756958008</ele>
        <time>2019-04-14T09:52:32.000Z</time>
      </trkpt>
      <trkpt lat="47.57967" lon="6.78383">
        <ele>353.2958984375</ele>
        <time>2019-04-14T09:52:35.000Z</time>
      </trkpt>
      <trkpt lat="47.57972" lon="6.78391">
        <ele>353.3180847168</ele>
        <time>2019-04-14T09:52:38.000Z</time>
      </trkpt>
      <trkpt lat="47.57978" lon="6.78399">
        <ele>353.37860107422</ele>
        <time>2019-04-14T09:52:41.000Z</time>
      </trkpt>
      <trkpt lat="47.57983" lon="6.78407">
        <ele>353.47845458984</ele>
        <time>2019-04-14T09:52:44.000Z</time>
      </trkpt>
      <trkpt lat="47.57988" lon="6.78416">
        <ele>353.65850830078</ele>
        <time>2019-04-14T09:52:47.000Z</time>
      </trkpt>
      <trkpt lat="47.57993" lon="6.78425">
        <ele>353.90240478516</ele>
        <time>2019-04-14T09:52:50.000Z</time>
      </trkpt>
      <trkpt lat="47.57996" lon="6.78436">
        <ele>354.19863891602</ele>
        <time>2019-04-14T09:52:53.000Z</time>
      </trkpt>
      <trkpt lat="47.58" lon="6.78445">
        <ele>354.50561523438</ele>
        <time>2019-04-14T09:52:56.000Z</time>
      </trkpt>
      <trkpt lat="47.58004" lon="6.78456">
        <ele>354.86114501953</ele>
        <time>2019-04-14T09:52:59.000Z</time>
      </trkpt>
      <trkpt lat="47.58007" lon="6.78466">
        <ele>355.24523925781</ele>
        <time>2019-04-14T09:53:02.000Z</time>
      </trkpt>
      <trkpt lat="47.58011" lon="6.78476">
        <ele>355.66464233398</ele>
        <time>2019-04-14T09:53:05.000Z</time>
      </trkpt>
      <trkpt lat="47.58015" lon="6.78487">
        <ele>356.09271240234</ele>
        <time>2019-04-14T09:53:08.000Z</time>
      </trkpt>
      <trkpt lat="47.58019" lon="6.78497">
        <ele>356.51953125</ele>
        <time>2019-04-14T09:53:11.000Z</time>
      </trkpt>
      <trkpt lat="47.58023" lon="6.78507">
        <ele>356.95385742188</ele>
        <time>2019-04-14T09:53:14.000Z</time>
      </trkpt>
      <trkpt lat="47.58028" lon="6.78516">
        <ele>357.36312866211</ele>
        <time>2019-04-14T09:53:17.000Z</time>
      </trkpt>
      <trkpt lat="47.58031" lon="6.78525">
        <ele>357.81567382812</ele>
        <time>2019-04-14T09:53:20.000Z</time>
      </trkpt>
      <trkpt lat="47.58035" lon="6.78535">
        <ele>358.2912902832</ele>
        <time>2019-04-14T09:53:23.000Z</time>
      </trkpt>
      <trkpt lat="47.5804" lon="6.78545">
        <ele>358.76605224609</ele>
        <time>2019-04-14T09:53:26.000Z</time>
      </trkpt>
      <trkpt lat="47.58045" lon="6.78555">
        <ele>359.1198425293</ele>
        <time>2019-04-14T09:53:29.000Z</time>
      </trkpt>
      <trkpt lat="47.5805" lon="6.78566">
        <ele>359.43774414062</ele>
        <time>2019-04-14T09:53:32.000Z</time>
      </trkpt>
      <trkpt lat="47.58054" lon="6.78578">
        <ele>359.73184204102</ele>
        <time>2019-04-14T09:53:35.000Z</time>
      </trkpt>
      <trkpt lat="47.58058" lon="6.7859">
        <ele>359.8876953125</ele>
        <time>2019-04-14T09:53:38.000Z</time>
      </trkpt>
      <trkpt lat="47.58062" lon="6.78603">
        <ele>359.9440612793</ele>
        <time>2019-04-14T09:53:41.000Z</time>
      </trkpt>
      <trkpt lat="47.58066" lon="6.78615">
        <ele>359.96475219727</ele>
        <time>2019-04-14T09:53:44.000Z</time>
      </trkpt>
      <trkpt lat="47.58069" lon="6.78628">
        <ele>359.89810180664</ele>
        <time>2019-04-14T09:53:47.000Z</time>
      </trkpt>
      <trkpt lat="47.58073" lon="6.78641">
        <ele>359.63522338867</ele>
        <time>2019-04-14T09:53:50.000Z</time>
      </trkpt>
      <trkpt lat="47.58078" lon="6.78655">
        <ele>359.24420166016</ele>
        <time>2019-04-14T09:53:53.000Z</time>
      </trkpt>
      <trkpt lat="47.58083" lon="6.7867">
        <ele>358.70013427734</ele>
        <time>2019-04-14T09:53:56.000Z</time>
      </trkpt>
      <trkpt lat="47.58088" lon="6.78686">
        <ele>358.2275390625</ele>
        <time>2019-04-14T09:53:59.000Z</time>
      </trkpt>
      <trkpt lat="47.58093" lon="6.78703">
        <ele>357.81918334961</ele>
        <time>2019-04-14T09:54:02.000Z</time>
      </trkpt>
      <trkpt lat="47.58097" lon="6.78722">
        <ele>357.59255981445</ele>
        <time>2019-04-14T09:54:05.000Z</time>
      </trkpt>
      <trkpt lat="47.58101" lon="6.7874">
        <ele>357.58831787109</ele>
        <time>2019-04-14T09:54:08.000Z</time>
      </trkpt>
      <trkpt lat="47.58103" lon="6.78756">
        <ele>357.83013916016</ele>
        <time>2019-04-14T09:54:11.000Z</time>
      </trkpt>
      <trkpt lat="47.58106" lon="6.78773">
        <ele>357.96075439453</ele>
        <time>2019-04-14T09:54:14.000Z</time>
      </trkpt>
      <trkpt lat="47.58107" lon="6.7879">
        <ele>358.07916259766</ele>
        <time>2019-04-14T09:54:17.000Z</time>
      </trkpt>
      <trkpt lat="47.58103" lon="6.78805">
        <ele>358.28726196289</ele>
        <time>2019-04-14T09:54:20.000Z</time>
      </trkpt>
      <trkpt lat="47.58099" lon="6.78817">
        <ele>358.57946777344</ele>
        <time>2019-04-14T09:54:23.000Z</time>
      </trkpt>
      <trkpt lat="47.58097" lon="6.78829">
        <ele>358.9192199707</ele>
        <time>2019-04-14T09:54:26.000Z</time>
      </trkpt>
      <trkpt lat="47.58095" lon="6.7884">
        <ele>359.41461181641</ele>
        <time>2019-04-14T09:54:29.000Z</time>
      </trkpt>
      <trkpt lat="47.58093" lon="6.78851">
        <ele>359.96981811523</ele>
        <time>2019-04-14T09:54:32.000Z</time>
      </trkpt>
      <trkpt lat="47.58091" lon="6.78861">
        <ele>360.43936157227</ele>
        <time>2019-04-14T09:54:35.000Z</time>
      </trkpt>
      <trkpt lat="47.58089" lon="6.78871">
        <ele>360.86373901367</ele>
        <time>2019-04-14T09:54:38.000Z</time>
      </trkpt>
      <trkpt lat="47.58086" lon="6.78881">
        <ele>361.28631591797</ele>
        <time>2019-04-14T09:54:41.000Z</time>
      </trkpt>
      <trkpt lat="47.58083" lon="6.78891">
        <ele>361.73104858398</ele>
        <time>2019-04-14T09:54:44.000Z</time>
      </trkpt>
      <trkpt lat="47.5808" lon="6.78899">
        <ele>362.36370849609</ele>
        <time>2019-04-14T09:54:47.000Z</time>
      </trkpt>
      <trkpt lat="47.58077" lon="6.78908">
        <ele>363.15155029297</ele>
        <time>2019-04-14T09:54:50.000Z</time>
      </trkpt>
      <trkpt lat="47.58074" lon="6.78916">
        <ele>364.14288330078</ele>
        <time>2019-04-14T09:54:53.000Z</time>
      </trkpt>
      <trkpt lat="47.5807" lon="6.78926">
        <ele>365.24185180664</ele>
        <time>2019-04-14T09:54:56.000Z</time>
      </trkpt>
      <trkpt lat="47.58068" lon="6.78935">
        <ele>366.404296875</ele>
        <time>2019-04-14T09:54:59.000Z</time>
      </trkpt>
      <trkpt lat="47.58064" lon="6.78942">
        <ele>367.49829101562</ele>
        <time>2019-04-14T09:55:02.000Z</time>
      </trkpt>
      <trkpt lat="47.58061" lon="6.7895">
        <ele>368.541015625</ele>
        <time>2019-04-14T09:55:05.000Z</time>
      </trkpt>
      <trkpt lat="47.58059" lon="6.78958">
        <ele>369.4094543457</ele>
        <time>2019-04-14T09:55:08.000Z</time>
      </trkpt>
      <trkpt lat="47.58056" lon="6.78967">
        <ele>370.19985961914</ele>
        <time>2019-04-14T09:55:11.000Z</time>
      </trkpt>
      <trkpt lat="47.58053" lon="6.78974">
        <ele>371.00805664062</ele>
        <time>2019-04-14T09:55:14.000Z</time>
      </trkpt>
      <trkpt lat="47.58048" lon="6.78982">
        <ele>371.91201782227</ele>
        <time>2019-04-14T09:55:17.000Z</time>
      </trkpt>
      <trkpt lat="47.58044" lon="6.78988">
        <ele>372.86117553711</ele>
        <time>2019-04-14T09:55:20.000Z</time>
      </trkpt>
      <trkpt lat="47.5804" lon="6.78994">
        <ele>373.89694213867</ele>
        <time>2019-04-14T09:55:23.000Z</time>
      </trkpt>
      <trkpt lat="47.58037" lon="6.79001">
        <ele>374.98071289062</ele>
        <time>2019-04-14T09:55:26.000Z</time>
      </trkpt>
      <trkpt lat="47.58034" lon="6.79006">
        <ele>376.05111694336</ele>
        <time>2019-04-14T09:55:29.000Z</time>
      </trkpt>
      <trkpt lat="47.5803" lon="6.79011">
        <ele>377.06912231445</ele>
        <time>2019-04-14T09:55:32.000Z</time>
      </trkpt>
      <trkpt lat="47.58026" lon="6.79016">
        <ele>377.99942016602</ele>
        <time>2019-04-14T09:55:35.000Z</time>
      </trkpt>
      <trkpt lat="47.58023" lon="6.79021">
        <ele>378.82818603516</ele>
        <time>2019-04-14T09:55:38.000Z</time>
      </trkpt>
      <trkpt lat="47.5802" lon="6.79026">
        <ele>379.61605834961</ele>
        <time>2019-04-14T09:55:41.000Z</time>
      </trkpt>
      <trkpt lat="47.58018" lon="6.79031">
        <ele>380.30346679688</ele>
        <time>2019-04-14T09:55:44.000Z</time>
      </trkpt>
      <trkpt lat="47.58015" lon="6.79035">
        <ele>380.85858154297</ele>
        <time>2019-04-14T09:55:47.000Z</time>
      </trkpt>
      <trkpt lat="47.58013" lon="6.79039">
        <ele>381.32171630859</ele>
        <time>2019-04-14T09:55:50.000Z</time>
      </trkpt>
      <trkpt lat="47.5801" lon="6.79043">
        <ele>381.73324584961</ele>
        <time>2019-04-14T09:55:53.000Z</time>
      </trkpt>
      <trkpt lat="47.58007" lon="6.79048">
        <ele>382.08746337891</ele>
        <time>2019-04-14T09:55:56.000Z</time>
      </trkpt>
      <trkpt lat="47.58006" lon="6.79053">
        <ele>382.39315795898</ele>
        <time>2019-04-14T09:55:59.000Z</time>
      </trkpt>
      <trkpt lat="47.58003" lon="6.79058">
        <ele>382.61468505859</ele>
        <time>2019-04-14T09:56:02.000Z</time>
      </trkpt>
      <trkpt lat="47.57999" lon="6.79062">
        <ele>382.88781738281</ele>
        <time>2019-04-14T09:56:05.000Z</time>
      </trkpt>
      <trkpt lat="47.57996" lon="6.79067">
        <ele>383.10122680664</ele>
        <time>2019-04-14T09:56:08.000Z</time>
      </trkpt>
      <trkpt lat="47.57994" lon="6.79072">
        <ele>383.24212646484</ele>
        <time>2019-04-14T09:56:11.000Z</time>
      </trkpt>
      <trkpt lat="47.57991" lon="6.79075">
        <ele>383.40341186523</ele>
        <time>2019-04-14T09:56:14.000Z</time>
      </trkpt>
      <trkpt lat="47.57988" lon="6.7908">
        <ele>383.59747314453</ele>
        <time>2019-04-14T09:56:17.000Z</time>
      </trkpt>
      <trkpt lat="47.57985" lon="6.79084">
        <ele>383.69079589844</ele>
        <time>2019-04-14T09:56:20.000Z</time>
      </trkpt>
      <trkpt lat="47.57983" lon="6.7909">
        <ele>383.88189697266</ele>
        <time>2019-04-14T09:56:23.000Z</time>
      </trkpt>
      <trkpt lat="47.5798" lon="6.79095">
        <ele>384.15249633789</ele>
        <time>2019-04-14T09:56:26.000Z</time>
      </trkpt>
      <trkpt lat="47.57977" lon="6.79099">
        <ele>384.48037719727</ele>
        <time>2019-04-14T09:56:29.000Z</time>
      </trkpt>
      <trkpt lat="47.57974" lon="6.79103">
        <ele>384.8630065918</ele>
        <time>2019-04-14T09:56:32.000Z</time>
      </trkpt>
      <trkpt lat="47.5797" lon="6.79103">
        <ele>385.39739990234</ele>
        <time>2019-04-14T09:56:35.000Z</time>
      </trkpt>
      <trkpt lat="47.57966" lon="6.79102">
        <ele>386.00604248047</ele>
        <time>2019-04-14T09:56:38.000Z</time>
      </trkpt>
      <trkpt lat="47.57962" lon="6.79099">
        <ele>386.69268798828</ele>
        <time>2019-04-14T09:56:41.000Z</time>
      </trkpt>
      <trkpt lat="47.57958" lon="6.79099">
        <ele>387.46173095703</ele>
        <time>2019-04-14T09:56:44.000Z</time>
      </trkpt>
      <trkpt lat="47.57954" lon="6.79101">
        <ele>388.27239990234</ele>
        <time>2019-04-14T09:56:47.000Z</time>
      </trkpt>
      <trkpt lat="47.57949" lon="6.79102">
        <ele>389.10552978516</ele>
        <time>2019-04-14T09:56:50.000Z</time>
      </trkpt>
      <trkpt lat="47.57944" lon="6.79105">
        <ele>389.92568969727</ele>
        <time>2019-04-14T09:56:53.000Z</time>
      </trkpt>
      <trkpt lat="47.5794" lon="6.79108">
        <ele>390.74380493164</ele>
        <time>2019-04-14T09:56:56.000Z</time>
      </trkpt>
      <trkpt lat="47.57934" lon="6.7911">
        <ele>391.59121704102</ele>
        <time>2019-04-14T09:56:59.000Z</time>
      </trkpt>
      <trkpt lat="47.57928" lon="6.7911">
        <ele>392.51528930664</ele>
        <time>2019-04-14T09:57:02.000Z</time>
      </trkpt>
      <trkpt lat="47.57923" lon="6.79109">
        <ele>393.45764160156</ele>
        <time>2019-04-14T09:57:05.000Z</time>
      </trkpt>
      <trkpt lat="47.57918" lon="6.79108">
        <ele>394.45687866211</ele>
        <time>2019-04-14T09:57:08.000Z</time>
      </trkpt>
      <trkpt lat="47.57913" lon="6.79108">
        <ele>395.3108215332</ele>
        <time>2019-04-14T09:57:11.000Z</time>
      </trkpt>
      <trkpt lat="47.57908" lon="6.79107">
        <ele>395.90249633789</ele>
        <time>2019-04-14T09:57:14.000Z</time>
      </trkpt>
      <trkpt lat="47.57904" lon="6.79106">
        <ele>396.21484375</ele>
        <time>2019-04-14T09:57:17.000Z</time>
      </trkpt>
      <trkpt lat="47.57898" lon="6.79105">
        <ele>396.26080322266</ele>
        <time>2019-04-14T09:57:20.000Z</time>
      </trkpt>
      <trkpt lat="47.57892" lon="6.79105">
        <ele>396.01885986328</ele>
        <time>2019-04-14T09:57:23.000Z</time>
      </trkpt>
      <trkpt lat="47.57887" lon="6.79105">
        <ele>395.70516967773</ele>
        <time>2019-04-14T09:57:26.000Z</time>
      </trkpt>
      <trkpt lat="47.57882" lon="6.79105">
        <ele>395.38510131836</ele>
        <time>2019-04-14T09:57:29.000Z</time>
      </trkpt>
      <trkpt lat="47.57875" lon="6.79107">
        <ele>395.02081298828</ele>
        <time>2019-04-14T09:57:32.000Z</time>
      </trkpt>
      <trkpt lat="47.57868" lon="6.79108">
        <ele>394.63092041016</ele>
        <time>2019-04-14T09:57:35.000Z</time>
      </trkpt>
      <trkpt lat="47.57861" lon="6.79109">
        <ele>394.21929931641</ele>
        <time>2019-04-14T09:57:38.000Z</time>
      </trkpt>
      <trkpt lat="47.57852" lon="6.79113">
        <ele>393.77111816406</ele>
        <time>2019-04-14T09:57:41.000Z</time>
      </trkpt>
      <trkpt lat="47.57844" lon="6.7912">
        <ele>393.31304931641</ele>
        <time>2019-04-14T09:57:44.000Z</time>
      </trkpt>
      <trkpt lat="47.57838" lon="6.79131">
        <ele>392.92874145508</ele>
        <time>2019-04-14T09:57:47.000Z</time>
      </trkpt>
      <trkpt lat="47.57833" lon="6.79144">
        <ele>392.66314697266</ele>
        <time>2019-04-14T09:57:50.000Z</time>
      </trkpt>
      <trkpt lat="47.57829" lon="6.79156">
        <ele>392.53100585938</ele>
        <time>2019-04-14T09:57:53.000Z</time>
      </trkpt>
      <trkpt lat="47.57825" lon="6.79169">
        <ele>392.55120849609</ele>
        <time>2019-04-14T09:57:56.000Z</time>
      </trkpt>
      <trkpt lat="47.57822" lon="6.79184">
        <ele>392.73086547852</ele>
        <time>2019-04-14T09:57:59.000Z</time>
      </trkpt>
      <trkpt lat="47.57818" lon="6.79198">
        <ele>393.01129150391</ele>
        <time>2019-04-14T09:58:02.000Z</time>
      </trkpt>
      <trkpt lat="47.57811" lon="6.7921">
        <ele>393.3239440918</ele>
        <time>2019-04-14T09:58:05.000Z</time>
      </trkpt>
      <trkpt lat="47.57801" lon="6.7922">
        <ele>393.62646484375</ele>
        <time>2019-04-14T09:58:08.000Z</time>
      </trkpt>
      <trkpt lat="47.57791" lon="6.79229">
        <ele>393.89575195312</ele>
        <time>2019-04-14T09:58:11.000Z</time>
      </trkpt>
      <trkpt lat="47.57781" lon="6.79237">
        <ele>394.08374023438</ele>
        <time>2019-04-14T09:58:14.000Z</time>
      </trkpt>
      <trkpt lat="47.57771" lon="6.79245">
        <ele>394.19921875</ele>
        <time>2019-04-14T09:58:17.000Z</time>
      </trkpt>
      <trkpt lat="47.5776" lon="6.79253">
        <ele>394.26416015625</ele>
        <time>2019-04-14T09:58:20.000Z</time>
      </trkpt>
      <trkpt lat="47.57749" lon="6.79261">
        <ele>394.31588745117</ele>
        <time>2019-04-14T09:58:23.000Z</time>
      </trkpt>
      <trkpt lat="47.57738" lon="6.7927">
        <ele>394.40460205078</ele>
        <time>2019-04-14T09:58:26.000Z</time>
      </trkpt>
      <trkpt lat="47.57728" lon="6.79278">
        <ele>394.53424072266</ele>
        <time>2019-04-14T09:58:29.000Z</time>
      </trkpt>
      <trkpt lat="47.57718" lon="6.79287">
        <ele>394.70294189453</ele>
        <time>2019-04-14T09:58:32.000Z</time>
      </trkpt>
      <trkpt lat="47.57708" lon="6.79295">
        <ele>394.90383911133</ele>
        <time>2019-04-14T09:58:35.000Z</time>
      </trkpt>
      <trkpt lat="47.57697" lon="6.79302">
        <ele>395.11743164062</ele>
        <time>2019-04-14T09:58:38.000Z</time>
      </trkpt>
      <trkpt lat="47.57687" lon="6.79309">
        <ele>395.29888916016</ele>
        <time>2019-04-14T09:58:41.000Z</time>
      </trkpt>
      <trkpt lat="47.57678" lon="6.79317">
        <ele>395.45794677734</ele>
        <time>2019-04-14T09:58:44.000Z</time>
      </trkpt>
      <trkpt lat="47.57669" lon="6.79325">
        <ele>395.59259033203</ele>
        <time>2019-04-14T09:58:47.000Z</time>
      </trkpt>
      <trkpt lat="47.57661" lon="6.79335">
        <ele>395.72076416016</ele>
        <time>2019-04-14T09:58:50.000Z</time>
      </trkpt>
      <trkpt lat="47.57655" lon="6.79346">
        <ele>395.8742980957</ele>
        <time>2019-04-14T09:58:53.000Z</time>
      </trkpt>
      <trkpt lat="47.57649" lon="6.79358">
        <ele>396.05310058594</ele>
        <time>2019-04-14T09:58:56.000Z</time>
      </trkpt>
      <trkpt lat="47.57643" lon="6.79371">
        <ele>396.24639892578</ele>
        <time>2019-04-14T09:58:59.000Z</time>
      </trkpt>
      <trkpt lat="47.57639" lon="6.79383">
        <ele>396.45022583008</ele>
        <time>2019-04-14T09:59:02.000Z</time>
      </trkpt>
      <trkpt lat="47.57634" lon="6.79396">
        <ele>396.64569091797</ele>
        <time>2019-04-14T09:59:05.000Z</time>
      </trkpt>
      <trkpt lat="47.57629" lon="6.79409">
        <ele>396.80633544922</ele>
        <time>2019-04-14T09:59:08.000Z</time>
      </trkpt>
      <trkpt lat="47.57624" lon="6.79423">
        <ele>396.94226074219</ele>
        <time>2019-04-14T09:59:11.000Z</time>
      </trkpt>
      <trkpt lat="47.5762" lon="6.79438">
        <ele>397.08648681641</ele>
        <time>2019-04-14T09:59:14.000Z</time>
      </trkpt>
      <trkpt lat="47.57615" lon="6.79453">
        <ele>397.24786376953</ele>
        <time>2019-04-14T09:59:17.000Z</time>
      </trkpt>
      <trkpt lat="47.57611" lon="6.79467">
        <ele>397.4465637207</ele>
        <time>2019-04-14T09:59:20.000Z</time>
      </trkpt>
      <trkpt lat="47.57608" lon="6.79482">
        <ele>397.6979675293</ele>
        <time>2019-04-14T09:59:23.000Z</time>
      </trkpt>
      <trkpt lat="47.57603" lon="6.79497">
        <ele>397.98623657227</ele>
        <time>2019-04-14T09:59:26.000Z</time>
      </trkpt>
      <trkpt lat="47.57598" lon="6.79512">
        <ele>398.27026367188</ele>
        <time>2019-04-14T09:59:29.000Z</time>
      </trkpt>
      <trkpt lat="47.57593" lon="6.79527">
        <ele>398.54321289062</ele>
        <time>2019-04-14T09:59:32.000Z</time>
      </trkpt>
      <trkpt lat="47.57588" lon="6.79542">
        <ele>398.79510498047</ele>
        <time>2019-04-14T09:59:35.000Z</time>
      </trkpt>
      <trkpt lat="47.57583" lon="6.79557">
        <ele>399.0080871582</ele>
        <time>2019-04-14T09:59:38.000Z</time>
      </trkpt>
      <trkpt lat="47.57579" lon="6.79573">
        <ele>399.25314331055</ele>
        <time>2019-04-14T09:59:41.000Z</time>
      </trkpt>
      <trkpt lat="47.57576" lon="6.79589">
        <ele>399.56433105469</ele>
        <time>2019-04-14T09:59:44.000Z</time>
      </trkpt>
      <trkpt lat="47.57573" lon="6.79604">
        <ele>399.95791625977</ele>
        <time>2019-04-14T09:59:47.000Z</time>
      </trkpt>
      <trkpt lat="47.57573" lon="6.79619">
        <ele>400.42407226562</ele>
        <time>2019-04-14T09:59:50.000Z</time>
      </trkpt>
      <trkpt lat="47.57573" lon="6.79634">
        <ele>400.96676635742</ele>
        <time>2019-04-14T09:59:53.000Z</time>
      </trkpt>
      <trkpt lat="47.57573" lon="6.79649">
        <ele>401.5205078125</ele>
        <time>2019-04-14T09:59:56.000Z</time>
      </trkpt>
      <trkpt lat="47.57574" lon="6.79664">
        <ele>402.07067871094</ele>
        <time>2019-04-14T09:59:59.000Z</time>
      </trkpt>
      <trkpt lat="47.57575" lon="6.7968">
        <ele>402.72885131836</ele>
        <time>2019-04-14T10:00:02.000Z</time>
      </trkpt>
      <trkpt lat="47.57576" lon="6.79696">
        <ele>403.52194213867</ele>
        <time>2019-04-14T10:00:05.000Z</time>
      </trkpt>
      <trkpt lat="47.57574" lon="6.79711">
        <ele>404.45495605469</ele>
        <time>2019-04-14T10:00:08.000Z</time>
      </trkpt>
      <trkpt lat="47.57572" lon="6.79727">
        <ele>405.52136230469</ele>
        <time>2019-04-14T10:00:11.000Z</time>
      </trkpt>
      <trkpt lat="47.57568" lon="6.79742">
        <ele>406.69937133789</ele>
        <time>2019-04-14T10:00:14.000Z</time>
      </trkpt>
      <trkpt lat="47.57564" lon="6.79756">
        <ele>407.79022216797</ele>
        <time>2019-04-14T10:00:17.000Z</time>
      </trkpt>
      <trkpt lat="47.5756" lon="6.79769">
        <ele>408.69873046875</ele>
        <time>2019-04-14T10:00:20.000Z</time>
      </trkpt>
      <trkpt lat="47.57556" lon="6.79782">
        <ele>409.41940307617</ele>
        <time>2019-04-14T10:00:23.000Z</time>
      </trkpt>
      <trkpt lat="47.57552" lon="6.79794">
        <ele>409.95440673828</ele>
        <time>2019-04-14T10:00:26.000Z</time>
      </trkpt>
      <trkpt lat="47.57547" lon="6.79805">
        <ele>410.31372070312</ele>
        <time>2019-04-14T10:00:29.000Z</time>
      </trkpt>
      <trkpt lat="47.57542" lon="6.79815">
        <ele>410.56185913086</ele>
        <time>2019-04-14T10:00:32.000Z</time>
      </trkpt>
      <trkpt lat="47.57537" lon="6.79826">
        <ele>410.77792358398</ele>
        <time>2019-04-14T10:00:35.000Z</time>
      </trkpt>
      <trkpt lat="47.57532" lon="6.79837">
        <ele>410.96142578125</ele>
        <time>2019-04-14T10:00:38.000Z</time>
      </trkpt>
      <trkpt lat="47.57526" lon="6.79847">
        <ele>411.10546875</ele>
        <time>2019-04-14T10:00:41.000Z</time>
      </trkpt>
      <trkpt lat="47.5752" lon="6.79856">
        <ele>411.22100830078</ele>
        <time>2019-04-14T10:00:44.000Z</time>
      </trkpt>
      <trkpt lat="47.57513" lon="6.79863">
        <ele>411.31353759766</ele>
        <time>2019-04-14T10:00:47.000Z</time>
      </trkpt>
      <trkpt lat="47.57506" lon="6.79868">
        <ele>411.37078857422</ele>
        <time>2019-04-14T10:00:50.000Z</time>
      </trkpt>
      <trkpt lat="47.57499" lon="6.79872">
        <ele>411.40313720703</ele>
        <time>2019-04-14T10:00:53.000Z</time>
      </trkpt>
      <trkpt lat="47.57493" lon="6.79875">
        <ele>411.52001953125</ele>
        <time>2019-04-14T10:00:56.000Z</time>
      </trkpt>
      <trkpt lat="47.57488" lon="6.79879">
        <ele>411.708984375</ele>
        <time>2019-04-14T10:00:59.000Z</time>
      </trkpt>
      <trkpt lat="47.57483" lon="6.79884">
        <ele>411.97265625</ele>
        <time>2019-04-14T10:01:02.000Z</time>
      </trkpt>
      <trkpt lat="47.57478" lon="6.7989">
        <ele>412.31964111328</ele>
        <time>2019-04-14T10:01:05.000Z</time>
      </trkpt>
      <trkpt lat="47.57475" lon="6.79896">
        <ele>412.73056030273</ele>
        <time>2019-04-14T10:01:08.000Z</time>
      </trkpt>
      <trkpt lat="47.57471" lon="6.79904">
        <ele>413.10287475586</ele>
        <time>2019-04-14T10:01:11.000Z</time>
      </trkpt>
      <trkpt lat="47.57469" lon="6.79913">
        <ele>413.44277954102</ele>
        <time>2019-04-14T10:01:14.000Z</time>
      </trkpt>
      <trkpt lat="47.57467" lon="6.7992">
        <ele>413.72271728516</ele>
        <time>2019-04-14T10:01:17.000Z</time>
      </trkpt>
      <trkpt lat="47.57464" lon="6.79929">
        <ele>413.92568969727</ele>
        <time>2019-04-14T10:01:20.000Z</time>
      </trkpt>
      <trkpt lat="47.57461" lon="6.7994">
        <ele>414.05853271484</ele>
        <time>2019-04-14T10:01:23.000Z</time>
      </trkpt>
      <trkpt lat="47.57458" lon="6.79951">
        <ele>414.12435913086</ele>
        <time>2019-04-14T10:01:26.000Z</time>
      </trkpt>
      <trkpt lat="47.57454" lon="6.79962">
        <ele>414.12689208984</ele>
        <time>2019-04-14T10:01:29.000Z</time>
      </trkpt>
      <trkpt lat="47.5745" lon="6.79974">
        <ele>414.09320068359</ele>
        <time>2019-04-14T10:01:32.000Z</time>
      </trkpt>
      <trkpt lat="47.57445" lon="6.79986">
        <ele>414.03515625</ele>
        <time>2019-04-14T10:01:35.000Z</time>
      </trkpt>
      <trkpt lat="47.57438" lon="6.79999">
        <ele>413.95718383789</ele>
        <time>2019-04-14T10:01:38.000Z</time>
      </trkpt>
      <trkpt lat="47.5743" lon="6.80012">
        <ele>413.8134765625</ele>
        <time>2019-04-14T10:01:41.000Z</time>
      </trkpt>
      <trkpt lat="47.57419" lon="6.80022">
        <ele>413.59136962891</ele>
        <time>2019-04-14T10:01:44.000Z</time>
      </trkpt>
      <trkpt lat="47.57405" lon="6.80033">
        <ele>413.25140380859</ele>
        <time>2019-04-14T10:01:47.000Z</time>
      </trkpt>
      <trkpt lat="47.57391" lon="6.80045">
        <ele>412.82171630859</ele>
        <time>2019-04-14T10:01:50.000Z</time>
      </trkpt>
      <trkpt lat="47.57376" lon="6.80057">
        <ele>412.32659912109</ele>
        <time>2019-04-14T10:01:53.000Z</time>
      </trkpt>
      <trkpt lat="47.5736" lon="6.8007">
        <ele>411.84552001953</ele>
        <time>2019-04-14T10:01:56.000Z</time>
      </trkpt>
      <trkpt lat="47.57344" lon="6.80086">
        <ele>411.40423583984</ele>
        <time>2019-04-14T10:01:59.000Z</time>
      </trkpt>
      <trkpt lat="47.5733" lon="6.801">
        <ele>410.92300415039</ele>
        <time>2019-04-14T10:02:02.000Z</time>
      </trkpt>
      <trkpt lat="47.57316" lon="6.80119">
        <ele>410.29550170898</ele>
        <time>2019-04-14T10:02:05.000Z</time>
      </trkpt>
      <trkpt lat="47.57303" lon="6.80137">
        <ele>409.56317138672</ele>
        <time>2019-04-14T10:02:08.000Z</time>
      </trkpt>
      <trkpt lat="47.57287" lon="6.8015">
        <ele>408.79067993164</ele>
        <time>2019-04-14T10:02:11.000Z</time>
      </trkpt>
      <trkpt lat="47.57269" lon="6.80159">
        <ele>408.03308105469</ele>
        <time>2019-04-14T10:02:14.000Z</time>
      </trkpt>
      <trkpt lat="47.5725" lon="6.80162">
        <ele>407.46704101562</ele>
        <time>2019-04-14T10:02:17.000Z</time>
      </trkpt>
      <trkpt lat="47.5723" lon="6.80165">
        <ele>407.15139770508</ele>
        <time>2019-04-14T10:02:20.000Z</time>
      </trkpt>
      <trkpt lat="47.5721" lon="6.80171">
        <ele>406.99975585938</ele>
        <time>2019-04-14T10:02:23.000Z</time>
      </trkpt>
      <trkpt lat="47.57191" lon="6.80181">
        <ele>406.90954589844</ele>
        <time>2019-04-14T10:02:26.000Z</time>
      </trkpt>
      <trkpt lat="47.57175" lon="6.80197">
        <ele>406.82778930664</ele>
        <time>2019-04-14T10:02:29.000Z</time>
      </trkpt>
      <trkpt lat="47.5716" lon="6.80213">
        <ele>406.77270507812</ele>
        <time>2019-04-14T10:02:32.000Z</time>
      </trkpt>
      <trkpt lat="47.57148" lon="6.80231">
        <ele>406.81387329102</ele>
        <time>2019-04-14T10:02:35.000Z</time>
      </trkpt>
      <trkpt lat="47.57137" lon="6.80244">
        <ele>407.00564575195</ele>
        <time>2019-04-14T10:02:38.000Z</time>
      </trkpt>
      <trkpt lat="47.57127" lon="6.80254">
        <ele>407.33892822266</ele>
        <time>2019-04-14T10:02:41.000Z</time>
      </trkpt>
      <trkpt lat="47.57116" lon="6.80263">
        <ele>407.82250976562</ele>
        <time>2019-04-14T10:02:44.000Z</time>
      </trkpt>
      <trkpt lat="47.57104" lon="6.80272">
        <ele>408.39691162109</ele>
        <time>2019-04-14T10:02:47.000Z</time>
      </trkpt>
      <trkpt lat="47.57091" lon="6.80279">
        <ele>409.05191040039</ele>
        <time>2019-04-14T10:02:50.000Z</time>
      </trkpt>
      <trkpt lat="47.57078" lon="6.80285">
        <ele>409.68334960938</ele>
        <time>2019-04-14T10:02:53.000Z</time>
      </trkpt>
      <trkpt lat="47.57065" lon="6.80293">
        <ele>410.21884155273</ele>
        <time>2019-04-14T10:02:56.000Z</time>
      </trkpt>
      <trkpt lat="47.57051" lon="6.80302">
        <ele>410.66445922852</ele>
        <time>2019-04-14T10:02:59.000Z</time>
      </trkpt>
      <trkpt lat="47.57039" lon="6.80309">
        <ele>411.02255249023</ele>
        <time>2019-04-14T10:03:02.000Z</time>
      </trkpt>
      <trkpt lat="47.57027" lon="6.80315">
        <ele>411.27368164062</ele>
        <time>2019-04-14T10:03:05.000Z</time>
      </trkpt>
      <trkpt lat="47.57014" lon="6.80321">
        <ele>411.5078125</ele>
        <time>2019-04-14T10:03:08.000Z</time>
      </trkpt>
      <trkpt lat="47.57002" lon="6.80325">
        <ele>411.8154296875</ele>
        <time>2019-04-14T10:03:11.000Z</time>
      </trkpt>
      <trkpt lat="47.56989" lon="6.80325">
        <ele>411.99151611328</ele>
        <time>2019-04-14T10:03:14.000Z</time>
      </trkpt>
      <trkpt lat="47.56975" lon="6.80325">
        <ele>411.98651123047</ele>
        <time>2019-04-14T10:03:17.000Z</time>
      </trkpt>
      <trkpt lat="47.56961" lon="6.80324">
        <ele>411.78460693359</ele>
        <time>2019-04-14T10:03:20.000Z</time>
      </trkpt>
      <trkpt lat="47.56946" lon="6.80324">
        <ele>411.35809326172</ele>
        <time>2019-04-14T10:03:23.000Z</time>
      </trkpt>
      <trkpt lat="47.56932" lon="6.80324">
        <ele>410.71844482422</ele>
        <time>2019-04-14T10:03:26.000Z</time>
      </trkpt>
      <trkpt lat="47.56916" lon="6.80323">
        <ele>410.02325439453</ele>
        <time>2019-04-14T10:03:29.000Z</time>
      </trkpt>
      <trkpt lat="47.56898" lon="6.80322">
        <ele>409.20626831055</ele>
        <time>2019-04-14T10:03:32.000Z</time>
      </trkpt>
      <trkpt lat="47.56875" lon="6.80316">
        <ele>408.17861938477</ele>
        <time>2019-04-14T10:03:35.000Z</time>
      </trkpt>
      <trkpt lat="47.56851" lon="6.80302">
        <ele>406.92608642578</ele>
        <time>2019-04-14T10:03:38.000Z</time>
      </trkpt>
      <trkpt lat="47.56829" lon="6.80286">
        <ele>405.44473266602</ele>
        <time>2019-04-14T10:03:41.000Z</time>
      </trkpt>
      <trkpt lat="47.56802" lon="6.80269">
        <ele>403.51544189453</ele>
        <time>2019-04-14T10:03:44.000Z</time>
      </trkpt>
      <trkpt lat="47.56775" lon="6.80247">
        <ele>401.166015625</ele>
        <time>2019-04-14T10:03:47.000Z</time>
      </trkpt>
      <trkpt lat="47.56746" lon="6.8022">
        <ele>398.44021606445</ele>
        <time>2019-04-14T10:03:50.000Z</time>
      </trkpt>
      <trkpt lat="47.56718" lon="6.8019">
        <ele>395.45791625977</ele>
        <time>2019-04-14T10:03:53.000Z</time>
      </trkpt>
      <trkpt lat="47.56689" lon="6.80165">
        <ele>392.24893188477</ele>
        <time>2019-04-14T10:03:56.000Z</time>
      </trkpt>
      <trkpt lat="47.56658" lon="6.80146">
        <ele>389.28485107422</ele>
        <time>2019-04-14T10:03:59.000Z</time>
      </trkpt>
      <trkpt lat="47.56628" lon="6.80127">
        <ele>386.79489135742</ele>
        <time>2019-04-14T10:04:02.000Z</time>
      </trkpt>
      <trkpt lat="47.56602" lon="6.8011">
        <ele>384.78964233398</ele>
        <time>2019-04-14T10:04:05.000Z</time>
      </trkpt>
      <trkpt lat="47.56572" lon="6.8011">
        <ele>383.12957763672</ele>
        <time>2019-04-14T10:04:08.000Z</time>
      </trkpt>
      <trkpt lat="47.56543" lon="6.80118">
        <ele>381.81878662109</ele>
        <time>2019-04-14T10:04:11.000Z</time>
      </trkpt>
      <trkpt lat="47.56515" lon="6.80123">
        <ele>380.62408447266</ele>
        <time>2019-04-14T10:04:14.000Z</time>
      </trkpt>
      <trkpt lat="47.56488" lon="6.80128">
        <ele>379.48138427734</ele>
        <time>2019-04-14T10:04:17.000Z</time>
      </trkpt>
      <trkpt lat="47.56461" lon="6.80132">
        <ele>378.56826782227</ele>
        <time>2019-04-14T10:04:20.000Z</time>
      </trkpt>
      <trkpt lat="47.56436" lon="6.80133">
        <ele>377.93856811523</ele>
        <time>2019-04-14T10:04:23.000Z</time>
      </trkpt>
      <trkpt lat="47.56412" lon="6.80129">
        <ele>377.52496337891</ele>
        <time>2019-04-14T10:04:26.000Z</time>
      </trkpt>
      <trkpt lat="47.56389" lon="6.80124">
        <ele>377.38729858398</ele>
        <time>2019-04-14T10:04:29.000Z</time>
      </trkpt>
      <trkpt lat="47.56365" lon="6.80118">
        <ele>377.41168212891</ele>
        <time>2019-04-14T10:04:32.000Z</time>
      </trkpt>
      <trkpt lat="47.5634" lon="6.80111">
        <ele>377.44241333008</ele>
        <time>2019-04-14T10:04:35.000Z</time>
      </trkpt>
      <trkpt lat="47.56313" lon="6.80114">
        <ele>377.60330200195</ele>
        <time>2019-04-14T10:04:38.000Z</time>
      </trkpt>
      <trkpt lat="47.56289" lon="6.80125">
        <ele>377.95135498047</ele>
        <time>2019-04-14T10:04:41.000Z</time>
      </trkpt>
      <trkpt lat="47.56268" lon="6.80137">
        <ele>378.36981201172</ele>
        <time>2019-04-14T10:04:44.000Z</time>
      </trkpt>
      <trkpt lat="47.56255" lon="6.80147">
        <ele>378.81353759766</ele>
        <time>2019-04-14T10:04:47.000Z</time>
      </trkpt>
      <trkpt lat="47.56236" lon="6.80153">
        <ele>379.2392578125</ele>
        <time>2019-04-14T10:04:50.000Z</time>
      </trkpt>
      <trkpt lat="47.56217" lon="6.80157">
        <ele>379.49826049805</ele>
        <time>2019-04-14T10:04:53.000Z</time>
      </trkpt>
      <trkpt lat="47.56202" lon="6.80156">
        <ele>379.55438232422</ele>
        <time>2019-04-14T10:04:56.000Z</time>
      </trkpt>
      <trkpt lat="47.5619" lon="6.8015">
        <ele>379.45834350586</ele>
        <time>2019-04-14T10:04:59.000Z</time>
      </trkpt>
      <trkpt lat="47.56177" lon="6.80141">
        <ele>379.26904296875</ele>
        <time>2019-04-14T10:05:02.000Z</time>
      </trkpt>
      <trkpt lat="47.56163" lon="6.80136">
        <ele>379.07534790039</ele>
        <time>2019-04-14T10:05:05.000Z</time>
      </trkpt>
      <trkpt lat="47.56149" lon="6.80138">
        <ele>378.9665222168</ele>
        <time>2019-04-14T10:05:08.000Z</time>
      </trkpt>
      <trkpt lat="47.56136" lon="6.80143">
        <ele>378.94467163086</ele>
        <time>2019-04-14T10:05:11.000Z</time>
      </trkpt>
      <trkpt lat="47.56124" lon="6.80148">
        <ele>379.01034545898</ele>
        <time>2019-04-14T10:05:14.000Z</time>
      </trkpt>
      <trkpt lat="47.56114" lon="6.80157">
        <ele>379.16510009766</ele>
        <time>2019-04-14T10:05:17.000Z</time>
      </trkpt>
      <trkpt lat="47.56107" lon="6.80167">
        <ele>379.37442016602</ele>
        <time>2019-04-14T10:05:20.000Z</time>
      </trkpt>
      <trkpt lat="47.561" lon="6.8018">
        <ele>379.63186645508</ele>
        <time>2019-04-14T10:05:23.000Z</time>
      </trkpt>
      <trkpt lat="47.56092" lon="6.8019">
        <ele>379.93823242188</ele>
        <time>2019-04-14T10:05:26.000Z</time>
      </trkpt>
      <trkpt lat="47.56083" lon="6.80197">
        <ele>380.2799987793</ele>
        <time>2019-04-14T10:05:29.000Z</time>
      </trkpt>
      <trkpt lat="47.56072" lon="6.802">
        <ele>380.67471313477</ele>
        <time>2019-04-14T10:05:32.000Z</time>
      </trkpt>
      <trkpt lat="47.56061" lon="6.802">
        <ele>381.11383056641</ele>
        <time>2019-04-14T10:05:35.000Z</time>
      </trkpt>
      <trkpt lat="47.56049" lon="6.80202">
        <ele>381.55267333984</ele>
        <time>2019-04-14T10:05:38.000Z</time>
      </trkpt>
      <trkpt lat="47.56031" lon="6.80205">
        <ele>382.05548095703</ele>
        <time>2019-04-14T10:05:41.000Z</time>
      </trkpt>
      <trkpt lat="47.5602" lon="6.80198">
        <ele>382.48257446289</ele>
        <time>2019-04-14T10:05:44.000Z</time>
      </trkpt>
      <trkpt lat="47.56012" lon="6.80184">
        <ele>382.70300292969</ele>
        <time>2019-04-14T10:05:47.000Z</time>
      </trkpt>
      <trkpt lat="47.56005" lon="6.80171">
        <ele>382.74270629883</ele>
        <time>2019-04-14T10:05:50.000Z</time>
      </trkpt>
      <trkpt lat="47.55995" lon="6.80167">
        <ele>382.74383544922</ele>
        <time>2019-04-14T10:05:53.000Z</time>
      </trkpt>
      <trkpt lat="47.55984" lon="6.80165">
        <ele>382.74911499023</ele>
        <time>2019-04-14T10:05:56.000Z</time>
      </trkpt>
      <trkpt lat="47.55973" lon="6.80162">
        <ele>382.93518066406</ele>
        <time>2019-04-14T10:05:59.000Z</time>
      </trkpt>
      <trkpt lat="47.55963" lon="6.80163">
        <ele>383.40829467773</ele>
        <time>2019-04-14T10:06:02.000Z</time>
      </trkpt>
      <trkpt lat="47.55954" lon="6.80167">
        <ele>384.15615844727</ele>
        <time>2019-04-14T10:06:05.000Z</time>
      </trkpt>
      <trkpt lat="47.55944" lon="6.8017">
        <ele>385.04028320312</ele>
        <time>2019-04-14T10:06:08.000Z</time>
      </trkpt>
      <trkpt lat="47.55936" lon="6.80171">
        <ele>385.90582275391</ele>
        <time>2019-04-14T10:06:11.000Z</time>
      </trkpt>
      <trkpt lat="47.55929" lon="6.80173">
        <ele>386.72219848633</ele>
        <time>2019-04-14T10:06:14.000Z</time>
      </trkpt>
      <trkpt lat="47.55922" lon="6.8018">
        <ele>387.55346679688</ele>
        <time>2019-04-14T10:06:17.000Z</time>
      </trkpt>
      <trkpt lat="47.55917" lon="6.80188">
        <ele>388.37710571289</ele>
        <time>2019-04-14T10:06:20.000Z</time>
      </trkpt>
      <trkpt lat="47.55909" lon="6.80196">
        <ele>389.11029052734</ele>
        <time>2019-04-14T10:06:23.000Z</time>
      </trkpt>
      <trkpt lat="47.55902" lon="6.80204">
        <ele>389.78265380859</ele>
        <time>2019-04-14T10:06:26.000Z</time>
      </trkpt>
      <trkpt lat="47.55896" lon="6.80208">
        <ele>390.38104248047</ele>
        <time>2019-04-14T10:06:29.000Z</time>
      </trkpt>
      <trkpt lat="47.55888" lon="6.80211">
        <ele>390.83383178711</ele>
        <time>2019-04-14T10:06:32.000Z</time>
      </trkpt>
      <trkpt lat="47.5588" lon="6.80212">
        <ele>391.15771484375</ele>
        <time>2019-04-14T10:06:35.000Z</time>
      </trkpt>
      <trkpt lat="47.55873" lon="6.80213">
        <ele>391.400390625</ele>
        <time>2019-04-14T10:06:38.000Z</time>
      </trkpt>
      <trkpt lat="47.55865" lon="6.80213">
        <ele>391.58056640625</ele>
        <time>2019-04-14T10:06:41.000Z</time>
      </trkpt>
      <trkpt lat="47.55859" lon="6.80211">
        <ele>391.69091796875</ele>
        <time>2019-04-14T10:06:44.000Z</time>
      </trkpt>
      <trkpt lat="47.55853" lon="6.80207">
        <ele>391.744140625</ele>
        <time>2019-04-14T10:06:47.000Z</time>
      </trkpt>
      <trkpt lat="47.55844" lon="6.80204">
        <ele>391.75634765625</ele>
        <time>2019-04-14T10:06:50.000Z</time>
      </trkpt>
      <trkpt lat="47.55835" lon="6.80201">
        <ele>391.7314453125</ele>
        <time>2019-04-14T10:06:53.000Z</time>
      </trkpt>
      <trkpt lat="47.55826" lon="6.80195">
        <ele>391.6103515625</ele>
        <time>2019-04-14T10:06:56.000Z</time>
      </trkpt>
      <trkpt lat="47.55818" lon="6.80186">
        <ele>391.39990234375</ele>
        <time>2019-04-14T10:06:59.000Z</time>
      </trkpt>
      <trkpt lat="47.5581" lon="6.80174">
        <ele>391.07568359375</ele>
        <time>2019-04-14T10:07:02.000Z</time>
      </trkpt>
      <trkpt lat="47.55799" lon="6.80169">
        <ele>390.68505859375</ele>
        <time>2019-04-14T10:07:05.000Z</time>
      </trkpt>
      <trkpt lat="47.55785" lon="6.80171">
        <ele>390.28662109375</ele>
        <time>2019-04-14T10:07:08.000Z</time>
      </trkpt>
      <trkpt lat="47.55767" lon="6.8018">
        <ele>390.00927734375</ele>
        <time>2019-04-14T10:07:11.000Z</time>
      </trkpt>
      <trkpt lat="47.55758" lon="6.80184">
        <ele>389.84423828125</ele>
        <time>2019-04-14T10:07:14.000Z</time>
      </trkpt>
      <trkpt lat="47.55745" lon="6.80187">
        <ele>389.74978637695</ele>
        <time>2019-04-14T10:07:17.000Z</time>
      </trkpt>
      <trkpt lat="47.55732" lon="6.8019">
        <ele>389.59579467773</ele>
        <time>2019-04-14T10:07:20.000Z</time>
      </trkpt>
      <trkpt lat="47.55716" lon="6.80198">
        <ele>389.29742431641</ele>
        <time>2019-04-14T10:07:23.000Z</time>
      </trkpt>
      <trkpt lat="47.557" lon="6.80212">
        <ele>388.826171875</ele>
        <time>2019-04-14T10:07:26.000Z</time>
      </trkpt>
      <trkpt lat="47.55683" lon="6.80225">
        <ele>388.17318725586</ele>
        <time>2019-04-14T10:07:29.000Z</time>
      </trkpt>
      <trkpt lat="47.55664" lon="6.80231">
        <ele>387.32220458984</ele>
        <time>2019-04-14T10:07:32.000Z</time>
      </trkpt>
      <trkpt lat="47.55646" lon="6.80234">
        <ele>386.30364990234</ele>
        <time>2019-04-14T10:07:35.000Z</time>
      </trkpt>
      <trkpt lat="47.55634" lon="6.80243">
        <ele>385.28839111328</ele>
        <time>2019-04-14T10:07:38.000Z</time>
      </trkpt>
      <trkpt lat="47.5562" lon="6.80247">
        <ele>384.19018554688</ele>
        <time>2019-04-14T10:07:41.000Z</time>
      </trkpt>
      <trkpt lat="47.5561" lon="6.80249">
        <ele>383.10107421875</ele>
        <time>2019-04-14T10:07:44.000Z</time>
      </trkpt>
      <trkpt lat="47.556" lon="6.80249">
        <ele>382.09814453125</ele>
        <time>2019-04-14T10:07:47.000Z</time>
      </trkpt>
      <trkpt lat="47.55589" lon="6.80248">
        <ele>381.20581054688</ele>
        <time>2019-04-14T10:07:50.000Z</time>
      </trkpt>
      <trkpt lat="47.55579" lon="6.80244">
        <ele>380.33059692383</ele>
        <time>2019-04-14T10:07:53.000Z</time>
      </trkpt>
      <trkpt lat="47.55569" lon="6.80238">
        <ele>379.56085205078</ele>
        <time>2019-04-14T10:07:56.000Z</time>
      </trkpt>
      <trkpt lat="47.55556" lon="6.8023">
        <ele>378.80743408203</ele>
        <time>2019-04-14T10:07:59.000Z</time>
      </trkpt>
      <trkpt lat="47.55538" lon="6.80227">
        <ele>378.06973266602</ele>
        <time>2019-04-14T10:08:02.000Z</time>
      </trkpt>
      <trkpt lat="47.55516" lon="6.80228">
        <ele>377.35803222656</ele>
        <time>2019-04-14T10:08:05.000Z</time>
      </trkpt>
      <trkpt lat="47.55492" lon="6.80241">
        <ele>376.72747802734</ele>
        <time>2019-04-14T10:08:08.000Z</time>
      </trkpt>
      <trkpt lat="47.55474" lon="6.80255">
        <ele>376.16693115234</ele>
        <time>2019-04-14T10:08:11.000Z</time>
      </trkpt>
      <trkpt lat="47.55465" lon="6.80265">
        <ele>375.68377685547</ele>
        <time>2019-04-14T10:08:14.000Z</time>
      </trkpt>
      <trkpt lat="47.55465" lon="6.80265">
        <ele>375.68377685547</ele>
        <time>2019-04-14T10:08:34.000Z</time>
      </trkpt>
      <trkpt lat="47.55462" lon="6.80268">
        <ele>375.3349609375</ele>
        <time>2019-04-14T10:08:45.000Z</time>
      </trkpt>
      <trkpt lat="47.55462" lon="6.80269">
        <ele>375.14459228516</ele>
        <time>2019-04-14T10:08:48.000Z</time>
      </trkpt>
      <trkpt lat="47.55462" lon="6.80269">
        <ele>375.14459228516</ele>
        <time>2019-04-14T10:09:08.000Z</time>
      </trkpt>
      <trkpt lat="47.55461" lon="6.80267">
        <ele>375.01724243164</ele>
        <time>2019-04-14T10:09:11.000Z</time>
      </trkpt>
      <trkpt lat="47.5546" lon="6.80267">
        <ele>374.91290283203</ele>
        <time>2019-04-14T10:09:14.000Z</time>
      </trkpt>
      <trkpt lat="47.5546" lon="6.80271">
        <ele>374.8669128418</ele>
        <time>2019-04-14T10:09:17.000Z</time>
      </trkpt>
      <trkpt lat="47.55462" lon="6.80273">
        <ele>374.85073852539</ele>
        <time>2019-04-14T10:09:20.000Z</time>
      </trkpt>
      <trkpt lat="47.55459" lon="6.80271">
        <ele>374.82678222656</ele>
        <time>2019-04-14T10:09:23.000Z</time>
      </trkpt>
      <trkpt lat="47.55458" lon="6.80269">
        <ele>374.79974365234</ele>
        <time>2019-04-14T10:09:26.000Z</time>
      </trkpt>
      <trkpt lat="47.55461" lon="6.80268">
        <ele>374.80325317383</ele>
        <time>2019-04-14T10:09:29.000Z</time>
      </trkpt>
      <trkpt lat="47.55461" lon="6.80268">
        <ele>374.80325317383</ele>
        <time>2019-04-14T10:09:49.000Z</time>
      </trkpt>
      <trkpt lat="47.55462" lon="6.80269">
        <ele>374.82241821289</ele>
        <time>2019-04-14T10:10:00.000Z</time>
      </trkpt>
      <trkpt lat="47.55462" lon="6.8027">
        <ele>374.82836914062</ele>
        <time>2019-04-14T10:10:03.000Z</time>
      </trkpt>
      <trkpt lat="47.55462" lon="6.8027">
        <ele>374.82836914062</ele>
        <time>2019-04-14T10:10:23.000Z</time>
      </trkpt>
      <trkpt lat="47.55461" lon="6.8027">
        <ele>374.84292602539</ele>
        <time>2019-04-14T10:11:09.000Z</time>
      </trkpt>
      <trkpt lat="47.55463" lon="6.80267">
        <ele>374.88418579102</ele>
        <time>2019-04-14T10:11:12.000Z</time>
      </trkpt>
      <trkpt lat="47.55464" lon="6.80266">
        <ele>374.9140625</ele>
        <time>2019-04-14T10:11:15.000Z</time>
      </trkpt>
      <trkpt lat="47.55464" lon="6.80266">
        <ele>374.9140625</ele>
        <time>2019-04-14T10:11:35.000Z</time>
      </trkpt>
      <trkpt lat="47.55466" lon="6.80265">
        <ele>374.94815063477</ele>
        <time>2019-04-14T10:11:38.000Z</time>
      </trkpt>
      <trkpt lat="47.55466" lon="6.80271">
        <ele>374.97821044922</ele>
        <time>2019-04-14T10:11:51.000Z</time>
      </trkpt>
      <trkpt lat="47.55465" lon="6.80272">
        <ele>375.00616455078</ele>
        <time>2019-04-14T10:11:54.000Z</time>
      </trkpt>
      <trkpt lat="47.55463" lon="6.80269">
        <ele>375.00183105469</ele>
        <time>2019-04-14T10:12:00.000Z</time>
      </trkpt>
      <trkpt lat="47.55459" lon="6.80269">
        <ele>374.96307373047</ele>
        <time>2019-04-14T10:12:11.000Z</time>
      </trkpt>
      <trkpt lat="47.55459" lon="6.80269">
        <ele>374.96307373047</ele>
        <time>2019-04-14T10:12:31.000Z</time>
      </trkpt>
      <trkpt lat="47.55457" lon="6.80276">
        <ele>374.87774658203</ele>
        <time>2019-04-14T10:13:29.000Z</time>
      </trkpt>
      <trkpt lat="47.55457" lon="6.80276">
        <ele>374.87774658203</ele>
        <time>2019-04-14T10:13:49.000Z</time>
      </trkpt>
      <trkpt lat="47.55456" lon="6.80278">
        <ele>374.78713989258</ele>
        <time>2019-04-14T10:15:05.000Z</time>
      </trkpt>
      <trkpt lat="47.55456" lon="6.80278">
        <ele>374.78713989258</ele>
        <time>2019-04-14T10:15:25.000Z</time>
      </trkpt>
      <trkpt lat="47.55457" lon="6.80273">
        <ele>374.7292175293</ele>
        <time>2019-04-14T10:15:54.000Z</time>
      </trkpt>
      <trkpt lat="47.55462" lon="6.80268">
        <ele>374.72360229492</ele>
        <time>2019-04-14T10:16:01.000Z</time>
      </trkpt>
      <trkpt lat="47.55462" lon="6.80268">
        <ele>374.72360229492</ele>
        <time>2019-04-14T10:16:21.000Z</time>
      </trkpt>
      <trkpt lat="47.55457" lon="6.8027">
        <ele>374.70474243164</ele>
        <time>2019-04-14T10:18:07.000Z</time>
      </trkpt>
      <trkpt lat="47.55453" lon="6.80275">
        <ele>374.67617797852</ele>
        <time>2019-04-14T10:18:10.000Z</time>
      </trkpt>
      <trkpt lat="47.55447" lon="6.80279">
        <ele>374.60052490234</ele>
        <time>2019-04-14T10:18:13.000Z</time>
      </trkpt>
      <trkpt lat="47.55439" lon="6.80278">
        <ele>374.44418334961</ele>
        <time>2019-04-14T10:18:16.000Z</time>
      </trkpt>
      <trkpt lat="47.5543" lon="6.80276">
        <ele>374.17828369141</ele>
        <time>2019-04-14T10:18:19.000Z</time>
      </trkpt>
      <trkpt lat="47.55415" lon="6.80283">
        <ele>373.78939819336</ele>
        <time>2019-04-14T10:18:22.000Z</time>
      </trkpt>
      <trkpt lat="47.55401" lon="6.80296">
        <ele>373.34902954102</ele>
        <time>2019-04-14T10:18:25.000Z</time>
      </trkpt>
      <trkpt lat="47.55384" lon="6.80302">
        <ele>372.94674682617</ele>
        <time>2019-04-14T10:18:28.000Z</time>
      </trkpt>
      <trkpt lat="47.55367" lon="6.80306">
        <ele>372.60375976562</ele>
        <time>2019-04-14T10:18:31.000Z</time>
      </trkpt>
      <trkpt lat="47.55354" lon="6.80303">
        <ele>372.33325195312</ele>
        <time>2019-04-14T10:18:34.000Z</time>
      </trkpt>
      <trkpt lat="47.55344" lon="6.80297">
        <ele>372.20855712891</ele>
        <time>2019-04-14T10:18:37.000Z</time>
      </trkpt>
      <trkpt lat="47.55336" lon="6.8028">
        <ele>372.10513305664</ele>
        <time>2019-04-14T10:18:40.000Z</time>
      </trkpt>
      <trkpt lat="47.55324" lon="6.80269">
        <ele>371.966796875</ele>
        <time>2019-04-14T10:18:43.000Z</time>
      </trkpt>
      <trkpt lat="47.55313" lon="6.80267">
        <ele>371.81759643555</ele>
        <time>2019-04-14T10:18:46.000Z</time>
      </trkpt>
      <trkpt lat="47.55297" lon="6.80272">
        <ele>371.70300292969</ele>
        <time>2019-04-14T10:18:49.000Z</time>
      </trkpt>
      <trkpt lat="47.55289" lon="6.80271">
        <ele>371.60198974609</ele>
        <time>2019-04-14T10:18:52.000Z</time>
      </trkpt>
      <trkpt lat="47.55279" lon="6.8027">
        <ele>371.57373046875</ele>
        <time>2019-04-14T10:18:55.000Z</time>
      </trkpt>
      <trkpt lat="47.55268" lon="6.80273">
        <ele>371.63345336914</ele>
        <time>2019-04-14T10:18:58.000Z</time>
      </trkpt>
      <trkpt lat="47.55256" lon="6.80281">
        <ele>371.76412963867</ele>
        <time>2019-04-14T10:19:01.000Z</time>
      </trkpt>
      <trkpt lat="47.55244" lon="6.80292">
        <ele>371.96371459961</ele>
        <time>2019-04-14T10:19:04.000Z</time>
      </trkpt>
      <trkpt lat="47.55235" lon="6.80301">
        <ele>372.27215576172</ele>
        <time>2019-04-14T10:19:07.000Z</time>
      </trkpt>
      <trkpt lat="47.55226" lon="6.80308">
        <ele>372.67776489258</ele>
        <time>2019-04-14T10:19:10.000Z</time>
      </trkpt>
      <trkpt lat="47.55219" lon="6.80316">
        <ele>373.14642333984</ele>
        <time>2019-04-14T10:19:13.000Z</time>
      </trkpt>
      <trkpt lat="47.55211" lon="6.80326">
        <ele>373.658203125</ele>
        <time>2019-04-14T10:19:16.000Z</time>
      </trkpt>
      <trkpt lat="47.55203" lon="6.80335">
        <ele>374.16098022461</ele>
        <time>2019-04-14T10:19:19.000Z</time>
      </trkpt>
      <trkpt lat="47.55195" lon="6.80343">
        <ele>374.63101196289</ele>
        <time>2019-04-14T10:19:22.000Z</time>
      </trkpt>
      <trkpt lat="47.55189" lon="6.8035">
        <ele>375.06561279297</ele>
        <time>2019-04-14T10:19:25.000Z</time>
      </trkpt>
      <trkpt lat="47.55181" lon="6.80359">
        <ele>375.46701049805</ele>
        <time>2019-04-14T10:19:28.000Z</time>
      </trkpt>
      <trkpt lat="47.55173" lon="6.80366">
        <ele>375.80181884766</ele>
        <time>2019-04-14T10:19:31.000Z</time>
      </trkpt>
      <trkpt lat="47.55164" lon="6.80371">
        <ele>376.04156494141</ele>
        <time>2019-04-14T10:19:34.000Z</time>
      </trkpt>
      <trkpt lat="47.55156" lon="6.80378">
        <ele>376.1448059082</ele>
        <time>2019-04-14T10:19:37.000Z</time>
      </trkpt>
      <trkpt lat="47.55144" lon="6.80383">
        <ele>376.09869384766</ele>
        <time>2019-04-14T10:19:40.000Z</time>
      </trkpt>
      <trkpt lat="47.55131" lon="6.80391">
        <ele>375.89483642578</ele>
        <time>2019-04-14T10:19:43.000Z</time>
      </trkpt>
      <trkpt lat="47.5512" lon="6.80404">
        <ele>375.56973266602</ele>
        <time>2019-04-14T10:19:46.000Z</time>
      </trkpt>
      <trkpt lat="47.55101" lon="6.80424">
        <ele>375.11923217773</ele>
        <time>2019-04-14T10:19:49.000Z</time>
      </trkpt>
      <trkpt lat="47.55087" lon="6.8044">
        <ele>374.71450805664</ele>
        <time>2019-04-14T10:19:52.000Z</time>
      </trkpt>
      <trkpt lat="47.5507" lon="6.80461">
        <ele>374.33978271484</ele>
        <time>2019-04-14T10:19:55.000Z</time>
      </trkpt>
      <trkpt lat="47.55056" lon="6.80479">
        <ele>373.99172973633</ele>
        <time>2019-04-14T10:19:58.000Z</time>
      </trkpt>
      <trkpt lat="47.5504" lon="6.80501">
        <ele>373.64105224609</ele>
        <time>2019-04-14T10:20:01.000Z</time>
      </trkpt>
      <trkpt lat="47.55025" lon="6.80522">
        <ele>373.39785766602</ele>
        <time>2019-04-14T10:20:04.000Z</time>
      </trkpt>
      <trkpt lat="47.55008" lon="6.8054">
        <ele>373.08950805664</ele>
        <time>2019-04-14T10:20:07.000Z</time>
      </trkpt>
      <trkpt lat="47.54987" lon="6.80553">
        <ele>372.76223754883</ele>
        <time>2019-04-14T10:20:10.000Z</time>
      </trkpt>
      <trkpt lat="47.54967" lon="6.80562">
        <ele>372.44384765625</ele>
        <time>2019-04-14T10:20:13.000Z</time>
      </trkpt>
      <trkpt lat="47.54942" lon="6.80575">
        <ele>372.1572265625</ele>
        <time>2019-04-14T10:20:16.000Z</time>
      </trkpt>
      <trkpt lat="47.54924" lon="6.80585">
        <ele>371.84213256836</ele>
        <time>2019-04-14T10:20:19.000Z</time>
      </trkpt>
      <trkpt lat="47.5491" lon="6.80594">
        <ele>371.62762451172</ele>
        <time>2019-04-14T10:20:22.000Z</time>
      </trkpt>
      <trkpt lat="47.549" lon="6.80599">
        <ele>371.51040649414</ele>
        <time>2019-04-14T10:20:25.000Z</time>
      </trkpt>
      <trkpt lat="47.54887" lon="6.80604">
        <ele>371.46539306641</ele>
        <time>2019-04-14T10:20:28.000Z</time>
      </trkpt>
      <trkpt lat="47.54872" lon="6.80611">
        <ele>371.4866027832</ele>
        <time>2019-04-14T10:20:31.000Z</time>
      </trkpt>
      <trkpt lat="47.54854" lon="6.80617">
        <ele>371.53643798828</ele>
        <time>2019-04-14T10:20:34.000Z</time>
      </trkpt>
      <trkpt lat="47.54836" lon="6.80626">
        <ele>371.56646728516</ele>
        <time>2019-04-14T10:20:37.000Z</time>
      </trkpt>
      <trkpt lat="47.54819" lon="6.80635">
        <ele>371.61560058594</ele>
        <time>2019-04-14T10:20:40.000Z</time>
      </trkpt>
      <trkpt lat="47.54802" lon="6.80641">
        <ele>371.67025756836</ele>
        <time>2019-04-14T10:20:43.000Z</time>
      </trkpt>
      <trkpt lat="47.54789" lon="6.80649">
        <ele>371.73046875</ele>
        <time>2019-04-14T10:20:46.000Z</time>
      </trkpt>
      <trkpt lat="47.54776" lon="6.80655">
        <ele>371.81301879883</ele>
        <time>2019-04-14T10:20:49.000Z</time>
      </trkpt>
      <trkpt lat="47.54757" lon="6.8066">
        <ele>371.88323974609</ele>
        <time>2019-04-14T10:20:52.000Z</time>
      </trkpt>
      <trkpt lat="47.54747" lon="6.80661">
        <ele>371.89828491211</ele>
        <time>2019-04-14T10:20:55.000Z</time>
      </trkpt>
      <trkpt lat="47.5474" lon="6.80657">
        <ele>371.86096191406</ele>
        <time>2019-04-14T10:20:58.000Z</time>
      </trkpt>
      <trkpt lat="47.54731" lon="6.80654">
        <ele>371.76040649414</ele>
        <time>2019-04-14T10:21:01.000Z</time>
      </trkpt>
      <trkpt lat="47.5472" lon="6.80651">
        <ele>371.60391235352</ele>
        <time>2019-04-14T10:21:04.000Z</time>
      </trkpt>
      <trkpt lat="47.54711" lon="6.80643">
        <ele>371.388671875</ele>
        <time>2019-04-14T10:21:07.000Z</time>
      </trkpt>
      <trkpt lat="47.54705" lon="6.80636">
        <ele>371.12734985352</ele>
        <time>2019-04-14T10:21:10.000Z</time>
      </trkpt>
      <trkpt lat="47.54691" lon="6.8063">
        <ele>370.81561279297</ele>
        <time>2019-04-14T10:21:13.000Z</time>
      </trkpt>
      <trkpt lat="47.54675" lon="6.8063">
        <ele>370.49087524414</ele>
        <time>2019-04-14T10:21:16.000Z</time>
      </trkpt>
      <trkpt lat="47.54653" lon="6.80634">
        <ele>369.96420288086</ele>
        <time>2019-04-14T10:21:19.000Z</time>
      </trkpt>
      <trkpt lat="47.54631" lon="6.8063">
        <ele>369.07406616211</ele>
        <time>2019-04-14T10:21:22.000Z</time>
      </trkpt>
      <trkpt lat="47.54609" lon="6.8063">
        <ele>367.85006713867</ele>
        <time>2019-04-14T10:21:25.000Z</time>
      </trkpt>
      <trkpt lat="47.54594" lon="6.80631">
        <ele>366.42202758789</ele>
        <time>2019-04-14T10:21:28.000Z</time>
      </trkpt>
      <trkpt lat="47.54579" lon="6.80635">
        <ele>364.86892700195</ele>
        <time>2019-04-14T10:21:31.000Z</time>
      </trkpt>
      <trkpt lat="47.54564" lon="6.8064">
        <ele>363.58599853516</ele>
        <time>2019-04-14T10:21:34.000Z</time>
      </trkpt>
      <trkpt lat="47.5455" lon="6.80645">
        <ele>362.74887084961</ele>
        <time>2019-04-14T10:21:37.000Z</time>
      </trkpt>
      <trkpt lat="47.54535" lon="6.80652">
        <ele>362.30816650391</ele>
        <time>2019-04-14T10:21:40.000Z</time>
      </trkpt>
      <trkpt lat="47.54514" lon="6.80665">
        <ele>362.12741088867</ele>
        <time>2019-04-14T10:21:43.000Z</time>
      </trkpt>
      <trkpt lat="47.54498" lon="6.80679">
        <ele>361.97784423828</ele>
        <time>2019-04-14T10:21:46.000Z</time>
      </trkpt>
      <trkpt lat="47.54474" lon="6.80697">
        <ele>361.46206665039</ele>
        <time>2019-04-14T10:21:49.000Z</time>
      </trkpt>
      <trkpt lat="47.54455" lon="6.80716">
        <ele>360.72705078125</ele>
        <time>2019-04-14T10:21:52.000Z</time>
      </trkpt>
      <trkpt lat="47.54437" lon="6.80732">
        <ele>359.89602661133</ele>
        <time>2019-04-14T10:21:55.000Z</time>
      </trkpt>
      <trkpt lat="47.54421" lon="6.80752">
        <ele>359.09405517578</ele>
        <time>2019-04-14T10:21:58.000Z</time>
      </trkpt>
      <trkpt lat="47.54406" lon="6.80769">
        <ele>358.46957397461</ele>
        <time>2019-04-14T10:22:01.000Z</time>
      </trkpt>
      <trkpt lat="47.54389" lon="6.8077">
        <ele>358.17156982422</ele>
        <time>2019-04-14T10:22:04.000Z</time>
      </trkpt>
      <trkpt lat="47.54372" lon="6.80759">
        <ele>358.06414794922</ele>
        <time>2019-04-14T10:22:07.000Z</time>
      </trkpt>
      <trkpt lat="47.54356" lon="6.80747">
        <ele>358.06439208984</ele>
        <time>2019-04-14T10:22:10.000Z</time>
      </trkpt>
      <trkpt lat="47.5434" lon="6.80735">
        <ele>358.12115478516</ele>
        <time>2019-04-14T10:22:13.000Z</time>
      </trkpt>
      <trkpt lat="47.54325" lon="6.80724">
        <ele>358.22290039062</ele>
        <time>2019-04-14T10:22:16.000Z</time>
      </trkpt>
      <trkpt lat="47.5431" lon="6.80714">
        <ele>358.40951538086</ele>
        <time>2019-04-14T10:22:19.000Z</time>
      </trkpt>
      <trkpt lat="47.54296" lon="6.80705">
        <ele>358.66558837891</ele>
        <time>2019-04-14T10:22:22.000Z</time>
      </trkpt>
      <trkpt lat="47.54282" lon="6.80696">
        <ele>358.95889282227</ele>
        <time>2019-04-14T10:22:25.000Z</time>
      </trkpt>
      <trkpt lat="47.54266" lon="6.80688">
        <ele>359.23431396484</ele>
        <time>2019-04-14T10:22:28.000Z</time>
      </trkpt>
      <trkpt lat="47.54253" lon="6.80673">
        <ele>359.48330688477</ele>
        <time>2019-04-14T10:22:31.000Z</time>
      </trkpt>
      <trkpt lat="47.54236" lon="6.80656">
        <ele>359.55670166016</ele>
        <time>2019-04-14T10:22:34.000Z</time>
      </trkpt>
      <trkpt lat="47.54217" lon="6.8064">
        <ele>359.42407226562</ele>
        <time>2019-04-14T10:22:37.000Z</time>
      </trkpt>
      <trkpt lat="47.542" lon="6.80625">
        <ele>359.12362670898</ele>
        <time>2019-04-14T10:22:40.000Z</time>
      </trkpt>
      <trkpt lat="47.54186" lon="6.80603">
        <ele>358.69027709961</ele>
        <time>2019-04-14T10:22:43.000Z</time>
      </trkpt>
      <trkpt lat="47.54172" lon="6.80583">
        <ele>358.13098144531</ele>
        <time>2019-04-14T10:22:46.000Z</time>
      </trkpt>
      <trkpt lat="47.54159" lon="6.80564">
        <ele>357.57550048828</ele>
        <time>2019-04-14T10:22:49.000Z</time>
      </trkpt>
      <trkpt lat="47.54144" lon="6.80546">
        <ele>357.08074951172</ele>
        <time>2019-04-14T10:22:52.000Z</time>
      </trkpt>
      <trkpt lat="47.54127" lon="6.80531">
        <ele>356.62240600586</ele>
        <time>2019-04-14T10:22:55.000Z</time>
      </trkpt>
      <trkpt lat="47.54108" lon="6.80515">
        <ele>356.1875</ele>
        <time>2019-04-14T10:22:58.000Z</time>
      </trkpt>
      <trkpt lat="47.54089" lon="6.80499">
        <ele>355.77633666992</ele>
        <time>2019-04-14T10:23:01.000Z</time>
      </trkpt>
      <trkpt lat="47.54067" lon="6.80483">
        <ele>355.55661010742</ele>
        <time>2019-04-14T10:23:04.000Z</time>
      </trkpt>
      <trkpt lat="47.54049" lon="6.80464">
        <ele>355.50885009766</ele>
        <time>2019-04-14T10:23:07.000Z</time>
      </trkpt>
      <trkpt lat="47.54034" lon="6.8044">
        <ele>355.57482910156</ele>
        <time>2019-04-14T10:23:10.000Z</time>
      </trkpt>
      <trkpt lat="47.54021" lon="6.80414">
        <ele>355.7021484375</ele>
        <time>2019-04-14T10:23:13.000Z</time>
      </trkpt>
      <trkpt lat="47.54006" lon="6.80387">
        <ele>355.82733154297</ele>
        <time>2019-04-14T10:23:16.000Z</time>
      </trkpt>
      <trkpt lat="47.53991" lon="6.80359">
        <ele>355.87713623047</ele>
        <time>2019-04-14T10:23:19.000Z</time>
      </trkpt>
      <trkpt lat="47.53976" lon="6.80333">
        <ele>355.92504882812</ele>
        <time>2019-04-14T10:23:22.000Z</time>
      </trkpt>
      <trkpt lat="47.53962" lon="6.80306">
        <ele>356.01959228516</ele>
        <time>2019-04-14T10:23:25.000Z</time>
      </trkpt>
      <trkpt lat="47.53949" lon="6.80278">
        <ele>356.15283203125</ele>
        <time>2019-04-14T10:23:28.000Z</time>
      </trkpt>
      <trkpt lat="47.53936" lon="6.80249">
        <ele>356.31317138672</ele>
        <time>2019-04-14T10:23:31.000Z</time>
      </trkpt>
      <trkpt lat="47.53926" lon="6.80217">
        <ele>356.30722045898</ele>
        <time>2019-04-14T10:23:34.000Z</time>
      </trkpt>
      <trkpt lat="47.53913" lon="6.80188">
        <ele>356.08285522461</ele>
        <time>2019-04-14T10:23:37.000Z</time>
      </trkpt>
      <trkpt lat="47.53901" lon="6.80161">
        <ele>355.7580871582</ele>
        <time>2019-04-14T10:23:40.000Z</time>
      </trkpt>
      <trkpt lat="47.53889" lon="6.80137">
        <ele>355.35848999023</ele>
        <time>2019-04-14T10:23:43.000Z</time>
      </trkpt>
      <trkpt lat="47.53879" lon="6.80116">
        <ele>354.97686767578</ele>
        <time>2019-04-14T10:23:46.000Z</time>
      </trkpt>
      <trkpt lat="47.53869" lon="6.80095">
        <ele>354.72817993164</ele>
        <time>2019-04-14T10:23:49.000Z</time>
      </trkpt>
      <trkpt lat="47.5386" lon="6.80073">
        <ele>354.64129638672</ele>
        <time>2019-04-14T10:23:52.000Z</time>
      </trkpt>
      <trkpt lat="47.53852" lon="6.8005">
        <ele>354.646484375</ele>
        <time>2019-04-14T10:23:55.000Z</time>
      </trkpt>
      <trkpt lat="47.53843" lon="6.80028">
        <ele>354.73236083984</ele>
        <time>2019-04-14T10:23:58.000Z</time>
      </trkpt>
      <trkpt lat="47.53834" lon="6.8001">
        <ele>354.85931396484</ele>
        <time>2019-04-14T10:24:01.000Z</time>
      </trkpt>
      <trkpt lat="47.53831" lon="6.7999">
        <ele>354.9157409668</ele>
        <time>2019-04-14T10:24:04.000Z</time>
      </trkpt>
      <trkpt lat="47.53847" lon="6.79971">
        <ele>354.64630126953</ele>
        <time>2019-04-14T10:24:07.000Z</time>
      </trkpt>
      <trkpt lat="47.53866" lon="6.79948">
        <ele>354.09497070312</ele>
        <time>2019-04-14T10:24:10.000Z</time>
      </trkpt>
      <trkpt lat="47.53873" lon="6.79909">
        <ele>353.31112670898</ele>
        <time>2019-04-14T10:24:13.000Z</time>
      </trkpt>
      <trkpt lat="47.53875" lon="6.79871">
        <ele>352.18023681641</ele>
        <time>2019-04-14T10:24:16.000Z</time>
      </trkpt>
      <trkpt lat="47.53886" lon="6.79848">
        <ele>351.04190063477</ele>
        <time>2019-04-14T10:24:19.000Z</time>
      </trkpt>
      <trkpt lat="47.53893" lon="6.79827">
        <ele>350.15713500977</ele>
        <time>2019-04-14T10:24:22.000Z</time>
      </trkpt>
      <trkpt lat="47.53885" lon="6.79801">
        <ele>349.36260986328</ele>
        <time>2019-04-14T10:24:25.000Z</time>
      </trkpt>
      <trkpt lat="47.53878" lon="6.79771">
        <ele>348.62713623047</ele>
        <time>2019-04-14T10:24:28.000Z</time>
      </trkpt>
      <trkpt lat="47.5387" lon="6.79742">
        <ele>348.03909301758</ele>
        <time>2019-04-14T10:24:31.000Z</time>
      </trkpt>
      <trkpt lat="47.53857" lon="6.79708">
        <ele>347.32913208008</ele>
        <time>2019-04-14T10:24:34.000Z</time>
      </trkpt>
      <trkpt lat="47.53843" lon="6.79673">
        <ele>346.35308837891</ele>
        <time>2019-04-14T10:24:37.000Z</time>
      </trkpt>
      <trkpt lat="47.53824" lon="6.79639">
        <ele>345.6569519043</ele>
        <time>2019-04-14T10:24:40.000Z</time>
      </trkpt>
      <trkpt lat="47.53801" lon="6.79613">
        <ele>345.10748291016</ele>
        <time>2019-04-14T10:24:43.000Z</time>
      </trkpt>
      <trkpt lat="47.53779" lon="6.79583">
        <ele>344.41448974609</ele>
        <time>2019-04-14T10:24:46.000Z</time>
      </trkpt>
      <trkpt lat="47.53757" lon="6.79554">
        <ele>343.63607788086</ele>
        <time>2019-04-14T10:24:49.000Z</time>
      </trkpt>
      <trkpt lat="47.53735" lon="6.79526">
        <ele>343.01309204102</ele>
        <time>2019-04-14T10:24:52.000Z</time>
      </trkpt>
      <trkpt lat="47.53712" lon="6.795">
        <ele>341.92141723633</ele>
        <time>2019-04-14T10:24:55.000Z</time>
      </trkpt>
      <trkpt lat="47.53687" lon="6.79479">
        <ele>340.47616577148</ele>
        <time>2019-04-14T10:24:58.000Z</time>
      </trkpt>
      <trkpt lat="47.53664" lon="6.79449">
        <ele>338.91827392578</ele>
        <time>2019-04-14T10:25:01.000Z</time>
      </trkpt>
      <trkpt lat="47.53641" lon="6.79421">
        <ele>337.38467407227</ele>
        <time>2019-04-14T10:25:04.000Z</time>
      </trkpt>
      <trkpt lat="47.53622" lon="6.79392">
        <ele>335.57391357422</ele>
        <time>2019-04-14T10:25:07.000Z</time>
      </trkpt>
      <trkpt lat="47.53606" lon="6.79367">
        <ele>333.58218383789</ele>
        <time>2019-04-14T10:25:10.000Z</time>
      </trkpt>
      <trkpt lat="47.53596" lon="6.79348">
        <ele>331.53900146484</ele>
        <time>2019-04-14T10:25:13.000Z</time>
      </trkpt>
      <trkpt lat="47.53603" lon="6.79333">
        <ele>329.88076782227</ele>
        <time>2019-04-14T10:25:16.000Z</time>
      </trkpt>
      <trkpt lat="47.53601" lon="6.7933">
        <ele>328.44119262695</ele>
        <time>2019-04-14T10:25:19.000Z</time>
      </trkpt>
      <trkpt lat="47.53594" lon="6.79341">
        <ele>327.40985107422</ele>
        <time>2019-04-14T10:25:22.000Z</time>
      </trkpt>
      <trkpt lat="47.53583" lon="6.79346">
        <ele>326.73309326172</ele>
        <time>2019-04-14T10:25:25.000Z</time>
      </trkpt>
      <trkpt lat="47.53571" lon="6.79351">
        <ele>326.43310546875</ele>
        <time>2019-04-14T10:25:28.000Z</time>
      </trkpt>
      <trkpt lat="47.53567" lon="6.79349">
        <ele>326.10864257812</ele>
        <time>2019-04-14T10:25:31.000Z</time>
      </trkpt>
      <trkpt lat="47.53572" lon="6.79343">
        <ele>325.81051635742</ele>
        <time>2019-04-14T10:25:34.000Z</time>
      </trkpt>
      <trkpt lat="47.53582" lon="6.79342">
        <ele>325.60455322266</ele>
        <time>2019-04-14T10:25:37.000Z</time>
      </trkpt>
      <trkpt lat="47.53592" lon="6.79338">
        <ele>325.67071533203</ele>
        <time>2019-04-14T10:25:40.000Z</time>
      </trkpt>
      <trkpt lat="47.53601" lon="6.79322">
        <ele>325.82135009766</ele>
        <time>2019-04-14T10:25:43.000Z</time>
      </trkpt>
      <trkpt lat="47.53607" lon="6.79301">
        <ele>326.03045654297</ele>
        <time>2019-04-14T10:25:46.000Z</time>
      </trkpt>
      <trkpt lat="47.5361" lon="6.79272">
        <ele>326.16040039062</ele>
        <time>2019-04-14T10:25:49.000Z</time>
      </trkpt>
      <trkpt lat="47.53606" lon="6.7925">
        <ele>326</ele>
        <time>2019-04-14T10:25:52.000Z</time>
      </trkpt>
      <trkpt lat="47.53605" lon="6.79246">
        <ele>325.64501953125</ele>
        <time>2019-04-14T10:25:55.000Z</time>
      </trkpt>
      <trkpt lat="47.53604" lon="6.79246">
        <ele>325.20965576172</ele>
        <time>2019-04-14T10:26:12.000Z</time>
      </trkpt>
      <trkpt lat="47.536" lon="6.7924">
        <ele>324.66961669922</ele>
        <time>2019-04-14T10:26:15.000Z</time>
      </trkpt>
      <trkpt lat="47.53593" lon="6.7923">
        <ele>324.04528808594</ele>
        <time>2019-04-14T10:26:18.000Z</time>
      </trkpt>
      <trkpt lat="47.5358" lon="6.79216">
        <ele>323.37881469727</ele>
        <time>2019-04-14T10:26:21.000Z</time>
      </trkpt>
      <trkpt lat="47.53568" lon="6.79195">
        <ele>322.62750244141</ele>
        <time>2019-04-14T10:26:24.000Z</time>
      </trkpt>
      <trkpt lat="47.53553" lon="6.79169">
        <ele>321.74111938477</ele>
        <time>2019-04-14T10:26:27.000Z</time>
      </trkpt>
      <trkpt lat="47.53542" lon="6.79144">
        <ele>320.8818359375</ele>
        <time>2019-04-14T10:26:30.000Z</time>
      </trkpt>
      <trkpt lat="47.53531" lon="6.79122">
        <ele>320.1708984375</ele>
        <time>2019-04-14T10:26:33.000Z</time>
      </trkpt>
      <trkpt lat="47.53519" lon="6.79102">
        <ele>319.70465087891</ele>
        <time>2019-04-14T10:26:36.000Z</time>
      </trkpt>
      <trkpt lat="47.53509" lon="6.79084">
        <ele>319.38232421875</ele>
        <time>2019-04-14T10:26:39.000Z</time>
      </trkpt>
      <trkpt lat="47.53497" lon="6.79076">
        <ele>319.17636108398</ele>
        <time>2019-04-14T10:26:42.000Z</time>
      </trkpt>
      <trkpt lat="47.5349" lon="6.79068">
        <ele>319.04547119141</ele>
        <time>2019-04-14T10:26:45.000Z</time>
      </trkpt>
      <trkpt lat="47.53479" lon="6.79065">
        <ele>318.97451782227</ele>
        <time>2019-04-14T10:26:48.000Z</time>
      </trkpt>
      <trkpt lat="47.53468" lon="6.79073">
        <ele>318.94686889648</ele>
        <time>2019-04-14T10:26:51.000Z</time>
      </trkpt>
      <trkpt lat="47.53455" lon="6.79082">
        <ele>318.92715454102</ele>
        <time>2019-04-14T10:26:54.000Z</time>
      </trkpt>
      <trkpt lat="47.53443" lon="6.79093">
        <ele>318.92172241211</ele>
        <time>2019-04-14T10:26:57.000Z</time>
      </trkpt>
      <trkpt lat="47.53437" lon="6.7911">
        <ele>318.88665771484</ele>
        <time>2019-04-14T10:27:00.000Z</time>
      </trkpt>
      <trkpt lat="47.53441" lon="6.79128">
        <ele>318.80035400391</ele>
        <time>2019-04-14T10:27:03.000Z</time>
      </trkpt>
      <trkpt lat="47.53452" lon="6.79142">
        <ele>318.66494750977</ele>
        <time>2019-04-14T10:27:06.000Z</time>
      </trkpt>
      <trkpt lat="47.53466" lon="6.79148">
        <ele>318.50988769531</ele>
        <time>2019-04-14T10:27:09.000Z</time>
      </trkpt>
      <trkpt lat="47.53476" lon="6.79159">
        <ele>318.3505859375</ele>
        <time>2019-04-14T10:27:12.000Z</time>
      </trkpt>
      <trkpt lat="47.53482" lon="6.79177">
        <ele>318.20367431641</ele>
        <time>2019-04-14T10:27:15.000Z</time>
      </trkpt>
      <trkpt lat="47.53488" lon="6.79195">
        <ele>318.09237670898</ele>
        <time>2019-04-14T10:27:18.000Z</time>
      </trkpt>
      <trkpt lat="47.53495" lon="6.79209">
        <ele>318.02197265625</ele>
        <time>2019-04-14T10:27:21.000Z</time>
      </trkpt>
      <trkpt lat="47.53504" lon="6.79222">
        <ele>318.01028442383</ele>
        <time>2019-04-14T10:27:24.000Z</time>
      </trkpt>
      <trkpt lat="47.5351" lon="6.79238">
        <ele>318.08023071289</ele>
        <time>2019-04-14T10:27:27.000Z</time>
      </trkpt>
      <trkpt lat="47.53512" lon="6.79256">
        <ele>318.25006103516</ele>
        <time>2019-04-14T10:27:30.000Z</time>
      </trkpt>
      <trkpt lat="47.53506" lon="6.79273">
        <ele>318.50253295898</ele>
        <time>2019-04-14T10:27:33.000Z</time>
      </trkpt>
      <trkpt lat="47.53498" lon="6.79288">
        <ele>318.77392578125</ele>
        <time>2019-04-14T10:27:36.000Z</time>
      </trkpt>
      <trkpt lat="47.53489" lon="6.793">
        <ele>319.03228759766</ele>
        <time>2019-04-14T10:27:39.000Z</time>
      </trkpt>
      <trkpt lat="47.53478" lon="6.7931">
        <ele>319.22955322266</ele>
        <time>2019-04-14T10:27:42.000Z</time>
      </trkpt>
      <trkpt lat="47.53467" lon="6.79318">
        <ele>319.33993530273</ele>
        <time>2019-04-14T10:27:45.000Z</time>
      </trkpt>
      <trkpt lat="47.53455" lon="6.7932">
        <ele>319.30484008789</ele>
        <time>2019-04-14T10:27:48.000Z</time>
      </trkpt>
      <trkpt lat="47.53443" lon="6.79314">
        <ele>319.12884521484</ele>
        <time>2019-04-14T10:27:51.000Z</time>
      </trkpt>
      <trkpt lat="47.53432" lon="6.79308">
        <ele>318.81564331055</ele>
        <time>2019-04-14T10:27:54.000Z</time>
      </trkpt>
      <trkpt lat="47.53421" lon="6.79302">
        <ele>318.40997314453</ele>
        <time>2019-04-14T10:27:57.000Z</time>
      </trkpt>
      <trkpt lat="47.53411" lon="6.79306">
        <ele>318.00250244141</ele>
        <time>2019-04-14T10:28:00.000Z</time>
      </trkpt>
      <trkpt lat="47.53401" lon="6.79314">
        <ele>317.69332885742</ele>
        <time>2019-04-14T10:28:03.000Z</time>
      </trkpt>
      <trkpt lat="47.53393" lon="6.79323">
        <ele>317.51629638672</ele>
        <time>2019-04-14T10:28:06.000Z</time>
      </trkpt>
      <trkpt lat="47.53391" lon="6.79333">
        <ele>317.47500610352</ele>
        <time>2019-04-14T10:28:09.000Z</time>
      </trkpt>
      <trkpt lat="47.5339" lon="6.79348">
        <ele>317.72616577148</ele>
        <time>2019-04-14T10:28:12.000Z</time>
      </trkpt>
      <trkpt lat="47.53387" lon="6.79364">
        <ele>318.17694091797</ele>
        <time>2019-04-14T10:28:15.000Z</time>
      </trkpt>
      <trkpt lat="47.53381" lon="6.79377">
        <ele>318.70816040039</ele>
        <time>2019-04-14T10:28:18.000Z</time>
      </trkpt>
      <trkpt lat="47.53373" lon="6.79389">
        <ele>319.27053833008</ele>
        <time>2019-04-14T10:28:21.000Z</time>
      </trkpt>
      <trkpt lat="47.53366" lon="6.79402">
        <ele>319.86669921875</ele>
        <time>2019-04-14T10:28:24.000Z</time>
      </trkpt>
      <trkpt lat="47.53359" lon="6.79414">
        <ele>320.28695678711</ele>
        <time>2019-04-14T10:28:27.000Z</time>
      </trkpt>
      <trkpt lat="47.53349" lon="6.7942">
        <ele>320.42446899414</ele>
        <time>2019-04-14T10:28:30.000Z</time>
      </trkpt>
      <trkpt lat="47.53336" lon="6.79422">
        <ele>320.27981567383</ele>
        <time>2019-04-14T10:28:33.000Z</time>
      </trkpt>
      <trkpt lat="47.53325" lon="6.79422">
        <ele>320.02481079102</ele>
        <time>2019-04-14T10:28:36.000Z</time>
      </trkpt>
      <trkpt lat="47.53312" lon="6.79423">
        <ele>319.67303466797</ele>
        <time>2019-04-14T10:28:39.000Z</time>
      </trkpt>
      <trkpt lat="47.533" lon="6.79425">
        <ele>319.28762817383</ele>
        <time>2019-04-14T10:28:42.000Z</time>
      </trkpt>
      <trkpt lat="47.5329" lon="6.79425">
        <ele>318.97286987305</ele>
        <time>2019-04-14T10:28:45.000Z</time>
      </trkpt>
      <trkpt lat="47.53278" lon="6.79423">
        <ele>318.79043579102</ele>
        <time>2019-04-14T10:28:48.000Z</time>
      </trkpt>
      <trkpt lat="47.53267" lon="6.79424">
        <ele>318.64184570312</ele>
        <time>2019-04-14T10:28:51.000Z</time>
      </trkpt>
      <trkpt lat="47.53256" lon="6.79426">
        <ele>318.49908447266</ele>
        <time>2019-04-14T10:28:54.000Z</time>
      </trkpt>
      <trkpt lat="47.53244" lon="6.79424">
        <ele>318.35137939453</ele>
        <time>2019-04-14T10:28:57.000Z</time>
      </trkpt>
      <trkpt lat="47.53234" lon="6.7943">
        <ele>318.24838256836</ele>
        <time>2019-04-14T10:29:00.000Z</time>
      </trkpt>
      <trkpt lat="47.53226" lon="6.79443">
        <ele>318.21801757812</ele>
        <time>2019-04-14T10:29:03.000Z</time>
      </trkpt>
      <trkpt lat="47.53219" lon="6.79456">
        <ele>318.24719238281</ele>
        <time>2019-04-14T10:29:06.000Z</time>
      </trkpt>
      <trkpt lat="47.53209" lon="6.79464">
        <ele>318.32104492188</ele>
        <time>2019-04-14T10:29:09.000Z</time>
      </trkpt>
      <trkpt lat="47.53201" lon="6.79474">
        <ele>318.44116210938</ele>
        <time>2019-04-14T10:29:12.000Z</time>
      </trkpt>
      <trkpt lat="47.53193" lon="6.79485">
        <ele>318.57287597656</ele>
        <time>2019-04-14T10:29:15.000Z</time>
      </trkpt>
      <trkpt lat="47.53184" lon="6.79497">
        <ele>318.70361328125</ele>
        <time>2019-04-14T10:29:18.000Z</time>
      </trkpt>
      <trkpt lat="47.53175" lon="6.79508">
        <ele>318.83001708984</ele>
        <time>2019-04-14T10:29:21.000Z</time>
      </trkpt>
      <trkpt lat="47.53168" lon="6.79516">
        <ele>318.95516967773</ele>
        <time>2019-04-14T10:29:24.000Z</time>
      </trkpt>
      <trkpt lat="47.53162" lon="6.7952">
        <ele>319.11291503906</ele>
        <time>2019-04-14T10:29:27.000Z</time>
      </trkpt>
      <trkpt lat="47.53155" lon="6.79518">
        <ele>319.31594848633</ele>
        <time>2019-04-14T10:29:30.000Z</time>
      </trkpt>
      <trkpt lat="47.53147" lon="6.79508">
        <ele>319.56451416016</ele>
        <time>2019-04-14T10:29:33.000Z</time>
      </trkpt>
      <trkpt lat="47.53139" lon="6.79498">
        <ele>319.86895751953</ele>
        <time>2019-04-14T10:29:36.000Z</time>
      </trkpt>
      <trkpt lat="47.53132" lon="6.79488">
        <ele>320.18862915039</ele>
        <time>2019-04-14T10:29:38.000Z</time>
      </trkpt>
      <trkpt lat="47.53123" lon="6.79474">
        <ele>320.49029541016</ele>
        <time>2019-04-14T10:29:41.000Z</time>
      </trkpt>
      <trkpt lat="47.53115" lon="6.79463">
        <ele>320.74041748047</ele>
        <time>2019-04-14T10:29:44.000Z</time>
      </trkpt>
      <trkpt lat="47.53107" lon="6.79452">
        <ele>320.93585205078</ele>
        <time>2019-04-14T10:29:47.000Z</time>
      </trkpt>
      <trkpt lat="47.53099" lon="6.79444">
        <ele>321.07241821289</ele>
        <time>2019-04-14T10:29:50.000Z</time>
      </trkpt>
      <trkpt lat="47.53093" lon="6.79437">
        <ele>321.18362426758</ele>
        <time>2019-04-14T10:29:53.000Z</time>
      </trkpt>
      <trkpt lat="47.53091" lon="6.79434">
        <ele>321.24786376953</ele>
        <time>2019-04-14T10:29:56.000Z</time>
      </trkpt>
      <trkpt lat="47.5309" lon="6.79437">
        <ele>321.32354736328</ele>
        <time>2019-04-14T10:30:03.000Z</time>
      </trkpt>
      <trkpt lat="47.53089" lon="6.79439">
        <ele>321.40167236328</ele>
        <time>2019-04-14T10:30:23.000Z</time>
      </trkpt>
      <trkpt lat="47.53089" lon="6.79439">
        <ele>321.40167236328</ele>
        <time>2019-04-14T10:30:43.000Z</time>
      </trkpt>
      <trkpt lat="47.53089" lon="6.79437">
        <ele>321.43902587891</ele>
        <time>2019-04-14T10:30:49.000Z</time>
      </trkpt>
      <trkpt lat="47.5309" lon="6.79435">
        <ele>321.45208740234</ele>
        <time>2019-04-14T10:30:59.000Z</time>
      </trkpt>
      <trkpt lat="47.5309" lon="6.79435">
        <ele>321.45208740234</ele>
        <time>2019-04-14T10:31:08.000Z</time>
      </trkpt>
    </trkseg>
  </trk>
</gpx>